
Distance (Route):
Temperature : 12.9°C
Humidity : 69.8%
Pressure : 0hPa| Receiver | Frames | First received | Last received |
|---|---|---|---|
| OE5MMP-10 | 328 | 2026-09-03 02:18:49 | 2026-09-03 03:25:43 |
| OE3JTB-15 | 203 | 2026-09-03 02:17:06 | 2026-09-03 03:35:01 |
| DO3MHA-12 | 191 | 2026-09-03 02:24:37 | 2026-09-03 03:23:18 |
| OE5WHR-10 | 185 | 2026-09-03 02:15:25 | 2026-09-03 03:33:36 |
| OM5KV | 156 | 2026-09-03 02:41:28 | 2026-09-03 03:30:27 |
| OE5DRO-10 | 153 | 2026-09-03 02:15:05 | 2026-09-03 03:33:28 |
| PG1ADW-2 | 146 | 2026-09-03 02:16:59 | 2026-09-03 03:33:40 |
| PETON7-10 | 144 | 2026-09-03 02:27:58 | 2026-09-03 03:26:35 |
| OE5DXL-15 | 133 | 2026-09-03 02:17:45 | 2026-09-03 03:30:38 |
| OE8JPQ-2 | 102 | 2026-09-03 02:41:58 | 2026-09-03 03:25:40 |
| OE5FHM-15 | 90 | 2026-09-03 02:18:20 | 2026-09-03 03:22:37 |
| OE5HKT-10 | 81 | 2026-09-03 02:16:16 | 2026-09-03 03:12:28 |
| OE5REO-15 | 73 | 2026-09-03 02:35:37 | 2026-09-03 03:12:33 |
| OE3OSB-13 | 67 | 2026-09-03 02:35:15 | 2026-09-03 03:32:48 |
| S52SK | 62 | 2026-09-03 02:26:57 | 2026-09-03 03:31:56 |
| DG1MFX-10 | 16 | 2026-09-03 02:32:55 | 2026-09-03 02:59:33 |
| OK1ALN | 16 | 2026-09-03 02:54:50 | 2026-09-03 03:06:43 |
| DB0NH | 14 | 2026-09-03 02:42:52 | 2026-09-03 02:52:08 |
| NBG1-10 | 4 | 2026-09-03 02:40:18 | 2026-09-03 03:15:19 |
| DL6DJ-15 | 4 | 2026-09-03 03:08:27 | 2026-09-03 03:10:00 |
| Receiver | Date | Latitude | Longitude | Direction | Speed | Altitude | Climb | Temperature | Humidity | Pressure | Voltage | Killtimer | Uptime | BKT | XDATA |
|---|---|---|---|---|---|---|---|---|---|---|---|---|---|---|---|
| OE3JTB-15 | 2026-09-03 03:35:01 | 47.65515 | 15.15441 | 77° | 9km/h | 1429m | -10.8m/s | 12.9°C | 69.8% | 0hPa | 2.7V | 00:00:00 | 01:46:19 | 00:00:00 | |
| OE3JTB-15 | 2026-09-03 03:34:59 | 47.65513 | 15.15434 | 81° | 11km/h | 1450m | -10.5m/s | 12.8°C | 70.2% | 0hPa | 2.7V | 08:06:00 | 00:00:00 | 00:00:00 | |
| OE3JTB-15 | 2026-09-03 03:34:57 | 47.65510 | 15.15425 | 63° | 13km/h | 1469m | -9.1m/s | 12.7°C | 70.8% | 0hPa | 2.6V | 00:00:00 | 00:00:00 | 00:00:00 | |
| OE3JTB-15 | 2026-09-03 03:34:55 | 47.65508 | 15.15416 | 65° | 11km/h | 1489m | -8.4m/s | 12.5°C | 71.6% | 0hPa | 2.6V | 00:00:00 | 01:46:13 | 00:00:00 | |
| OE3JTB-15 | 2026-09-03 03:34:53 | 47.65506 | 15.15408 | 66° | 13km/h | 1509m | -11.7m/s | 12.4°C | 71.9% | 0hPa | 2.6V | 00:00:00 | 00:00:00 | 00:00:00 | |
| OE3JTB-15 | 2026-09-03 03:34:51 | 47.65503 | 15.15399 | 80° | 15km/h | 1529m | -8.1m/s | 12.2°C | 72.5% | 0hPa | 2.7V | 00:00:00 | 00:00:00 | 00:00:00 | |
| OE3JTB-15 | 2026-09-03 03:34:49 | 47.65501 | 15.15388 | 76° | 15km/h | 1547m | -9.4m/s | 12.2°C | 72.9% | 0hPa | 2.7V | 00:00:00 | 01:46:07 | 00:00:00 | |
| OE3JTB-15 | 2026-09-03 03:34:47 | 47.65499 | 15.15376 | 78° | 16km/h | 1567m | -8.3m/s | 12.0°C | 73.3% | 0hPa | 2.7V | 00:00:00 | 00:00:00 | 00:00:00 | |
| OE3JTB-15 | 2026-09-03 03:34:45 | 47.65496 | 15.15364 | 71° | 16km/h | 1585m | -7.9m/s | 11.9°C | 73.9% | 0hPa | 2.7V | 00:00:00 | 00:00:00 | 00:00:00 | |
| OE3JTB-15 | 2026-09-03 03:34:43 | 47.65495 | 15.15352 | 74° | 16km/h | 1601m | -9.2m/s | 11.7°C | 74.6% | 0hPa | 2.7V | 00:00:00 | 01:46:01 | 00:00:00 | |
| OE3JTB-15 | 2026-09-03 03:34:41 | 47.65492 | 15.15339 | 77° | 18km/h | 1617m | -9.5m/s | 11.6°C | 75.3% | 0hPa | 2.7V | 08:06:00 | 00:00:00 | 00:00:00 | |
| OE3JTB-15 | 2026-09-03 03:34:39 | 47.65491 | 15.15326 | 80° | 16km/h | 1635m | -9.0m/s | 11.5°C | 75.5% | 0hPa | 2.7V | 00:00:00 | 00:00:00 | 00:00:00 | |
| OE3JTB-15 | 2026-09-03 03:34:37 | 47.65489 | 15.15312 | 80° | 22km/h | 1651m | -6.7m/s | 11.3°C | 77.1% | 0hPa | 2.7V | 00:00:00 | 01:45:55 | 00:00:00 | |
| OE3JTB-15 | 2026-09-03 03:34:35 | 47.65487 | 15.15297 | 78° | 18km/h | 1668m | -8.3m/s | 11.2°C | 77.8% | 0hPa | 2.7V | 00:00:00 | 00:00:00 | 00:00:00 | |
| OE3JTB-15 | 2026-09-03 03:34:33 | 47.65485 | 15.15282 | 83° | 20km/h | 1686m | -8.4m/s | 11.1°C | 77.1% | 0hPa | 2.6V | 00:00:00 | 00:00:00 | 00:00:00 | |
| OE3JTB-15 | 2026-09-03 03:34:31 | 47.65483 | 15.15268 | 80° | 18km/h | 1701m | -8.9m/s | 11.0°C | 77.0% | 0hPa | 2.6V | 00:00:00 | 01:45:49 | 00:00:00 | |
| OE3JTB-15 | 2026-09-03 03:34:29 | 47.65482 | 15.15253 | 87° | 20km/h | 1718m | -7.6m/s | 10.8°C | 77.9% | 0hPa | 2.6V | 00:00:00 | 00:00:00 | 00:00:00 | |
| OE3JTB-15 | 2026-09-03 03:34:27 | 47.65480 | 15.15238 | 79° | 20km/h | 1732m | -8.4m/s | 10.7°C | 78.6% | 0hPa | 2.7V | 00:00:00 | 00:00:00 | 00:00:00 | |
| OE3JTB-15 | 2026-09-03 03:34:25 | 47.65479 | 15.15223 | 86° | 20km/h | 1749m | -8.0m/s | 10.5°C | 79.5% | 0hPa | 2.7V | 00:00:00 | 01:45:43 | 00:00:00 | |
| OE3JTB-15 | 2026-09-03 03:34:23 | 47.65477 | 15.15206 | 81° | 24km/h | 1768m | -8.5m/s | 10.3°C | 80.1% | 0hPa | 2.7V | 08:06:00 | 00:00:00 | 00:00:00 | |
| OE3JTB-15 | 2026-09-03 03:34:21 | 47.65476 | 15.15188 | 89° | 26km/h | 1784m | -9.1m/s | 10.2°C | 80.7% | 0hPa | 2.7V | 00:00:00 | 00:00:00 | 00:00:00 | |
| OE3JTB-15 | 2026-09-03 03:34:19 | 47.65476 | 15.15169 | 94° | 26km/h | 1802m | -10.1m/s | 10.1°C | 81.1% | 0hPa | 2.7V | 00:00:00 | 01:45:37 | 00:00:00 | |
| OE3JTB-15 | 2026-09-03 03:34:17 | 47.65476 | 15.15150 | 93° | 26km/h | 1819m | -7.8m/s | 10.0°C | 80.8% | 0hPa | 2.7V | 00:00:00 | 00:00:00 | 00:00:00 | |
| OE3JTB-15 | 2026-09-03 03:34:15 | 47.65477 | 15.15130 | 95° | 26km/h | 1837m | -9.0m/s | 9.9°C | 80.3% | 0hPa | 2.7V | 00:00:00 | 00:00:00 | 00:00:00 | |
| OE3JTB-15 | 2026-09-03 03:34:13 | 47.65477 | 15.15111 | 89° | 27km/h | 1853m | -9.2m/s | 9.9°C | 78.6% | 0hPa | 2.7V | 00:00:00 | 01:45:31 | 00:00:00 | |
| OE3JTB-15 | 2026-09-03 03:34:11 | 47.65477 | 15.15090 | 91° | 29km/h | 1871m | -9.5m/s | 9.9°C | 76.8% | 0hPa | 2.7V | 00:00:00 | 00:00:00 | 00:00:00 | |
| OE3JTB-15 | 2026-09-03 03:34:09 | 47.65478 | 15.15068 | 91° | 29km/h | 1888m | -9.6m/s | 9.8°C | 76.3% | 0hPa | 2.7V | 00:00:00 | 00:00:00 | 00:00:00 | |
| OE3JTB-15 | 2026-09-03 03:34:07 | 47.65479 | 15.15046 | 94° | 29km/h | 1905m | -8.6m/s | 9.6°C | 77.5% | 0hPa | 2.7V | 00:00:00 | 01:45:25 | 00:00:00 | |
| OE3JTB-15 | 2026-09-03 03:34:05 | 47.65480 | 15.15023 | 92° | 31km/h | 1921m | -8.3m/s | 9.4°C | 78.3% | 0hPa | 2.7V | 08:07:00 | 00:00:00 | 00:00:00 | |
| OE3JTB-15 | 2026-09-03 03:34:03 | 47.65481 | 15.15000 | 93° | 33km/h | 1937m | -8.9m/s | 9.3°C | 78.9% | 0hPa | 2.6V | 00:00:00 | 00:00:00 | 00:00:00 | |
| OE3JTB-15 | 2026-09-03 03:34:01 | 47.65483 | 15.14975 | 95° | 33km/h | 1955m | -7.8m/s | 9.3°C | 77.3% | 0hPa | 2.6V | 00:00:00 | 01:45:19 | 00:00:00 | |
| OE3JTB-15 | 2026-09-03 03:33:59 | 47.65484 | 15.14951 | 95° | 33km/h | 1972m | -9.6m/s | 9.1°C | 79.1% | 0hPa | 2.6V | 00:00:00 | 00:00:00 | 00:00:00 | |
| OE3JTB-15 | 2026-09-03 03:33:57 | 47.65486 | 15.14926 | 97° | 33km/h | 1990m | -8.4m/s | 9.0°C | 76.4% | 0hPa | 2.7V | 00:00:00 | 00:00:00 | 00:00:00 | |
| OE3JTB-15 | 2026-09-03 03:33:55 | 47.65488 | 15.14901 | 98° | 33km/h | 2006m | -6.9m/s | 8.9°C | 76.6% | 0hPa | 2.7V | 00:00:00 | 01:45:13 | 00:00:00 | |
| OE3JTB-15 | 2026-09-03 03:33:53 | 47.65489 | 15.14876 | 94° | 35km/h | 2023m | -9.9m/s | 8.8°C | 76.9% | 0hPa | 2.7V | 00:00:00 | 00:00:00 | 00:00:00 | |
| OE3JTB-15 | 2026-09-03 03:33:51 | 47.65491 | 15.14849 | 100° | 35km/h | 2041m | -10.0m/s | 8.6°C | 78.1% | 0hPa | 2.7V | 00:00:00 | 00:00:00 | 00:00:00 | |
| OE3JTB-15 | 2026-09-03 03:33:49 | 47.65493 | 15.14825 | 96° | 33km/h | 2058m | -9.5m/s | 8.4°C | 79.6% | 0hPa | 2.7V | 00:00:00 | 01:45:07 | 00:00:00 | |
| OE3JTB-15 | 2026-09-03 03:33:47 | 47.65495 | 15.14799 | 98° | 35km/h | 2077m | -9.4m/s | 8.2°C | 80.6% | 0hPa | 2.7V | 08:07:00 | 00:00:00 | 00:00:00 | |
| OE3JTB-15 | 2026-09-03 03:33:45 | 47.65497 | 15.14773 | 96° | 35km/h | 2094m | -9.7m/s | 8.1°C | 81.3% | 0hPa | 2.7V | 00:00:00 | 00:00:00 | 00:00:00 | |
| OE3JTB-15 | 2026-09-03 03:33:43 | 47.65499 | 15.14747 | 95° | 35km/h | 2113m | -9.9m/s | 7.9°C | 81.7% | 0hPa | 2.7V | 00:00:00 | 01:45:01 | 00:00:00 | |
| OE3JTB-15 | 2026-09-03 03:33:41 | 47.65501 | 15.14722 | 95° | 35km/h | 2131m | -9.6m/s | 7.8°C | 81.6% | 0hPa | 2.7V | 00:00:00 | 00:00:00 | 00:00:00 | |
| PG1ADW-2 | 2026-09-03 03:33:40 | 47.65502 | 15.14709 | 94° | 38km/h | 2141m | -10.3m/s | 7.7°C | 81.8% | 0hPa | 2.7V | 08:07:00 | 00:00:00 | 00:00:00 | |
| OE3JTB-15 | 2026-09-03 03:33:39 | 47.65503 | 15.14696 | 99° | 33km/h | 2150m | -7.7m/s | 7.7°C | 82.4% | 0hPa | 2.7V | 00:00:00 | 00:00:00 | 00:00:00 | |
| OE3JTB-15 | 2026-09-03 03:33:37 | 47.65505 | 15.14671 | 94° | 37km/h | 2167m | -9.8m/s | 7.5°C | 83.1% | 0hPa | 2.7V | 00:00:00 | 01:44:55 | 00:00:00 | |
| OE5WHR-10 | 2026-09-03 03:33:36 | 47.65506 | 15.14658 | 97° | 37km/h | 2176m | -9.8m/s | 7.4°C | 83.3% | 0hPa | 2.7V | 00:00:00 | 00:00:00 | 00:00:00 | |
| OE3JTB-15 | 2026-09-03 03:33:35 | 47.65507 | 15.14644 | 97° | 37km/h | 2185m | -9.2m/s | 7.4°C | 83.1% | 0hPa | 2.7V | 00:00:00 | 00:00:00 | 00:00:00 | |
| OE3JTB-15 | 2026-09-03 03:33:33 | 47.65510 | 15.14617 | 100° | 35km/h | 2203m | -9.7m/s | 7.3°C | 83.1% | 0hPa | 2.7V | 00:00:00 | 00:00:00 | 00:00:00 | |
| OE3JTB-15 | 2026-09-03 03:33:31 | 47.65512 | 15.14590 | 98° | 38km/h | 2222m | -8.6m/s | 7.2°C | 82.5% | 0hPa | 2.7V | 00:00:00 | 01:44:49 | 00:00:00 | |
| OE5WHR-10 | 2026-09-03 03:33:30 | 47.65514 | 15.14577 | 102° | 38km/h | 2231m | -9.2m/s | 7.1°C | 82.7% | 0hPa | 2.7V | 00:00:00 | 01:44:48 | 00:00:00 | |
| OE3JTB-15 | 2026-09-03 03:33:29 | 47.65516 | 15.14563 | 100° | 37km/h | 2240m | -8.4m/s | 7.0°C | 82.8% | 0hPa | 2.7V | 08:07:00 | 00:00:00 | 00:00:00 | |
| OE5DRO-10 | 2026-09-03 03:33:28 | 47.65517 | 15.14549 | 97° | 38km/h | 2249m | -9.3m/s | 6.9°C | 83.1% | 0hPa | 2.6V | 00:00:00 | 00:00:00 | 00:00:00 | |
| OE3JTB-15 | 2026-09-03 03:33:27 | 47.65518 | 15.14536 | 99° | 38km/h | 2257m | -8.6m/s | 6.9°C | 83.5% | 0hPa | 2.6V | 00:00:00 | 00:00:00 | 00:00:00 | |
| OE3JTB-15 | 2026-09-03 03:33:25 | 47.65521 | 15.14508 | 97° | 38km/h | 2275m | -10.4m/s | 6.7°C | 83.6% | 0hPa | 2.6V | 00:00:00 | 01:44:43 | 00:00:00 | |
| OE5WHR-10 | 2026-09-03 03:33:23 | 47.65524 | 15.14479 | 102° | 38km/h | 2293m | -9.5m/s | 6.6°C | 84.3% | 0hPa | 2.6V | 00:00:00 | 00:00:00 | 00:00:00 | |
| OE3JTB-15 | 2026-09-03 03:33:21 | 47.65528 | 15.14452 | 102° | 40km/h | 2312m | -7.8m/s | 6.4°C | 85.6% | 0hPa | 2.7V | 00:00:00 | 00:00:00 | 00:00:00 | |
| OE3JTB-15 | 2026-09-03 03:33:19 | 47.65532 | 15.14424 | 106° | 38km/h | 2331m | -10.5m/s | 6.2°C | 86.2% | 0hPa | 2.7V | 00:00:00 | 01:44:37 | 00:00:00 | |
| OE5WHR-10 | 2026-09-03 03:33:17 | 47.65536 | 15.14396 | 102° | 38km/h | 2349m | -9.9m/s | 6.1°C | 87.3% | 0hPa | 2.7V | 00:00:00 | 00:00:00 | 00:00:00 | |
| OE3JTB-15 | 2026-09-03 03:33:15 | 47.65541 | 15.14369 | 107° | 37km/h | 2366m | -8.7m/s | 5.9°C | 88.2% | 0hPa | 2.7V | 00:00:00 | 00:00:00 | 00:00:00 | |
| OE5DRO-10 | 2026-09-03 03:33:14 | 47.65544 | 15.14356 | 103° | 38km/h | 2376m | -9.3m/s | 5.8°C | 89.3% | 0hPa | 2.7V | 08:07:00 | 00:00:00 | 00:00:00 | |
| OE3JTB-15 | 2026-09-03 03:33:13 | 47.65546 | 15.14341 | 103° | 38km/h | 2384m | -9.2m/s | 5.8°C | 90.1% | 0hPa | 2.7V | 00:00:00 | 01:44:31 | 00:00:00 | |
| OE3JTB-15 | 2026-09-03 03:33:11 | 47.65551 | 15.14313 | 104° | 38km/h | 2402m | -8.7m/s | 5.6°C | 90.2% | 0hPa | 2.7V | 08:08:00 | 00:00:00 | 00:00:00 | |
| OE3JTB-15 | 2026-09-03 03:33:09 | 47.65556 | 15.14286 | 106° | 37km/h | 2420m | -8.9m/s | 5.4°C | 91.9% | 0hPa | 2.7V | 00:00:00 | 00:00:00 | 00:00:00 | |
| OE3JTB-15 | 2026-09-03 03:33:07 | 47.65562 | 15.14258 | 107° | 40km/h | 2437m | -7.8m/s | 5.3°C | 92.8% | 0hPa | 2.7V | 00:00:00 | 01:44:25 | 00:00:00 | |
| OE5WHR-10 | 2026-09-03 03:33:05 | 47.65568 | 15.14231 | 111° | 37km/h | 2454m | -8.2m/s | 5.1°C | 93.7% | 0hPa | 2.7V | 08:08:00 | 00:00:00 | 00:00:00 | |
| OE3JTB-15 | 2026-09-03 03:33:03 | 47.65575 | 15.14204 | 110° | 38km/h | 2470m | -8.7m/s | 5.0°C | 94.0% | 0hPa | 2.7V | 00:00:00 | 00:00:00 | 00:00:00 | |
| OE3OSB-13 | 2026-09-03 03:32:48 | 47.65648 | 15.13989 | 125° | 46km/h | 2605m | -7.8m/s | 4.5°C | 89.5% | -1.0hPa | 2.7V | 00:00:00 | 00:00:00 | 00:00:00 | |
| OE3JTB-15 | 2026-09-03 03:32:47 | 47.65648 | 15.13989 | 126° | 46km/h | 2605m | -7.7m/s | 4.4°C | 89.6% | 0hPa | 2.7V | 00:00:00 | 00:00:00 | 00:00:00 | |
| OE5DRO-10 | 2026-09-03 03:32:46 | 47.65655 | 15.13975 | 127° | 46km/h | 2613m | -9.1m/s | 4.4°C | 88.1% | 0hPa | 2.7V | 00:00:00 | 00:00:00 | 00:00:00 | |
| OE3JTB-15 | 2026-09-03 03:32:45 | 47.65662 | 15.13962 | 124° | 46km/h | 2622m | -9.1m/s | 4.4°C | 87.3% | 0hPa | 2.7V | 00:00:00 | 00:00:00 | 00:00:00 | |
| OE3JTB-15 | 2026-09-03 03:32:43 | 47.65675 | 15.13934 | 128° | 44km/h | 2640m | -9.5m/s | 4.4°C | 84.8% | 0hPa | 2.7V | 00:00:00 | 01:44:01 | 00:00:00 | |
| OE5WHR-10 | 2026-09-03 03:32:41 | 47.65688 | 15.13905 | 124° | 47km/h | 2659m | -9.0m/s | 4.2°C | 87.0% | 0hPa | 2.7V | 00:00:00 | 00:00:00 | 00:00:00 | |
| OE3JTB-15 | 2026-09-03 03:32:39 | 47.65702 | 15.13876 | 125° | 46km/h | 2676m | -9.1m/s | 4.1°C | 86.1% | 0hPa | 2.7V | 00:00:00 | 00:00:00 | 00:00:00 | |
| OE3JTB-15 | 2026-09-03 03:32:37 | 47.65715 | 15.13847 | 122° | 47km/h | 2695m | -9.5m/s | 4.0°C | 85.5% | 0hPa | 2.7V | 00:00:00 | 01:43:55 | 00:00:00 | |
| OE5WHR-10 | 2026-09-03 03:32:35 | 47.65729 | 15.13819 | 124° | 47km/h | 2712m | -9.0m/s | 3.8°C | 86.4% | 0hPa | 2.7V | 00:00:00 | 01:43:53 | 00:00:00 | |
| OE3JTB-15 | 2026-09-03 03:32:33 | 47.65741 | 15.13790 | 124° | 47km/h | 2731m | -8.9m/s | 3.6°C | 87.7% | 0hPa | 2.7V | 00:00:00 | 00:00:00 | 00:00:00 | |
| OE5DRO-10 | 2026-09-03 03:32:32 | 47.65748 | 15.13775 | 123° | 47km/h | 2740m | -9.8m/s | 3.5°C | 87.8% | 0hPa | 2.7V | 00:00:00 | 00:00:00 | 00:00:00 | |
| OE3JTB-15 | 2026-09-03 03:32:31 | 47.65754 | 15.13761 | 123° | 47km/h | 2750m | -8.8m/s | 3.4°C | 90.1% | 0hPa | 2.7V | 00:00:00 | 01:43:49 | 00:00:00 | |
| OE3JTB-15 | 2026-09-03 03:32:29 | 47.65768 | 15.13732 | 125° | 46km/h | 2765m | -7.9m/s | 3.3°C | 88.8% | 0hPa | 2.7V | 00:00:00 | 00:00:00 | 00:00:00 | |
| OE3JTB-15 | 2026-09-03 03:32:27 | 47.65780 | 15.13703 | 125° | 46km/h | 2782m | -8.6m/s | 3.1°C | 89.2% | 0hPa | 2.7V | 00:00:00 | 00:00:00 | 00:00:00 | |
| OE3JTB-15 | 2026-09-03 03:32:25 | 47.65793 | 15.13673 | 124° | 47km/h | 2798m | -8.5m/s | 2.9°C | 90.6% | 0hPa | 2.7V | 00:00:00 | 01:43:43 | 00:00:00 | |
| OE3JTB-15 | 2026-09-03 03:32:23 | 47.65806 | 15.13644 | 125° | 46km/h | 2815m | -8.3m/s | 2.8°C | 90.6% | 0hPa | 2.7V | 00:00:00 | 00:00:00 | 00:00:00 | |
| OE3JTB-15 | 2026-09-03 03:32:21 | 47.65819 | 15.13616 | 125° | 46km/h | 2832m | -9.4m/s | 3.0°C | 84.3% | 0hPa | 2.6V | 00:00:00 | 00:00:00 | 00:00:00 | |
| OE3JTB-15 | 2026-09-03 03:32:19 | 47.65832 | 15.13586 | 122° | 49km/h | 2850m | -9.9m/s | 2.9°C | 84.3% | 0hPa | 2.6V | 00:00:00 | 01:43:37 | 00:00:00 | |
| OE5DRO-10 | 2026-09-03 03:32:18 | 47.65838 | 15.13571 | 126° | 47km/h | 2860m | -8.4m/s | 2.8°C | 84.6% | 0hPa | 2.6V | 00:00:00 | 00:00:00 | 00:00:00 | |
| OE5WHR-10 | 2026-09-03 03:32:17 | 47.65846 | 15.13556 | 126° | 47km/h | 2868m | -8.9m/s | 2.8°C | 85.0% | 0hPa | 2.6V | 00:00:00 | 01:43:35 | 00:00:00 | |
| OE3JTB-15 | 2026-09-03 03:32:15 | 47.65859 | 15.13527 | 123° | 47km/h | 2885m | -7.9m/s | 2.6°C | 85.7% | 0hPa | 2.6V | 00:00:00 | 00:00:00 | 00:00:00 | |
| OE3JTB-15 | 2026-09-03 03:32:13 | 47.65872 | 15.13498 | 122° | 47km/h | 2901m | -8.8m/s | 2.5°C | 85.9% | 0hPa | 2.6V | 00:00:00 | 01:43:31 | 00:00:00 | |
| OE5WHR-10 | 2026-09-03 03:32:11 | 47.65885 | 15.13468 | 126° | 47km/h | 2918m | -9.2m/s | 2.3°C | 86.6% | 0hPa | 2.6V | 08:09:00 | 00:00:00 | 00:00:00 | |
| OE3JTB-15 | 2026-09-03 03:32:09 | 47.65898 | 15.13438 | 125° | 47km/h | 2936m | -8.8m/s | 2.2°C | 86.9% | 0hPa | 2.6V | 00:00:00 | 00:00:00 | 00:00:00 | |
| OE3JTB-15 | 2026-09-03 03:32:07 | 47.65912 | 15.13409 | 122° | 47km/h | 2953m | -8.2m/s | 2.1°C | 87.0% | 0hPa | 2.6V | 00:00:00 | 01:43:25 | 00:00:00 | |
| OE3JTB-15 | 2026-09-03 03:32:05 | 47.65924 | 15.13379 | 122° | 49km/h | 2971m | -9.7m/s | 1.9°C | 87.2% | 0hPa | 2.6V | 00:00:00 | 00:00:00 | 00:00:00 | |
| OE5DRO-10 | 2026-09-03 03:32:04 | 47.65931 | 15.13364 | 124° | 47km/h | 2980m | -9.0m/s | 1.9°C | 87.9% | 0hPa | 2.6V | 00:00:00 | 00:00:00 | 00:00:00 | |
| OE3JTB-15 | 2026-09-03 03:32:03 | 47.65938 | 15.13349 | 126° | 47km/h | 2989m | -8.4m/s | 1.8°C | 88.2% | 0hPa | 2.6V | 00:00:00 | 00:00:00 | 00:00:00 | |
| OE3JTB-15 | 2026-09-03 03:32:01 | 47.65951 | 15.13319 | 121° | 47km/h | 3006m | -9.2m/s | 1.6°C | 89.4% | 0hPa | 2.6V | 00:00:00 | 01:43:19 | 00:00:00 | |
| OE3JTB-15 | 2026-09-03 03:31:59 | 47.65964 | 15.13289 | 125° | 47km/h | 3023m | -8.3m/s | 1.5°C | 90.1% | 0hPa | 2.6V | 08:09:00 | 00:00:00 | 00:00:00 | |
| OE3JTB-15 | 2026-09-03 03:31:57 | 47.65977 | 15.13260 | 123° | 49km/h | 3040m | -7.1m/s | 1.4°C | 90.5% | 0hPa | 2.6V | 00:00:00 | 00:00:00 | 00:00:00 | |
| S52SK | 2026-09-03 03:31:56 | 47.65977 | 15.13260 | 123° | 49km/h | 3040m | -7.2m/s | 1.5°C | 90.2% | 0hPa | 2.6V | 00:00:00 | 00:00:00 | 00:00:00 | |
| OE3JTB-15 | 2026-09-03 03:31:55 | 47.65991 | 15.13229 | 126° | 47km/h | 3056m | -8.4m/s | 1.3°C | 90.6% | 0hPa | 2.6V | 00:00:00 | 01:43:13 | 00:00:00 | |
| OE5WHR-10 | 2026-09-03 03:31:53 | 47.66004 | 15.13198 | 121° | 49km/h | 3072m | -9.5m/s | 1.2°C | 91.3% | 0hPa | 2.6V | 00:00:00 | 00:00:00 | 00:00:00 | |
| OE3JTB-15 | 2026-09-03 03:31:51 | 47.66018 | 15.13168 | 126° | 49km/h | 3089m | -8.7m/s | 1.1°C | 89.2% | 0hPa | 2.7V | 00:00:00 | 00:00:00 | 00:00:00 | |
| OE5DRO-10 | 2026-09-03 03:31:50 | 47.66025 | 15.13152 | 121° | 49km/h | 3098m | -8.9m/s | 1.0°C | 89.8% | 0hPa | 2.7V | 00:00:00 | 00:00:00 | 00:00:00 | |
| OE3JTB-15 | 2026-09-03 03:31:49 | 47.66031 | 15.13137 | 125° | 49km/h | 3107m | -8.6m/s | 1.0°C | 89.8% | 0hPa | 2.6V | 00:00:00 | 01:43:07 | 00:00:00 | |
| OE5WHR-10 | 2026-09-03 03:31:47 | 47.66044 | 15.13106 | 121° | 49km/h | 3124m | -9.7m/s | 1.0°C | 85.7% | 0hPa | 2.6V | 00:00:00 | 00:00:00 | 00:00:00 | |
| OE3JTB-15 | 2026-09-03 03:31:45 | 47.66058 | 15.13074 | 125° | 49km/h | 3142m | -8.8m/s | 0.9°C | 87.4% | 0hPa | 2.6V | 00:00:00 | 00:00:00 | 00:00:00 | |
| OE3JTB-15 | 2026-09-03 03:31:43 | 47.66071 | 15.13043 | 123° | 51km/h | 3159m | -9.2m/s | 0.8°C | 85.2% | 0hPa | 2.6V | 00:00:00 | 01:43:01 | 00:00:00 | |
| OE5WHR-10 | 2026-09-03 03:31:41 | 47.66085 | 15.13012 | 124° | 49km/h | 3176m | -9.4m/s | 0.7°C | 85.1% | 0hPa | 2.6V | 00:00:00 | 01:42:59 | 00:00:00 | |
| OE3JTB-15 | 2026-09-03 03:31:39 | 47.66097 | 15.12981 | 120° | 49km/h | 3194m | -9.2m/s | 0.5°C | 84.6% | 0hPa | 2.6V | 00:00:00 | 00:00:00 | 00:00:00 | |
| OE5DRO-10 | 2026-09-03 03:31:36 | 47.66116 | 15.12933 | 121° | 49km/h | 3219m | -7.8m/s | 0.5°C | 77.4% | 0hPa | 2.6V | 00:00:00 | 00:00:00 | 00:00:00 | |
| OE5WHR-10 | 2026-09-03 03:31:35 | 47.66123 | 15.12917 | 122° | 49km/h | 3227m | -8.7m/s | 0.4°C | 78.4% | 0hPa | 2.6V | 00:00:00 | 00:00:00 | 00:00:00 | |
| OE3JTB-15 | 2026-09-03 03:31:34 | 47.66129 | 15.12901 | 120° | 49km/h | 3235m | -8.3m/s | 0.5°C | 78.6% | 0hPa | 2.7V | 00:00:00 | 01:42:52 | 00:00:00 | |
| PG1ADW-2 | 2026-09-03 03:31:33 | 47.66135 | 15.12885 | 117° | 49km/h | 3243m | -9.5m/s | 0.4°C | 79.7% | 0hPa | 2.7V | 00:00:00 | 00:00:00 | 00:00:00 | |
| OE5WHR-10 | 2026-09-03 03:31:29 | 47.66158 | 15.12816 | 115° | 51km/h | 3275m | -8.9m/s | 0.2°C | 83.5% | 0hPa | 2.6V | 00:00:00 | 00:00:00 | 00:00:00 | |
| OE3JTB-15 | 2026-09-03 03:31:25 | 47.66180 | 15.12747 | 114° | 49km/h | 3307m | -8.5m/s | 0.1°C | 79.9% | 0hPa | 2.6V | 00:00:00 | 00:00:00 | 00:00:00 | |
| OE5WHR-10 | 2026-09-03 03:31:23 | 47.66191 | 15.12713 | 115° | 49km/h | 3322m | -8.6m/s | 0.0°C | 79.2% | 0hPa | 2.7V | 00:00:00 | 01:42:41 | 00:00:00 | |
| OE5DRO-10 | 2026-09-03 03:31:22 | 47.66196 | 15.12696 | 113° | 49km/h | 3331m | -8.9m/s | 0.0°C | 78.3% | 0hPa | 2.7V | 00:00:00 | 00:00:00 | 00:00:00 | |
| OE5WHR-10 | 2026-09-03 03:31:17 | 47.66222 | 15.12611 | 117° | 49km/h | 3372m | -7.9m/s | -0.2°C | 72.6% | 0hPa | 2.7V | 08:09:00 | 00:00:00 | 00:00:00 | |
| OE3JTB-15 | 2026-09-03 03:31:16 | 47.66228 | 15.12595 | 116° | 47km/h | 3380m | -8.0m/s | -0.3°C | 73.0% | 0hPa | 2.5V | 00:00:00 | 00:00:00 | 00:00:00 | |
| OE5DRO-10 | 2026-09-03 03:31:15 | 47.66233 | 15.12579 | 115° | 47km/h | 3388m | -9.3m/s | -0.4°C | 74.1% | 0hPa | 2.5V | 00:00:00 | 00:00:00 | 00:00:00 | |
| PG1ADW-2 | 2026-09-03 03:31:13 | 47.66243 | 15.12545 | 115° | 47km/h | 3407m | -8.6m/s | -0.5°C | 72.0% | 0hPa | 2.5V | 00:00:00 | 01:42:31 | 00:00:00 | |
| OE5WHR-10 | 2026-09-03 03:31:11 | 47.66255 | 15.12512 | 118° | 47km/h | 3423m | -7.9m/s | -0.6°C | 62.5% | 0hPa | 2.5V | 00:00:00 | 00:00:00 | 00:00:00 | |
| OE5DRO-10 | 2026-09-03 03:31:08 | 47.66270 | 15.12466 | 116° | 47km/h | 3449m | -8.2m/s | -0.8°C | 60.9% | 0hPa | 2.5V | 08:10:00 | 00:00:00 | 00:00:00 | |
| OE3JTB-15 | 2026-09-03 03:31:07 | 47.66275 | 15.12449 | 119° | 47km/h | 3456m | -8.0m/s | -0.8°C | 57.1% | 0hPa | 2.7V | 00:00:00 | 01:42:25 | 00:00:00 | |
| OE5WHR-10 | 2026-09-03 03:31:05 | 47.66286 | 15.12418 | 116° | 47km/h | 3470m | -8.2m/s | -0.9°C | 50.0% | 0hPa | 2.7V | 00:00:00 | 01:42:23 | 00:00:00 | |
| OE5DRO-10 | 2026-09-03 03:31:01 | 47.66308 | 15.12355 | 118° | 46km/h | 3504m | -8.9m/s | -1.0°C | 41.7% | 0hPa | 2.7V | 00:00:00 | 00:00:00 | 00:00:00 | |
| OE5WHR-10 | 2026-09-03 03:30:59 | 47.66320 | 15.12325 | 119° | 46km/h | 3520m | -8.0m/s | -0.9°C | 24.3% | 0hPa | 2.7V | 00:00:00 | 00:00:00 | 00:00:00 | |
| OE3JTB-15 | 2026-09-03 03:30:58 | 47.66326 | 15.12310 | 118° | 47km/h | 3529m | -9.9m/s | -0.9°C | 22.7% | 0hPa | 2.7V | 00:00:00 | 00:00:00 | 00:00:00 | |
| OE5DRO-10 | 2026-09-03 03:30:54 | 47.66349 | 15.12250 | 124° | 47km/h | 3565m | -9.7m/s | -1.1°C | 19.4% | 0hPa | 2.7V | 00:00:00 | 00:00:00 | 00:00:00 | |
| OE5WHR-10 | 2026-09-03 03:30:53 | 47.66356 | 15.12235 | 121° | 47km/h | 3574m | -8.2m/s | -1.2°C | 19.4% | 0hPa | 2.7V | 00:00:00 | 00:00:00 | 00:00:00 | |
| OE3JTB-15 | 2026-09-03 03:30:49 | 47.66380 | 15.12176 | 120° | 46km/h | 3609m | -8.9m/s | -1.5°C | 36.9% | 0hPa | 2.7V | 00:00:00 | 00:00:00 | 00:00:00 | |
| OE5WHR-10 | 2026-09-03 03:30:47 | 47.66392 | 15.12145 | 121° | 46km/h | 3626m | -9.1m/s | -1.4°C | 49.5% | 0hPa | 2.7V | 00:00:00 | 01:42:05 | 00:00:00 | |
| OE3JTB-15 | 2026-09-03 03:30:40 | 47.66434 | 15.12045 | 121° | 44km/h | 3681m | -7.5m/s | -1.6°C | 69.2% | 0hPa | 2.7V | 00:00:00 | 01:41:58 | 00:00:00 | |
| OE5DXL-15 | 2026-09-03 03:30:38 | 47.66445 | 15.12015 | 121° | 46km/h | 3699m | -9.5m/s | -1.7°C | 70.1% | 0hPa | 2.7V | 00:00:00 | 00:00:00 | 00:00:00 | |
| OE5WHR-10 | 2026-09-03 03:30:33 | 47.66473 | 15.11943 | 121° | 46km/h | 3739m | -8.0m/s | -2.0°C | 73.6% | 0hPa | 2.7V | 00:00:00 | 00:00:00 | 00:00:00 | |
| OE3JTB-15 | 2026-09-03 03:30:31 | 47.66484 | 15.11914 | 117° | 46km/h | 3756m | -9.6m/s | -2.0°C | 72.4% | 0hPa | 2.7V | 08:10:00 | 00:00:00 | 00:00:00 | |
| S52SK | 2026-09-03 03:30:29 | 47.66489 | 15.11899 | 121° | 46km/h | 3765m | -7.4m/s | -2.2°C | 72.2% | 0hPa | 2.7V | 00:00:00 | 00:00:00 | 00:00:00 | |
| OM5KV | 2026-09-03 03:30:27 | 47.66501 | 15.11870 | 118° | 42km/h | 3780m | -8.8m/s | -2.3°C | 72.5% | 0hPa | 2.7V | 08:11:00 | 00:00:00 | 00:00:00 | |
| S52SK | 2026-09-03 03:30:24 | 47.66516 | 15.11826 | 120° | 44km/h | 3803m | -8.6m/s | -2.4°C | 73.0% | 0hPa | 2.7V | 00:00:00 | 00:00:00 | 00:00:00 | |
| OE5DRO-10 | 2026-09-03 03:30:17 | 47.66561 | 15.11703 | 117° | 47km/h | 3865m | -7.6m/s | -2.7°C | 77.7% | 0hPa | 2.7V | 00:00:00 | 00:00:00 | 00:00:00 | |
| OE5WHR-10 | 2026-09-03 03:30:15 | 47.66572 | 15.11671 | 121° | 47km/h | 3882m | -9.3m/s | -2.8°C | 80.0% | 0hPa | 2.6V | 00:00:00 | 01:41:33 | 00:00:00 | |
| OE3OSB-13 | 2026-09-03 03:30:13 | 47.66590 | 15.11625 | 122° | 47km/h | 3908m | -8.1m/s | -2.9°C | 82.9% | -1.0hPa | 2.6V | 00:00:00 | 00:00:00 | 00:00:00 | |
| OE3JTB-15 | 2026-09-03 03:30:12 | 47.66590 | 15.11625 | 123° | 47km/h | 3908m | -8.1m/s | -2.9°C | 83.6% | 0hPa | 2.6V | 00:00:00 | 00:00:00 | 00:00:00 | |
| OE5DRO-10 | 2026-09-03 03:30:01 | 47.66658 | 15.11457 | 123° | 47km/h | 4001m | -8.0m/s | -3.5°C | 89.7% | 0hPa | 2.6V | 00:00:00 | 00:00:00 | 00:00:00 | |
| OE5WHR-10 | 2026-09-03 03:29:58 | 47.66678 | 15.11412 | 125° | 46km/h | 4025m | -8.5m/s | -3.6°C | 90.8% | 0hPa | 2.6V | 08:11:00 | 00:00:00 | 00:00:00 | |
| PG1ADW-2 | 2026-09-03 03:29:53 | 47.66760 | 15.11242 | 127° | 46km/h | 4130m | -8.8m/s | -4.1°C | 93.7% | 0hPa | 2.7V | 00:00:00 | 01:41:04 | 00:00:00 | |
| OE5DXL-15 | 2026-09-03 03:29:45 | 47.66768 | 15.11228 | 130° | 47km/h | 4138m | -7.6m/s | -4.1°C | 94.2% | 0hPa | 2.7V | 08:11:00 | 00:00:00 | 00:00:00 | |
| OE5WHR-10 | 2026-09-03 03:29:41 | 47.66797 | 15.11177 | 127° | 47km/h | 4174m | -7.6m/s | -4.2°C | 93.7% | 0hPa | 2.7V | 00:00:00 | 00:00:00 | 00:00:00 | |
| OE3JTB-15 | 2026-09-03 03:29:34 | 47.66849 | 15.11087 | 132° | 51km/h | 4231m | -8.6m/s | -4.3°C | 89.7% | 0hPa | 2.7V | 00:00:00 | 00:00:00 | 00:00:00 | |
| PG1ADW-2 | 2026-09-03 03:29:33 | 47.66857 | 15.11074 | 133° | 51km/h | 4239m | -8.3m/s | -4.3°C | 89.2% | 0hPa | 2.7V | 00:00:00 | 00:00:00 | 00:00:00 | |
| OE5DRO-10 | 2026-09-03 03:29:29 | 47.66892 | 15.11023 | 134° | 51km/h | 4272m | -10.6m/s | -4.1°C | 81.9% | 0hPa | 2.7V | 08:11:00 | 00:00:00 | 00:00:00 | |
| OE5WHR-10 | 2026-09-03 03:29:24 | 47.66935 | 15.10958 | 136° | 53km/h | 4317m | -8.0m/s | -4.4°C | 81.0% | 0hPa | 2.7V | 00:00:00 | 01:40:42 | 00:00:00 | |
| OE5DXL-15 | 2026-09-03 03:29:15 | 47.67022 | 15.10836 | 135° | 51km/h | 4395m | -8.2m/s | -4.7°C | 72.5% | 0hPa | 2.7V | 00:00:00 | 00:00:00 | 00:00:00 | |
| PG1ADW-2 | 2026-09-03 03:29:13 | 47.67041 | 15.10807 | 135° | 53km/h | 4411m | -8.5m/s | -4.8°C | 73.3% | 0hPa | 2.7V | 00:00:00 | 00:00:00 | 00:00:00 | |
| OE3JTB-15 | 2026-09-03 03:29:10 | 47.67069 | 15.10762 | 137° | 51km/h | 4438m | -8.9m/s | -5.1°C | 74.3% | 0hPa | 2.7V | 00:00:00 | 00:00:00 | 00:00:00 | |
| OE5WHR-10 | 2026-09-03 03:29:07 | 47.67097 | 15.10719 | 132° | 51km/h | 4464m | -9.2m/s | -5.2°C | 78.0% | 0hPa | 2.7V | 00:00:00 | 00:00:00 | 00:00:00 | |
| S52SK | 2026-09-03 03:29:00 | 47.67151 | 15.10632 | 131° | 55km/h | 4521m | -10.0m/s | -5.7°C | 79.8% | 0hPa | 2.5V | 08:12:00 | 00:00:00 | 00:00:00 | |
| OE5DRO-10 | 2026-09-03 03:28:57 | 47.67186 | 15.10574 | 134° | 49km/h | 4565m | -12.1m/s | -5.9°C | 77.4% | 0hPa | 2.5V | 00:00:00 | 00:00:00 | 00:00:00 | |
| S52SK | 2026-09-03 03:28:55 | 47.67194 | 15.10560 | 132° | 49km/h | 4577m | -11.9m/s | -6.1°C | 76.4% | 0hPa | 2.5V | 00:00:00 | 00:00:00 | 00:00:00 | |
| PG1ADW-2 | 2026-09-03 03:28:53 | 47.67218 | 15.10520 | 129° | 49km/h | 4611m | -10.8m/s | -6.3°C | 76.7% | 0hPa | 2.5V | 00:00:00 | 00:00:00 | 00:00:00 | |
| OE5WHR-10 | 2026-09-03 03:28:50 | 47.67242 | 15.10479 | 132° | 49km/h | 4641m | -8.1m/s | -6.6°C | 73.9% | 0hPa | 2.5V | 00:00:00 | 00:00:00 | 00:00:00 | |
| OE5DXL-15 | 2026-09-03 03:28:45 | 47.67282 | 15.10408 | 131° | 47km/h | 4687m | -8.7m/s | -7.0°C | 74.3% | 0hPa | 2.5V | 00:00:00 | 00:00:00 | 00:00:00 | |
| OE3JTB-15 | 2026-09-03 03:28:41 | 47.67314 | 15.10353 | 129° | 46km/h | 4725m | -9.4m/s | -7.4°C | 75.4% | 0hPa | 2.5V | 00:00:00 | 01:39:59 | 00:00:00 | |
| OE3OSB-13 | 2026-09-03 03:28:39 | 47.67330 | 15.10324 | 128° | 49km/h | 4743m | -9.1m/s | -7.6°C | 74.1% | -1.0hPa | 2.5V | 00:00:00 | 00:00:00 | 00:00:00 | |
| OE5DRO-10 | 2026-09-03 03:28:25 | 47.67434 | 15.10130 | 129° | 46km/h | 4878m | -11.1m/s | -8.7°C | 79.6% | 0hPa | 2.5V | 00:00:00 | 00:00:00 | 00:00:00 | |
| OE5WHR-10 | 2026-09-03 03:28:16 | 47.67499 | 15.10008 | 129° | 47km/h | 4972m | -11.6m/s | -9.5°C | 82.0% | 0hPa | 2.5V | 00:00:00 | 00:00:00 | 00:00:00 | |
| OE5DXL-15 | 2026-09-03 03:28:15 | 47.67506 | 15.09994 | 130° | 47km/h | 4983m | -11.1m/s | -9.6°C | 82.5% | 0hPa | 2.7V | 00:00:00 | 00:00:00 | 00:00:00 | |
| PG1ADW-2 | 2026-09-03 03:28:13 | 47.67521 | 15.09969 | 133° | 47km/h | 5005m | -12.2m/s | -9.8°C | 83.1% | 0hPa | 2.6V | 00:00:00 | 00:00:00 | 00:00:00 | |
| OE3JTB-15 | 2026-09-03 03:28:12 | 47.67529 | 15.09956 | 131° | 49km/h | 5017m | -12.1m/s | -9.9°C | 83.7% | 0hPa | 2.6V | 00:00:00 | 00:00:00 | 00:00:00 | |
| OE5DRO-10 | 2026-09-03 03:28:09 | 47.67550 | 15.09918 | 127° | 49km/h | 5052m | -10.7m/s | -10.2°C | 84.8% | 0hPa | 2.5V | 00:00:00 | 00:00:00 | 00:00:00 | |
| OE3OSB-13 | 2026-09-03 03:28:08 | 47.67557 | 15.09904 | 128° | 49km/h | 5062m | -10.2m/s | -10.3°C | 84.0% | -1.0hPa | 2.5V | 00:00:00 | 00:00:00 | 00:00:00 | |
| OM5KV | 2026-09-03 03:28:00 | 47.67609 | 15.09801 | 124° | 47km/h | 5136m | -11.6m/s | -10.9°C | 86.1% | 0hPa | 2.5V | 08:13:00 | 00:00:00 | 00:00:00 | |
| OE5WHR-10 | 2026-09-03 03:27:59 | 47.67622 | 15.09771 | 127° | 49km/h | 5158m | -10.5m/s | -11.0°C | 88.6% | 0hPa | 2.5V | 00:00:00 | 00:00:00 | 00:00:00 | |
| PG1ADW-2 | 2026-09-03 03:27:53 | 47.67664 | 15.09680 | 126° | 51km/h | 5220m | -10.5m/s | -11.4°C | 89.8% | 0hPa | 2.5V | 00:00:00 | 00:00:00 | 00:00:00 | |
| OE5DXL-15 | 2026-09-03 03:27:45 | 47.67726 | 15.09562 | 128° | 51km/h | 5308m | -11.1m/s | -12.2°C | 92.6% | 0hPa | 2.5V | 00:00:00 | 00:00:00 | 00:00:00 | |
| OM5KV | 2026-09-03 03:27:44 | 47.67727 | 15.09562 | 129° | 47km/h | 5308m | -11.2m/s | -12.2°C | 90.8% | 0hPa | 2.5V | 08:13:00 | 00:00:00 | 00:00:00 | |
| OE3JTB-15 | 2026-09-03 03:27:43 | 47.67742 | 15.09532 | 126° | 51km/h | 5329m | -10.9m/s | -12.3°C | 93.4% | 0hPa | 2.5V | 00:00:00 | 00:00:00 | 00:00:00 | |
| OE5WHR-10 | 2026-09-03 03:27:42 | 47.67749 | 15.09516 | 125° | 51km/h | 5339m | -11.2m/s | -12.4°C | 93.8% | 0hPa | 2.5V | 00:00:00 | 01:39:00 | 00:00:00 | |
| OE5DRO-10 | 2026-09-03 03:27:37 | 47.67789 | 15.09435 | 127° | 49km/h | 5393m | -10.6m/s | -12.8°C | 96.5% | 0hPa | 2.5V | 00:00:00 | 00:00:00 | 00:00:00 | |
| PG1ADW-2 | 2026-09-03 03:27:33 | 47.67819 | 15.09374 | 127° | 49km/h | 5435m | -10.4m/s | -13.1°C | 98.2% | 0hPa | 2.5V | 08:13:00 | 00:00:00 | 00:00:00 | |
| S52SK | 2026-09-03 03:27:30 | 47.67835 | 15.09342 | 126° | 51km/h | 5455m | -11.8m/s | -13.3°C | 96.8% | 0hPa | 2.6V | 00:00:00 | 00:00:00 | 00:00:00 | |
| OE5WHR-10 | 2026-09-03 03:27:25 | 47.67881 | 15.09252 | 131° | 51km/h | 5525m | -12.4m/s | -13.7°C | 99.3% | 0hPa | 2.6V | 08:13:00 | 00:00:00 | 00:00:00 | |
| S52SK | 2026-09-03 03:27:24 | 47.67881 | 15.09252 | 131° | 49km/h | 5525m | -12.4m/s | -13.8°C | 97.3% | 0hPa | 2.5V | 00:00:00 | 00:00:00 | 00:00:00 | |
| OE5DRO-10 | 2026-09-03 03:27:21 | 47.67913 | 15.09194 | 129° | 51km/h | 5572m | -11.8m/s | -14.1°C | 99.1% | 0hPa | 2.5V | 00:00:00 | 00:00:00 | 00:00:00 | |
| OE5DXL-15 | 2026-09-03 03:27:15 | 47.67960 | 15.09104 | 128° | 51km/h | 5635m | -9.3m/s | -14.6°C | 0% | 0hPa | 2.5V | 00:00:00 | 00:00:00 | 00:00:00 | |
| OE3JTB-15 | 2026-09-03 03:27:14 | 47.67967 | 15.09089 | 130° | 51km/h | 5645m | -9.7m/s | -14.7°C | 0% | 0hPa | 2.5V | 00:00:00 | 01:38:32 | 00:00:00 | |
| PG1ADW-2 | 2026-09-03 03:27:13 | 47.67975 | 15.09074 | 130° | 49km/h | 5655m | -10.0m/s | -14.8°C | 0% | 0hPa | 2.5V | 00:00:00 | 01:38:31 | 00:00:00 | |
| OM5KV | 2026-09-03 03:27:09 | 47.68000 | 15.09026 | 129° | 53km/h | 5688m | -10.9m/s | -15.1°C | 0% | 0hPa | 2.5V | 08:14:00 | 00:00:00 | 00:00:00 | |
| OE5WHR-10 | 2026-09-03 03:27:08 | 47.68016 | 15.08996 | 128° | 49km/h | 5710m | -11.1m/s | -15.3°C | 0% | 0hPa | 2.5V | 00:00:00 | 00:00:00 | 00:00:00 | |
| OE3OSB-13 | 2026-09-03 03:27:06 | 47.68031 | 15.08966 | 128° | 51km/h | 5732m | -11.5m/s | -15.6°C | 99.3% | -1.0hPa | 2.5V | 00:00:00 | 00:00:00 | 00:00:00 | |
| OE5DRO-10 | 2026-09-03 03:27:05 | 47.68040 | 15.08950 | 128° | 49km/h | 5744m | -11.6m/s | -15.5°C | 96.2% | 0hPa | 2.5V | 08:14:00 | 00:00:00 | 00:00:00 | |
| OM5KV | 2026-09-03 03:26:58 | 47.68082 | 15.08858 | 124° | 47km/h | 5814m | -13.2m/s | -14.4°C | 69.8% | 0hPa | 2.5V | 08:14:00 | 00:00:00 | 00:00:00 | |
| PG1ADW-2 | 2026-09-03 03:26:53 | 47.68121 | 15.08764 | 123° | 53km/h | 5889m | -13.7m/s | -14.9°C | 72.4% | 0hPa | 2.5V | 00:00:00 | 00:00:00 | 00:00:00 | |
| OM5KV | 2026-09-03 03:26:52 | 47.68121 | 15.08764 | 124° | 49km/h | 5889m | -13.8m/s | -15.0°C | 70.6% | 0hPa | 2.5V | 08:14:00 | 00:00:00 | 00:00:00 | |
| OE5WHR-10 | 2026-09-03 03:26:51 | 47.68134 | 15.08732 | 118° | 53km/h | 5916m | -13.4m/s | -15.1°C | 72.4% | 0hPa | 2.5V | 00:00:00 | 01:38:09 | 00:00:00 | |
| OE5DRO-10 | 2026-09-03 03:26:49 | 47.68147 | 15.08696 | 118° | 53km/h | 5941m | -13.4m/s | -15.3°C | 72.2% | 0hPa | 2.5V | 00:00:00 | 00:00:00 | 00:00:00 | |
| OE5DXL-15 | 2026-09-03 03:26:45 | 47.68173 | 15.08625 | 117° | 51km/h | 5991m | -11.9m/s | -15.7°C | 71.2% | 0hPa | 2.5V | 00:00:00 | 00:00:00 | 00:00:00 | |
| OM5KV | 2026-09-03 03:26:41 | 47.68192 | 15.08573 | 117° | 51km/h | 6028m | -12.6m/s | -16.0°C | 69.4% | 0hPa | 2.5V | 08:14:00 | 00:00:00 | 00:00:00 | |
| PETON7-10 | 2026-09-03 03:26:35 | 47.68234 | 15.08451 | 116° | 53km/h | 6117m | -11.5m/s | -16.7°C | 74.9% | 0hPa | 2.5V | 08:14:00 | 00:00:00 | 00:00:00 | |
| OE5WHR-10 | 2026-09-03 03:26:34 | 47.68240 | 15.08433 | 115° | 51km/h | 6129m | -12.2m/s | -16.8°C | 75.2% | 0hPa | 2.6V | 00:00:00 | 00:00:00 | 00:00:00 | |
| PG1ADW-2 | 2026-09-03 03:26:33 | 47.68246 | 15.08415 | 115° | 51km/h | 6141m | -13.0m/s | -16.9°C | 75.5% | 0hPa | 2.6V | 00:00:00 | 00:00:00 | 00:00:00 | |
| OM5KV | 2026-09-03 03:26:29 | 47.68265 | 15.08362 | 119° | 51km/h | 6180m | -13.7m/s | -17.0°C | 72.8% | 0hPa | 2.5V | 08:14:00 | 00:00:00 | 00:00:00 | |
| PETON7-10 | 2026-09-03 03:26:20 | 47.68329 | 15.08200 | 122° | 55km/h | 6315m | -12.7m/s | -18.0°C | 79.7% | 0hPa | 2.5V | 00:00:00 | 00:00:00 | 00:00:00 | |
| OE5WHR-10 | 2026-09-03 03:26:17 | 47.68349 | 15.08153 | 125° | 55km/h | 6352m | -11.6m/s | -18.3°C | 80.7% | 0hPa | 2.5V | 00:00:00 | 00:00:00 | 00:00:00 | |
| OE3JTB-15 | 2026-09-03 03:26:16 | 47.68355 | 15.08138 | 123° | 58km/h | 6364m | -12.7m/s | -18.2°C | 79.4% | 0hPa | 2.5V | 00:00:00 | 00:00:00 | 00:00:00 | |
| PG1ADW-2 | 2026-09-03 03:26:13 | 47.68375 | 15.08088 | 122° | 58km/h | 6402m | -12.2m/s | -18.4°C | 76.4% | 0hPa | 2.5V | 00:00:00 | 00:00:00 | 00:00:00 | |
| PETON7-10 | 2026-09-03 03:26:04 | 47.68436 | 15.07917 | 119° | 60km/h | 6512m | -12.6m/s | -18.1°C | 36.6% | 0hPa | 2.5V | 00:00:00 | 01:37:22 | 00:00:00 | |
| OE5DRO-10 | 2026-09-03 03:26:01 | 47.68457 | 15.07859 | 118° | 62km/h | 6548m | -12.7m/s | -18.1°C | 24.7% | 0hPa | 2.5V | 00:00:00 | 00:00:00 | 00:00:00 | |
| OE5WHR-10 | 2026-09-03 03:26:00 | 47.68464 | 15.07840 | 119° | 62km/h | 6561m | -12.5m/s | -18.2°C | 22.1% | 0hPa | 2.5V | 00:00:00 | 01:37:18 | 00:00:00 | |
| S52SK | 2026-09-03 03:25:56 | 47.68488 | 15.07783 | 121° | 60km/h | 6598m | -12.6m/s | -18.5°C | 16.8% | 0hPa | 2.5V | 00:00:00 | 00:00:00 | 00:00:00 | |
| S52SK | 2026-09-03 03:25:51 | 47.68529 | 15.07685 | 125° | 60km/h | 6660m | -13.9m/s | -19.0°C | 14.9% | 0hPa | 2.5V | 00:00:00 | 00:00:00 | 00:00:00 | |
| PETON7-10 | 2026-09-03 03:25:49 | 47.68556 | 15.07628 | 126° | 68km/h | 6700m | -14.1m/s | -19.1°C | 15.9% | 0hPa | 2.5V | 00:00:00 | 00:00:00 | 00:00:00 | |
| OM5KV | 2026-09-03 03:25:48 | 47.68556 | 15.07628 | 126° | 64km/h | 6700m | -14.2m/s | -19.1°C | 15.1% | 0hPa | 2.6V | 08:15:00 | 00:00:00 | 00:00:00 | |
| OE3JTB-15 | 2026-09-03 03:25:47 | 47.68575 | 15.07588 | 124° | 71km/h | 6727m | -13.5m/s | -19.0°C | 16.7% | 0hPa | 2.6V | 00:00:00 | 01:37:05 | 00:00:00 | |
| OE5DRO-10 | 2026-09-03 03:25:45 | 47.68594 | 15.07548 | 125° | 69km/h | 6753m | -12.9m/s | -19.1°C | 17.6% | 0hPa | 2.6V | 00:00:00 | 00:00:00 | 00:00:00 | |
| OE5MMP-10 | 2026-09-03 03:25:43 | 47.68613 | 15.07509 | 126° | 68km/h | 6779m | -12.5m/s | -19.3°C | 18.3% | 0hPa | 2.6V | 00:00:00 | 01:37:01 | 00:00:00 | |
| OE8JPQ-2 | 2026-09-03 03:25:40 | 47.68644 | 15.07452 | 130° | 73km/h | 6818m | -12.6m/s | -19.6°C | 18.9% | 0hPa | 2.6V | 08:15:00 | 00:00:00 | 00:00:00 | |
| OE5MMP-10 | 2026-09-03 03:25:33 | 47.68723 | 15.07314 | 134° | 77km/h | 6910m | -12.3m/s | -20.2°C | 20.4% | 0hPa | 2.6V | 00:00:00 | 01:36:51 | 00:00:00 | |
| PETON7-10 | 2026-09-03 03:25:32 | 47.68735 | 15.07295 | 135° | 77km/h | 6922m | -11.5m/s | -20.2°C | 20.6% | 0hPa | 2.6V | 00:00:00 | 00:00:00 | 00:00:00 | |
| OE5DRO-10 | 2026-09-03 03:25:29 | 47.68773 | 15.07236 | 136° | 78km/h | 6959m | -11.3m/s | -20.4°C | 21.0% | 0hPa | 2.6V | 00:00:00 | 00:00:00 | 00:00:00 | |
| OE5WHR-10 | 2026-09-03 03:25:26 | 47.68814 | 15.07177 | 136° | 80km/h | 6995m | -12.6m/s | -20.6°C | 20.7% | 0hPa | 2.6V | 00:00:00 | 00:00:00 | 00:00:00 | |
| OE5MMP-10 | 2026-09-03 03:25:23 | 47.68856 | 15.07119 | 136° | 80km/h | 7033m | -13.8m/s | -20.9°C | 18.5% | 0hPa | 2.6V | 00:00:00 | 01:36:41 | 00:00:00 | |
| OE8JPQ-2 | 2026-09-03 03:25:20 | 47.68900 | 15.07062 | 140° | 80km/h | 7072m | -12.8m/s | -21.2°C | 16.1% | 0hPa | 2.6V | 00:00:00 | 00:00:00 | 00:00:00 | |
| OE3JTB-15 | 2026-09-03 03:25:18 | 47.68931 | 15.07023 | 139° | 78km/h | 7098m | -13.7m/s | -21.4°C | 15.7% | 0hPa | 2.6V | 00:00:00 | 00:00:00 | 00:00:00 | |
| PETON7-10 | 2026-09-03 03:25:17 | 47.68947 | 15.07003 | 140° | 80km/h | 7111m | -12.9m/s | -21.5°C | 15.7% | 0hPa | 2.5V | 00:00:00 | 01:36:35 | 00:00:00 | |
| OE5DXL-15 | 2026-09-03 03:25:15 | 47.68977 | 15.06964 | 138° | 77km/h | 7137m | -13.8m/s | -21.7°C | 16.1% | 0hPa | 2.5V | 08:15:00 | 00:00:00 | 00:00:00 | |
| PG1ADW-2 | 2026-09-03 03:25:13 | 47.69007 | 15.06925 | 140° | 78km/h | 7164m | -11.6m/s | -21.8°C | 13.6% | 0hPa | 2.5V | 00:00:00 | 00:00:00 | 00:00:00 | |
| OE5MMP-10 | 2026-09-03 03:25:11 | 47.69037 | 15.06884 | 137° | 78km/h | 7190m | -13.8m/s | -22.0°C | 11.5% | 0hPa | 2.5V | 00:00:00 | 01:36:29 | 00:00:00 | |
| OE5DRO-10 | 2026-09-03 03:25:10 | 47.69052 | 15.06864 | 137° | 78km/h | 7204m | -13.1m/s | -22.1°C | 11.7% | 0hPa | 2.5V | 00:00:00 | 00:00:00 | 00:00:00 | |
| OE5WHR-10 | 2026-09-03 03:25:05 | 47.69122 | 15.06762 | 135° | 77km/h | 7270m | -13.2m/s | -22.6°C | 12.9% | 0hPa | 2.5V | 00:00:00 | 01:36:23 | 00:00:00 | |
| OM5KV | 2026-09-03 03:25:03 | 47.69136 | 15.06741 | 135° | 78km/h | 7284m | -13.6m/s | -22.7°C | 12.2% | 0hPa | 2.5V | 08:16:00 | 00:00:00 | 00:00:00 | |
| PETON7-10 | 2026-09-03 03:25:02 | 47.69163 | 15.06700 | 136° | 77km/h | 7312m | -13.5m/s | -22.8°C | 13.3% | 0hPa | 2.5V | 00:00:00 | 00:00:00 | 00:00:00 | |
| OE5MMP-10 | 2026-09-03 03:25:01 | 47.69177 | 15.06679 | 136° | 77km/h | 7325m | -13.0m/s | -22.9°C | 13.2% | 0hPa | 2.6V | 00:00:00 | 01:36:19 | 00:00:00 | |
| OE8JPQ-2 | 2026-09-03 03:25:00 | 47.69190 | 15.06659 | 137° | 75km/h | 7338m | -13.0m/s | -23.0°C | 13.2% | 0hPa | 2.6V | 00:00:00 | 01:36:18 | 00:00:00 | |
| PG1ADW-2 | 2026-09-03 03:24:53 | 47.69284 | 15.06517 | 136° | 73km/h | 7431m | -12.9m/s | -23.8°C | 14.3% | 0hPa | 2.6V | 00:00:00 | 00:00:00 | 00:00:00 | |
| OE5MMP-10 | 2026-09-03 03:24:51 | 47.69310 | 15.06477 | 135° | 73km/h | 7457m | -13.3m/s | -24.0°C | 15.9% | 0hPa | 2.6V | 08:16:00 | 01:36:09 | 00:00:00 | |
| PETON7-10 | 2026-09-03 03:24:47 | 47.69363 | 15.06400 | 137° | 71km/h | 7510m | -12.8m/s | -24.5°C | 21.2% | 0hPa | 2.6V | 00:00:00 | 00:00:00 | 00:00:00 | |
| OE5DXL-15 | 2026-09-03 03:24:45 | 47.69390 | 15.06362 | 136° | 71km/h | 7536m | -13.8m/s | -24.7°C | 22.4% | 0hPa | 2.6V | 00:00:00 | 00:00:00 | 00:00:00 | |
| OE5WHR-10 | 2026-09-03 03:24:44 | 47.69403 | 15.06342 | 136° | 71km/h | 7551m | -13.3m/s | -24.8°C | 22.7% | 0hPa | 2.6V | 08:16:00 | 00:00:00 | 00:00:00 | |
| OM5KV | 2026-09-03 03:24:42 | 47.69416 | 15.06323 | 137° | 73km/h | 7565m | -13.3m/s | -25.0°C | 21.3% | 0hPa | 2.5V | 08:17:00 | 00:00:00 | 00:00:00 | |
| OE5MMP-10 | 2026-09-03 03:24:41 | 47.69442 | 15.06286 | 138° | 71km/h | 7591m | -13.9m/s | -25.2°C | 24.4% | 0hPa | 2.5V | 00:00:00 | 01:35:59 | 00:00:00 | |
| OE8JPQ-2 | 2026-09-03 03:24:40 | 47.69456 | 15.06268 | 138° | 71km/h | 7605m | -13.1m/s | -25.4°C | 26.4% | 0hPa | 2.5V | 00:00:00 | 00:00:00 | 00:00:00 | |
| S52SK | 2026-09-03 03:24:34 | 47.69522 | 15.06176 | 138° | 73km/h | 7672m | -14.4m/s | -26.0°C | 27.8% | 0hPa | 2.5V | 00:00:00 | 00:00:00 | 00:00:00 | |
| PG1ADW-2 | 2026-09-03 03:24:33 | 47.69549 | 15.06139 | 138° | 71km/h | 7700m | -14.3m/s | -26.3°C | 29.9% | 0hPa | 2.5V | 08:16:00 | 01:35:51 | 00:00:00 | |
| PETON7-10 | 2026-09-03 03:24:32 | 47.69563 | 15.06120 | 139° | 71km/h | 7714m | -14.2m/s | -26.4°C | 30.0% | 0hPa | 2.5V | 00:00:00 | 01:35:50 | 00:00:00 | |
| OE5MMP-10 | 2026-09-03 03:24:31 | 47.69576 | 15.06102 | 138° | 71km/h | 7728m | -13.4m/s | -26.6°C | 30.0% | 0hPa | 2.5V | 00:00:00 | 01:35:49 | 00:00:00 | |
| OM5KV | 2026-09-03 03:24:30 | 47.69576 | 15.06102 | 139° | 69km/h | 7728m | -13.5m/s | -26.6°C | 28.2% | 0hPa | 2.5V | 08:17:00 | 00:00:00 | 00:00:00 | |
| S52SK | 2026-09-03 03:24:28 | 47.69603 | 15.06066 | 140° | 73km/h | 7754m | -13.8m/s | -26.9°C | 28.4% | 0hPa | 2.5V | 00:00:00 | 00:00:00 | 00:00:00 | |
| OM5KV | 2026-09-03 03:24:25 | 47.69643 | 15.06011 | 137° | 73km/h | 7797m | -13.5m/s | -27.3°C | 29.7% | 0hPa | 2.5V | 08:17:00 | 00:00:00 | 00:00:00 | |
| OE5WHR-10 | 2026-09-03 03:24:23 | 47.69684 | 15.05956 | 138° | 73km/h | 7839m | -15.1m/s | -27.6°C | 34.8% | 0hPa | 2.5V | 00:00:00 | 00:00:00 | 00:00:00 | |
| OE5MMP-10 | 2026-09-03 03:24:21 | 47.69710 | 15.05920 | 139° | 73km/h | 7867m | -14.3m/s | -27.8°C | 37.6% | 0hPa | 2.5V | 00:00:00 | 01:35:39 | 00:00:00 | |
| OE3JTB-15 | 2026-09-03 03:24:20 | 47.69724 | 15.05903 | 140° | 77km/h | 7882m | -14.3m/s | -28.0°C | 38.1% | 0hPa | 2.6V | 00:00:00 | 01:35:38 | 00:00:00 | |
| OM5KV | 2026-09-03 03:24:19 | 47.69724 | 15.05903 | 140° | 71km/h | 7882m | -14.3m/s | -28.0°C | 35.9% | 0hPa | 2.6V | 08:17:00 | 00:00:00 | 00:00:00 | |
| PETON7-10 | 2026-09-03 03:24:17 | 47.69766 | 15.05848 | 140° | 73km/h | 7924m | -14.6m/s | -28.3°C | 39.8% | 0hPa | 2.6V | 08:16:00 | 00:00:00 | 00:00:00 | |
| OE5DXL-15 | 2026-09-03 03:24:15 | 47.69794 | 15.05814 | 141° | 78km/h | 7954m | -15.6m/s | -28.6°C | 45.2% | 0hPa | 2.5V | 00:00:00 | 01:35:33 | 00:00:00 | |
| PG1ADW-2 | 2026-09-03 03:24:13 | 47.69822 | 15.05779 | 139° | 78km/h | 7984m | -14.8m/s | -28.8°C | 50.1% | 0hPa | 2.5V | 00:00:00 | 00:00:00 | 00:00:00 | |
| OM5KV | 2026-09-03 03:24:12 | 47.69822 | 15.05779 | 139° | 73km/h | 7984m | -14.8m/s | -28.8°C | 47.4% | 0hPa | 2.5V | 08:17:00 | 00:00:00 | 00:00:00 | |
| OE5MMP-10 | 2026-09-03 03:24:11 | 47.69849 | 15.05743 | 138° | 75km/h | 8013m | -13.7m/s | -29.0°C | 49.8% | 0hPa | 2.5V | 00:00:00 | 01:35:29 | 00:00:00 | |
| OM5KV | 2026-09-03 03:24:06 | 47.69904 | 15.05672 | 140° | 75km/h | 8070m | -12.9m/s | -29.4°C | 48.5% | 0hPa | 2.5V | 08:17:00 | 00:00:00 | 00:00:00 | |
| OE5WHR-10 | 2026-09-03 03:24:02 | 47.69978 | 15.05577 | 138° | 82km/h | 8140m | -14.3m/s | -29.8°C | 50.7% | 0hPa | 2.5V | 00:00:00 | 01:35:20 | 00:00:00 | |
| OE5MMP-10 | 2026-09-03 03:24:01 | 47.69993 | 15.05556 | 138° | 82km/h | 8154m | -14.6m/s | -29.9°C | 49.9% | 0hPa | 2.5V | 00:00:00 | 01:35:19 | 00:00:00 | |
| OE8JPQ-2 | 2026-09-03 03:24:00 | 47.70008 | 15.05536 | 138° | 82km/h | 8170m | -15.1m/s | -30.0°C | 49.5% | 0hPa | 2.5V | 00:00:00 | 01:35:18 | 00:00:00 | |
| OM5KV | 2026-09-03 03:23:55 | 47.70071 | 15.05452 | 140° | 82km/h | 8226m | -13.7m/s | -30.4°C | 46.0% | 0hPa | 2.5V | 08:17:00 | 00:00:00 | 00:00:00 | |
| OE5DRO-10 | 2026-09-03 03:23:54 | 47.70103 | 15.05412 | 140° | 80km/h | 8253m | -13.5m/s | -30.6°C | 49.4% | 0hPa | 2.5V | 00:00:00 | 00:00:00 | 00:00:00 | |
| PG1ADW-2 | 2026-09-03 03:23:53 | 47.70118 | 15.05391 | 139° | 80km/h | 8267m | -13.1m/s | -30.7°C | 49.6% | 0hPa | 2.5V | 00:00:00 | 00:00:00 | 00:00:00 | |
| OE3JTB-15 | 2026-09-03 03:23:51 | 47.70148 | 15.05350 | 139° | 78km/h | 8292m | -12.1m/s | -30.9°C | 49.6% | 0hPa | 2.5V | 00:00:00 | 00:00:00 | 00:00:00 | |
| OM5KV | 2026-09-03 03:23:49 | 47.70163 | 15.05331 | 141° | 78km/h | 8305m | -12.5m/s | -31.1°C | 46.6% | 0hPa | 2.5V | 00:00:00 | 00:00:00 | 00:00:00 | |
| PETON7-10 | 2026-09-03 03:23:47 | 47.70209 | 15.05271 | 138° | 78km/h | 8345m | -14.0m/s | -31.4°C | 49.9% | 0hPa | 2.5V | 00:00:00 | 01:35:05 | 00:00:00 | |
| OE5DXL-15 | 2026-09-03 03:23:45 | 47.70240 | 15.05230 | 137° | 78km/h | 8373m | -14.8m/s | -31.6°C | 50.5% | 0hPa | 2.5V | 00:00:00 | 00:00:00 | 00:00:00 | |
| OE5MMP-10 | 2026-09-03 03:23:41 | 47.70299 | 15.05147 | 138° | 77km/h | 8429m | -13.9m/s | -32.1°C | 51.6% | 0hPa | 2.5V | 00:00:00 | 01:34:59 | 00:00:00 | |
| OE8JPQ-2 | 2026-09-03 03:23:40 | 47.70314 | 15.05126 | 139° | 77km/h | 8443m | -12.7m/s | -32.2°C | 51.8% | 0hPa | 2.5V | 00:00:00 | 00:00:00 | 00:00:00 | |
| OE5DRO-10 | 2026-09-03 03:23:35 | 47.70387 | 15.05027 | 137° | 77km/h | 8512m | -13.8m/s | -32.8°C | 49.7% | 0hPa | 2.5V | 00:00:00 | 00:00:00 | 00:00:00 | |
| PETON7-10 | 2026-09-03 03:23:32 | 47.70430 | 15.04969 | 138° | 78km/h | 8556m | -14.5m/s | -33.0°C | 48.1% | 0hPa | 2.6V | 00:00:00 | 00:00:00 | 00:00:00 | |
| OE5MMP-10 | 2026-09-03 03:23:31 | 47.70444 | 15.04951 | 139° | 77km/h | 8571m | -15.3m/s | -33.2°C | 48.0% | 0hPa | 2.5V | 00:00:00 | 01:34:49 | 00:00:00 | |
| OE3OSB-13 | 2026-09-03 03:23:29 | 47.70473 | 15.04913 | 139° | 75km/h | 8601m | -15.3m/s | -33.4°C | 44.1% | -1.0hPa | 2.5V | 00:00:00 | 00:00:00 | 00:00:00 | |
| OE3JTB-15 | 2026-09-03 03:23:22 | 47.70575 | 15.04780 | 139° | 84km/h | 8703m | -14.0m/s | -34.3°C | 49.7% | 0hPa | 2.5V | 00:00:00 | 00:00:00 | 00:00:00 | |
| OE5MMP-10 | 2026-09-03 03:23:21 | 47.70590 | 15.04761 | 139° | 78km/h | 8717m | -12.7m/s | -34.5°C | 50.2% | 0hPa | 2.5V | 08:17:00 | 01:34:39 | 00:00:00 | |
| OE5WHR-10 | 2026-09-03 03:23:20 | 47.70605 | 15.04741 | 141° | 82km/h | 8729m | -11.6m/s | -34.6°C | 50.6% | 0hPa | 2.5V | 00:00:00 | 00:00:00 | 00:00:00 | |
| DO3MHA-12 | 2026-09-03 03:23:18 | 47.70636 | 15.04703 | 142° | 95km/h | 8755m | -12.7m/s | -34.8°C | 51.1% | 0hPa | 2.5V | 00:00:00 | 01:34:36 | 00:00:00 | |
| PETON7-10 | 2026-09-03 03:23:17 | 47.70651 | 15.04684 | 141° | 82km/h | 8768m | -13.1m/s | -35.0°C | 51.0% | 0hPa | 2.5V | 00:00:00 | 00:00:00 | 00:00:00 | |
| OE5DRO-10 | 2026-09-03 03:23:16 | 47.70667 | 15.04666 | 142° | 84km/h | 8782m | -13.0m/s | -35.1°C | 51.0% | 0hPa | 2.5V | 00:00:00 | 00:00:00 | 00:00:00 | |
| OE5DXL-15 | 2026-09-03 03:23:15 | 47.70682 | 15.04648 | 142° | 91km/h | 8795m | -12.1m/s | -35.2°C | 50.6% | 0hPa | 2.5V | 00:00:00 | 00:00:00 | 00:00:00 | |
| PG1ADW-2 | 2026-09-03 03:23:13 | 47.70712 | 15.04612 | 142° | 88km/h | 8822m | -13.6m/s | -35.5°C | 49.9% | 0hPa | 2.5V | 00:00:00 | 01:34:31 | 00:00:00 | |
| OE5MMP-10 | 2026-09-03 03:23:11 | 47.70745 | 15.04576 | 143° | 84km/h | 8848m | -13.2m/s | -35.7°C | 48.9% | 0hPa | 2.5V | 00:00:00 | 01:34:29 | 00:00:00 | |
| S52SK | 2026-09-03 03:23:04 | 47.70844 | 15.04467 | 144° | 84km/h | 8929m | -15.0m/s | -36.4°C | 36.1% | 0hPa | 2.5V | 08:18:00 | 00:00:00 | 00:00:00 | |
| PETON7-10 | 2026-09-03 03:23:02 | 47.70897 | 15.04410 | 145° | 97km/h | 8971m | -14.0m/s | -36.5°C | 33.3% | 0hPa | 2.5V | 00:00:00 | 01:34:20 | 00:00:00 | |
| OE3OSB-13 | 2026-09-03 03:22:58 | 47.70991 | 15.04313 | 147° | 91km/h | 9037m | -14.0m/s | -37.0°C | 22.1% | -1.0hPa | 2.5V | 00:00:00 | 00:00:00 | 00:00:00 | |
| OE5DRO-10 | 2026-09-03 03:22:57 | 47.70991 | 15.04313 | 148° | 106km/h | 9038m | -13.9m/s | -36.9°C | 24.7% | 0hPa | 2.5V | 00:00:00 | 00:00:00 | 00:00:00 | |
| OE3JTB-15 | 2026-09-03 03:22:53 | 47.71073 | 15.04238 | 150° | 115km/h | 9095m | -14.2m/s | -37.2°C | 17.7% | 0hPa | 2.5V | 00:00:00 | 01:34:11 | 00:00:00 | |
| OE5MMP-10 | 2026-09-03 03:22:51 | 47.71118 | 15.04200 | 151° | 110km/h | 9123m | -13.9m/s | -37.2°C | 15.7% | 0hPa | 2.5V | 00:00:00 | 01:34:09 | 00:00:00 | |
| PETON7-10 | 2026-09-03 03:22:47 | 47.71212 | 15.04119 | 151° | 117km/h | 9178m | -12.7m/s | -37.6°C | 15.3% | 0hPa | 2.6V | 00:00:00 | 00:00:00 | 00:00:00 | |
| OE5DXL-15 | 2026-09-03 03:22:45 | 47.71260 | 15.04077 | 150° | 120km/h | 9203m | -10.8m/s | -37.8°C | 15.7% | 0hPa | 2.5V | 00:00:00 | 00:00:00 | 00:00:00 | |
| OE5MMP-10 | 2026-09-03 03:22:41 | 47.71359 | 15.03990 | 149° | 120km/h | 9246m | -10.5m/s | -38.0°C | 17.0% | 0hPa | 2.5V | 00:00:00 | 01:33:59 | 00:00:00 | |
| OE8JPQ-2 | 2026-09-03 03:22:40 | 47.71384 | 15.03967 | 149° | 122km/h | 9257m | -10.8m/s | -38.0°C | 17.9% | 0hPa | 2.5V | 08:18:00 | 00:00:00 | 00:00:00 | |
| OE5WHR-10 | 2026-09-03 03:22:38 | 47.71435 | 15.03922 | 150° | 122km/h | 9277m | -10.2m/s | -37.9°C | 20.2% | 0hPa | 2.5V | 00:00:00 | 00:00:00 | 00:00:00 | |
| OE5FHM-15 | 2026-09-03 03:22:37 | 47.71460 | 15.03899 | 150° | 119km/h | 9287m | -11.8m/s | -37.9°C | 22.3% | 0hPa | 2.6V | 00:00:00 | 01:33:55 | 00:00:00 | |
| PG1ADW-2 | 2026-09-03 03:22:33 | 47.71566 | 15.03806 | 150° | 122km/h | 9331m | -10.3m/s | -38.0°C | 31.5% | 0hPa | 2.5V | 00:00:00 | 00:00:00 | 00:00:00 | |
| PETON7-10 | 2026-09-03 03:22:32 | 47.71593 | 15.03782 | 150° | 122km/h | 9341m | -10.7m/s | -38.1°C | 33.6% | 0hPa | 2.5V | 00:00:00 | 00:00:00 | 00:00:00 | |
| OE5MMP-10 | 2026-09-03 03:22:31 | 47.71620 | 15.03759 | 151° | 122km/h | 9351m | -10.4m/s | -38.2°C | 35.2% | 0hPa | 2.5V | 00:00:00 | 01:33:49 | 00:00:00 | |
| DO3MHA-12 | 2026-09-03 03:22:27 | 47.71727 | 15.03666 | 149° | 122km/h | 9395m | -13.7m/s | -38.6°C | 36.6% | 0hPa | 2.5V | 00:00:00 | 01:33:45 | 00:00:00 | |
| OE3JTB-15 | 2026-09-03 03:22:24 | 47.71807 | 15.03595 | 150° | 122km/h | 9431m | -12.1m/s | -38.9°C | 37.5% | 0hPa | 2.5V | 08:18:00 | 00:00:00 | 00:00:00 | |
| OE5MMP-10 | 2026-09-03 03:22:21 | 47.71888 | 15.03524 | 151° | 122km/h | 9467m | -11.9m/s | -39.2°C | 37.7% | 0hPa | 2.6V | 00:00:00 | 01:33:39 | 00:00:00 | |
| OE8JPQ-2 | 2026-09-03 03:22:20 | 47.71914 | 15.03501 | 150° | 122km/h | 9479m | -12.2m/s | -39.4°C | 37.9% | 0hPa | 2.6V | 00:00:00 | 00:00:00 | 00:00:00 | |
| OE5DRO-10 | 2026-09-03 03:22:19 | 47.71940 | 15.03477 | 150° | 122km/h | 9492m | -11.7m/s | -39.4°C | 38.1% | 0hPa | 2.6V | 00:00:00 | 00:00:00 | 00:00:00 | |
| OE5WHR-10 | 2026-09-03 03:22:17 | 47.71992 | 15.03431 | 148° | 124km/h | 9514m | -9.4m/s | -39.7°C | 39.3% | 0hPa | 2.6V | 00:00:00 | 00:00:00 | 00:00:00 | |
| DO3MHA-12 | 2026-09-03 03:22:16 | 47.72018 | 15.03407 | 149° | 124km/h | 9524m | -9.9m/s | -39.7°C | 39.4% | 0hPa | 2.6V | 00:00:00 | 01:33:34 | 00:00:00 | |
| OE5DXL-15 | 2026-09-03 03:22:15 | 47.72044 | 15.03383 | 149° | 124km/h | 9533m | -7.9m/s | -39.8°C | 39.3% | 0hPa | 2.6V | 00:00:00 | 00:00:00 | 00:00:00 | |
| PG1ADW-2 | 2026-09-03 03:22:12 | 47.72122 | 15.03309 | 147° | 124km/h | 9564m | -10.0m/s | -39.9°C | 37.6% | 0hPa | 2.6V | 00:00:00 | 00:00:00 | 00:00:00 | |
| OE5MMP-10 | 2026-09-03 03:22:11 | 47.72148 | 15.03283 | 147° | 124km/h | 9574m | -10.1m/s | -40.0°C | 36.9% | 0hPa | 2.6V | 00:00:00 | 01:33:29 | 00:00:00 | |
| DO3MHA-12 | 2026-09-03 03:22:06 | 47.72279 | 15.03155 | 147° | 124km/h | 9624m | -10.2m/s | -40.3°C | 39.5% | 0hPa | 2.6V | 00:00:00 | 01:33:24 | 00:00:00 | |
| PETON7-10 | 2026-09-03 03:22:02 | 47.72383 | 15.03052 | 145° | 124km/h | 9666m | -10.2m/s | -40.7°C | 40.9% | 0hPa | 2.6V | 08:19:00 | 00:00:00 | 00:00:00 | |
| OE3OSB-13 | 2026-09-03 03:21:56 | 47.72564 | 15.02867 | 143° | 122km/h | 9737m | -9.4m/s | -41.1°C | 33.4% | -1.0hPa | 2.5V | 00:00:00 | 00:00:00 | 00:00:00 | |
| OE3JTB-15 | 2026-09-03 03:21:55 | 47.72564 | 15.02867 | 144° | 122km/h | 9737m | -9.4m/s | -41.1°C | 37.2% | 0hPa | 2.5V | 00:00:00 | 00:00:00 | 00:00:00 | |
| OE5MMP-10 | 2026-09-03 03:21:51 | 47.72664 | 15.02761 | 144° | 124km/h | 9773m | -9.4m/s | -41.4°C | 35.9% | 0hPa | 2.5V | 08:19:00 | 01:33:09 | 00:00:00 | |
| PETON7-10 | 2026-09-03 03:21:47 | 47.72766 | 15.02653 | 144° | 122km/h | 9815m | -10.1m/s | -41.7°C | 36.2% | 0hPa | 2.5V | 00:00:00 | 00:00:00 | 00:00:00 | |
| DO3MHA-12 | 2026-09-03 03:21:46 | 47.72791 | 15.02626 | 144° | 122km/h | 9825m | -9.5m/s | -41.8°C | 36.5% | 0hPa | 2.5V | 00:00:00 | 01:33:04 | 00:00:00 | |
| OE5DXL-15 | 2026-09-03 03:21:45 | 47.72816 | 15.02599 | 145° | 120km/h | 9835m | -9.7m/s | -41.9°C | 36.7% | 0hPa | 2.5V | 00:00:00 | 00:00:00 | 00:00:00 | |
| OE5MMP-10 | 2026-09-03 03:21:41 | 47.72918 | 15.02493 | 145° | 122km/h | 9872m | -9.6m/s | -42.3°C | 37.1% | 0hPa | 2.5V | 00:00:00 | 01:32:59 | 00:00:00 | |
| OE8JPQ-2 | 2026-09-03 03:21:40 | 47.72943 | 15.02467 | 145° | 120km/h | 9882m | -10.7m/s | -42.4°C | 37.0% | 0hPa | 2.5V | 00:00:00 | 00:00:00 | 00:00:00 | |
| DO3MHA-12 | 2026-09-03 03:21:36 | 47.73042 | 15.02357 | 144° | 120km/h | 9926m | -10.2m/s | -42.8°C | 35.8% | 0hPa | 2.5V | 00:00:00 | 01:32:54 | 00:00:00 | |
| OE5WHR-10 | 2026-09-03 03:21:35 | 47.73068 | 15.02330 | 145° | 120km/h | 9935m | -8.6m/s | -42.9°C | 35.2% | 0hPa | 2.5V | 08:19:00 | 00:00:00 | 00:00:00 | |
| PETON7-10 | 2026-09-03 03:21:32 | 47.73141 | 15.02250 | 144° | 119km/h | 9964m | -9.4m/s | -43.1°C | 33.1% | 0hPa | 2.7V | 00:00:00 | 01:32:50 | 00:00:00 | |
| OE5MMP-10 | 2026-09-03 03:21:31 | 47.73166 | 15.02223 | 144° | 119km/h | 9974m | -9.9m/s | -43.1°C | 32.2% | 0hPa | 2.7V | 00:00:00 | 01:32:49 | 00:00:00 | |
| DO3MHA-12 | 2026-09-03 03:21:26 | 47.73286 | 15.02090 | 143° | 119km/h | 10026m | -12.7m/s | -43.4°C | 32.3% | 0hPa | 2.7V | 08:19:00 | 01:32:44 | 00:00:00 | |
| OE3OSB-13 | 2026-09-03 03:21:25 | 47.73334 | 15.02035 | 142° | 119km/h | 10049m | -9.5m/s | -43.6°C | 29.1% | -1.0hPa | 2.5V | 00:00:00 | 00:00:00 | 00:00:00 | |
| OE5DRO-10 | 2026-09-03 03:21:22 | 47.73381 | 15.01979 | 141° | 119km/h | 10070m | -11.7m/s | -43.7°C | 32.6% | 0hPa | 2.5V | 00:00:00 | 00:00:00 | 00:00:00 | |
| OE5MMP-10 | 2026-09-03 03:21:21 | 47.73404 | 15.01951 | 141° | 119km/h | 10083m | -14.6m/s | -43.8°C | 32.5% | 0hPa | 2.5V | 00:00:00 | 01:32:39 | 00:00:00 | |
| OE8JPQ-2 | 2026-09-03 03:21:20 | 47.73427 | 15.01923 | 142° | 119km/h | 10098m | -14.1m/s | -43.9°C | 32.6% | 0hPa | 2.5V | 00:00:00 | 00:00:00 | 00:00:00 | |
| PETON7-10 | 2026-09-03 03:21:17 | 47.73498 | 15.01838 | 141° | 119km/h | 10139m | -12.9m/s | -44.3°C | 33.3% | 0hPa | 2.5V | 00:00:00 | 00:00:00 | 00:00:00 | |
| DO3MHA-12 | 2026-09-03 03:21:16 | 47.73521 | 15.01810 | 142° | 119km/h | 10153m | -11.8m/s | -44.4°C | 33.5% | 0hPa | 2.6V | 00:00:00 | 01:32:34 | 00:00:00 | |
| OE5DXL-15 | 2026-09-03 03:21:15 | 47.73545 | 15.01782 | 143° | 117km/h | 10164m | -11.3m/s | -44.5°C | 33.7% | 0hPa | 2.6V | 00:00:00 | 00:00:00 | 00:00:00 | |
| PG1ADW-2 | 2026-09-03 03:21:12 | 47.73616 | 15.01700 | 142° | 117km/h | 10198m | -11.2m/s | -44.8°C | 34.0% | 0hPa | 2.6V | 00:00:00 | 00:00:00 | 00:00:00 | |
| OE5MMP-10 | 2026-09-03 03:21:11 | 47.73639 | 15.01673 | 142° | 117km/h | 10209m | -11.5m/s | -44.8°C | 34.0% | 0hPa | 2.6V | 00:00:00 | 01:32:29 | 00:00:00 | |
| DO3MHA-12 | 2026-09-03 03:21:06 | 47.73755 | 15.01534 | 143° | 117km/h | 10266m | -11.4m/s | -45.3°C | 34.4% | 0hPa | 2.6V | 00:00:00 | 01:32:24 | 00:00:00 | |
| PETON7-10 | 2026-09-03 03:21:02 | 47.73847 | 15.01424 | 142° | 115km/h | 10309m | -11.2m/s | -45.7°C | 34.6% | 0hPa | 2.6V | 00:00:00 | 00:00:00 | 00:00:00 | |
| OE5MMP-10 | 2026-09-03 03:21:01 | 47.73869 | 15.01397 | 142° | 115km/h | 10320m | -10.7m/s | -45.8°C | 34.7% | 0hPa | 2.6V | 00:00:00 | 01:32:19 | 00:00:00 | |
| OE8JPQ-2 | 2026-09-03 03:21:00 | 47.73893 | 15.01369 | 143° | 117km/h | 10330m | -10.5m/s | -45.9°C | 34.9% | 0hPa | 2.6V | 00:00:00 | 01:32:18 | 00:00:00 | |
| OE3JTB-15 | 2026-09-03 03:20:57 | 47.73963 | 15.01291 | 145° | 119km/h | 10361m | -10.6m/s | -46.2°C | 34.7% | 0hPa | 2.6V | 00:00:00 | 00:00:00 | 00:00:00 | |
| DO3MHA-12 | 2026-09-03 03:20:55 | 47.74010 | 15.01240 | 143° | 117km/h | 10382m | -11.2m/s | -46.4°C | 34.0% | 0hPa | 2.5V | 00:00:00 | 01:32:13 | 00:00:00 | |
| OE5WHR-10 | 2026-09-03 03:20:53 | 47.74057 | 15.01189 | 146° | 119km/h | 10403m | -10.3m/s | -46.5°C | 32.9% | 0hPa | 2.5V | 00:00:00 | 01:32:11 | 00:00:00 | |
| PG1ADW-2 | 2026-09-03 03:20:52 | 47.74081 | 15.01164 | 146° | 119km/h | 10414m | -12.2m/s | -46.6°C | 32.1% | 0hPa | 2.5V | 00:00:00 | 00:00:00 | 00:00:00 | |
| OE5MMP-10 | 2026-09-03 03:20:51 | 47.74105 | 15.01140 | 146° | 117km/h | 10427m | -12.1m/s | -46.7°C | 31.9% | 0hPa | 2.5V | 00:00:00 | 01:32:09 | 00:00:00 | |
| PETON7-10 | 2026-09-03 03:20:47 | 47.74202 | 15.01043 | 146° | 120km/h | 10472m | -10.6m/s | -46.9°C | 32.1% | 0hPa | 2.5V | 00:00:00 | 01:32:05 | 00:00:00 | |
| OE5DXL-15 | 2026-09-03 03:20:45 | 47.74252 | 15.00994 | 146° | 122km/h | 10493m | -11.0m/s | -47.0°C | 32.0% | 0hPa | 2.5V | 08:20:00 | 00:00:00 | 00:00:00 | |
| OE5DRO-10 | 2026-09-03 03:20:44 | 47.74277 | 15.00969 | 147° | 120km/h | 10504m | -10.4m/s | -47.0°C | 32.0% | 0hPa | 2.5V | 00:00:00 | 00:00:00 | 00:00:00 | |
| DO3MHA-12 | 2026-09-03 03:20:43 | 47.74303 | 15.00945 | 148° | 120km/h | 10515m | -9.8m/s | -47.1°C | 32.1% | 0hPa | 2.5V | 00:00:00 | 01:32:01 | 00:00:00 | |
| OE5MMP-10 | 2026-09-03 03:20:41 | 47.74354 | 15.00896 | 147° | 120km/h | 10535m | -10.5m/s | -47.2°C | 31.9% | 0hPa | 2.5V | 00:00:00 | 01:31:59 | 00:00:00 | |
| OE8JPQ-2 | 2026-09-03 03:20:40 | 47.74379 | 15.00871 | 147° | 122km/h | 10546m | -11.4m/s | -47.2°C | 32.0% | 0hPa | 2.5V | 00:00:00 | 00:00:00 | 00:00:00 | |
| DO3MHA-12 | 2026-09-03 03:20:33 | 47.74556 | 15.00694 | 146° | 122km/h | 10625m | -10.7m/s | -47.7°C | 32.7% | 0hPa | 2.5V | 00:00:00 | 01:31:51 | 00:00:00 | |
| PETON7-10 | 2026-09-03 03:20:32 | 47.74582 | 15.00668 | 147° | 122km/h | 10636m | -11.2m/s | -47.8°C | 32.7% | 0hPa | 2.5V | 00:00:00 | 00:00:00 | 00:00:00 | |
| OE5MMP-10 | 2026-09-03 03:20:31 | 47.74608 | 15.00643 | 146° | 122km/h | 10648m | -12.5m/s | -47.8°C | 32.7% | 0hPa | 2.5V | 00:00:00 | 01:31:49 | 00:00:00 | |
| OE3JTB-15 | 2026-09-03 03:20:28 | 47.74684 | 15.00567 | 145° | 124km/h | 10683m | -11.6m/s | -48.1°C | 33.7% | 0hPa | 2.5V | 00:00:00 | 00:00:00 | 00:00:00 | |
| OM5KV | 2026-09-03 03:20:26 | 47.74709 | 15.00540 | 147° | 124km/h | 10695m | -11.3m/s | -48.2°C | 29.3% | 0hPa | 2.5V | 08:21:00 | 00:00:00 | 00:00:00 | |
| OE5DRO-10 | 2026-09-03 03:20:25 | 47.74760 | 15.00488 | 146° | 124km/h | 10718m | -12.5m/s | -48.3°C | 33.9% | 0hPa | 2.5V | 00:00:00 | 00:00:00 | 00:00:00 | |
| DO3MHA-12 | 2026-09-03 03:20:23 | 47.74812 | 15.00436 | 147° | 122km/h | 10741m | -11.4m/s | -48.6°C | 35.0% | 0hPa | 2.5V | 00:00:00 | 01:31:41 | 00:00:00 | |
| OE3OSB-13 | 2026-09-03 03:20:22 | 47.74838 | 15.00411 | 146° | 120km/h | 10752m | -11.2m/s | -48.7°C | 30.6% | -1.0hPa | 2.5V | 00:00:00 | 00:00:00 | 00:00:00 | |
| OE5MMP-10 | 2026-09-03 03:20:21 | 47.74864 | 15.00386 | 146° | 124km/h | 10763m | -10.8m/s | -48.8°C | 36.0% | 0hPa | 2.5V | 08:20:00 | 01:31:39 | 00:00:00 | |
| OE8JPQ-2 | 2026-09-03 03:20:20 | 47.74889 | 15.00360 | 145° | 124km/h | 10774m | -11.5m/s | -48.9°C | 36.5% | 0hPa | 2.5V | 00:00:00 | 00:00:00 | 00:00:00 | |
| PETON7-10 | 2026-09-03 03:20:17 | 47.74966 | 15.00281 | 146° | 124km/h | 10806m | -10.2m/s | -49.2°C | 37.8% | 0hPa | 2.5V | 00:00:00 | 00:00:00 | 00:00:00 | |
| OE5DXL-15 | 2026-09-03 03:20:15 | 47.75018 | 15.00228 | 146° | 124km/h | 10827m | -11.6m/s | -49.4°C | 38.5% | 0hPa | 2.5V | 00:00:00 | 00:00:00 | 00:00:00 | |
| OM5KV | 2026-09-03 03:20:14 | 47.75018 | 15.00228 | 146° | 120km/h | 10827m | -11.6m/s | -49.4°C | 33.5% | 0hPa | 2.5V | 00:00:00 | 00:00:00 | 00:00:00 | |
| DO3MHA-12 | 2026-09-03 03:20:13 | 47.75069 | 15.00175 | 145° | 124km/h | 10850m | -10.6m/s | -49.6°C | 38.8% | 0hPa | 2.5V | 00:00:00 | 01:31:31 | 00:00:00 | |
| PG1ADW-2 | 2026-09-03 03:20:12 | 47.75094 | 15.00149 | 146° | 124km/h | 10861m | -11.3m/s | -49.7°C | 39.1% | 0hPa | 2.5V | 00:00:00 | 00:00:00 | 00:00:00 | |
| OE5WHR-10 | 2026-09-03 03:20:11 | 47.75120 | 15.00122 | 146° | 124km/h | 10871m | -10.5m/s | -49.8°C | 39.4% | 0hPa | 2.5V | 00:00:00 | 00:00:00 | 00:00:00 | |
| OM5KV | 2026-09-03 03:20:07 | 47.75197 | 15.00041 | 146° | 126km/h | 10903m | -11.2m/s | -50.1°C | 34.7% | 0hPa | 2.5V | 00:00:00 | 00:00:00 | 00:00:00 | |
| S52SK | 2026-09-03 03:20:04 | 47.75275 | 14.99961 | 145° | 124km/h | 10936m | -10.7m/s | -50.4°C | 35.2% | 0hPa | 2.5V | 00:00:00 | 00:00:00 | 00:00:00 | |
| DO3MHA-12 | 2026-09-03 03:20:03 | 47.75326 | 14.99906 | 145° | 124km/h | 10958m | -12.2m/s | -50.5°C | 40.4% | 0hPa | 2.5V | 00:00:00 | 01:31:21 | 00:00:00 | |
| OM5KV | 2026-09-03 03:20:02 | 47.75352 | 14.99880 | 146° | 122km/h | 10969m | -12.2m/s | -50.6°C | 35.4% | 0hPa | 2.5V | 00:00:00 | 00:00:00 | 00:00:00 | |
| OE5MMP-10 | 2026-09-03 03:20:01 | 47.75378 | 14.99852 | 144° | 124km/h | 10980m | -9.9m/s | -50.6°C | 41.1% | 0hPa | 2.5V | 00:00:00 | 01:31:19 | 00:00:00 | |
| OE8JPQ-2 | 2026-09-03 03:20:00 | 47.75403 | 14.99825 | 145° | 122km/h | 10990m | -9.8m/s | -50.7°C | 41.1% | 0hPa | 2.5V | 00:00:00 | 01:31:18 | 00:00:00 | |
| OE3JTB-15 | 2026-09-03 03:19:59 | 47.75429 | 14.99799 | 146° | 122km/h | 11000m | -9.7m/s | -50.7°C | 41.4% | 0hPa | 2.5V | 00:00:00 | 01:31:17 | 00:00:00 | |
| OM5KV | 2026-09-03 03:19:56 | 47.75479 | 14.99745 | 144° | 122km/h | 11020m | -11.0m/s | -50.9°C | 36.5% | 0hPa | 2.5V | 00:00:00 | 00:00:00 | 00:00:00 | |
| DO3MHA-12 | 2026-09-03 03:19:53 | 47.75580 | 14.99637 | 144° | 122km/h | 11062m | -9.5m/s | -51.2°C | 43.0% | 0hPa | 2.5V | 08:21:00 | 01:31:11 | 00:00:00 | |
| PG1ADW-2 | 2026-09-03 03:19:52 | 47.75605 | 14.99610 | 144° | 122km/h | 11072m | -12.5m/s | -51.2°C | 43.0% | 0hPa | 2.5V | 00:00:00 | 00:00:00 | 00:00:00 | |
| OE5MMP-10 | 2026-09-03 03:19:51 | 47.75630 | 14.99583 | 144° | 122km/h | 11085m | -12.8m/s | -51.3°C | 43.5% | 0hPa | 2.5V | 00:00:00 | 01:31:09 | 00:00:00 | |
| OE5WHR-10 | 2026-09-03 03:19:50 | 47.75654 | 14.99556 | 144° | 122km/h | 11098m | -11.8m/s | -51.5°C | 44.4% | 0hPa | 2.5V | 00:00:00 | 01:31:08 | 00:00:00 | |
| PETON7-10 | 2026-09-03 03:19:47 | 47.75731 | 14.99475 | 145° | 120km/h | 11127m | -10.6m/s | -51.7°C | 44.9% | 0hPa | 2.5V | 08:21:00 | 00:00:00 | 00:00:00 | |
| OE5DXL-15 | 2026-09-03 03:19:45 | 47.75781 | 14.99422 | 145° | 120km/h | 11152m | -13.7m/s | -51.9°C | 45.0% | 0hPa | 2.5V | 00:00:00 | 00:00:00 | 00:00:00 | |
| DO3MHA-12 | 2026-09-03 03:19:43 | 47.75831 | 14.99371 | 146° | 122km/h | 11178m | -13.4m/s | -52.1°C | 46.0% | 0hPa | 2.5V | 00:00:00 | 01:31:01 | 00:00:00 | |
| DO3MHA-12 | 2026-09-03 03:19:33 | 47.76085 | 14.99113 | 146° | 120km/h | 11305m | -12.3m/s | -53.3°C | 49.8% | 0hPa | 2.5V | 00:00:00 | 01:30:51 | 00:00:00 | |
| PETON7-10 | 2026-09-03 03:19:32 | 47.76110 | 14.99088 | 146° | 119km/h | 11316m | -11.8m/s | -53.4°C | 50.4% | 0hPa | 2.5V | 00:00:00 | 00:00:00 | 00:00:00 | |
| OE5MMP-10 | 2026-09-03 03:19:31 | 47.76136 | 14.99062 | 146° | 119km/h | 11327m | -10.8m/s | -53.5°C | 50.6% | 0hPa | 2.5V | 00:00:00 | 01:30:49 | 00:00:00 | |
| OE3JTB-15 | 2026-09-03 03:19:30 | 47.76161 | 14.99037 | 147° | 117km/h | 11338m | -12.1m/s | -53.6°C | 50.5% | 0hPa | 2.5V | 00:00:00 | 00:00:00 | 00:00:00 | |
| OE5WHR-10 | 2026-09-03 03:19:29 | 47.76187 | 14.99012 | 147° | 117km/h | 11350m | -12.3m/s | -53.7°C | 50.5% | 0hPa | 2.5V | 00:00:00 | 00:00:00 | 00:00:00 | |
| OE5DRO-10 | 2026-09-03 03:19:28 | 47.76212 | 14.98987 | 146° | 117km/h | 11363m | -14.8m/s | -53.7°C | 50.2% | 0hPa | 2.5V | 00:00:00 | 00:00:00 | 00:00:00 | |
| DO3MHA-12 | 2026-09-03 03:19:23 | 47.76338 | 14.98866 | 148° | 117km/h | 11435m | -15.1m/s | -54.4°C | 50.7% | 0hPa | 2.5V | 00:00:00 | 01:30:41 | 00:00:00 | |
| OE5MMP-10 | 2026-09-03 03:19:21 | 47.76389 | 14.98818 | 148° | 117km/h | 11465m | -16.1m/s | -54.6°C | 50.8% | 0hPa | 2.5V | 00:00:00 | 01:30:39 | 00:00:00 | |
| OE8JPQ-2 | 2026-09-03 03:19:20 | 47.76414 | 14.98793 | 148° | 115km/h | 11480m | -13.7m/s | -54.7°C | 50.8% | 0hPa | 2.5V | 00:00:00 | 00:00:00 | 00:00:00 | |
| OM5KV | 2026-09-03 03:19:19 | 47.76414 | 14.98793 | 148° | 120km/h | 11480m | -13.7m/s | -54.8°C | 43.9% | 0hPa | 2.5V | 08:22:00 | 00:00:00 | 00:00:00 | |
| PETON7-10 | 2026-09-03 03:19:17 | 47.76490 | 14.98723 | 148° | 115km/h | 11526m | -15.3m/s | -55.1°C | 50.0% | 0hPa | 2.5V | 00:00:00 | 01:30:35 | 00:00:00 | |
| OE5DXL-15 | 2026-09-03 03:19:15 | 47.76539 | 14.98677 | 148° | 117km/h | 11558m | -15.9m/s | -55.4°C | 50.1% | 0hPa | 2.5V | 00:00:00 | 00:00:00 | 00:00:00 | |
| DO3MHA-12 | 2026-09-03 03:19:13 | 47.76589 | 14.98631 | 149° | 115km/h | 11588m | -15.9m/s | -55.6°C | 49.2% | 0hPa | 2.7V | 00:00:00 | 01:30:31 | 00:00:00 | |
| PG1ADW-2 | 2026-09-03 03:19:12 | 47.76614 | 14.98608 | 149° | 115km/h | 11605m | -16.1m/s | -55.8°C | 48.9% | 0hPa | 2.7V | 00:00:00 | 01:30:30 | 00:00:00 | |
| OE5MMP-10 | 2026-09-03 03:19:11 | 47.76638 | 14.98586 | 149° | 115km/h | 11620m | -15.4m/s | -55.9°C | 48.6% | 0hPa | 2.7V | 00:00:00 | 01:30:29 | 00:00:00 | |
| OE5DRO-10 | 2026-09-03 03:19:09 | 47.76688 | 14.98541 | 148° | 115km/h | 11651m | -15.9m/s | -56.2°C | 47.5% | 0hPa | 2.7V | 00:00:00 | 00:00:00 | 00:00:00 | |
| OE5WHR-10 | 2026-09-03 03:19:08 | 47.76713 | 14.98518 | 148° | 117km/h | 11666m | -15.2m/s | -56.3°C | 46.8% | 0hPa | 2.7V | 00:00:00 | 00:00:00 | 00:00:00 | |
| OM5KV | 2026-09-03 03:19:05 | 47.76762 | 14.98471 | 148° | 117km/h | 11696m | -15.9m/s | -56.6°C | 38.8% | 0hPa | 2.7V | 08:22:00 | 00:00:00 | 00:00:00 | |
| PETON7-10 | 2026-09-03 03:19:02 | 47.76857 | 14.98373 | 144° | 117km/h | 11762m | -16.8m/s | -56.8°C | 42.7% | 0hPa | 2.7V | 00:00:00 | 00:00:00 | 00:00:00 | |
| OE3OSB-13 | 2026-09-03 03:18:49 | 47.77163 | 14.98039 | 145° | 115km/h | 11964m | -15.7m/s | -58.3°C | 25.1% | -1.0hPa | 2.7V | 00:00:00 | 00:00:00 | 00:00:00 | |
| OM5KV | 2026-09-03 03:18:48 | 47.77162 | 14.98038 | 146° | 117km/h | 11964m | -15.7m/s | -58.3°C | 25.5% | 0hPa | 2.7V | 08:22:00 | 00:00:00 | 00:00:00 | |
| PETON7-10 | 2026-09-03 03:18:47 | 47.77211 | 14.97987 | 144° | 113km/h | 11997m | -17.8m/s | -58.2°C | 29.3% | 0hPa | 2.7V | 00:00:00 | 00:00:00 | 00:00:00 | |
| OE5DXL-15 | 2026-09-03 03:18:45 | 47.77259 | 14.97936 | 145° | 115km/h | 12030m | -16.4m/s | -57.7°C | 26.4% | 0hPa | 2.7V | 00:00:00 | 00:00:00 | 00:00:00 | |
| DO3MHA-12 | 2026-09-03 03:18:43 | 47.77306 | 14.97885 | 145° | 111km/h | 12062m | -15.9m/s | -57.9°C | 25.4% | 0hPa | 2.7V | 00:00:00 | 01:30:01 | 00:00:00 | |
| OE5MMP-10 | 2026-09-03 03:18:41 | 47.77352 | 14.97836 | 145° | 111km/h | 12095m | -17.2m/s | -58.1°C | 24.4% | 0hPa | 2.7V | 00:00:00 | 01:29:59 | 00:00:00 | |
| OE8JPQ-2 | 2026-09-03 03:18:40 | 47.77374 | 14.97812 | 144° | 115km/h | 12111m | -16.4m/s | -58.1°C | 23.8% | 0hPa | 2.7V | 00:00:00 | 00:00:00 | 00:00:00 | |
| S52SK | 2026-09-03 03:18:36 | 47.77442 | 14.97737 | 143° | 113km/h | 12160m | -15.6m/s | -58.1°C | 16.7% | 0hPa | 2.5V | 00:00:00 | 00:00:00 | 00:00:00 | |
| DO3MHA-12 | 2026-09-03 03:18:33 | 47.77534 | 14.97634 | 143° | 115km/h | 12219m | -12.6m/s | -58.2°C | 21.8% | 0hPa | 2.5V | 00:00:00 | 01:29:51 | 00:00:00 | |
| PETON7-10 | 2026-09-03 03:18:32 | 47.77556 | 14.97608 | 143° | 117km/h | 12229m | -10.2m/s | -58.1°C | 21.5% | 0hPa | 2.5V | 00:00:00 | 01:29:50 | 00:00:00 | |
| OE5MMP-10 | 2026-09-03 03:18:31 | 47.77579 | 14.97582 | 143° | 115km/h | 12241m | -12.2m/s | -58.1°C | 21.1% | 0hPa | 2.5V | 00:00:00 | 01:29:49 | 00:00:00 | |
| OM5KV | 2026-09-03 03:18:30 | 47.77579 | 14.97582 | 144° | 117km/h | 12241m | -12.2m/s | -58.2°C | 15.9% | 0hPa | 2.5V | 00:00:00 | 00:00:00 | 00:00:00 | |
| OE5WHR-10 | 2026-09-03 03:18:26 | 47.77695 | 14.97449 | 141° | 117km/h | 12297m | -11.1m/s | -57.7°C | 18.4% | 0hPa | 2.5V | 08:22:00 | 00:00:00 | 00:00:00 | |
| OE5FHM-15 | 2026-09-03 03:18:25 | 47.77718 | 14.97421 | 142° | 115km/h | 12309m | -12.8m/s | -57.6°C | 17.5% | 0hPa | 2.6V | 00:00:00 | 01:29:43 | 00:00:00 | |
| DO3MHA-12 | 2026-09-03 03:18:23 | 47.77764 | 14.97366 | 142° | 117km/h | 12341m | -17.3m/s | -57.3°C | 16.2% | 0hPa | 2.6V | 08:22:00 | 01:29:41 | 00:00:00 | |
| OE5MMP-10 | 2026-09-03 03:18:21 | 47.77809 | 14.97311 | 142° | 117km/h | 12375m | -17.3m/s | -57.1°C | 15.6% | 0hPa | 2.5V | 00:00:00 | 01:29:39 | 00:00:00 | |
| OE8JPQ-2 | 2026-09-03 03:18:20 | 47.77832 | 14.97283 | 141° | 115km/h | 12393m | -18.6m/s | -56.9°C | 15.2% | 0hPa | 2.5V | 00:00:00 | 00:00:00 | 00:00:00 | |
| OE3OSB-13 | 2026-09-03 03:18:18 | 47.77877 | 14.97227 | 139° | 117km/h | 12428m | -16.6m/s | -56.7°C | 10.3% | -1.0hPa | 2.5V | 00:00:00 | 00:00:00 | 00:00:00 | |
| PETON7-10 | 2026-09-03 03:18:17 | 47.77900 | 14.97199 | 141° | 115km/h | 12444m | -15.4m/s | -56.7°C | 14.6% | 0hPa | 2.5V | 00:00:00 | 00:00:00 | 00:00:00 | |
| OE5DXL-15 | 2026-09-03 03:18:15 | 47.77945 | 14.97143 | 141° | 115km/h | 12474m | -16.3m/s | -56.8°C | 14.4% | 0hPa | 2.5V | 00:00:00 | 00:00:00 | 00:00:00 | |
| DO3MHA-12 | 2026-09-03 03:18:13 | 47.77990 | 14.97087 | 140° | 115km/h | 12503m | -12.5m/s | -57.0°C | 14.7% | 0hPa | 2.5V | 00:00:00 | 01:29:31 | 00:00:00 | |
| PG1ADW-2 | 2026-09-03 03:18:12 | 47.78012 | 14.97059 | 141° | 115km/h | 12514m | -10.3m/s | -57.1°C | 14.7% | 0hPa | 2.5V | 00:00:00 | 00:00:00 | 00:00:00 | |
| OE5MMP-10 | 2026-09-03 03:18:11 | 47.78035 | 14.97031 | 140° | 115km/h | 12525m | -11.8m/s | -57.2°C | 14.5% | 0hPa | 2.5V | 00:00:00 | 01:29:29 | 00:00:00 | |
| OE5WHR-10 | 2026-09-03 03:18:05 | 47.78168 | 14.96864 | 140° | 115km/h | 12596m | -10.8m/s | -57.6°C | 13.9% | 0hPa | 2.5V | 00:00:00 | 00:00:00 | 00:00:00 | |
| PETON7-10 | 2026-09-03 03:18:02 | 47.78233 | 14.96779 | 139° | 115km/h | 12632m | -10.6m/s | -57.7°C | 13.7% | 0hPa | 2.5V | 00:00:00 | 00:00:00 | 00:00:00 | |
| OE5MMP-10 | 2026-09-03 03:18:01 | 47.78255 | 14.96751 | 138° | 115km/h | 12642m | -11.1m/s | -57.8°C | 13.6% | 0hPa | 2.5V | 00:00:00 | 01:29:19 | 00:00:00 | |
| OE8JPQ-2 | 2026-09-03 03:18:00 | 47.78275 | 14.96722 | 137° | 115km/h | 12653m | -11.0m/s | -57.8°C | 13.5% | 0hPa | 2.5V | 00:00:00 | 01:29:18 | 00:00:00 | |
| DO3MHA-12 | 2026-09-03 03:17:53 | 47.78420 | 14.96514 | 136° | 117km/h | 12730m | -10.7m/s | -58.1°C | 13.4% | 0hPa | 2.5V | 00:00:00 | 01:29:11 | 00:00:00 | |
| PG1ADW-2 | 2026-09-03 03:17:52 | 47.78441 | 14.96482 | 135° | 113km/h | 12741m | -12.3m/s | -58.1°C | 13.1% | 0hPa | 2.7V | 00:00:00 | 01:29:10 | 00:00:00 | |
| OE5MMP-10 | 2026-09-03 03:17:51 | 47.78462 | 14.96451 | 136° | 115km/h | 12753m | -13.4m/s | -58.0°C | 12.5% | 0hPa | 2.7V | 00:00:00 | 01:29:09 | 00:00:00 | |
| OE5FHM-15 | 2026-09-03 03:17:47 | 47.78544 | 14.96325 | 133° | 110km/h | 12811m | -15.4m/s | -58.0°C | 11.3% | 0hPa | 2.5V | 00:00:00 | 01:29:05 | 00:00:00 | |
| OE5DXL-15 | 2026-09-03 03:17:45 | 47.78584 | 14.96260 | 131° | 110km/h | 12838m | -12.4m/s | -58.1°C | 10.9% | 0hPa | 2.5V | 00:00:00 | 00:00:00 | 00:00:00 | |
| OE5WHR-10 | 2026-09-03 03:17:44 | 47.78603 | 14.96227 | 132° | 111km/h | 12850m | -12.9m/s | -58.0°C | 10.5% | 0hPa | 2.5V | 00:00:00 | 01:29:02 | 00:00:00 | |
| DO3MHA-12 | 2026-09-03 03:17:43 | 47.78622 | 14.96196 | 133° | 111km/h | 12863m | -14.4m/s | -57.8°C | 9.8% | 0hPa | 2.5V | 00:00:00 | 01:29:01 | 00:00:00 | |
| OE5MMP-10 | 2026-09-03 03:17:41 | 47.78661 | 14.96134 | 134° | 111km/h | 12891m | -14.5m/s | -57.6°C | 8.8% | 0hPa | 2.5V | 00:00:00 | 01:28:59 | 00:00:00 | |
| OE8JPQ-2 | 2026-09-03 03:17:40 | 47.78680 | 14.96103 | 133° | 110km/h | 12905m | -14.8m/s | -57.3°C | 8.3% | 0hPa | 2.5V | 00:00:00 | 00:00:00 | 00:00:00 | |
| OE3JTB-15 | 2026-09-03 03:17:34 | 47.78790 | 14.95915 | 130° | 108km/h | 12982m | -13.1m/s | -56.4°C | 7.2% | 0hPa | 2.5V | 00:00:00 | 00:00:00 | 00:00:00 | |
| DO3MHA-12 | 2026-09-03 03:17:33 | 47.78809 | 14.95883 | 131° | 110km/h | 12994m | -11.1m/s | -55.8°C | 6.8% | 0hPa | 2.5V | 00:00:00 | 01:28:51 | 00:00:00 | |
| PG1ADW-2 | 2026-09-03 03:17:32 | 47.78827 | 14.95851 | 130° | 108km/h | 13006m | -13.5m/s | -55.3°C | 6.6% | 0hPa | 2.5V | 00:00:00 | 00:00:00 | 00:00:00 | |
| OE5MMP-10 | 2026-09-03 03:17:31 | 47.78845 | 14.95820 | 130° | 110km/h | 13018m | -12.9m/s | -54.7°C | 6.2% | 0hPa | 2.6V | 00:00:00 | 01:28:49 | 00:00:00 | |
| DO3MHA-12 | 2026-09-03 03:17:23 | 47.78989 | 14.95571 | 130° | 106km/h | 13130m | -12.3m/s | -54.9°C | 6.6% | 0hPa | 2.6V | 00:00:00 | 01:28:41 | 00:00:00 | |
| OE5MMP-10 | 2026-09-03 03:17:21 | 47.79023 | 14.95509 | 130° | 104km/h | 13154m | -12.0m/s | -54.8°C | 6.5% | 0hPa | 2.7V | 08:23:00 | 01:28:39 | 00:00:00 | |
| OE8JPQ-2 | 2026-09-03 03:17:20 | 47.79041 | 14.95478 | 130° | 106km/h | 13165m | -11.1m/s | -54.8°C | 6.6% | 0hPa | 2.5V | 00:00:00 | 00:00:00 | 00:00:00 | |
| PETON7-10 | 2026-09-03 03:17:17 | 47.79092 | 14.95387 | 131° | 106km/h | 13201m | -12.3m/s | -54.8°C | 6.6% | 0hPa | 2.5V | 00:00:00 | 00:00:00 | 00:00:00 | |
| OE3OSB-13 | 2026-09-03 03:17:16 | 47.79109 | 14.95358 | 130° | 102km/h | 13214m | -13.2m/s | -54.9°C | 3.6% | -1.0hPa | 2.5V | 00:00:00 | 00:00:00 | 00:00:00 | |
| OE5DXL-15 | 2026-09-03 03:17:15 | 47.79127 | 14.95328 | 132° | 102km/h | 13226m | -12.9m/s | -54.8°C | 6.7% | 0hPa | 2.5V | 00:00:00 | 00:00:00 | 00:00:00 | |
| DO3MHA-12 | 2026-09-03 03:17:13 | 47.79161 | 14.95270 | 131° | 106km/h | 13250m | -12.5m/s | -54.7°C | 6.8% | 0hPa | 2.5V | 00:00:00 | 01:28:31 | 00:00:00 | |
| PG1ADW-2 | 2026-09-03 03:17:12 | 47.79178 | 14.95241 | 131° | 106km/h | 13262m | -12.1m/s | -54.7°C | 6.8% | 0hPa | 2.5V | 00:00:00 | 00:00:00 | 00:00:00 | |
| OE5MMP-10 | 2026-09-03 03:17:11 | 47.79195 | 14.95211 | 130° | 108km/h | 13273m | -11.4m/s | -54.7°C | 6.9% | 0hPa | 2.5V | 00:00:00 | 01:28:29 | 00:00:00 | |
| OE3JTB-15 | 2026-09-03 03:17:05 | 47.79300 | 14.95027 | 131° | 97km/h | 13346m | -13.4m/s | -54.8°C | 6.8% | 0hPa | 2.5V | 00:00:00 | 01:28:23 | 00:00:00 | |
| DO3MHA-12 | 2026-09-03 03:17:03 | 47.79336 | 14.94967 | 132° | 106km/h | 13375m | -16.6m/s | -55.0°C | 6.6% | 0hPa | 2.5V | 00:00:00 | 01:28:21 | 00:00:00 | |
| OE5WHR-10 | 2026-09-03 03:17:02 | 47.79354 | 14.94936 | 132° | 99km/h | 13391m | -17.0m/s | -55.0°C | 6.4% | 0hPa | 2.5V | 00:00:00 | 00:00:00 | 00:00:00 | |
| OE5MMP-10 | 2026-09-03 03:17:01 | 47.79372 | 14.94906 | 131° | 102km/h | 13409m | -18.7m/s | -55.0°C | 6.3% | 0hPa | 2.5V | 00:00:00 | 01:28:19 | 00:00:00 | |
| OE8JPQ-2 | 2026-09-03 03:17:00 | 47.79390 | 14.94876 | 133° | 97km/h | 13427m | -18.3m/s | -54.8°C | 6.1% | 0hPa | 2.5V | 00:00:00 | 01:28:18 | 00:00:00 | |
| OE5DRO-10 | 2026-09-03 03:16:56 | 47.79465 | 14.94764 | 137° | 93km/h | 13493m | -13.8m/s | -54.2°C | 5.8% | 0hPa | 2.5V | 00:00:00 | 00:00:00 | 00:00:00 | |
| DO3MHA-12 | 2026-09-03 03:16:53 | 47.79520 | 14.94686 | 137° | 95km/h | 13534m | -10.8m/s | -54.1°C | 5.8% | 0hPa | 2.7V | 08:24:00 | 01:28:11 | 00:00:00 | |
| PG1ADW-2 | 2026-09-03 03:16:52 | 47.79538 | 14.94662 | 139° | 89km/h | 13544m | -8.7m/s | -54.2°C | 5.8% | 0hPa | 2.7V | 00:00:00 | 00:00:00 | 00:00:00 | |
| OE5MMP-10 | 2026-09-03 03:16:51 | 47.79557 | 14.94638 | 140° | 91km/h | 13554m | -11.0m/s | -54.1°C | 5.7% | 0hPa | 2.7V | 00:00:00 | 01:28:09 | 00:00:00 | |
| OE5FHM-15 | 2026-09-03 03:16:47 | 47.79628 | 14.94545 | 138° | 88km/h | 13597m | -10.9m/s | -54.2°C | 5.7% | 0hPa | 2.7V | 00:00:00 | 01:28:05 | 00:00:00 | |
| OE5DXL-15 | 2026-09-03 03:16:45 | 47.79663 | 14.94500 | 139° | 88km/h | 13621m | -11.0m/s | -54.2°C | 5.5% | 0hPa | 2.7V | 00:00:00 | 00:00:00 | 00:00:00 | |
| OE5WHR-10 | 2026-09-03 03:16:41 | 47.79730 | 14.94411 | 138° | 86km/h | 13671m | -14.1m/s | -54.3°C | 5.4% | 0hPa | 2.7V | 00:00:00 | 01:27:59 | 00:00:00 | |
| OE8JPQ-2 | 2026-09-03 03:16:40 | 47.79747 | 14.94389 | 138° | 86km/h | 13685m | -14.4m/s | -54.3°C | 5.4% | 0hPa | 2.7V | 08:24:00 | 00:00:00 | 00:00:00 | |
| OE5DRO-10 | 2026-09-03 03:16:37 | 47.79792 | 14.94324 | 135° | 86km/h | 13721m | -10.9m/s | -54.5°C | 5.5% | 0hPa | 2.5V | 00:00:00 | 00:00:00 | 00:00:00 | |
| OE3JTB-15 | 2026-09-03 03:16:36 | 47.79808 | 14.94301 | 135° | 89km/h | 13732m | -11.5m/s | -54.6°C | 5.4% | 0hPa | 2.5V | 00:00:00 | 00:00:00 | 00:00:00 | |
| DO3MHA-12 | 2026-09-03 03:16:33 | 47.79853 | 14.94233 | 135° | 84km/h | 13767m | -12.7m/s | -54.9°C | 5.4% | 0hPa | 2.5V | 00:00:00 | 01:27:51 | 00:00:00 | |
| PETON7-10 | 2026-09-03 03:16:32 | 47.79867 | 14.94211 | 133° | 88km/h | 13780m | -12.5m/s | -54.9°C | 5.5% | 0hPa | 2.5V | 00:00:00 | 00:00:00 | 00:00:00 | |
| OE5MMP-10 | 2026-09-03 03:16:31 | 47.79882 | 14.94188 | 132° | 86km/h | 13793m | -14.4m/s | -55.0°C | 5.5% | 0hPa | 2.5V | 00:00:00 | 01:27:49 | 00:00:00 | |
| DO3MHA-12 | 2026-09-03 03:16:23 | 47.79993 | 14.93995 | 130° | 91km/h | 13887m | -11.5m/s | -55.7°C | 5.8% | 0hPa | 2.5V | 00:00:00 | 01:27:41 | 00:00:00 | |
| OE5MMP-10 | 2026-09-03 03:16:21 | 47.80022 | 14.93943 | 129° | 93km/h | 13909m | -12.5m/s | -55.8°C | 5.7% | 0hPa | 2.5V | 00:00:00 | 01:27:39 | 00:00:00 | |
| OE5WHR-10 | 2026-09-03 03:16:20 | 47.80036 | 14.93916 | 129° | 91km/h | 13923m | -15.5m/s | -55.8°C | 5.7% | 0hPa | 2.6V | 00:00:00 | 00:00:00 | 00:00:00 | |
| OE5DRO-10 | 2026-09-03 03:16:18 | 47.80064 | 14.93863 | 128° | 91km/h | 13950m | -12.7m/s | -55.6°C | 5.6% | 0hPa | 2.5V | 00:00:00 | 00:00:00 | 00:00:00 | |
| OE5FHM-15 | 2026-09-03 03:16:17 | 47.80079 | 14.93836 | 128° | 88km/h | 13963m | -13.3m/s | -55.6°C | 5.5% | 0hPa | 2.5V | 00:00:00 | 01:27:35 | 00:00:00 | |
| OE5DXL-15 | 2026-09-03 03:16:15 | 47.80109 | 14.93782 | 130° | 86km/h | 13990m | -13.2m/s | -55.7°C | 5.6% | 0hPa | 2.5V | 08:24:00 | 00:00:00 | 00:00:00 | |
| OE3OSB-13 | 2026-09-03 03:16:14 | 47.80139 | 14.93728 | 128° | 93km/h | 14017m | -14.8m/s | -55.9°C | 2.6% | -1.0hPa | 2.5V | 00:00:00 | 00:00:00 | 00:00:00 | |
| DO3MHA-12 | 2026-09-03 03:16:13 | 47.80139 | 14.93727 | 129° | 91km/h | 14017m | -14.8m/s | -55.9°C | 5.6% | 0hPa | 2.5V | 00:00:00 | 01:27:31 | 00:00:00 | |
| PG1ADW-2 | 2026-09-03 03:16:12 | 47.80154 | 14.93701 | 132° | 88km/h | 14030m | -13.1m/s | -55.9°C | 5.7% | 0hPa | 2.5V | 00:00:00 | 00:00:00 | 00:00:00 | |
| OE5MMP-10 | 2026-09-03 03:16:11 | 47.80169 | 14.93675 | 131° | 91km/h | 14042m | -11.7m/s | -56.0°C | 5.7% | 0hPa | 2.5V | 00:00:00 | 01:27:29 | 00:00:00 | |
| OE3JTB-15 | 2026-09-03 03:16:07 | 47.80233 | 14.93575 | 136° | 82km/h | 14089m | -13.9m/s | -55.5°C | 5.3% | 0hPa | 2.5V | 00:00:00 | 00:00:00 | 00:00:00 | |
| PETON7-10 | 2026-09-03 03:16:02 | 47.80316 | 14.93459 | 139° | 82km/h | 14155m | -15.4m/s | -55.5°C | 5.1% | 0hPa | 2.5V | 00:00:00 | 00:00:00 | 00:00:00 | |
| OE5MMP-10 | 2026-09-03 03:16:01 | 47.80332 | 14.93437 | 139° | 84km/h | 14170m | -14.6m/s | -55.6°C | 5.2% | 0hPa | 2.6V | 00:00:00 | 01:27:19 | 00:00:00 | |
| OE8JPQ-2 | 2026-09-03 03:16:00 | 47.80349 | 14.93416 | 138° | 78km/h | 14183m | -13.7m/s | -55.6°C | 5.2% | 0hPa | 2.6V | 00:00:00 | 01:27:18 | 00:00:00 | |
| OE5WHR-10 | 2026-09-03 03:15:59 | 47.80366 | 14.93394 | 140° | 78km/h | 14196m | -12.8m/s | -55.6°C | 5.3% | 0hPa | 2.6V | 00:00:00 | 00:00:00 | 00:00:00 | |
| DO3MHA-12 | 2026-09-03 03:15:53 | 47.80464 | 14.93272 | 142° | 78km/h | 14266m | -12.0m/s | -55.8°C | 5.3% | 0hPa | 2.6V | 00:00:00 | 01:27:11 | 00:00:00 | |
| PG1ADW-2 | 2026-09-03 03:15:52 | 47.80479 | 14.93253 | 139° | 73km/h | 14277m | -10.9m/s | -55.9°C | 5.4% | 0hPa | 2.7V | 00:00:00 | 00:00:00 | 00:00:00 | |
| OE5MMP-10 | 2026-09-03 03:15:51 | 47.80495 | 14.93233 | 141° | 75km/h | 14288m | -11.5m/s | -56.0°C | 5.3% | 0hPa | 2.7V | 08:25:00 | 01:27:09 | 00:00:00 | |
| PETON7-10 | 2026-09-03 03:15:47 | 47.80554 | 14.93156 | 137° | 73km/h | 14338m | -15.1m/s | -56.2°C | 5.4% | 0hPa | 2.5V | 00:00:00 | 00:00:00 | 00:00:00 | |
| OE5DXL-15 | 2026-09-03 03:15:45 | 47.80583 | 14.93118 | 136° | 71km/h | 14363m | -11.3m/s | -56.4°C | 5.4% | 0hPa | 2.5V | 00:00:00 | 00:00:00 | 00:00:00 | |
| OE3OSB-13 | 2026-09-03 03:15:43 | 47.80624 | 14.93061 | 136° | 71km/h | 14397m | -12.2m/s | -56.6°C | 2.3% | -1.0hPa | 2.5V | 00:00:00 | 00:00:00 | 00:00:00 | |
| OE5MMP-10 | 2026-09-03 03:15:41 | 47.80637 | 14.93042 | 136° | 71km/h | 14410m | -12.9m/s | -56.6°C | 5.4% | 0hPa | 2.5V | 00:00:00 | 01:26:59 | 00:00:00 | |
| OE8JPQ-2 | 2026-09-03 03:15:40 | 47.80650 | 14.93023 | 136° | 69km/h | 14422m | -13.0m/s | -56.7°C | 5.4% | 0hPa | 2.5V | 00:00:00 | 00:00:00 | 00:00:00 | |
| OE3JTB-15 | 2026-09-03 03:15:38 | 47.80677 | 14.92987 | 137° | 69km/h | 14448m | -13.3m/s | -56.7°C | 5.4% | 0hPa | 2.5V | 00:00:00 | 01:26:56 | 00:00:00 | |
| S52SK | 2026-09-03 03:15:34 | 47.80716 | 14.92932 | 139° | 69km/h | 14485m | -12.2m/s | -56.8°C | 2.4% | 0hPa | 2.5V | 00:00:00 | 00:00:00 | 00:00:00 | |
| DO3MHA-12 | 2026-09-03 03:15:33 | 47.80742 | 14.92898 | 137° | 69km/h | 14508m | -13.9m/s | -56.6°C | 5.2% | 0hPa | 2.5V | 00:00:00 | 01:26:51 | 00:00:00 | |
| PETON7-10 | 2026-09-03 03:15:32 | 47.80755 | 14.92880 | 138° | 69km/h | 14520m | -12.6m/s | -56.6°C | 5.3% | 0hPa | 2.5V | 00:00:00 | 01:26:50 | 00:00:00 | |
| OE5MMP-10 | 2026-09-03 03:15:31 | 47.80767 | 14.92863 | 138° | 69km/h | 14533m | -13.5m/s | -56.6°C | 5.3% | 0hPa | 2.5V | 00:00:00 | 01:26:49 | 00:00:00 | |
| S52SK | 2026-09-03 03:15:28 | 47.80792 | 14.92827 | 135° | 71km/h | 14558m | -13.5m/s | -56.5°C | 2.3% | 0hPa | 2.5V | 00:00:00 | 00:00:00 | 00:00:00 | |
| DO3MHA-12 | 2026-09-03 03:15:23 | 47.80862 | 14.92713 | 131° | 64km/h | 14631m | -11.3m/s | -56.6°C | 5.3% | 0hPa | 2.5V | 08:25:00 | 01:26:41 | 00:00:00 | |
| OE5MMP-10 | 2026-09-03 03:15:21 | 47.80885 | 14.92672 | 127° | 71km/h | 14656m | -14.5m/s | -56.7°C | 5.2% | 0hPa | 2.5V | 00:00:00 | 01:26:39 | 00:00:00 | |
| OE8JPQ-2 | 2026-09-03 03:15:20 | 47.80895 | 14.92651 | 127° | 75km/h | 14670m | -14.4m/s | -56.7°C | 5.3% | 0hPa | 2.7V | 00:00:00 | 00:00:00 | 00:00:00 | |
| NBG1-10 | 2026-09-03 03:15:19 | 47.80905 | 14.92630 | 123° | 73km/h | 14683m | -13.0m/s | 0°C | 0% | 0hPa | 2.7V | 00:00:00 | 01:26:37 | 00:00:00 | |
| OE5FHM-15 | 2026-09-03 03:15:17 | 47.80924 | 14.92586 | 122° | 80km/h | 14709m | -12.3m/s | -56.8°C | 5.4% | 0hPa | 2.7V | 00:00:00 | 01:26:35 | 00:00:00 | |
| OE5DXL-15 | 2026-09-03 03:15:15 | 47.80942 | 14.92539 | 119° | 82km/h | 14733m | -13.4m/s | -57.0°C | 5.4% | 0hPa | 2.7V | 00:00:00 | 00:00:00 | 00:00:00 | |
| PG1ADW-2 | 2026-09-03 03:15:12 | 47.80969 | 14.92468 | 119° | 80km/h | 14771m | -13.4m/s | -57.1°C | 5.4% | 0hPa | 2.7V | 00:00:00 | 01:26:30 | 00:00:00 | |
| OE5MMP-10 | 2026-09-03 03:15:11 | 47.80977 | 14.92444 | 117° | 77km/h | 14786m | -15.1m/s | -57.1°C | 5.4% | 0hPa | 2.7V | 00:00:00 | 01:26:29 | 00:00:00 | |
| OE3JTB-15 | 2026-09-03 03:15:09 | 47.80994 | 14.92395 | 117° | 86km/h | 14812m | -12.2m/s | -57.2°C | 5.4% | 0hPa | 2.7V | 00:00:00 | 00:00:00 | 00:00:00 | |
| PETON7-10 | 2026-09-03 03:15:02 | 47.81060 | 14.92218 | 120° | 88km/h | 14892m | -11.8m/s | -56.9°C | 5.5% | 0hPa | 2.7V | 00:00:00 | 00:00:00 | 00:00:00 | |
| OE5MMP-10 | 2026-09-03 03:15:01 | 47.81070 | 14.92192 | 123° | 86km/h | 14904m | -11.4m/s | -56.9°C | 5.4% | 0hPa | 2.7V | 00:00:00 | 01:26:19 | 00:00:00 | |
| OE8JPQ-2 | 2026-09-03 03:15:00 | 47.81081 | 14.92167 | 122° | 88km/h | 14915m | -12.3m/s | -56.8°C | 5.5% | 0hPa | 2.7V | 00:00:00 | 01:26:18 | 00:00:00 | |
| OE5WHR-10 | 2026-09-03 03:14:56 | 47.81127 | 14.92061 | 123° | 91km/h | 14965m | -13.8m/s | -55.9°C | 5.0% | 0hPa | 2.7V | 00:00:00 | 00:00:00 | 00:00:00 | |
| PG1ADW-2 | 2026-09-03 03:14:52 | 47.81176 | 14.91952 | 124° | 89km/h | 15014m | -11.3m/s | -55.8°C | 5.0% | 0hPa | 2.7V | 00:00:00 | 00:00:00 | 00:00:00 | |
| OE5MMP-10 | 2026-09-03 03:14:51 | 47.81189 | 14.91925 | 124° | 95km/h | 15025m | -12.1m/s | -55.7°C | 5.0% | 0hPa | 2.7V | 00:00:00 | 01:26:09 | 00:00:00 | |
| OE5FHM-15 | 2026-09-03 03:14:47 | 47.81245 | 14.91810 | 127° | 77km/h | 15072m | -10.9m/s | -55.5°C | 4.9% | 0hPa | 2.7V | 00:00:00 | 01:26:05 | 00:00:00 | |
| OE5DXL-15 | 2026-09-03 03:14:45 | 47.81275 | 14.91753 | 129° | 73km/h | 15096m | -13.0m/s | -55.3°C | 4.7% | 0hPa | 2.7V | 00:00:00 | 00:00:00 | 00:00:00 | |
| OE5DRO-10 | 2026-09-03 03:14:43 | 47.81306 | 14.91698 | 131° | 78km/h | 15123m | -14.6m/s | -55.3°C | 4.7% | 0hPa | 2.7V | 00:00:00 | 00:00:00 | 00:00:00 | |
| OE3OSB-13 | 2026-09-03 03:14:41 | 47.81353 | 14.91620 | 133° | 89km/h | 15163m | -13.7m/s | -55.4°C | 1.7% | -1.0hPa | 2.7V | 00:00:00 | 00:00:00 | 00:00:00 | |
| OE3JTB-15 | 2026-09-03 03:14:40 | 47.81353 | 14.91620 | 134° | 66km/h | 15163m | -13.7m/s | -55.3°C | 4.7% | 0hPa | 2.7V | 00:00:00 | 00:00:00 | 00:00:00 | |
| OE8JPQ-2 | 2026-09-03 03:14:39 | 47.81368 | 14.91596 | 133° | 69km/h | 15176m | -13.5m/s | -55.3°C | 4.7% | 0hPa | 2.7V | 00:00:00 | 00:00:00 | 00:00:00 | |
| PETON7-10 | 2026-09-03 03:14:32 | 47.81474 | 14.91445 | 139° | 62km/h | 15263m | -12.5m/s | -54.4°C | 4.4% | 0hPa | 2.7V | 00:00:00 | 00:00:00 | 00:00:00 | |
| OE5MMP-10 | 2026-09-03 03:14:31 | 47.81488 | 14.91427 | 138° | 66km/h | 15275m | -12.2m/s | -54.4°C | 4.4% | 0hPa | 2.7V | 00:00:00 | 01:25:49 | 00:00:00 | |
| OE5DRO-10 | 2026-09-03 03:14:24 | 47.81579 | 14.91314 | 141° | 49km/h | 15366m | -12.0m/s | -54.6°C | 4.4% | 0hPa | 2.7V | 00:00:00 | 00:00:00 | 00:00:00 | |
| OE5MMP-10 | 2026-09-03 03:14:21 | 47.81613 | 14.91272 | 141° | 49km/h | 15403m | -11.3m/s | -54.7°C | 4.5% | 0hPa | 2.7V | 08:26:00 | 01:25:39 | 00:00:00 | |
| OE8JPQ-2 | 2026-09-03 03:14:19 | 47.81634 | 14.91245 | 140° | 44km/h | 15426m | -12.3m/s | -54.8°C | 4.4% | 0hPa | 2.6V | 00:00:00 | 00:00:00 | 00:00:00 | |
| OE5FHM-15 | 2026-09-03 03:14:17 | 47.81654 | 14.91219 | 138° | 42km/h | 15447m | -10.6m/s | -54.9°C | 4.4% | 0hPa | 2.6V | 00:00:00 | 01:25:35 | 00:00:00 | |
| OE5DXL-15 | 2026-09-03 03:14:15 | 47.81671 | 14.91193 | 134° | 42km/h | 15470m | -14.0m/s | -54.8°C | 4.4% | 0hPa | 2.7V | 00:00:00 | 00:00:00 | 00:00:00 | |
| OE5WHR-10 | 2026-09-03 03:14:14 | 47.81680 | 14.91180 | 131° | 40km/h | 15484m | -13.2m/s | -54.8°C | 4.4% | 0hPa | 2.7V | 00:00:00 | 00:00:00 | 00:00:00 | |
| PG1ADW-2 | 2026-09-03 03:14:12 | 47.81694 | 14.91153 | 126° | 40km/h | 15507m | -10.7m/s | -54.4°C | 4.2% | 0hPa | 2.6V | 00:00:00 | 00:00:00 | 00:00:00 | |
| OE3JTB-15 | 2026-09-03 03:14:11 | 47.81701 | 14.91139 | 127° | 40km/h | 15518m | -12.5m/s | -54.4°C | 4.2% | 0hPa | 2.6V | 00:00:00 | 01:25:29 | 00:00:00 | |
| OE3OSB-13 | 2026-09-03 03:14:09 | 47.81714 | 14.91113 | 122° | 38km/h | 15544m | -12.4m/s | -54.3°C | 1.4% | -1.0hPa | 2.6V | 00:00:00 | 00:00:00 | 00:00:00 | |
| S52SK | 2026-09-03 03:14:08 | 47.81714 | 14.91113 | 123° | 40km/h | 15544m | -12.4m/s | -54.3°C | 1.6% | 0hPa | 2.6V | 00:00:00 | 00:00:00 | 00:00:00 | |
| OE5DRO-10 | 2026-09-03 03:14:05 | 47.81735 | 14.91060 | 118° | 38km/h | 15594m | -11.9m/s | -54.6°C | 4.3% | 0hPa | 2.6V | 00:00:00 | 00:00:00 | 00:00:00 | |
| S52SK | 2026-09-03 03:14:03 | 47.81740 | 14.91048 | 123° | 38km/h | 15606m | -12.0m/s | -54.7°C | 1.7% | 0hPa | 2.7V | 00:00:00 | 00:00:00 | 00:00:00 | |
| OE5MMP-10 | 2026-09-03 03:14:01 | 47.81755 | 14.91012 | 125° | 38km/h | 15640m | -11.4m/s | -54.9°C | 4.4% | 0hPa | 2.7V | 00:00:00 | 01:25:19 | 00:00:00 | |
| OE8JPQ-2 | 2026-09-03 03:13:59 | 47.81764 | 14.90989 | 120° | 44km/h | 15666m | -12.0m/s | -55.0°C | 4.4% | 0hPa | 2.7V | 00:00:00 | 01:25:17 | 00:00:00 | |
| S52SK | 2026-09-03 03:13:57 | 47.81769 | 14.90977 | 123° | 37km/h | 15678m | -13.7m/s | -55.1°C | 1.6% | 0hPa | 2.7V | 00:00:00 | 00:00:00 | 00:00:00 | |
| OE5WHR-10 | 2026-09-03 03:13:53 | 47.81791 | 14.90915 | 116° | 47km/h | 15747m | -13.7m/s | -55.5°C | 4.6% | 0hPa | 2.7V | 00:00:00 | 00:00:00 | 00:00:00 | |
| PG1ADW-2 | 2026-09-03 03:13:52 | 47.81796 | 14.90902 | 117° | 49km/h | 15761m | -13.8m/s | -55.5°C | 4.6% | 0hPa | 2.7V | 00:00:00 | 01:25:10 | 00:00:00 | |
| OE5MMP-10 | 2026-09-03 03:13:51 | 47.81800 | 14.90889 | 111° | 46km/h | 15773m | -13.6m/s | -55.5°C | 4.6% | 0hPa | 2.7V | 00:00:00 | 01:25:09 | 00:00:00 | |
| PETON7-10 | 2026-09-03 03:13:47 | 47.81815 | 14.90829 | 109° | 51km/h | 15828m | -13.2m/s | -55.4°C | 4.6% | 0hPa | 2.5V | 00:00:00 | 00:00:00 | 00:00:00 | |
| OE5DRO-10 | 2026-09-03 03:13:46 | 47.81819 | 14.90813 | 112° | 49km/h | 15840m | -12.3m/s | -55.4°C | 4.6% | 0hPa | 2.6V | 00:00:00 | 00:00:00 | 00:00:00 | |
| OE5DXL-15 | 2026-09-03 03:13:45 | 47.81823 | 14.90797 | 114° | 47km/h | 15853m | -12.8m/s | -55.5°C | 4.6% | 0hPa | 2.6V | 00:00:00 | 00:00:00 | 00:00:00 | |
| OE3JTB-15 | 2026-09-03 03:13:42 | 47.81838 | 14.90745 | 111° | 46km/h | 15889m | -12.7m/s | -55.7°C | 4.7% | 0hPa | 2.6V | 08:27:00 | 00:00:00 | 00:00:00 | |
| OE5MMP-10 | 2026-09-03 03:13:41 | 47.81842 | 14.90727 | 114° | 51km/h | 15902m | -13.4m/s | -55.7°C | 4.8% | 0hPa | 2.7V | 00:00:00 | 01:24:59 | 00:00:00 | |
| OE8JPQ-2 | 2026-09-03 03:13:39 | 47.81851 | 14.90691 | 110° | 46km/h | 15925m | -11.7m/s | -55.9°C | 4.9% | 0hPa | 2.7V | 08:27:00 | 00:00:00 | 00:00:00 | |
| OE3OSB-13 | 2026-09-03 03:13:38 | 47.81856 | 14.90672 | 108° | 53km/h | 15936m | -13.4m/s | -55.9°C | 1.6% | -1.0hPa | 2.7V | 00:00:00 | 00:00:00 | 00:00:00 | |
| PETON7-10 | 2026-09-03 03:13:32 | 47.81880 | 14.90565 | 107° | 44km/h | 16013m | -11.6m/s | -54.4°C | 4.3% | 0hPa | 2.7V | 00:00:00 | 00:00:00 | 00:00:00 | |
| OE5MMP-10 | 2026-09-03 03:13:31 | 47.81884 | 14.90548 | 109° | 44km/h | 16025m | -13.2m/s | -54.2°C | 4.1% | 0hPa | 2.7V | 00:00:00 | 01:24:49 | 00:00:00 | |
| OM5KV | 2026-09-03 03:13:28 | 47.81892 | 14.90516 | 111° | 42km/h | 16052m | -15.0m/s | -54.2°C | 1.5% | 0hPa | 2.7V | 08:28:00 | 00:00:00 | 00:00:00 | |
| OE5DRO-10 | 2026-09-03 03:13:27 | 47.81899 | 14.90485 | 109° | 42km/h | 16080m | -12.0m/s | -54.2°C | 4.2% | 0hPa | 2.7V | 00:00:00 | 00:00:00 | 00:00:00 | |
| OE5MMP-10 | 2026-09-03 03:13:21 | 47.81919 | 14.90397 | 106° | 42km/h | 16155m | -14.4m/s | -54.3°C | 4.3% | 0hPa | 2.7V | 00:00:00 | 01:24:39 | 00:00:00 | |
| OE8JPQ-2 | 2026-09-03 03:13:19 | 47.81924 | 14.90368 | 100° | 46km/h | 16182m | -12.5m/s | -54.2°C | 4.2% | 0hPa | 2.7V | 00:00:00 | 00:00:00 | 00:00:00 | |
| OE5FHM-15 | 2026-09-03 03:13:17 | 47.81928 | 14.90338 | 102° | 46km/h | 16207m | -14.3m/s | -54.3°C | 4.3% | 0hPa | 2.7V | 00:00:00 | 01:24:35 | 00:00:00 | |
| OM5KV | 2026-09-03 03:13:16 | 47.81928 | 14.90338 | 102° | 42km/h | 16207m | -14.4m/s | -54.4°C | 1.6% | 0hPa | 2.7V | 08:28:00 | 00:00:00 | 00:00:00 | |
| OE5DXL-15 | 2026-09-03 03:13:15 | 47.81931 | 14.90306 | 95° | 47km/h | 16232m | -13.3m/s | -54.5°C | 4.2% | 0hPa | 2.7V | 00:00:00 | 00:00:00 | 00:00:00 | |
| OE3JTB-15 | 2026-09-03 03:13:13 | 47.81933 | 14.90274 | 95° | 47km/h | 16260m | -16.7m/s | -54.6°C | 4.2% | 0hPa | 2.7V | 00:00:00 | 00:00:00 | 00:00:00 | |
| OE5MMP-10 | 2026-09-03 03:13:11 | 47.81935 | 14.90242 | 94° | 47km/h | 16297m | -20.5m/s | -54.8°C | 4.3% | 0hPa | 2.7V | 00:00:00 | 01:24:29 | 00:00:00 | |
| OM5KV | 2026-09-03 03:13:10 | 47.81935 | 14.90242 | 94° | 42km/h | 16297m | -20.6m/s | -54.8°C | 1.6% | 0hPa | 2.7V | 08:28:00 | 00:00:00 | 00:00:00 | |
| OE5DRO-10 | 2026-09-03 03:13:08 | 47.81938 | 14.90192 | 99° | 47km/h | 16354m | -19.9m/s | -54.5°C | 4.2% | 0hPa | 2.7V | 08:28:00 | 00:00:00 | 00:00:00 | |
| OE3OSB-13 | 2026-09-03 03:13:07 | 47.81940 | 14.90175 | 100° | 44km/h | 16372m | -18.2m/s | -54.6°C | 1.4% | -1.0hPa | 2.7V | 00:00:00 | 00:00:00 | 00:00:00 | |
| OM5KV | 2026-09-03 03:13:04 | 47.81945 | 14.90140 | 103° | 46km/h | 16406m | -16.6m/s | -54.9°C | 1.6% | 0hPa | 2.7V | 08:28:00 | 00:00:00 | 00:00:00 | |
| PETON7-10 | 2026-09-03 03:13:02 | 47.81955 | 14.90088 | 108° | 47km/h | 16446m | -14.7m/s | -55.0°C | 4.3% | 0hPa | 2.7V | 08:28:00 | 00:00:00 | 00:00:00 | |
| OE5MMP-10 | 2026-09-03 03:12:51 | 47.81994 | 14.89906 | 108° | 47km/h | 16612m | -18.4m/s | -54.8°C | 4.2% | 0hPa | 2.7V | 08:28:00 | 01:24:09 | 00:00:00 | |
| OE5WHR-10 | 2026-09-03 03:12:50 | 47.81998 | 14.89889 | 108° | 53km/h | 16630m | -19.4m/s | -54.8°C | 4.1% | 0hPa | 2.6V | 00:00:00 | 00:00:00 | 00:00:00 | |
| OE5DRO-10 | 2026-09-03 03:12:49 | 47.82002 | 14.89872 | 109° | 53km/h | 16648m | -18.7m/s | -54.9°C | 4.2% | 0hPa | 2.6V | 00:00:00 | 00:00:00 | 00:00:00 | |
| S52SK | 2026-09-03 03:12:48 | 47.82002 | 14.89872 | 110° | 47km/h | 16648m | -18.7m/s | -54.9°C | 1.5% | 0hPa | 2.6V | 00:00:00 | 00:00:00 | 00:00:00 | |
| OE5FHM-15 | 2026-09-03 03:12:47 | 47.82009 | 14.89840 | 106° | 51km/h | 16682m | -15.6m/s | -55.2°C | 4.4% | 0hPa | 2.6V | 08:28:00 | 01:24:05 | 00:00:00 | |
| OE5DXL-15 | 2026-09-03 03:12:45 | 47.82016 | 14.89805 | 108° | 51km/h | 16714m | -15.8m/s | -55.3°C | 4.4% | 0hPa | 2.7V | 00:00:00 | 00:00:00 | 00:00:00 | |
| OE5MMP-10 | 2026-09-03 03:12:41 | 47.82031 | 14.89733 | 107° | 57km/h | 16772m | -13.6m/s | -55.7°C | 4.5% | 0hPa | 2.7V | 00:00:00 | 01:23:59 | 00:00:00 | |
| PG1ADW-2 | 2026-09-03 03:12:40 | 47.82034 | 14.89714 | 103° | 47km/h | 16786m | -16.5m/s | -55.8°C | 4.6% | 0hPa | 2.7V | 00:00:00 | 00:00:00 | 00:00:00 | |
| OE8JPQ-2 | 2026-09-03 03:12:39 | 47.82037 | 14.89694 | 103° | 53km/h | 16802m | -16.0m/s | -55.9°C | 4.6% | 0hPa | 2.7V | 00:00:00 | 00:00:00 | 00:00:00 | |
| S52SK | 2026-09-03 03:12:37 | 47.82040 | 14.89674 | 103° | 55km/h | 16818m | -17.4m/s | -56.0°C | 1.6% | 0hPa | 2.7V | 00:00:00 | 00:00:00 | 00:00:00 | |
| DO3MHA-12 | 2026-09-03 03:12:36 | 47.82047 | 14.89633 | 105° | 57km/h | 16850m | -15.6m/s | -55.7°C | 4.6% | 0hPa | 2.7V | 00:00:00 | 01:23:54 | 00:00:00 | |
| OE5REO-15 | 2026-09-03 03:12:33 | 47.82055 | 14.89591 | 106° | 58km/h | 16881m | -15.8m/s | -55.7°C | 1.7% | 0hPa | 2.7V | 08:29:00 | 00:00:00 | 00:00:00 | |
| PETON7-10 | 2026-09-03 03:12:32 | 47.82064 | 14.89549 | 109° | 51km/h | 16913m | -16.6m/s | -55.7°C | 4.4% | 0hPa | 2.7V | 00:00:00 | 01:23:50 | 00:00:00 | |
| OE5MMP-10 | 2026-09-03 03:12:31 | 47.82069 | 14.89528 | 110° | 51km/h | 16929m | -17.0m/s | -55.7°C | 4.4% | 0hPa | 2.7V | 00:00:00 | 01:23:49 | 00:00:00 | |
| OE5DRO-10 | 2026-09-03 03:12:30 | 47.82074 | 14.89508 | 111° | 46km/h | 16945m | -14.9m/s | -55.8°C | 4.5% | 0hPa | 2.7V | 00:00:00 | 00:00:00 | 00:00:00 | |
| OE5WHR-10 | 2026-09-03 03:12:29 | 47.82079 | 14.89490 | 111° | 44km/h | 16959m | -15.3m/s | -55.8°C | 4.5% | 0hPa | 2.7V | 00:00:00 | 01:23:47 | 00:00:00 | |
| OE5HKT-10 | 2026-09-03 03:12:28 | 47.82084 | 14.89471 | 112° | 42km/h | 16974m | -13.9m/s | -55.8°C | 4.4% | 0hPa | 2.7V | 00:00:00 | 01:23:46 | 00:00:00 | |
| DO3MHA-12 | 2026-09-03 03:12:26 | 47.82095 | 14.89435 | 116° | 46km/h | 17006m | -17.3m/s | -55.6°C | 4.4% | 0hPa | 2.7V | 00:00:00 | 01:23:44 | 00:00:00 | |
| OM5KV | 2026-09-03 03:12:25 | 47.82095 | 14.89435 | 117° | 53km/h | 17006m | -17.4m/s | -55.7°C | 1.6% | 0hPa | 2.7V | 08:29:00 | 00:00:00 | 00:00:00 | |
| OM5KV | 2026-09-03 03:12:24 | 47.82101 | 14.89418 | 119° | 51km/h | 17022m | -14.3m/s | -55.8°C | 1.6% | 0hPa | 2.7V | 08:29:00 | 00:00:00 | 00:00:00 | |
| OE8JPQ-2 | 2026-09-03 03:12:19 | 47.82138 | 14.89327 | 123° | 40km/h | 17102m | -13.9m/s | -55.8°C | 4.5% | 0hPa | 2.7V | 00:00:00 | 00:00:00 | 00:00:00 | |
| OM5KV | 2026-09-03 03:12:18 | 47.82138 | 14.89327 | 124° | 44km/h | 17102m | -13.9m/s | -55.8°C | 1.6% | 0hPa | 2.7V | 08:29:00 | 00:00:00 | 00:00:00 | |
| PETON7-10 | 2026-09-03 03:12:17 | 47.82151 | 14.89301 | 127° | 38km/h | 17126m | -13.0m/s | -55.8°C | 4.5% | 0hPa | 2.7V | 00:00:00 | 00:00:00 | 00:00:00 | |
| DO3MHA-12 | 2026-09-03 03:12:16 | 47.82157 | 14.89290 | 127° | 38km/h | 17139m | -14.6m/s | -55.8°C | 4.5% | 0hPa | 2.7V | 00:00:00 | 01:23:34 | 00:00:00 | |
| OE3JTB-15 | 2026-09-03 03:12:15 | 47.82162 | 14.89277 | 123° | 46km/h | 17154m | -14.9m/s | -55.8°C | 4.5% | 0hPa | 2.6V | 00:00:00 | 00:00:00 | 00:00:00 | |
| OM5KV | 2026-09-03 03:12:14 | 47.82162 | 14.89277 | 123° | 42km/h | 17154m | -14.9m/s | -55.9°C | 1.6% | 0hPa | 2.6V | 08:29:00 | 00:00:00 | 00:00:00 | |
| OM5KV | 2026-09-03 03:12:13 | 47.82168 | 14.89265 | 126° | 38km/h | 17168m | -14.5m/s | -55.9°C | 1.6% | 0hPa | 2.6V | 08:29:00 | 00:00:00 | 00:00:00 | |
| OE5MMP-10 | 2026-09-03 03:12:11 | 47.82184 | 14.89229 | 119° | 40km/h | 17207m | -13.5m/s | -56.0°C | 4.6% | 0hPa | 2.6V | 00:00:00 | 01:23:29 | 00:00:00 | |
| OE5WHR-10 | 2026-09-03 03:12:08 | 47.82196 | 14.89192 | 115° | 47km/h | 17245m | -14.0m/s | -56.1°C | 4.6% | 0hPa | 2.6V | 08:29:00 | 00:00:00 | 00:00:00 | |
| OM5KV | 2026-09-03 03:12:07 | 47.82196 | 14.89192 | 116° | 38km/h | 17245m | -14.1m/s | -56.1°C | 1.6% | 0hPa | 2.6V | 08:29:00 | 00:00:00 | 00:00:00 | |
| DO3MHA-12 | 2026-09-03 03:12:06 | 47.82204 | 14.89166 | 111° | 46km/h | 17271m | -13.1m/s | -55.9°C | 4.5% | 0hPa | 2.6V | 00:00:00 | 01:23:24 | 00:00:00 | |
| OE3OSB-13 | 2026-09-03 03:12:05 | 47.82207 | 14.89152 | 110° | 42km/h | 17284m | -15.5m/s | -55.9°C | 1.5% | -1.0hPa | 2.6V | 00:00:00 | 00:00:00 | 00:00:00 | |
| PETON7-10 | 2026-09-03 03:12:02 | 47.82219 | 14.89107 | 113° | 51km/h | 17328m | -13.8m/s | -56.0°C | 4.6% | 0hPa | 2.6V | 00:00:00 | 00:00:00 | 00:00:00 | |
| OE5MMP-10 | 2026-09-03 03:12:01 | 47.82223 | 14.89092 | 113° | 51km/h | 17342m | -15.3m/s | -56.1°C | 4.6% | 0hPa | 2.6V | 00:00:00 | 01:23:19 | 00:00:00 | |
| PG1ADW-2 | 2026-09-03 03:12:00 | 47.82228 | 14.89076 | 112° | 51km/h | 17357m | -15.8m/s | -56.1°C | 4.7% | 0hPa | 2.6V | 08:29:00 | 01:23:18 | 00:00:00 | |
| OE8JPQ-2 | 2026-09-03 03:11:59 | 47.82232 | 14.89059 | 109° | 51km/h | 17371m | -14.0m/s | -56.2°C | 4.7% | 0hPa | 2.6V | 00:00:00 | 01:23:17 | 00:00:00 | |
| OM5KV | 2026-09-03 03:11:57 | 47.82236 | 14.89041 | 112° | 53km/h | 17385m | -13.3m/s | -56.3°C | 1.6% | 0hPa | 2.6V | 00:00:00 | 00:00:00 | 00:00:00 | |
| DO3MHA-12 | 2026-09-03 03:11:56 | 47.82246 | 14.89006 | 110° | 53km/h | 17410m | -14.3m/s | -56.4°C | 4.8% | 0hPa | 2.6V | 00:00:00 | 01:23:14 | 00:00:00 | |
| OE5DRO-10 | 2026-09-03 03:11:52 | 47.82266 | 14.88932 | 114° | 47km/h | 17463m | -14.5m/s | -56.5°C | 4.8% | 0hPa | 2.6V | 00:00:00 | 00:00:00 | 00:00:00 | |
| OE5MMP-10 | 2026-09-03 03:11:51 | 47.82272 | 14.88913 | 115° | 51km/h | 17478m | -16.8m/s | -56.3°C | 4.7% | 0hPa | 2.6V | 00:00:00 | 01:23:09 | 00:00:00 | |
| OM5KV | 2026-09-03 03:11:50 | 47.82272 | 14.88913 | 116° | 55km/h | 17478m | -16.8m/s | -56.3°C | 1.6% | 0hPa | 2.6V | 00:00:00 | 00:00:00 | 00:00:00 | |
| OE5FHM-15 | 2026-09-03 03:11:47 | 47.82299 | 14.88843 | 124° | 44km/h | 17551m | -16.6m/s | -55.6°C | 4.5% | 0hPa | 2.6V | 00:00:00 | 01:23:05 | 00:00:00 | |
| DO3MHA-12 | 2026-09-03 03:11:46 | 47.82307 | 14.88827 | 124° | 46km/h | 17565m | -13.3m/s | -55.6°C | 4.5% | 0hPa | 2.6V | 00:00:00 | 01:23:04 | 00:00:00 | |
| OE5DXL-15 | 2026-09-03 03:11:45 | 47.82314 | 14.88812 | 123° | 44km/h | 17578m | -13.5m/s | -55.6°C | 4.5% | 0hPa | 2.6V | 00:00:00 | 00:00:00 | 08:30:00 | |
| OM5KV | 2026-09-03 03:11:44 | 47.82314 | 14.88812 | 124° | 51km/h | 17578m | -13.5m/s | -55.6°C | 1.6% | 0hPa | 2.6V | 00:00:00 | 00:00:00 | 00:00:00 | |
| OE5MMP-10 | 2026-09-03 03:11:41 | 47.82342 | 14.88754 | 125° | 40km/h | 17630m | -16.4m/s | -55.5°C | 4.4% | 0hPa | 2.6V | 00:00:00 | 01:22:59 | 00:00:00 | |
| PG1ADW-2 | 2026-09-03 03:11:40 | 47.82349 | 14.88740 | 126° | 42km/h | 17648m | -19.4m/s | -55.4°C | 4.3% | 0hPa | 2.6V | 00:00:00 | 00:00:00 | 00:00:00 | |
| OE8JPQ-2 | 2026-09-03 03:11:39 | 47.82355 | 14.88727 | 121° | 42km/h | 17667m | -17.9m/s | -55.4°C | 4.4% | 0hPa | 2.6V | 00:00:00 | 00:00:00 | 00:00:00 | |
| DO3MHA-12 | 2026-09-03 03:11:36 | 47.82369 | 14.88690 | 115° | 40km/h | 17719m | -17.8m/s | -55.4°C | 4.4% | 0hPa | 2.6V | 00:00:00 | 01:22:54 | 00:00:00 | |
| OE3OSB-13 | 2026-09-03 03:11:34 | 47.82378 | 14.88664 | 116° | 40km/h | 17752m | -18.2m/s | -55.6°C | 1.4% | -1.0hPa | 2.6V | 00:00:00 | 00:00:00 | 00:00:00 | |
| OE5DRO-10 | 2026-09-03 03:11:33 | 47.82382 | 14.88651 | 113° | 46km/h | 17769m | -16.4m/s | -55.7°C | 4.6% | 0hPa | 2.6V | 00:00:00 | 00:00:00 | 00:00:00 | |
| OE5MMP-10 | 2026-09-03 03:11:31 | 47.82389 | 14.88625 | 114° | 44km/h | 17798m | -14.9m/s | -55.9°C | 4.7% | 0hPa | 2.6V | 00:00:00 | 01:22:49 | 00:00:00 | |
| OE5REO-15 | 2026-09-03 03:11:29 | 47.82393 | 14.88610 | 115° | 44km/h | 17810m | -12.3m/s | -56.0°C | 1.7% | 0hPa | 2.6V | 00:00:00 | 00:00:00 | 00:00:00 | |
| DO3MHA-12 | 2026-09-03 03:11:26 | 47.82413 | 14.88552 | 116° | 47km/h | 17872m | -17.6m/s | -56.0°C | 4.8% | 0hPa | 2.6V | 00:00:00 | 01:22:44 | 00:00:00 | |
| OE5MMP-10 | 2026-09-03 03:11:21 | 47.82441 | 14.88474 | 118° | 46km/h | 17948m | -16.3m/s | -55.7°C | 4.7% | 0hPa | 2.6V | 00:00:00 | 01:22:39 | 08:30:00 | |
| PG1ADW-2 | 2026-09-03 03:11:20 | 47.82447 | 14.88458 | 120° | 47km/h | 17963m | -15.2m/s | -55.6°C | 4.7% | 0hPa | 2.6V | 00:00:00 | 00:00:00 | 00:00:00 | |
| OE8JPQ-2 | 2026-09-03 03:11:19 | 47.82453 | 14.88442 | 120° | 46km/h | 17977m | -13.7m/s | -55.5°C | 4.6% | 0hPa | 2.6V | 00:00:00 | 00:00:00 | 00:00:00 | |
| OE5FHM-15 | 2026-09-03 03:11:17 | 47.82464 | 14.88411 | 116° | 49km/h | 18004m | -15.2m/s | -55.1°C | 4.6% | 0hPa | 2.6V | 00:00:00 | 01:22:35 | 00:00:00 | |
| DO3MHA-12 | 2026-09-03 03:11:16 | 47.82469 | 14.88396 | 114° | 46km/h | 18018m | -14.0m/s | -54.9°C | 4.4% | 0hPa | 2.6V | 00:00:00 | 01:22:34 | 08:30:00 | |
| OE5DXL-15 | 2026-09-03 03:11:15 | 47.82474 | 14.88381 | 114° | 49km/h | 18031m | -12.5m/s | -54.9°C | 4.5% | 0hPa | 2.6V | 00:00:00 | 00:00:00 | 00:00:00 | |
| OE5DRO-10 | 2026-09-03 03:11:14 | 47.82479 | 14.88365 | 115° | 47km/h | 18042m | -11.7m/s | -55.0°C | 4.5% | 0hPa | 2.6V | 00:00:00 | 00:00:00 | 00:00:00 | |
| OE5REO-15 | 2026-09-03 03:11:13 | 47.82479 | 14.88365 | 116° | 44km/h | 18042m | -11.7m/s | -55.1°C | 1.6% | 0hPa | 2.6V | 00:00:00 | 00:00:00 | 00:00:00 | |
| OM5KV | 2026-09-03 03:11:12 | 47.82483 | 14.88350 | 113° | 46km/h | 18055m | -13.3m/s | -55.1°C | 1.6% | 0hPa | 2.6V | 00:00:00 | 00:00:00 | 00:00:00 | |
| OE5MMP-10 | 2026-09-03 03:11:11 | 47.82492 | 14.88318 | 112° | 46km/h | 18079m | -12.2m/s | -55.0°C | 4.6% | 0hPa | 2.6V | 00:00:00 | 01:22:29 | 00:00:00 | |
| S52SK | 2026-09-03 03:11:10 | 47.82492 | 14.88318 | 113° | 46km/h | 18079m | -12.3m/s | -55.0°C | 1.6% | 0hPa | 2.6V | 00:00:00 | 00:00:00 | 00:00:00 | |
| DO3MHA-12 | 2026-09-03 03:11:06 | 47.82510 | 14.88239 | 107° | 47km/h | 18137m | -11.6m/s | -54.5°C | 4.4% | 0hPa | 2.6V | 00:00:00 | 01:22:24 | 00:00:00 | |
| OE5WHR-10 | 2026-09-03 03:11:05 | 47.82513 | 14.88222 | 109° | 51km/h | 18149m | -12.6m/s | -54.6°C | 4.5% | 0hPa | 2.6V | 00:00:00 | 00:00:00 | 00:00:00 | |
| PETON7-10 | 2026-09-03 03:11:02 | 47.82525 | 14.88172 | 108° | 51km/h | 18185m | -11.9m/s | -54.4°C | 4.5% | 0hPa | 2.7V | 00:00:00 | 01:22:20 | 00:00:00 | |
| OE5MMP-10 | 2026-09-03 03:11:01 | 47.82529 | 14.88155 | 112° | 51km/h | 18197m | -12.2m/s | -54.3°C | 4.4% | 0hPa | 2.7V | 00:00:00 | 01:22:19 | 00:00:00 | |
| OM5KV | 2026-09-03 03:11:00 | 47.82529 | 14.88155 | 112° | 47km/h | 18197m | -12.2m/s | -54.3°C | 1.6% | 0hPa | 2.7V | 00:00:00 | 00:00:00 | 00:00:00 | |
| OE8JPQ-2 | 2026-09-03 03:10:59 | 47.82538 | 14.88121 | 111° | 53km/h | 18222m | -11.5m/s | -54.3°C | 4.5% | 0hPa | 2.7V | 00:00:00 | 01:22:17 | 00:00:00 | |
| OE5REO-15 | 2026-09-03 03:10:58 | 47.82538 | 14.88121 | 111° | 49km/h | 18222m | -11.6m/s | -54.3°C | 1.6% | 0hPa | 2.7V | 00:00:00 | 00:00:00 | 00:00:00 | |
| PG1ADW-2 | 2026-09-03 03:10:57 | 47.82548 | 14.88087 | 115° | 51km/h | 18244m | -10.7m/s | -54.2°C | 4.4% | 0hPa | 2.7V | 00:00:00 | 00:00:00 | 00:00:00 | |
| DO3MHA-12 | 2026-09-03 03:10:56 | 47.82553 | 14.88070 | 114° | 55km/h | 18255m | -11.5m/s | -54.1°C | 4.4% | 0hPa | 2.6V | 00:00:00 | 01:22:14 | 00:00:00 | |
| OE5DRO-10 | 2026-09-03 03:10:55 | 47.82558 | 14.88053 | 115° | 53km/h | 18267m | -13.1m/s | -54.0°C | 4.4% | 0hPa | 2.6V | 00:00:00 | 00:00:00 | 00:00:00 | |
| OM5KV | 2026-09-03 03:10:54 | 47.82558 | 14.88053 | 115° | 51km/h | 18267m | -13.1m/s | -54.1°C | 1.6% | 0hPa | 2.6V | 00:00:00 | 00:00:00 | 00:00:00 | |
| OE5MMP-10 | 2026-09-03 03:10:51 | 47.82584 | 14.87982 | 121° | 53km/h | 18316m | -12.0m/s | -54.0°C | 4.4% | 0hPa | 2.6V | 00:00:00 | 01:22:09 | 00:00:00 | |
| OM5KV | 2026-09-03 03:10:50 | 47.82584 | 14.87982 | 121° | 53km/h | 18316m | -12.0m/s | -54.0°C | 1.6% | 0hPa | 2.6V | 00:00:00 | 00:00:00 | 00:00:00 | |
| OM5KV | 2026-09-03 03:10:49 | 47.82591 | 14.87964 | 123° | 57km/h | 18329m | -12.3m/s | -54.0°C | 1.6% | 0hPa | 2.6V | 00:00:00 | 00:00:00 | 00:00:00 | |
| OE3JTB-15 | 2026-09-03 03:10:48 | 47.82608 | 14.87930 | 128° | 53km/h | 18351m | -10.1m/s | -53.9°C | 4.3% | 0hPa | 2.6V | 00:00:00 | 00:00:00 | 00:00:00 | |
| OE5FHM-15 | 2026-09-03 03:10:47 | 47.82616 | 14.87914 | 127° | 53km/h | 18362m | -11.2m/s | -54.0°C | 4.3% | 0hPa | 2.6V | 00:00:00 | 01:22:05 | 00:00:00 | |
| DO3MHA-12 | 2026-09-03 03:10:46 | 47.82624 | 14.87898 | 130° | 51km/h | 18374m | -11.6m/s | -54.1°C | 4.3% | 0hPa | 2.6V | 00:00:00 | 01:22:04 | 00:00:00 | |
| OE5DXL-15 | 2026-09-03 03:10:45 | 47.82633 | 14.87882 | 129° | 53km/h | 18386m | -12.2m/s | -54.1°C | 4.4% | 0hPa | 2.7V | 00:00:00 | 00:00:00 | 00:00:00 | |
| OE5WHR-10 | 2026-09-03 03:10:44 | 47.82641 | 14.87867 | 130° | 53km/h | 18397m | -10.2m/s | -54.2°C | 4.5% | 0hPa | 2.7V | 00:00:00 | 00:00:00 | 00:00:00 | |
| OE5REO-15 | 2026-09-03 03:10:42 | 47.82650 | 14.87852 | 132° | 51km/h | 18407m | -11.2m/s | -54.2°C | 1.7% | 0hPa | 2.7V | 00:00:00 | 00:00:00 | 00:00:00 | |
| OE5MMP-10 | 2026-09-03 03:10:41 | 47.82667 | 14.87825 | 135° | 53km/h | 18423m | -3.2m/s | -54.2°C | 4.7% | 0hPa | 2.7V | 00:00:00 | 01:21:59 | 00:00:00 | |
| OE8JPQ-2 | 2026-09-03 03:10:39 | 47.82684 | 14.87798 | 133° | 53km/h | 18417m | 5.9m/s | -54.2°C | 4.6% | 0hPa | 2.7V | 00:00:00 | 00:00:00 | 08:30:00 | |
| OM5KV | 2026-09-03 03:10:38 | 47.82685 | 14.87798 | 133° | 49km/h | 18417m | 5.9m/s | -54.3°C | 1.8% | 0hPa | 2.7V | 00:00:00 | 00:00:00 | 00:00:00 | |
| PG1ADW-2 | 2026-09-03 03:10:37 | 47.82701 | 14.87771 | 134° | 53km/h | 18406m | 6.1m/s | -54.2°C | 4.6% | 0hPa | 2.7V | 00:00:00 | 01:21:55 | 00:00:00 | |
| DO3MHA-12 | 2026-09-03 03:10:36 | 47.82710 | 14.87756 | 133° | 55km/h | 18401m | 4.4m/s | -54.2°C | 4.7% | 0hPa | 2.7V | 00:00:00 | 01:21:54 | 00:00:00 | |
| PETON7-10 | 2026-09-03 03:10:32 | 47.82745 | 14.87691 | 129° | 53km/h | 18378m | 5.2m/s | -54.1°C | 4.6% | 0hPa | 2.7V | 00:00:00 | 00:00:00 | 00:00:00 | |
| OE5MMP-10 | 2026-09-03 03:10:31 | 47.82755 | 14.87673 | 128° | 53km/h | 18373m | 4.5m/s | -54.0°C | 4.6% | 0hPa | 2.7V | 00:00:00 | 01:21:49 | 00:00:00 | |
| OM5KV | 2026-09-03 03:10:30 | 47.82755 | 14.87673 | 129° | 58km/h | 18373m | 4.6m/s | -54.1°C | 1.8% | 0hPa | 2.7V | 00:00:00 | 00:00:00 | 00:00:00 | |
| OM5KV | 2026-09-03 03:10:29 | 47.82763 | 14.87656 | 126° | 55km/h | 18368m | 6.4m/s | -54.1°C | 1.8% | 0hPa | 2.7V | 00:00:00 | 00:00:00 | 00:00:00 | |
| DO3MHA-12 | 2026-09-03 03:10:26 | 47.82793 | 14.87590 | 127° | 53km/h | 18347m | 4.4m/s | -54.0°C | 4.6% | 0hPa | 2.7V | 00:00:00 | 01:21:44 | 00:00:00 | |
| OM5KV | 2026-09-03 03:10:24 | 47.82801 | 14.87574 | 126° | 51km/h | 18342m | 5.9m/s | -54.0°C | 1.8% | 0hPa | 2.7V | 00:00:00 | 00:00:00 | 00:00:00 | |
| OE5WHR-10 | 2026-09-03 03:10:23 | 47.82816 | 14.87542 | 127° | 53km/h | 18330m | 5.6m/s | -54.0°C | 4.6% | 0hPa | 2.7V | 00:00:00 | 01:21:41 | 00:00:00 | |
| OE5MMP-10 | 2026-09-03 03:10:21 | 47.82832 | 14.87510 | 125° | 53km/h | 18320m | 4.7m/s | -54.0°C | 4.6% | 0hPa | 2.7V | 00:00:00 | 01:21:39 | 00:00:00 | |
| OE8JPQ-2 | 2026-09-03 03:10:19 | 47.82845 | 14.87477 | 117° | 51km/h | 18310m | 5.0m/s | -54.0°C | 4.6% | 0hPa | 2.7V | 00:00:00 | 00:00:00 | 00:00:00 | |
| OM5KV | 2026-09-03 03:10:18 | 47.82845 | 14.87477 | 118° | 51km/h | 18310m | 5.0m/s | -54.1°C | 1.8% | 0hPa | 2.7V | 00:00:00 | 00:00:00 | 00:00:00 | |
| OE5FHM-15 | 2026-09-03 03:10:17 | 47.82857 | 14.87442 | 119° | 47km/h | 18298m | 4.6m/s | -54.0°C | 4.6% | 0hPa | 2.7V | 00:00:00 | 01:21:35 | 00:00:00 | |
| DO3MHA-12 | 2026-09-03 03:10:16 | 47.82863 | 14.87425 | 116° | 53km/h | 18292m | 6.3m/s | -54.0°C | 4.6% | 0hPa | 2.7V | 00:00:00 | 01:21:34 | 00:00:00 | |
| OE5DXL-15 | 2026-09-03 03:10:15 | 47.82869 | 14.87406 | 115° | 47km/h | 18286m | 4.9m/s | -54.0°C | 4.5% | 0hPa | 2.6V | 00:00:00 | 00:00:00 | 00:00:00 | |
| OM5KV | 2026-09-03 03:10:13 | 47.82874 | 14.87389 | 116° | 53km/h | 18281m | 6.2m/s | -54.0°C | 1.8% | 0hPa | 2.7V | 00:00:00 | 00:00:00 | 00:00:00 | |
| OE5MMP-10 | 2026-09-03 03:10:11 | 47.82892 | 14.87335 | 115° | 51km/h | 18266m | 5.9m/s | -54.1°C | 4.6% | 0hPa | 2.7V | 00:00:00 | 01:21:29 | 00:00:00 | |
| OM5KV | 2026-09-03 03:10:10 | 47.82892 | 14.87335 | 115° | 53km/h | 18266m | 5.9m/s | -54.1°C | 1.8% | 0hPa | 2.7V | 00:00:00 | 00:00:00 | 00:00:00 | |
| DO3MHA-12 | 2026-09-03 03:10:06 | 47.82916 | 14.87244 | 110° | 49km/h | 18239m | 6.2m/s | -54.2°C | 4.6% | 0hPa | 2.7V | 00:00:00 | 01:21:24 | 00:00:00 | |
| OM5KV | 2026-09-03 03:10:05 | 47.82916 | 14.87244 | 111° | 51km/h | 18239m | 6.2m/s | -54.2°C | 1.8% | 0hPa | 2.7V | 00:00:00 | 00:00:00 | 00:00:00 | |
| OE5WHR-10 | 2026-09-03 03:10:02 | 47.82935 | 14.87174 | 113° | 44km/h | 18217m | 6.1m/s | -54.2°C | 4.7% | 0hPa | 2.7V | 00:00:00 | 00:00:00 | 00:00:00 | |
| OE3OSB-13 | 2026-09-03 03:10:01 | 47.82939 | 14.87157 | 108° | 47km/h | 18211m | 5.6m/s | -54.3°C | 1.7% | -1.0hPa | 2.6V | 00:00:00 | 00:00:00 | 00:00:00 | |
| DL6DJ-15 | 2026-09-03 03:10:00 | 47.82954 | 14.87089 | 102° | 47km/h | 18189m | 6.1m/s | -54.2°C | -1.0% | -1.0hPa | 2.6V | 00:00:00 | 00:00:00 | 00:00:00 | |
| OE8JPQ-2 | 2026-09-03 03:09:59 | 47.82947 | 14.87124 | 110° | 44km/h | 18200m | 5.5m/s | -54.2°C | 4.7% | 0hPa | 2.6V | 00:00:00 | 01:21:17 | 00:00:00 | |
| OE5DRO-10 | 2026-09-03 03:09:58 | 47.82951 | 14.87107 | 108° | 42km/h | 18194m | 4.7m/s | -54.2°C | 4.7% | 0hPa | 2.6V | 00:00:00 | 00:00:00 | 00:00:00 | |
| PG1ADW-2 | 2026-09-03 03:09:57 | 47.82954 | 14.87089 | 103° | 42km/h | 18189m | 6.1m/s | -54.1°C | 4.6% | 0hPa | 2.6V | 00:00:00 | 00:00:00 | 00:00:00 | |
| DO3MHA-12 | 2026-09-03 03:09:56 | 47.82956 | 14.87072 | 102° | 40km/h | 18184m | 3.8m/s | -54.1°C | 4.6% | 0hPa | 2.6V | 00:00:00 | 01:21:14 | 00:00:00 | |
| OM5KV | 2026-09-03 03:09:54 | 47.82959 | 14.87055 | 104° | 46km/h | 18179m | 6.0m/s | -54.2°C | 1.8% | 0hPa | 2.6V | 00:00:00 | 00:00:00 | 00:00:00 | |
| OM5KV | 2026-09-03 03:09:53 | 47.82962 | 14.87039 | 105° | 42km/h | 18173m | 4.7m/s | -54.3°C | 1.8% | 0hPa | 2.6V | 00:00:00 | 00:00:00 | 00:00:00 | |
| OE5MMP-10 | 2026-09-03 03:09:51 | 47.82969 | 14.86994 | 104° | 40km/h | 18159m | 3.8m/s | -54.4°C | 4.7% | 0hPa | 2.6V | 00:00:00 | 01:21:09 | 08:30:00 | |
| OE3JTB-15 | 2026-09-03 03:09:50 | 47.82971 | 14.86980 | 108° | 42km/h | 18154m | 5.8m/s | -54.4°C | 4.7% | 0hPa | 2.6V | 00:00:00 | 01:21:08 | 00:00:00 | |
| OM5KV | 2026-09-03 03:09:48 | 47.82978 | 14.86954 | 116° | 37km/h | 18143m | 4.6m/s | -54.4°C | 1.9% | 0hPa | 2.6V | 00:00:00 | 00:00:00 | 00:00:00 | |
| OE5FHM-15 | 2026-09-03 03:09:47 | 47.82982 | 14.86942 | 114° | 44km/h | 18137m | 5.5m/s | -54.4°C | 4.7% | 0hPa | 2.6V | 00:00:00 | 01:21:05 | 00:00:00 | |
| DO3MHA-12 | 2026-09-03 03:09:46 | 47.82986 | 14.86929 | 118° | 44km/h | 18133m | 4.2m/s | -54.4°C | 4.7% | 0hPa | 2.6V | 00:00:00 | 01:21:04 | 08:30:00 | |
| OE5DXL-15 | 2026-09-03 03:09:45 | 47.82991 | 14.86916 | 121° | 44km/h | 18127m | 5.9m/s | -54.3°C | 4.6% | 0hPa | 2.7V | 00:00:00 | 00:00:00 | 00:00:00 | |
| OE5MMP-10 | 2026-09-03 03:09:41 | 47.83011 | 14.86854 | 117° | 40km/h | 18105m | 5.8m/s | -54.4°C | 4.6% | 0hPa | 2.7V | 00:00:00 | 01:20:59 | 00:00:00 | |
| S52SK | 2026-09-03 03:09:40 | 47.83011 | 14.86854 | 117° | 49km/h | 18105m | 5.9m/s | -54.4°C | 1.8% | 0hPa | 2.7V | 00:00:00 | 00:00:00 | 00:00:00 | |
| OE8JPQ-2 | 2026-09-03 03:09:39 | 47.83020 | 14.86822 | 110° | 44km/h | 18095m | 6.7m/s | -54.5°C | 4.7% | 0hPa | 2.7V | 00:00:00 | 00:00:00 | 00:00:00 | |
| PG1ADW-2 | 2026-09-03 03:09:37 | 47.83027 | 14.86792 | 110° | 42km/h | 18083m | 6.4m/s | -54.6°C | 4.7% | 0hPa | 2.7V | 00:00:00 | 00:00:00 | 00:00:00 | |
| DO3MHA-12 | 2026-09-03 03:09:36 | 47.83030 | 14.86780 | 114° | 42km/h | 18077m | 5.3m/s | -54.6°C | 4.7% | 0hPa | 2.7V | 00:00:00 | 01:20:54 | 00:00:00 | |
| OM5KV | 2026-09-03 03:09:35 | 47.83030 | 14.86780 | 115° | 37km/h | 18077m | 5.4m/s | -54.6°C | 1.8% | 0hPa | 2.7V | 00:00:00 | 00:00:00 | 00:00:00 | |
| PETON7-10 | 2026-09-03 03:09:32 | 47.83045 | 14.86727 | 115° | 44km/h | 18056m | 5.6m/s | -54.7°C | 4.8% | 0hPa | 2.7V | 00:00:00 | 01:20:50 | 00:00:00 | |
| OE5MMP-10 | 2026-09-03 03:09:31 | 47.83049 | 14.86713 | 117° | 47km/h | 18051m | 4.7m/s | -54.8°C | 4.8% | 0hPa | 2.7V | 00:00:00 | 01:20:49 | 00:00:00 | |
| OE3OSB-13 | 2026-09-03 03:09:30 | 47.83054 | 14.86698 | 112° | 44km/h | 18045m | 5.9m/s | -54.9°C | 1.8% | -1.0hPa | 2.7V | 00:00:00 | 00:00:00 | 00:00:00 | |
| DL6DJ-15 | 2026-09-03 03:09:29 | 47.83063 | 14.86666 | 113° | 47km/h | 18034m | 6.5m/s | -54.9°C | -1.0% | -1.0hPa | 2.7V | 00:00:00 | 00:00:00 | 00:00:00 | |
| DO3MHA-12 | 2026-09-03 03:09:26 | 47.83073 | 14.86632 | 113° | 44km/h | 18023m | 5.6m/s | -54.8°C | 4.8% | 0hPa | 2.7V | 00:00:00 | 01:20:44 | 00:00:00 | |
| OE5REO-15 | 2026-09-03 03:09:25 | 47.83073 | 14.86632 | 113° | 49km/h | 18023m | 5.6m/s | -54.8°C | 1.9% | 0hPa | 2.7V | 00:00:00 | 00:00:00 | 00:00:00 | |
| OM5KV | 2026-09-03 03:09:24 | 47.83077 | 14.86615 | 111° | 49km/h | 18018m | 5.3m/s | -54.8°C | 1.9% | 0hPa | 2.7V | 00:00:00 | 00:00:00 | 00:00:00 | |
| OM5KV | 2026-09-03 03:09:23 | 47.83082 | 14.86598 | 111° | 47km/h | 18012m | 4.6m/s | -54.7°C | 1.9% | 0hPa | 2.7V | 00:00:00 | 00:00:00 | 00:00:00 | |
| OM5KV | 2026-09-03 03:09:22 | 47.83086 | 14.86581 | 114° | 46km/h | 18007m | 6.0m/s | -54.7°C | 1.9% | 0hPa | 2.7V | 00:00:00 | 00:00:00 | 00:00:00 | |
| OE5MMP-10 | 2026-09-03 03:09:21 | 47.83095 | 14.86551 | 112° | 40km/h | 17996m | 6.4m/s | -54.6°C | 4.7% | 0hPa | 2.7V | 00:00:00 | 01:20:39 | 00:00:00 | |
| OE5WHR-10 | 2026-09-03 03:09:20 | 47.83099 | 14.86537 | 112° | 46km/h | 17991m | 4.4m/s | -54.6°C | 4.7% | 0hPa | 2.7V | 00:00:00 | 01:20:38 | 00:00:00 | |
| OE8JPQ-2 | 2026-09-03 03:09:19 | 47.83102 | 14.86524 | 114° | 46km/h | 17985m | 6.0m/s | -54.7°C | 4.7% | 0hPa | 2.7V | 00:00:00 | 00:00:00 | 00:00:00 | |
| OE5FHM-15 | 2026-09-03 03:09:17 | 47.83111 | 14.86498 | 115° | 46km/h | 17974m | 5.9m/s | -54.8°C | 4.8% | 0hPa | 2.7V | 00:00:00 | 01:20:35 | 00:00:00 | |
| DO3MHA-12 | 2026-09-03 03:09:16 | 47.83115 | 14.86484 | 113° | 46km/h | 17969m | 4.8m/s | -54.9°C | 4.8% | 0hPa | 2.7V | 00:00:00 | 01:20:34 | 00:00:00 | |
| OE5DXL-15 | 2026-09-03 03:09:15 | 47.83119 | 14.86471 | 115° | 47km/h | 17964m | 4.1m/s | -55.0°C | 4.8% | 0hPa | 2.6V | 00:00:00 | 00:00:00 | 00:00:00 | |
| OM5KV | 2026-09-03 03:09:12 | 47.83129 | 14.86442 | 121° | 44km/h | 17954m | 4.0m/s | -55.1°C | 1.9% | 0hPa | 2.6V | 00:00:00 | 00:00:00 | 00:00:00 | |
| OE5MMP-10 | 2026-09-03 03:09:11 | 47.83139 | 14.86414 | 118° | 49km/h | 17943m | 4.6m/s | -55.2°C | 4.9% | 0hPa | 2.6V | 00:00:00 | 01:20:29 | 00:00:00 | |
| OE5REO-15 | 2026-09-03 03:09:09 | 47.83145 | 14.86399 | 121° | 46km/h | 17937m | 6.7m/s | -55.3°C | 2.0% | 0hPa | 2.6V | 00:00:00 | 00:00:00 | 00:00:00 | |
| DO3MHA-12 | 2026-09-03 03:09:06 | 47.83170 | 14.86335 | 122° | 49km/h | 17915m | 4.7m/s | -55.3°C | 5.0% | 0hPa | 2.6V | 00:00:00 | 01:20:24 | 00:00:00 | |
| OM5KV | 2026-09-03 03:09:05 | 47.83170 | 14.86335 | 122° | 51km/h | 17915m | 4.8m/s | -55.4°C | 2.0% | 0hPa | 2.6V | 00:00:00 | 00:00:00 | 00:00:00 | |
| PETON7-10 | 2026-09-03 03:09:02 | 47.83197 | 14.86271 | 120° | 46km/h | 17893m | 4.5m/s | -55.3°C | 5.0% | 0hPa | 2.6V | 00:00:00 | 00:00:00 | 00:00:00 | |
| OE3OSB-13 | 2026-09-03 03:08:59 | 47.83220 | 14.86207 | 115° | 47km/h | 17872m | 4.5m/s | -55.4°C | 1.8% | -1.0hPa | 2.6V | 00:00:00 | 00:00:00 | 00:00:00 | |
| DL6DJ-15 | 2026-09-03 03:08:58 | 47.83220 | 14.86207 | 115° | 47km/h | 17872m | 4.5m/s | -55.4°C | -1.0% | -1.0hPa | 2.6V | 00:00:00 | 00:00:00 | 00:00:00 | |
| PG1ADW-2 | 2026-09-03 03:08:57 | 47.83226 | 14.86191 | 118° | 44km/h | 17866m | 6.3m/s | -55.3°C | 4.9% | 0hPa | 2.6V | 00:00:00 | 00:00:00 | 08:30:00 | |
| DO3MHA-12 | 2026-09-03 03:08:56 | 47.83231 | 14.86176 | 119° | 46km/h | 17861m | 4.6m/s | -55.3°C | 4.9% | 0hPa | 2.7V | 00:00:00 | 01:20:14 | 00:00:00 | |
| OM5KV | 2026-09-03 03:08:54 | 47.83237 | 14.86160 | 118° | 46km/h | 17855m | 6.5m/s | -55.4°C | 2.0% | 0hPa | 2.7V | 00:00:00 | 00:00:00 | 00:00:00 | |
| OM5KV | 2026-09-03 03:08:53 | 47.83242 | 14.86145 | 118° | 46km/h | 17849m | 4.6m/s | -55.4°C | 2.0% | 0hPa | 2.7V | 00:00:00 | 00:00:00 | 00:00:00 | |
| OE3JTB-15 | 2026-09-03 03:08:52 | 47.83253 | 14.86116 | 124° | 40km/h | 17838m | 4.6m/s | -55.6°C | 5.1% | 0hPa | 2.7V | 00:00:00 | 00:00:00 | 00:00:00 | |
| OE5MMP-10 | 2026-09-03 03:08:51 | 47.83259 | 14.86102 | 122° | 46km/h | 17834m | 4.0m/s | -55.7°C | 5.2% | 0hPa | 2.7V | 00:00:00 | 01:20:09 | 00:00:00 | |
| OM5KV | 2026-09-03 03:08:48 | 47.83269 | 14.86073 | 112° | 44km/h | 17823m | 5.3m/s | -55.8°C | 2.1% | 0hPa | 2.7V | 00:00:00 | 00:00:00 | 00:00:00 | |
| OE5FHM-15 | 2026-09-03 03:08:47 | 47.83277 | 14.86040 | 110° | 40km/h | 17812m | 5.1m/s | -55.7°C | 5.2% | 0hPa | 2.7V | 00:00:00 | 01:20:05 | 00:00:00 | |
| DO3MHA-12 | 2026-09-03 03:08:46 | 47.83281 | 14.86023 | 106° | 42km/h | 17806m | 5.1m/s | -55.7°C | 5.2% | 0hPa | 2.7V | 00:00:00 | 01:20:04 | 00:00:00 | |
| OE5DXL-15 | 2026-09-03 03:08:45 | 47.83284 | 14.86005 | 103° | 40km/h | 17801m | 5.1m/s | -55.7°C | 5.2% | 0hPa | 2.7V | 00:00:00 | 00:00:00 | 00:00:00 | |
| OE5MMP-10 | 2026-09-03 03:08:41 | 47.83296 | 14.85942 | 109° | 40km/h | 17781m | 5.0m/s | -55.6°C | 5.1% | 0hPa | 2.7V | 00:00:00 | 01:19:59 | 00:00:00 | |
| OE8JPQ-2 | 2026-09-03 03:08:39 | 47.83301 | 14.85916 | 105° | 38km/h | 17771m | 4.5m/s | -55.5°C | 5.1% | 0hPa | 2.7V | 00:00:00 | 00:00:00 | 00:00:00 | |
| OE5WHR-10 | 2026-09-03 03:08:38 | 47.83304 | 14.85901 | 108° | 38km/h | 17766m | 6.2m/s | -55.5°C | 5.1% | 0hPa | 2.7V | 00:00:00 | 00:00:00 | 00:00:00 | |
| PG1ADW-2 | 2026-09-03 03:08:37 | 47.83307 | 14.85886 | 108° | 38km/h | 17760m | 4.8m/s | -55.4°C | 5.1% | 0hPa | 2.7V | 00:00:00 | 00:00:00 | 00:00:00 | |
| OM5KV | 2026-09-03 03:08:36 | 47.83307 | 14.85886 | 108° | 44km/h | 17760m | 4.9m/s | -55.5°C | 2.1% | 0hPa | 2.7V | 00:00:00 | 00:00:00 | 00:00:00 | |
| PETON7-10 | 2026-09-03 03:08:32 | 47.83323 | 14.85813 | 114° | 38km/h | 17733m | 4.9m/s | -55.3°C | 5.0% | 0hPa | 2.7V | 00:00:00 | 00:00:00 | 08:30:00 | |
| OE5MMP-10 | 2026-09-03 03:08:31 | 47.83327 | 14.85801 | 114° | 35km/h | 17727m | 5.9m/s | -55.3°C | 5.0% | 0hPa | 2.6V | 00:00:00 | 01:19:49 | 00:00:00 | |
| OM5KV | 2026-09-03 03:08:30 | 47.83327 | 14.85801 | 115° | 33km/h | 17727m | 5.9m/s | -55.3°C | 2.1% | 0hPa | 2.6V | 00:00:00 | 00:00:00 | 00:00:00 | |
| OE3OSB-13 | 2026-09-03 03:08:28 | 47.83342 | 14.85758 | 117° | 33km/h | 17707m | 4.2m/s | -55.2°C | 1.9% | -1.0hPa | 2.6V | 00:00:00 | 00:00:00 | 00:00:00 | |
| DL6DJ-15 | 2026-09-03 03:08:27 | 47.83342 | 14.85758 | 117° | 33km/h | 17707m | 4.2m/s | 0°C | -1.0% | -1.0hPa | 2.6V | 00:00:00 | 00:00:00 | 00:00:00 | |
| DO3MHA-12 | 2026-09-03 03:08:26 | 47.83346 | 14.85746 | 114° | 40km/h | 17702m | 6.0m/s | -55.1°C | 5.0% | 0hPa | 2.6V | 00:00:00 | 01:19:44 | 00:00:00 | |
| OM5KV | 2026-09-03 03:08:25 | 47.83346 | 14.85746 | 114° | 35km/h | 17702m | 6.0m/s | -55.2°C | 2.0% | 0hPa | 2.6V | 00:00:00 | 00:00:00 | 00:00:00 | |
| OM5KV | 2026-09-03 03:08:24 | 47.83349 | 14.85734 | 110° | 35km/h | 17696m | 4.4m/s | -55.2°C | 2.1% | 0hPa | 2.6V | 00:00:00 | 00:00:00 | 00:00:00 | |
| OE3JTB-15 | 2026-09-03 03:08:23 | 47.83356 | 14.85707 | 114° | 46km/h | 17686m | 5.6m/s | -55.1°C | 5.0% | 0hPa | 2.6V | 00:00:00 | 01:19:41 | 00:00:00 | |
| OE5REO-15 | 2026-09-03 03:08:22 | 47.83356 | 14.85707 | 115° | 40km/h | 17686m | 5.7m/s | -55.1°C | 2.1% | 0hPa | 2.6V | 00:00:00 | 00:00:00 | 00:00:00 | |
| OE5MMP-10 | 2026-09-03 03:08:21 | 47.83364 | 14.85679 | 114° | 42km/h | 17675m | 6.4m/s | -55.1°C | 5.0% | 0hPa | 2.6V | 00:00:00 | 01:19:39 | 08:30:00 | |
| S52SK | 2026-09-03 03:08:20 | 47.83364 | 14.85679 | 114° | 42km/h | 17675m | 6.4m/s | -55.1°C | 2.1% | 0hPa | 2.6V | 00:00:00 | 00:00:00 | 00:00:00 | |
| OE8JPQ-2 | 2026-09-03 03:08:19 | 47.83373 | 14.85651 | 119° | 46km/h | 17664m | 5.2m/s | -55.1°C | 5.0% | 0hPa | 2.6V | 00:00:00 | 00:00:00 | 00:00:00 | |
| OE5WHR-10 | 2026-09-03 03:08:17 | 47.83386 | 14.85622 | 124° | 46km/h | 17654m | 4.4m/s | -55.1°C | 5.1% | 0hPa | 2.6V | 00:00:00 | 01:19:35 | 00:00:00 | |
| DO3MHA-12 | 2026-09-03 03:08:16 | 47.83391 | 14.85608 | 121° | 42km/h | 17649m | 5.6m/s | -55.1°C | 5.1% | 0hPa | 2.6V | 00:00:00 | 01:19:34 | 08:30:00 | |
| OE5DXL-15 | 2026-09-03 03:08:15 | 47.83397 | 14.85595 | 122° | 47km/h | 17644m | 4.1m/s | -55.1°C | 5.1% | 0hPa | 2.6V | 00:00:00 | 00:00:00 | 00:00:00 | |
| OM5KV | 2026-09-03 03:08:14 | 47.83403 | 14.85581 | 126° | 42km/h | 17639m | 6.2m/s | -55.2°C | 2.1% | 0hPa | 2.6V | 00:00:00 | 00:00:00 | 00:00:00 | |
| OM5KV | 2026-09-03 03:08:13 | 47.83403 | 14.85581 | 126° | 42km/h | 17639m | 6.2m/s | -55.2°C | 2.1% | 0hPa | 2.6V | 00:00:00 | 00:00:00 | 00:00:00 | |
| OE5MMP-10 | 2026-09-03 03:08:11 | 47.83421 | 14.85545 | 126° | 47km/h | 17621m | 4.5m/s | -55.2°C | 5.0% | 0hPa | 2.6V | 00:00:00 | 01:19:29 | 00:00:00 | |
| OM5KV | 2026-09-03 03:08:08 | 47.83433 | 14.85522 | 132° | 40km/h | 17612m | 5.9m/s | -55.2°C | 2.1% | 0hPa | 2.6V | 00:00:00 | 00:00:00 | 00:00:00 | |
| OE5REO-15 | 2026-09-03 03:08:07 | 47.83440 | 14.85510 | 133° | 44km/h | 17606m | 4.9m/s | -55.2°C | 2.1% | 0hPa | 2.6V | 00:00:00 | 00:00:00 | 00:00:00 | |
| DO3MHA-12 | 2026-09-03 03:08:06 | 47.83454 | 14.85484 | 126° | 51km/h | 17596m | 5.0m/s | -55.2°C | 5.0% | 0hPa | 2.6V | 00:00:00 | 01:19:24 | 00:00:00 | |
| PETON7-10 | 2026-09-03 03:08:02 | 47.83484 | 14.85419 | 122° | 51km/h | 17574m | 6.1m/s | -55.2°C | 5.0% | 0hPa | 2.6V | 00:00:00 | 01:19:20 | 00:00:00 | |
| OM5KV | 2026-09-03 03:08:01 | 47.83484 | 14.85419 | 122° | 55km/h | 17574m | 6.1m/s | -55.3°C | 2.1% | 0hPa | 2.6V | 00:00:00 | 00:00:00 | 00:00:00 | |
| OE3OSB-13 | 2026-09-03 03:07:57 | 47.83523 | 14.85319 | 120° | 46km/h | 17541m | 5.5m/s | -55.3°C | 1.9% | -1.0hPa | 2.6V | 00:00:00 | 00:00:00 | 00:00:00 | |
| DO3MHA-12 | 2026-09-03 03:07:56 | 47.83523 | 14.85319 | 121° | 51km/h | 17541m | 5.4m/s | -55.2°C | 5.0% | 0hPa | 2.6V | 00:00:00 | 01:19:14 | 00:00:00 | |
| OE3JTB-15 | 2026-09-03 03:07:54 | 47.83534 | 14.85289 | 119° | 55km/h | 17531m | 6.5m/s | -55.2°C | 4.9% | 0hPa | 2.6V | 00:00:00 | 00:00:00 | 00:00:00 | |
| OE5DRO-10 | 2026-09-03 03:07:53 | 47.83539 | 14.85273 | 115° | 55km/h | 17525m | 4.7m/s | -55.2°C | 4.9% | 0hPa | 2.6V | 00:00:00 | 00:00:00 | 00:00:00 | |
| OE5REO-15 | 2026-09-03 03:07:52 | 47.83540 | 14.85273 | 115° | 47km/h | 17525m | 4.8m/s | -55.3°C | 2.0% | 0hPa | 2.6V | 00:00:00 | 00:00:00 | 00:00:00 | |
| OE5MMP-10 | 2026-09-03 03:07:51 | 47.83550 | 14.85240 | 118° | 55km/h | 17515m | 5.7m/s | -55.2°C | 4.9% | 0hPa | 2.6V | 00:00:00 | 01:19:09 | 00:00:00 | |
| OM5KV | 2026-09-03 03:07:50 | 47.83550 | 14.85240 | 119° | 51km/h | 17515m | 5.7m/s | -55.3°C | 2.0% | 0hPa | 2.6V | 00:00:00 | 00:00:00 | 00:00:00 | |
| OM5KV | 2026-09-03 03:07:49 | 47.83556 | 14.85223 | 118° | 53km/h | 17510m | 4.6m/s | -55.3°C | 2.0% | 0hPa | 2.6V | 00:00:00 | 00:00:00 | 00:00:00 | |
| OE5FHM-15 | 2026-09-03 03:07:47 | 47.83574 | 14.85167 | 117° | 53km/h | 17494m | 6.4m/s | -55.4°C | 5.0% | 0hPa | 2.6V | 00:00:00 | 01:19:05 | 00:00:00 | |
| DO3MHA-12 | 2026-09-03 03:07:46 | 47.83581 | 14.85148 | 119° | 55km/h | 17488m | 4.3m/s | -55.4°C | 5.1% | 0hPa | 2.6V | 00:00:00 | 01:19:04 | 00:00:00 | |
| OM5KV | 2026-09-03 03:07:45 | 47.83588 | 14.85129 | 118° | 57km/h | 17483m | 5.3m/s | -55.6°C | 2.1% | 0hPa | 2.6V | 00:00:00 | 00:00:00 | 00:00:00 | |
| OM5KV | 2026-09-03 03:07:44 | 47.83588 | 14.85129 | 118° | 57km/h | 17483m | 5.3m/s | -55.6°C | 2.1% | 0hPa | 2.6V | 00:00:00 | 00:00:00 | 00:00:00 | |
| OM5KV | 2026-09-03 03:07:43 | 47.83594 | 14.85110 | 115° | 55km/h | 17478m | 4.9m/s | -55.7°C | 2.2% | 0hPa | 2.6V | 00:00:00 | 00:00:00 | 00:00:00 | |
| OE5MMP-10 | 2026-09-03 03:07:41 | 47.83610 | 14.85056 | 118° | 57km/h | 17463m | 4.9m/s | -55.8°C | 5.2% | 0hPa | 2.6V | 00:00:00 | 01:18:59 | 00:00:00 | |
| OE8JPQ-2 | 2026-09-03 03:07:39 | 47.83622 | 14.85020 | 113° | 55km/h | 17453m | 5.7m/s | -56.0°C | 5.2% | 0hPa | 2.6V | 00:00:00 | 00:00:00 | 08:30:00 | |
| OM5KV | 2026-09-03 03:07:38 | 47.83622 | 14.85020 | 114° | 55km/h | 17453m | 5.7m/s | -56.0°C | 2.2% | 0hPa | 2.6V | 00:00:00 | 00:00:00 | 00:00:00 | |
| PG1ADW-2 | 2026-09-03 03:07:37 | 47.83633 | 14.84982 | 114° | 53km/h | 17442m | 5.5m/s | -56.2°C | 5.3% | 0hPa | 2.6V | 00:00:00 | 00:00:00 | 00:00:00 | |
| DO3MHA-12 | 2026-09-03 03:07:36 | 47.83639 | 14.84962 | 112° | 57km/h | 17437m | 4.7m/s | -56.2°C | 5.3% | 0hPa | 2.6V | 00:00:00 | 01:18:54 | 00:00:00 | |
| OE5WHR-10 | 2026-09-03 03:07:35 | 47.83644 | 14.84940 | 109° | 53km/h | 17432m | 6.0m/s | -56.2°C | 5.4% | 0hPa | 2.6V | 00:00:00 | 00:00:00 | 00:00:00 | |
| OE5DRO-10 | 2026-09-03 03:07:34 | 47.83649 | 14.84918 | 107° | 53km/h | 17427m | 4.0m/s | -56.3°C | 5.3% | 0hPa | 2.6V | 00:00:00 | 00:00:00 | 00:00:00 | |
| PETON7-10 | 2026-09-03 03:07:32 | 47.83657 | 14.84875 | 108° | 51km/h | 17416m | 4.9m/s | -56.2°C | 5.4% | 0hPa | 2.6V | 00:00:00 | 00:00:00 | 00:00:00 | |
| OE5MMP-10 | 2026-09-03 03:07:31 | 47.83662 | 14.84854 | 107° | 51km/h | 17411m | 5.5m/s | -56.2°C | 5.4% | 0hPa | 2.6V | 00:00:00 | 01:18:49 | 00:00:00 | |
| OE3OSB-13 | 2026-09-03 03:07:26 | 47.83685 | 14.84742 | 106° | 49km/h | 17377m | 4.8m/s | -56.0°C | 2.0% | -1.0hPa | 2.6V | 00:00:00 | 00:00:00 | 00:00:00 | |
| OE3JTB-15 | 2026-09-03 03:07:25 | 47.83685 | 14.84742 | 107° | 44km/h | 17377m | 4.8m/s | -56.0°C | 5.3% | 0hPa | 2.6V | 00:00:00 | 00:00:00 | 00:00:00 | |
| OE5MMP-10 | 2026-09-03 03:07:21 | 47.83699 | 14.84673 | 104° | 47km/h | 17355m | 5.6m/s | -55.9°C | 5.4% | 0hPa | 2.6V | 00:00:00 | 01:18:39 | 00:00:00 | |
| OM5KV | 2026-09-03 03:07:20 | 47.83699 | 14.84673 | 105° | 51km/h | 17355m | 5.6m/s | -56.0°C | 2.3% | 0hPa | 2.6V | 00:00:00 | 00:00:00 | 00:00:00 | |
| OE8JPQ-2 | 2026-09-03 03:07:19 | 47.83705 | 14.84636 | 103° | 44km/h | 17345m | 6.1m/s | -55.9°C | 5.4% | 0hPa | 2.6V | 00:00:00 | 00:00:00 | 00:00:00 | |
| OE5FHM-15 | 2026-09-03 03:07:17 | 47.83710 | 14.84602 | 104° | 40km/h | 17334m | 4.9m/s | -55.9°C | 5.4% | 0hPa | 2.6V | 00:00:00 | 01:18:35 | 00:00:00 | |
| DO3MHA-12 | 2026-09-03 03:07:16 | 47.83713 | 14.84584 | 103° | 46km/h | 17328m | 5.4m/s | -55.8°C | 5.3% | 0hPa | 2.6V | 00:00:00 | 01:18:34 | 00:00:00 | |
| OE5DXL-15 | 2026-09-03 03:07:15 | 47.83716 | 14.84567 | 105° | 40km/h | 17324m | 4.3m/s | -55.8°C | 5.4% | 0hPa | 2.6V | 00:00:00 | 00:00:00 | 08:30:00 | |
| OE5WHR-10 | 2026-09-03 03:07:14 | 47.83719 | 14.84549 | 108° | 40km/h | 17318m | 6.1m/s | -55.7°C | 5.3% | 0hPa | 2.7V | 00:00:00 | 01:18:32 | 00:00:00 | |
| OE5MMP-10 | 2026-09-03 03:07:11 | 47.83730 | 14.84500 | 107° | 42km/h | 17302m | 5.0m/s | -55.6°C | 5.3% | 0hPa | 2.7V | 00:00:00 | 01:18:29 | 00:00:00 | |
| OM5KV | 2026-09-03 03:07:09 | 47.83734 | 14.84484 | 108° | 44km/h | 17296m | 6.4m/s | -55.7°C | 2.2% | 0hPa | 2.7V | 00:00:00 | 00:00:00 | 00:00:00 | |
| OM5KV | 2026-09-03 03:07:08 | 47.83736 | 14.84469 | 106° | 40km/h | 17290m | 3.9m/s | -55.6°C | 2.2% | 0hPa | 2.7V | 00:00:00 | 00:00:00 | 00:00:00 | |
| DO3MHA-12 | 2026-09-03 03:07:06 | 47.83743 | 14.84423 | 100° | 38km/h | 17275m | 4.8m/s | -55.5°C | 5.2% | 0hPa | 2.7V | 00:00:00 | 01:18:24 | 00:00:00 | |
| OE5REO-15 | 2026-09-03 03:07:04 | 47.83745 | 14.84407 | 100° | 40km/h | 17270m | 6.2m/s | -55.5°C | 2.2% | 0hPa | 2.7V | 00:00:00 | 00:00:00 | 00:00:00 | |
| OM5KV | 2026-09-03 03:07:03 | 47.83746 | 14.84392 | 103° | 38km/h | 17264m | 4.8m/s | -55.5°C | 2.2% | 0hPa | 2.7V | 00:00:00 | 00:00:00 | 00:00:00 | |
| PETON7-10 | 2026-09-03 03:07:02 | 47.83751 | 14.84364 | 104° | 38km/h | 17253m | 4.8m/s | -55.5°C | 5.3% | 0hPa | 2.7V | 00:00:00 | 00:00:00 | 00:00:00 | |
| OE3OSB-13 | 2026-09-03 03:06:55 | 47.83765 | 14.84254 | 99° | 37km/h | 17211m | 4.6m/s | -55.4°C | 2.1% | -1.0hPa | 2.7V | 00:00:00 | 00:00:00 | 00:00:00 | |
| OE5WHR-10 | 2026-09-03 03:06:53 | 47.83766 | 14.84240 | 102° | 37km/h | 17207m | 5.7m/s | -55.4°C | 5.3% | 0hPa | 2.7V | 00:00:00 | 00:00:00 | 00:00:00 | |
| S52SK | 2026-09-03 03:06:52 | 47.83767 | 14.84240 | 103° | 38km/h | 17207m | 5.8m/s | -55.4°C | 2.3% | 0hPa | 2.6V | 00:00:00 | 00:00:00 | 00:00:00 | |
| OE5MMP-10 | 2026-09-03 03:06:51 | 47.83772 | 14.84212 | 110° | 37km/h | 17196m | 4.7m/s | -55.5°C | 5.3% | 0hPa | 2.6V | 00:00:00 | 01:18:09 | 08:30:00 | |
| OM5KV | 2026-09-03 03:06:50 | 47.83772 | 14.84212 | 111° | 40km/h | 17196m | 4.7m/s | -55.5°C | 2.3% | 0hPa | 2.6V | 00:00:00 | 00:00:00 | 00:00:00 | |
| OE5HKT-10 | 2026-09-03 03:06:49 | 47.83779 | 14.84185 | 113° | 42km/h | 17186m | 5.4m/s | -55.5°C | 5.3% | 0hPa | 2.6V | 00:00:00 | 00:00:00 | 08:30:00 | |
| OE5FHM-15 | 2026-09-03 03:06:47 | 47.83787 | 14.84160 | 117° | 40km/h | 17174m | 4.5m/s | -55.5°C | 5.3% | 0hPa | 2.7V | 00:00:00 | 01:18:05 | 00:00:00 | |
| DO3MHA-12 | 2026-09-03 03:06:46 | 47.83791 | 14.84147 | 115° | 35km/h | 17169m | 6.2m/s | -55.4°C | 5.3% | 0hPa | 2.6V | 00:00:00 | 01:18:04 | 08:30:00 | |
| OE5DXL-15 | 2026-09-03 03:06:45 | 47.83795 | 14.84135 | 111° | 40km/h | 17163m | 5.0m/s | -55.4°C | 5.3% | 0hPa | 2.6V | 00:00:00 | 00:00:00 | 00:00:00 | |
| OM5KV | 2026-09-03 03:06:44 | 47.83794 | 14.84135 | 112° | 33km/h | 17163m | 5.0m/s | -55.5°C | 2.3% | 0hPa | 2.6V | 00:00:00 | 00:00:00 | 00:00:00 | |
| OK1ALN | 2026-09-03 03:06:43 | 47.83797 | 14.84124 | 110° | 33km/h | 17159m | 2.9m/s | -55.5°C | 2.3% | 0hPa | 2.6V | 00:00:00 | 00:00:00 | 00:00:00 | |
| OE5MMP-10 | 2026-09-03 03:06:41 | 47.83807 | 14.84087 | 116° | 37km/h | 17144m | 5.1m/s | -55.4°C | 5.2% | 0hPa | 2.6V | 00:00:00 | 01:17:59 | 00:00:00 | |
| OE8JPQ-2 | 2026-09-03 03:06:39 | 47.83816 | 14.84064 | 121° | 42km/h | 17133m | 5.0m/s | -55.4°C | 5.3% | 0hPa | 2.6V | 00:00:00 | 00:00:00 | 00:00:00 | |
| PG1ADW-2 | 2026-09-03 03:06:37 | 47.83825 | 14.84039 | 122° | 42km/h | 17122m | 4.4m/s | -55.4°C | 5.3% | 0hPa | 2.7V | 00:00:00 | 01:17:55 | 00:00:00 | |
| DO3MHA-12 | 2026-09-03 03:06:36 | 47.83830 | 14.84028 | 122° | 40km/h | 17117m | 5.8m/s | -55.4°C | 5.2% | 0hPa | 2.7V | 00:00:00 | 01:17:54 | 00:00:00 | |
| OE5REO-15 | 2026-09-03 03:06:34 | 47.83834 | 14.84017 | 122° | 35km/h | 17112m | 4.1m/s | -55.4°C | 2.3% | 0hPa | 2.7V | 00:00:00 | 00:00:00 | 00:00:00 | |
| OM5KV | 2026-09-03 03:06:33 | 47.83838 | 14.84006 | 118° | 37km/h | 17107m | 6.0m/s | -55.4°C | 2.3% | 0hPa | 2.7V | 00:00:00 | 00:00:00 | 00:00:00 | |
| PETON7-10 | 2026-09-03 03:06:32 | 47.83848 | 14.83979 | 120° | 44km/h | 17097m | 4.5m/s | -55.4°C | 5.3% | 0hPa | 2.7V | 00:00:00 | 01:17:50 | 00:00:00 | |
| OE5MMP-10 | 2026-09-03 03:06:31 | 47.83853 | 14.83966 | 122° | 44km/h | 17091m | 6.2m/s | -55.4°C | 5.3% | 0hPa | 2.7V | 00:00:00 | 01:17:49 | 00:00:00 | |
| OM5KV | 2026-09-03 03:06:29 | 47.83859 | 14.83953 | 125° | 42km/h | 17086m | 4.7m/s | -55.4°C | 2.3% | 0hPa | 2.7V | 00:00:00 | 00:00:00 | 00:00:00 | |
| OE3JTB-15 | 2026-09-03 03:06:27 | 47.83876 | 14.83910 | 119° | 49km/h | 17070m | 4.9m/s | -55.3°C | 5.3% | 0hPa | 2.7V | 00:00:00 | 00:00:00 | 00:00:00 | |
| DO3MHA-12 | 2026-09-03 03:06:26 | 47.83881 | 14.83895 | 119° | 44km/h | 17065m | 5.3m/s | -55.3°C | 5.2% | 0hPa | 2.6V | 00:00:00 | 01:17:44 | 00:00:00 | |
| OM5KV | 2026-09-03 03:06:23 | 47.83890 | 14.83867 | 115° | 44km/h | 17054m | 6.0m/s | -55.3°C | 2.2% | 0hPa | 2.6V | 00:00:00 | 00:00:00 | 00:00:00 | |
| OM5KV | 2026-09-03 03:06:22 | 47.83895 | 14.83852 | 114° | 44km/h | 17049m | 4.6m/s | -55.3°C | 2.3% | 0hPa | 2.6V | 00:00:00 | 00:00:00 | 00:00:00 | |
| OE5MMP-10 | 2026-09-03 03:06:21 | 47.83904 | 14.83822 | 117° | 47km/h | 17038m | 4.4m/s | -55.3°C | 5.3% | 0hPa | 2.6V | 00:00:00 | 01:17:39 | 00:00:00 | |
| OM5KV | 2026-09-03 03:06:20 | 47.83904 | 14.83822 | 117° | 42km/h | 17038m | 4.4m/s | -55.3°C | 2.3% | 0hPa | 2.6V | 00:00:00 | 00:00:00 | 00:00:00 | |
| OE8JPQ-2 | 2026-09-03 03:06:19 | 47.83914 | 14.83792 | 114° | 51km/h | 17027m | 5.2m/s | -55.4°C | 5.3% | 0hPa | 2.6V | 00:00:00 | 00:00:00 | 00:00:00 | |
| OE5REO-15 | 2026-09-03 03:06:18 | 47.83914 | 14.83792 | 115° | 47km/h | 17027m | 5.3m/s | -55.4°C | 2.3% | 0hPa | 2.6V | 00:00:00 | 00:00:00 | 00:00:00 | |
| OE5FHM-15 | 2026-09-03 03:06:17 | 47.83924 | 14.83759 | 116° | 53km/h | 17016m | 4.8m/s | -55.4°C | 5.2% | 0hPa | 2.6V | 00:00:00 | 01:17:35 | 00:00:00 | |
| DO3MHA-12 | 2026-09-03 03:06:16 | 47.83929 | 14.83743 | 115° | 49km/h | 17011m | 4.6m/s | -55.4°C | 5.3% | 0hPa | 2.6V | 00:00:00 | 01:17:34 | 00:00:00 | |
| OE5DXL-15 | 2026-09-03 03:06:15 | 47.83934 | 14.83726 | 114° | 55km/h | 17006m | 5.6m/s | -55.4°C | 5.3% | 0hPa | 2.6V | 00:00:00 | 00:00:00 | 00:00:00 | |
| OM5KV | 2026-09-03 03:06:13 | 47.83939 | 14.83708 | 114° | 51km/h | 17001m | 5.3m/s | -55.4°C | 2.3% | 0hPa | 2.6V | 00:00:00 | 00:00:00 | 00:00:00 | |
| OE5MMP-10 | 2026-09-03 03:06:11 | 47.83954 | 14.83658 | 114° | 53km/h | 16984m | 6.4m/s | -55.3°C | 5.2% | 0hPa | 2.6V | 00:00:00 | 01:17:29 | 00:00:00 | |
| OM5KV | 2026-09-03 03:06:10 | 47.83954 | 14.83658 | 114° | 51km/h | 16984m | 6.5m/s | -55.4°C | 2.3% | 0hPa | 2.6V | 00:00:00 | 00:00:00 | 00:00:00 | |
| DO3MHA-12 | 2026-09-03 03:06:06 | 47.83980 | 14.83570 | 114° | 55km/h | 16958m | 5.9m/s | -55.2°C | 5.2% | 0hPa | 2.6V | 00:00:00 | 01:17:24 | 00:00:00 | |
| OM5KV | 2026-09-03 03:06:03 | 47.83990 | 14.83533 | 114° | 53km/h | 16947m | 6.2m/s | -55.3°C | 2.2% | 0hPa | 2.6V | 00:00:00 | 00:00:00 | 00:00:00 | |
| PETON7-10 | 2026-09-03 03:06:02 | 47.84000 | 14.83496 | 111° | 57km/h | 16937m | 5.8m/s | -55.3°C | 5.1% | 0hPa | 2.6V | 00:00:00 | 00:00:00 | 00:00:00 | |
| OK1ALN | 2026-09-03 03:06:01 | 47.84000 | 14.83496 | 111° | 55km/h | 16937m | 5.8m/s | -55.4°C | 2.2% | 0hPa | 2.6V | 00:00:00 | 00:00:00 | 00:00:00 | |
| OE3OSB-13 | 2026-09-03 03:05:53 | 47.84049 | 14.83299 | 108° | 55km/h | 16885m | 6.1m/s | -55.4°C | 2.1% | -1.0hPa | 2.6V | 00:00:00 | 00:00:00 | 00:00:00 | |
| OM5KV | 2026-09-03 03:05:52 | 47.84045 | 14.83319 | 110° | 53km/h | 16890m | 4.3m/s | -55.4°C | 2.2% | 0hPa | 2.6V | 00:00:00 | 00:00:00 | 00:00:00 | |
| OE5MMP-10 | 2026-09-03 03:05:51 | 47.84053 | 14.83280 | 108° | 58km/h | 16880m | 4.6m/s | -55.3°C | 5.2% | 0hPa | 2.6V | 00:00:00 | 01:17:09 | 00:00:00 | |
| OE5WHR-10 | 2026-09-03 03:05:50 | 47.84058 | 14.83259 | 105° | 57km/h | 16875m | 4.3m/s | -55.4°C | 5.2% | 0hPa | 2.6V | 00:00:00 | 00:00:00 | 08:30:00 | |
| PETON7-10 | 2026-09-03 03:05:47 | 47.84066 | 14.83194 | 100° | 57km/h | 16859m | 6.3m/s | -55.5°C | 5.2% | 0hPa | 2.6V | 00:00:00 | 01:17:05 | 00:00:00 | |
| DO3MHA-12 | 2026-09-03 03:05:46 | 47.84068 | 14.83172 | 101° | 57km/h | 16853m | 4.8m/s | -55.5°C | 5.2% | 0hPa | 2.6V | 00:00:00 | 01:17:04 | 00:00:00 | |
| OE5DXL-15 | 2026-09-03 03:05:45 | 47.84071 | 14.83150 | 99° | 53km/h | 16848m | 6.4m/s | -55.5°C | 5.2% | 0hPa | 2.6V | 00:00:00 | 00:00:00 | 00:00:00 | |
| OE5MMP-10 | 2026-09-03 03:05:41 | 47.84082 | 14.83065 | 108° | 55km/h | 16826m | 4.3m/s | -55.5°C | 5.3% | 0hPa | 2.6V | 00:00:00 | 01:16:59 | 00:00:00 | |
| OE8JPQ-2 | 2026-09-03 03:05:39 | 47.84090 | 14.83027 | 107° | 53km/h | 16816m | 4.7m/s | -55.7°C | 5.3% | 0hPa | 2.6V | 00:00:00 | 00:00:00 | 00:00:00 | |
| OK1ALN | 2026-09-03 03:05:38 | 47.84090 | 14.83027 | 107° | 51km/h | 16816m | 4.7m/s | -55.7°C | 2.3% | 0hPa | 2.6V | 00:00:00 | 00:00:00 | 00:00:00 | |
| OM5KV | 2026-09-03 03:05:37 | 47.84094 | 14.83008 | 107° | 53km/h | 16811m | 5.7m/s | -55.7°C | 2.7% | 0hPa | 2.6V | 00:00:00 | 00:00:00 | 00:00:00 | |
| DO3MHA-12 | 2026-09-03 03:05:36 | 47.84102 | 14.82968 | 105° | 55km/h | 16801m | 3.5m/s | -55.8°C | 5.5% | 0hPa | 2.6V | 00:00:00 | 01:16:54 | 00:00:00 | |
| OE5MMP-10 | 2026-09-03 03:05:31 | 47.84119 | 14.82868 | 105° | 53km/h | 16775m | 6.0m/s | -55.6°C | 5.4% | 0hPa | 2.6V | 00:00:00 | 01:16:49 | 00:00:00 | |
| OE5WHR-10 | 2026-09-03 03:05:29 | 47.84125 | 14.82830 | 108° | 51km/h | 16764m | 5.3m/s | -55.5°C | 5.4% | 0hPa | 2.6V | 00:00:00 | 00:00:00 | 00:00:00 | |
| DO3MHA-12 | 2026-09-03 03:05:26 | 47.84138 | 14.82774 | 108° | 49km/h | 16749m | 6.1m/s | -55.4°C | 5.4% | 0hPa | 2.6V | 00:00:00 | 01:16:44 | 00:00:00 | |
| OE5MMP-10 | 2026-09-03 03:05:21 | 47.84160 | 14.82683 | 109° | 47km/h | 16722m | 6.2m/s | -55.2°C | 5.3% | 0hPa | 2.6V | 00:00:00 | 01:16:39 | 08:30:00 | |
| OE5DRO-10 | 2026-09-03 03:05:20 | 47.84163 | 14.82666 | 106° | 47km/h | 16716m | 3.6m/s | -55.2°C | 5.3% | 0hPa | 2.6V | 00:00:00 | 00:00:00 | 00:00:00 | |
| OE8JPQ-2 | 2026-09-03 03:05:19 | 47.84167 | 14.82648 | 106° | 47km/h | 16712m | 5.6m/s | -55.2°C | 5.3% | 0hPa | 2.7V | 00:00:00 | 00:00:00 | 00:00:00 | |
| S52SK | 2026-09-03 03:05:18 | 47.84167 | 14.82648 | 107° | 49km/h | 16712m | 5.6m/s | -55.3°C | 2.3% | 0hPa | 2.7V | 00:00:00 | 00:00:00 | 00:00:00 | |
| OE5FHM-15 | 2026-09-03 03:05:17 | 47.84173 | 14.82613 | 105° | 49km/h | 16701m | 6.1m/s | -55.2°C | 5.2% | 0hPa | 2.7V | 00:00:00 | 01:16:35 | 00:00:00 | |
| DO3MHA-12 | 2026-09-03 03:05:16 | 47.84176 | 14.82596 | 104° | 49km/h | 16695m | 5.0m/s | -55.2°C | 5.3% | 0hPa | 2.6V | 00:00:00 | 01:16:34 | 08:30:00 | |
| OE5DXL-15 | 2026-09-03 03:05:15 | 47.84179 | 14.82580 | 105° | 49km/h | 16689m | 6.1m/s | -55.2°C | 5.3% | 0hPa | 2.6V | 00:00:00 | 00:00:00 | 00:00:00 | |
| S52SK | 2026-09-03 03:05:12 | 47.84185 | 14.82545 | 106° | 47km/h | 16679m | 4.9m/s | -55.2°C | 2.3% | 0hPa | 2.6V | 00:00:00 | 00:00:00 | 00:00:00 | |
| OE5MMP-10 | 2026-09-03 03:05:11 | 47.84191 | 14.82510 | 106° | 49km/h | 16668m | 4.7m/s | -55.1°C | 5.3% | 0hPa | 2.6V | 00:00:00 | 01:16:29 | 00:00:00 | |
| OE5WHR-10 | 2026-09-03 03:05:08 | 47.84202 | 14.82456 | 109° | 51km/h | 16652m | 5.3m/s | -55.0°C | 5.2% | 0hPa | 2.6V | 00:00:00 | 01:16:26 | 00:00:00 | |
| DO3MHA-12 | 2026-09-03 03:05:06 | 47.84211 | 14.82422 | 116° | 47km/h | 16640m | 6.1m/s | -54.9°C | 5.1% | 0hPa | 2.6V | 00:00:00 | 01:16:24 | 00:00:00 | |
| PETON7-10 | 2026-09-03 03:05:02 | 47.84233 | 14.82358 | 116° | 49km/h | 16619m | 5.4m/s | -54.9°C | 5.1% | 0hPa | 2.6V | 00:00:00 | 01:16:20 | 00:00:00 | |
| OE3OSB-13 | 2026-09-03 03:04:52 | 47.84282 | 14.82151 | 106° | 49km/h | 16557m | 5.1m/s | -54.8°C | 2.1% | -1.0hPa | 2.6V | 00:00:00 | 00:00:00 | 00:00:00 | |
| OE5MMP-10 | 2026-09-03 03:04:51 | 47.84278 | 14.82169 | 108° | 49km/h | 16563m | 5.3m/s | -54.8°C | 5.1% | 0hPa | 2.6V | 00:00:00 | 01:16:09 | 00:00:00 | |
| OE5FHM-15 | 2026-09-03 03:04:47 | 47.84293 | 14.82095 | 107° | 47km/h | 16541m | 6.1m/s | -54.7°C | 5.0% | 0hPa | 2.6V | 00:00:00 | 01:16:05 | 00:00:00 | |
| DO3MHA-12 | 2026-09-03 03:04:46 | 47.84297 | 14.82078 | 105° | 46km/h | 16535m | 4.8m/s | -54.8°C | 5.0% | 0hPa | 2.6V | 00:00:00 | 01:16:04 | 00:00:00 | |
| OE5DXL-15 | 2026-09-03 03:04:45 | 47.84300 | 14.82061 | 108° | 47km/h | 16530m | 5.0m/s | -54.9°C | 5.1% | 0hPa | 2.6V | 00:00:00 | 00:00:00 | 00:00:00 | |
| OE5REO-15 | 2026-09-03 03:04:44 | 47.84300 | 14.82061 | 108° | 46km/h | 16530m | 5.1m/s | -54.9°C | 2.2% | 0hPa | 2.6V | 00:00:00 | 00:00:00 | 00:00:00 | |
| OE5DRO-10 | 2026-09-03 03:04:42 | 47.84312 | 14.82013 | 114° | 49km/h | 16515m | 5.6m/s | -55.1°C | 5.2% | 0hPa | 2.6V | 00:00:00 | 00:00:00 | 00:00:00 | |
| OE5MMP-10 | 2026-09-03 03:04:41 | 47.84317 | 14.81998 | 118° | 49km/h | 16510m | 3.7m/s | -55.1°C | 5.2% | 0hPa | 2.6V | 00:00:00 | 01:15:59 | 00:00:00 | |
| OE8JPQ-2 | 2026-09-03 03:04:39 | 47.84329 | 14.81969 | 123° | 49km/h | 16500m | 3.7m/s | -55.0°C | 5.3% | 0hPa | 2.6V | 00:00:00 | 00:00:00 | 08:30:00 | |
| PG1ADW-2 | 2026-09-03 03:04:37 | 47.84342 | 14.81938 | 118° | 49km/h | 16490m | 4.8m/s | -55.0°C | 5.4% | 0hPa | 2.6V | 00:00:00 | 00:00:00 | 00:00:00 | |
| PETON7-10 | 2026-09-03 03:04:32 | 47.84366 | 14.81850 | 110° | 47km/h | 16465m | 5.8m/s | -55.1°C | 5.4% | 0hPa | 2.6V | 00:00:00 | 00:00:00 | 00:00:00 | |
| OE5MMP-10 | 2026-09-03 03:04:31 | 47.84370 | 14.81832 | 110° | 47km/h | 16460m | 4.4m/s | -55.0°C | 5.3% | 0hPa | 2.6V | 00:00:00 | 01:15:49 | 00:00:00 | |
| OK1ALN | 2026-09-03 03:04:30 | 47.84370 | 14.81832 | 111° | 49km/h | 16460m | 4.5m/s | -55.1°C | 2.3% | 0hPa | 2.6V | 00:00:00 | 00:00:00 | 00:00:00 | |
| OE5REO-15 | 2026-09-03 03:04:28 | 47.84379 | 14.81797 | 113° | 51km/h | 16450m | 4.2m/s | -55.1°C | 2.3% | 0hPa | 2.6V | 00:00:00 | 00:00:00 | 00:00:00 | |
| DO3MHA-12 | 2026-09-03 03:04:26 | 47.84392 | 14.81745 | 111° | 47km/h | 16434m | 5.6m/s | -54.9°C | 5.2% | 0hPa | 2.6V | 00:00:00 | 01:15:44 | 00:00:00 | |
| OE5DRO-10 | 2026-09-03 03:04:22 | 47.84406 | 14.81678 | 105° | 49km/h | 16413m | 4.8m/s | -54.8°C | 5.2% | 0hPa | 2.6V | 00:00:00 | 00:00:00 | 08:30:00 | |
| OE5MMP-10 | 2026-09-03 03:04:21 | 47.84410 | 14.81661 | 106° | 47km/h | 16407m | 5.8m/s | -54.8°C | 5.1% | 0hPa | 2.7V | 00:00:00 | 01:15:39 | 00:00:00 | |
| OE8JPQ-2 | 2026-09-03 03:04:19 | 47.84416 | 14.81627 | 104° | 47km/h | 16397m | 5.0m/s | -54.7°C | 5.1% | 0hPa | 2.7V | 00:00:00 | 00:00:00 | 00:00:00 | |
| PETON7-10 | 2026-09-03 03:04:17 | 47.84421 | 14.81593 | 102° | 49km/h | 16386m | 5.6m/s | -54.6°C | 5.1% | 0hPa | 2.7V | 00:00:00 | 01:15:35 | 00:00:00 | |
| DO3MHA-12 | 2026-09-03 03:04:16 | 47.84423 | 14.81575 | 101° | 49km/h | 16381m | 4.9m/s | -54.6°C | 5.1% | 0hPa | 2.7V | 00:00:00 | 01:15:34 | 00:00:00 | |
| OE5DXL-15 | 2026-09-03 03:04:15 | 47.84425 | 14.81557 | 99° | 46km/h | 16376m | 5.1m/s | -54.5°C | 5.2% | 0hPa | 2.7V | 00:00:00 | 00:00:00 | 00:00:00 | |
| OE5REO-15 | 2026-09-03 03:04:13 | 47.84427 | 14.81539 | 97° | 49km/h | 16371m | 5.1m/s | -54.6°C | 2.3% | 0hPa | 2.6V | 00:00:00 | 00:00:00 | 00:00:00 | |
| OE5MMP-10 | 2026-09-03 03:04:11 | 47.84432 | 14.81482 | 103° | 49km/h | 16355m | 4.6m/s | -54.7°C | 5.2% | 0hPa | 2.6V | 00:00:00 | 01:15:29 | 00:00:00 | |
| OK1ALN | 2026-09-03 03:04:08 | 47.84438 | 14.81444 | 102° | 49km/h | 16345m | 5.5m/s | -54.8°C | 2.3% | 0hPa | 2.6V | 00:00:00 | 00:00:00 | 00:00:00 | |
| DO3MHA-12 | 2026-09-03 03:04:06 | 47.84444 | 14.81390 | 97° | 46km/h | 16330m | 3.6m/s | -55.0°C | 5.4% | 0hPa | 2.6V | 00:00:00 | 01:15:24 | 00:00:00 | |
| OE5WHR-10 | 2026-09-03 03:04:05 | 47.84445 | 14.81371 | 93° | 44km/h | 16324m | 6.7m/s | -55.0°C | 5.3% | 0hPa | 2.6V | 00:00:00 | 01:15:23 | 00:00:00 | |
| OE5DRO-10 | 2026-09-03 03:04:03 | 47.84445 | 14.81336 | 91° | 44km/h | 16313m | 6.5m/s | -55.0°C | 5.4% | 0hPa | 2.6V | 00:00:00 | 00:00:00 | 00:00:00 | |
| OE3JTB-15 | 2026-09-03 03:04:02 | 47.84446 | 14.81318 | 93° | 44km/h | 16307m | 4.2m/s | -54.9°C | 5.4% | 0hPa | 2.6V | 00:00:00 | 01:15:20 | 00:00:00 | |
| OE3OSB-13 | 2026-09-03 03:03:48 | 47.84472 | 14.81095 | 106° | 44km/h | 16233m | 4.1m/s | -54.6°C | 2.2% | -1.0hPa | 2.6V | 00:00:00 | 00:00:00 | 00:00:00 | |
| OE5FHM-15 | 2026-09-03 03:03:47 | 47.84475 | 14.81079 | 109° | 44km/h | 16228m | 6.3m/s | -54.5°C | 5.2% | 0hPa | 2.6V | 00:00:00 | 01:15:05 | 08:30:00 | |
| DO3MHA-12 | 2026-09-03 03:03:46 | 47.84478 | 14.81064 | 111° | 42km/h | 16221m | 5.7m/s | -54.5°C | 5.2% | 0hPa | 2.6V | 00:00:00 | 01:15:04 | 08:30:00 | |
| OE5DXL-15 | 2026-09-03 03:03:45 | 47.84482 | 14.81050 | 111° | 44km/h | 16216m | 4.7m/s | -54.4°C | 5.3% | 0hPa | 2.7V | 00:00:00 | 00:00:00 | 00:00:00 | |
| OE5WHR-10 | 2026-09-03 03:03:44 | 47.84486 | 14.81034 | 111° | 44km/h | 16211m | 5.4m/s | -54.4°C | 5.3% | 0hPa | 2.7V | 00:00:00 | 00:00:00 | 00:00:00 | |
| OE5MMP-10 | 2026-09-03 03:03:41 | 47.84497 | 14.80987 | 110° | 42km/h | 16196m | 5.3m/s | -54.6°C | 5.4% | 0hPa | 2.7V | 00:00:00 | 01:14:59 | 00:00:00 | |
| OE8JPQ-2 | 2026-09-03 03:03:39 | 47.84505 | 14.80957 | 113° | 44km/h | 16186m | 5.7m/s | -54.7°C | 5.4% | 0hPa | 2.7V | 00:00:00 | 00:00:00 | 00:00:00 | |
| PG1ADW-2 | 2026-09-03 03:03:37 | 47.84514 | 14.80929 | 119° | 44km/h | 16176m | 5.3m/s | -54.7°C | 5.4% | 0hPa | 2.7V | 00:00:00 | 00:00:00 | 00:00:00 | |
| DO3MHA-12 | 2026-09-03 03:03:36 | 47.84519 | 14.80915 | 118° | 44km/h | 16171m | 4.5m/s | -54.6°C | 5.4% | 0hPa | 2.7V | 00:00:00 | 01:14:54 | 00:00:00 | |
| OE3JTB-15 | 2026-09-03 03:03:33 | 47.84533 | 14.80869 | 113° | 47km/h | 16155m | 6.4m/s | -54.6°C | 5.4% | 0hPa | 2.7V | 00:00:00 | 00:00:00 | 00:00:00 | |
| PETON7-10 | 2026-09-03 03:03:32 | 47.84537 | 14.80855 | 112° | 46km/h | 16150m | 4.1m/s | -54.6°C | 5.4% | 0hPa | 2.6V | 00:00:00 | 01:14:50 | 00:00:00 | |
| OE5MMP-10 | 2026-09-03 03:03:31 | 47.84541 | 14.80840 | 111° | 46km/h | 16145m | 4.9m/s | -54.6°C | 5.4% | 0hPa | 2.6V | 00:00:00 | 01:14:49 | 00:00:00 | |
| DO3MHA-12 | 2026-09-03 03:03:26 | 47.84564 | 14.80763 | 114° | 46km/h | 16120m | 6.1m/s | -54.5°C | 5.4% | 0hPa | 2.6V | 00:00:00 | 01:14:44 | 00:00:00 | |
| OE5DRO-10 | 2026-09-03 03:03:25 | 47.84569 | 14.80747 | 114° | 53km/h | 16115m | 4.1m/s | -54.5°C | 5.3% | 0hPa | 2.6V | 00:00:00 | 00:00:00 | 00:00:00 | |
| OE5WHR-10 | 2026-09-03 03:03:23 | 47.84577 | 14.80716 | 114° | 49km/h | 16104m | 4.6m/s | -54.5°C | 5.3% | 0hPa | 2.7V | 00:00:00 | 00:00:00 | 00:00:00 | |
| OE5MMP-10 | 2026-09-03 03:03:21 | 47.84586 | 14.80685 | 114° | 46km/h | 16094m | 4.1m/s | -54.6°C | 5.2% | 0hPa | 2.7V | 00:00:00 | 01:14:39 | 00:00:00 | |
| OE8JPQ-2 | 2026-09-03 03:03:19 | 47.84596 | 14.80654 | 116° | 51km/h | 16083m | 4.9m/s | -54.5°C | 5.2% | 0hPa | 2.7V | 00:00:00 | 00:00:00 | 00:00:00 | |
| OE5FHM-15 | 2026-09-03 03:03:17 | 47.84606 | 14.80623 | 117° | 53km/h | 16073m | 3.9m/s | -54.6°C | 5.0% | 0hPa | 2.7V | 00:00:00 | 01:14:35 | 00:00:00 | |
| DO3MHA-12 | 2026-09-03 03:03:16 | 47.84611 | 14.80608 | 117° | 91km/h | 16068m | 5.6m/s | -54.6°C | 5.1% | 0hPa | 2.7V | 00:00:00 | 01:14:34 | 00:00:00 | |
| OE5DXL-15 | 2026-09-03 03:03:15 | 47.84616 | 14.80593 | 115° | 53km/h | 16063m | 3.6m/s | -54.7°C | 5.0% | 0hPa | 2.6V | 00:00:00 | 00:00:00 | 00:00:00 | |
| OE5MMP-10 | 2026-09-03 03:03:11 | 47.84636 | 14.80526 | 114° | 55km/h | 16043m | 6.2m/s | -55.1°C | 5.2% | 0hPa | 2.6V | 00:00:00 | 01:14:29 | 00:00:00 | |
| OE5REO-15 | 2026-09-03 03:03:10 | 47.84636 | 14.80526 | 115° | 51km/h | 16043m | 6.2m/s | -55.1°C | 2.4% | 0hPa | 2.6V | 00:00:00 | 00:00:00 | 00:00:00 | |
| OE3JTB-15 | 2026-09-03 03:03:04 | 47.84679 | 14.80397 | 118° | 51km/h | 16008m | 4.2m/s | -56.3°C | 5.8% | 0hPa | 2.6V | 00:00:00 | 00:00:00 | 00:00:00 | |
| OE5WHR-10 | 2026-09-03 03:03:02 | 47.84692 | 14.80359 | 119° | 51km/h | 15999m | 5.1m/s | -56.5°C | 6.0% | 0hPa | 2.6V | 00:00:00 | 01:14:20 | 00:00:00 | |
| OE3OSB-13 | 2026-09-03 03:02:46 | 47.84781 | 14.80077 | 123° | 47km/h | 15914m | 5.6m/s | -56.1°C | 2.5% | -1.0hPa | 2.6V | 00:00:00 | 00:00:00 | 00:00:00 | |
| OE5DXL-15 | 2026-09-03 03:02:45 | 47.84788 | 14.80062 | 122° | 40km/h | 15910m | 3.3m/s | -56.1°C | 5.7% | 0hPa | 2.6V | 00:00:00 | 00:00:00 | 08:30:00 | |
| OE5WHR-10 | 2026-09-03 03:02:41 | 47.84809 | 14.79998 | 112° | 40km/h | 15889m | 4.7m/s | -56.2°C | 5.7% | 0hPa | 2.6V | 00:00:00 | 00:00:00 | 08:30:00 | |
| OE5DRO-10 | 2026-09-03 03:02:40 | 47.84814 | 14.79981 | 109° | 38km/h | 15883m | 6.2m/s | -56.2°C | 5.7% | 0hPa | 2.6V | 00:00:00 | 00:00:00 | 00:00:00 | |
| OE8JPQ-2 | 2026-09-03 03:02:39 | 47.84817 | 14.79964 | 107° | 38km/h | 15878m | 4.1m/s | -56.3°C | 5.8% | 0hPa | 2.6V | 00:00:00 | 00:00:00 | 00:00:00 | |
| PG1ADW-2 | 2026-09-03 03:02:37 | 47.84824 | 14.79932 | 110° | 38km/h | 15869m | 4.2m/s | -56.4°C | 5.9% | 0hPa | 2.6V | 00:00:00 | 01:13:55 | 00:00:00 | |
| OE3JTB-15 | 2026-09-03 03:02:35 | 47.84831 | 14.79903 | 112° | 37km/h | 15858m | 4.6m/s | -56.4°C | 5.9% | 0hPa | 2.6V | 00:00:00 | 01:13:53 | 00:00:00 | |
| PETON7-10 | 2026-09-03 03:02:32 | 47.84845 | 14.79866 | 128° | 37km/h | 15843m | 4.6m/s | -56.4°C | 6.0% | 0hPa | 2.6V | 00:00:00 | 00:00:00 | 00:00:00 | |
| OE5MMP-10 | 2026-09-03 03:02:31 | 47.84851 | 14.79856 | 127° | 37km/h | 15838m | 5.6m/s | -56.4°C | 5.9% | 0hPa | 2.6V | 00:00:00 | 01:13:49 | 00:00:00 | |
| S52SK | 2026-09-03 03:02:29 | 47.84856 | 14.79845 | 128° | 37km/h | 15832m | 5.1m/s | -56.4°C | 2.8% | 0hPa | 2.6V | 00:00:00 | 00:00:00 | 00:00:00 | |
| S52SK | 2026-09-03 03:02:24 | 47.84879 | 14.79786 | 118° | 37km/h | 15808m | 5.8m/s | -56.3°C | 2.8% | 0hPa | 2.6V | 00:00:00 | 00:00:00 | 00:00:00 | |
| OE5REO-15 | 2026-09-03 03:02:23 | 47.84884 | 14.79773 | 123° | 38km/h | 15803m | 4.2m/s | -56.3°C | 2.8% | 0hPa | 2.6V | 00:00:00 | 00:00:00 | 00:00:00 | |
| OE5MMP-10 | 2026-09-03 03:02:21 | 47.84900 | 14.79741 | 130° | 38km/h | 15789m | 5.4m/s | -56.2°C | 6.0% | 0hPa | 2.6V | 00:00:00 | 01:13:39 | 08:30:00 | |
| OE5WHR-10 | 2026-09-03 03:02:20 | 47.84907 | 14.79729 | 131° | 38km/h | 15783m | 4.7m/s | -56.2°C | 6.0% | 0hPa | 2.6V | 00:00:00 | 00:00:00 | 00:00:00 | |
| OE8JPQ-2 | 2026-09-03 03:02:19 | 47.84913 | 14.79718 | 130° | 38km/h | 15779m | 3.7m/s | -56.1°C | 6.0% | 0hPa | 2.6V | 00:00:00 | 00:00:00 | 00:00:00 | |
| OE5FHM-15 | 2026-09-03 03:02:17 | 47.84926 | 14.79695 | 129° | 40km/h | 15769m | 3.8m/s | -56.1°C | 6.0% | 0hPa | 2.6V | 00:00:00 | 01:13:35 | 00:00:00 | |
| OE5DRO-10 | 2026-09-03 03:02:16 | 47.84931 | 14.79684 | 126° | 38km/h | 15765m | 5.6m/s | -56.1°C | 6.0% | 0hPa | 2.6V | 00:00:00 | 00:00:00 | 00:00:00 | |
| OE5DXL-15 | 2026-09-03 03:02:15 | 47.84937 | 14.79673 | 123° | 40km/h | 15759m | 5.1m/s | -56.0°C | 6.0% | 0hPa | 2.7V | 00:00:00 | 01:13:33 | 00:00:00 | |
| OE5MMP-10 | 2026-09-03 03:02:11 | 47.84957 | 14.79625 | 119° | 38km/h | 15739m | 4.7m/s | -55.9°C | 5.9% | 0hPa | 2.7V | 00:00:00 | 01:13:29 | 00:00:00 | |
| OE5REO-15 | 2026-09-03 03:02:08 | 47.84966 | 14.79600 | 124° | 37km/h | 15730m | 5.2m/s | -55.8°C | 2.8% | 0hPa | 2.7V | 00:00:00 | 00:00:00 | 00:00:00 | |
| OE3JTB-15 | 2026-09-03 03:02:06 | 47.84981 | 14.79564 | 125° | 42km/h | 15715m | 4.9m/s | -55.7°C | 5.9% | 0hPa | 2.7V | 00:00:00 | 00:00:00 | 00:00:00 | |
| PETON7-10 | 2026-09-03 03:02:02 | 47.85004 | 14.79519 | 125° | 42km/h | 15695m | 4.0m/s | -55.6°C | 5.9% | 0hPa | 2.6V | 00:00:00 | 01:13:20 | 00:00:00 | |
| OE3OSB-13 | 2026-09-03 03:01:44 | 47.85129 | 14.79304 | 130° | 44km/h | 15603m | 6.2m/s | -55.3°C | 2.6% | -1.0hPa | 2.6V | 00:00:00 | 00:00:00 | 00:00:00 | |
| OE5MMP-10 | 2026-09-03 03:01:41 | 47.85152 | 14.79266 | 134° | 44km/h | 15587m | 5.1m/s | -55.2°C | 5.7% | 0hPa | 2.6V | 00:00:00 | 01:12:59 | 00:00:00 | |
| OE8JPQ-2 | 2026-09-03 03:01:39 | 47.85169 | 14.79243 | 143° | 49km/h | 15577m | 5.1m/s | -55.2°C | 5.6% | 0hPa | 2.6V | 00:00:00 | 00:00:00 | 08:30:00 | |
| OE5WHR-10 | 2026-09-03 03:01:38 | 47.85178 | 14.79233 | 144° | 49km/h | 15573m | 4.3m/s | -55.2°C | 5.6% | 0hPa | 2.7V | 00:00:00 | 00:00:00 | 00:00:00 | |
| OE3JTB-15 | 2026-09-03 03:01:37 | 47.85187 | 14.79223 | 142° | 53km/h | 15567m | 5.7m/s | -55.3°C | 5.6% | 0hPa | 2.6V | 00:00:00 | 00:00:00 | 00:00:00 | |
| PETON7-10 | 2026-09-03 03:01:32 | 47.85229 | 14.79175 | 140° | 53km/h | 15541m | 5.8m/s | -55.5°C | 5.9% | 0hPa | 2.6V | 00:00:00 | 00:00:00 | 00:00:00 | |
| OE5MMP-10 | 2026-09-03 03:01:31 | 47.85238 | 14.79163 | 138° | 53km/h | 15536m | 4.5m/s | -55.5°C | 5.9% | 0hPa | 2.6V | 00:00:00 | 01:12:49 | 00:00:00 | |
| PG1ADW-2 | 2026-09-03 03:01:30 | 47.85248 | 14.79151 | 141° | 58km/h | 15530m | 6.5m/s | -55.5°C | 5.9% | 0hPa | 2.6V | 00:00:00 | 00:00:00 | 00:00:00 | |
| OK1ALN | 2026-09-03 03:01:22 | 47.85325 | 14.79063 | 148° | 49km/h | 15495m | 5.6m/s | -55.5°C | 2.8% | 0hPa | 2.6V | 00:00:00 | 00:00:00 | 00:00:00 | |
| OE5MMP-10 | 2026-09-03 03:01:21 | 47.85346 | 14.79042 | 148° | 58km/h | 15485m | 4.6m/s | -55.4°C | 5.9% | 0hPa | 2.6V | 00:00:00 | 01:12:39 | 00:00:00 | |
| OE8JPQ-2 | 2026-09-03 03:01:19 | 47.85369 | 14.79021 | 146° | 62km/h | 15475m | 4.0m/s | -55.3°C | 5.9% | 0hPa | 2.6V | 00:00:00 | 00:00:00 | 00:00:00 | |
| OE5FHM-15 | 2026-09-03 03:01:17 | 47.85390 | 14.78997 | 140° | 68km/h | 15465m | 4.0m/s | -55.3°C | 5.8% | 0hPa | 2.6V | 00:00:00 | 01:12:35 | 00:00:00 | |
| S52SK | 2026-09-03 03:01:16 | 47.85390 | 14.78997 | 141° | 53km/h | 15465m | 4.1m/s | -55.4°C | 2.8% | 0hPa | 2.6V | 00:00:00 | 00:00:00 | 00:00:00 | |
| OE5DXL-15 | 2026-09-03 03:01:15 | 47.85412 | 14.78969 | 141° | 69km/h | 15456m | 5.8m/s | -55.3°C | 5.8% | 0hPa | 2.6V | 00:00:00 | 00:00:00 | 00:00:00 | |
| OE5MMP-10 | 2026-09-03 03:01:11 | 47.85464 | 14.78910 | 149° | 64km/h | 15433m | 5.9m/s | -55.2°C | 5.8% | 0hPa | 2.6V | 00:00:00 | 01:12:29 | 00:00:00 | |
| S52SK | 2026-09-03 03:01:10 | 47.85464 | 14.78910 | 150° | 64km/h | 15433m | 6.0m/s | -55.2°C | 2.8% | 0hPa | 2.6V | 00:00:00 | 00:00:00 | 00:00:00 | |
| OE3JTB-15 | 2026-09-03 03:01:08 | 47.85504 | 14.78877 | 147° | 73km/h | 15419m | 4.5m/s | -55.1°C | 5.7% | 0hPa | 2.6V | 00:00:00 | 01:12:26 | 00:00:00 | |
| PG1ADW-2 | 2026-09-03 03:01:07 | 47.85515 | 14.78865 | 144° | 68km/h | 15414m | 5.6m/s | -55.1°C | 5.7% | 0hPa | 2.6V | 00:00:00 | 01:12:25 | 00:00:00 | |
| OE5REO-15 | 2026-09-03 03:01:06 | 47.85516 | 14.78865 | 144° | 57km/h | 15414m | 5.7m/s | -55.2°C | 2.8% | 0hPa | 2.6V | 00:00:00 | 00:00:00 | 00:00:00 | |
| S52SK | 2026-09-03 03:01:05 | 47.85527 | 14.78851 | 141° | 60km/h | 15408m | 6.1m/s | -55.2°C | 2.9% | 0hPa | 2.6V | 00:00:00 | 00:00:00 | 00:00:00 | |
| PETON7-10 | 2026-09-03 03:01:02 | 47.85579 | 14.78786 | 139° | 73km/h | 15384m | 6.7m/s | -55.1°C | 5.8% | 0hPa | 2.6V | 00:00:00 | 00:00:00 | 00:00:00 | |
| OE5MMP-10 | 2026-09-03 03:01:01 | 47.85593 | 14.78767 | 137° | 71km/h | 15377m | 6.8m/s | -55.1°C | 5.8% | 0hPa | 2.6V | 00:00:00 | 01:12:19 | 00:00:00 | |
| OE5DRO-10 | 2026-09-03 03:01:00 | 47.85607 | 14.78747 | 138° | 73km/h | 15371m | 5.0m/s | -55.0°C | 5.9% | 0hPa | 2.6V | 00:00:00 | 00:00:00 | 00:00:00 | |
| OE8JPQ-2 | 2026-09-03 03:00:59 | 47.85621 | 14.78728 | 140° | 75km/h | 15365m | 7.5m/s | -55.0°C | 5.8% | 0hPa | 2.6V | 00:00:00 | 01:12:17 | 00:00:00 | |
| OE5WHR-10 | 2026-09-03 03:00:56 | 47.85665 | 14.78682 | 147° | 78km/h | 15349m | 5.9m/s | -55.0°C | 5.8% | 0hPa | 2.6V | 00:00:00 | 01:12:14 | 00:00:00 | |
| OE5MMP-10 | 2026-09-03 03:00:51 | 47.85735 | 14.78606 | 142° | 77km/h | 15318m | 6.7m/s | -55.1°C | 6.1% | 0hPa | 2.6V | 00:00:00 | 01:12:09 | 08:30:00 | |
| OE5FHM-15 | 2026-09-03 03:00:47 | 47.85790 | 14.78527 | 136° | 89km/h | 15291m | 6.7m/s | -55.2°C | 6.1% | 0hPa | 2.7V | 00:00:00 | 01:12:05 | 00:00:00 | |
| OE5DXL-15 | 2026-09-03 03:00:45 | 47.85817 | 14.78485 | 132° | 91km/h | 15278m | 7.0m/s | -55.3°C | 6.3% | 0hPa | 2.6V | 00:00:00 | 00:00:00 | 00:00:00 | |
| OE3OSB-13 | 2026-09-03 03:00:42 | 47.85871 | 14.78397 | 132° | 80km/h | 15255m | 5.9m/s | -55.4°C | 3.0% | -1.0hPa | 2.6V | 00:00:00 | 00:00:00 | 00:00:00 | |
| OE5MMP-10 | 2026-09-03 03:00:41 | 47.85871 | 14.78397 | 133° | 89km/h | 15255m | 5.9m/s | -55.4°C | 6.2% | 0hPa | 2.6V | 00:00:00 | 01:11:59 | 00:00:00 | |
| OK1ALN | 2026-09-03 03:00:40 | 47.85871 | 14.78397 | 133° | 80km/h | 15255m | 5.9m/s | -55.4°C | 3.2% | 0hPa | 2.6V | 00:00:00 | 00:00:00 | 00:00:00 | |
| OE8JPQ-2 | 2026-09-03 03:00:39 | 47.85900 | 14.78350 | 133° | 93km/h | 15243m | 4.1m/s | -55.6°C | 6.2% | 0hPa | 2.6V | 00:00:00 | 00:00:00 | 00:00:00 | |
| OE5REO-15 | 2026-09-03 03:00:36 | 47.85931 | 14.78304 | 139° | 89km/h | 15231m | 4.6m/s | -55.7°C | 3.2% | 0hPa | 2.7V | 00:00:00 | 00:00:00 | 00:00:00 | |
| OE5WHR-10 | 2026-09-03 03:00:35 | 47.85965 | 14.78256 | 136° | 95km/h | 15220m | 6.1m/s | -55.7°C | 6.3% | 0hPa | 2.7V | 00:00:00 | 00:00:00 | 00:00:00 | |
| PETON7-10 | 2026-09-03 03:00:32 | 47.86013 | 14.78177 | 130° | 95km/h | 15203m | 5.5m/s | -56.0°C | 6.5% | 0hPa | 2.6V | 00:00:00 | 01:11:50 | 00:00:00 | |
| OE5MMP-10 | 2026-09-03 03:00:31 | 47.86028 | 14.78151 | 129° | 95km/h | 15198m | 4.6m/s | -56.0°C | 6.6% | 0hPa | 2.6V | 00:00:00 | 01:11:49 | 00:00:00 | |
| PG1ADW-2 | 2026-09-03 03:00:25 | 47.86121 | 14.77985 | 130° | 95km/h | 15163m | 6.3m/s | -55.8°C | 6.3% | 0hPa | 2.6V | 00:00:00 | 00:00:00 | 00:00:00 | |
| OE5DRO-10 | 2026-09-03 03:00:22 | 47.86164 | 14.77900 | 126° | 93km/h | 15147m | 5.7m/s | -56.0°C | 6.4% | 0hPa | 2.6V | 00:00:00 | 00:00:00 | 00:00:00 | |
| OE5MMP-10 | 2026-09-03 03:00:21 | 47.86177 | 14.77872 | 126° | 95km/h | 15141m | 5.2m/s | -56.0°C | 6.5% | 0hPa | 2.7V | 00:00:00 | 01:11:39 | 00:00:00 | |
| OE8JPQ-2 | 2026-09-03 03:00:19 | 47.86206 | 14.77814 | 128° | 93km/h | 15131m | 3.8m/s | -56.0°C | 6.5% | 0hPa | 2.6V | 00:00:00 | 00:00:00 | 00:00:00 | |
| PETON7-10 | 2026-09-03 03:00:17 | 47.86235 | 14.77756 | 126° | 93km/h | 15121m | 4.7m/s | -56.0°C | 6.5% | 0hPa | 2.6V | 00:00:00 | 00:00:00 | 00:00:00 | |
| OE5DXL-15 | 2026-09-03 03:00:15 | 47.86263 | 14.77699 | 126° | 88km/h | 15111m | 5.5m/s | -56.0°C | 6.4% | 0hPa | 2.7V | 00:00:00 | 00:00:00 | 00:00:00 | |
| OE5WHR-10 | 2026-09-03 03:00:14 | 47.86277 | 14.77669 | 126° | 89km/h | 15106m | 4.7m/s | -56.0°C | 6.4% | 0hPa | 2.7V | 00:00:00 | 00:00:00 | 00:00:00 | |
| OE3OSB-13 | 2026-09-03 03:00:11 | 47.86334 | 14.77554 | 123° | 93km/h | 15086m | 6.1m/s | -56.1°C | 3.2% | -1.0hPa | 2.7V | 00:00:00 | 00:00:00 | 00:00:00 | |
| OE3JTB-15 | 2026-09-03 03:00:10 | 47.86334 | 14.77554 | 124° | 86km/h | 15086m | 6.0m/s | -56.1°C | 6.5% | 0hPa | 2.7V | 00:00:00 | 00:00:00 | 00:00:00 | |
| PG1ADW-2 | 2026-09-03 03:00:05 | 47.86397 | 14.77408 | 122° | 84km/h | 15060m | 6.4m/s | -56.1°C | 6.4% | 0hPa | 2.7V | 00:00:00 | 00:00:00 | 00:00:00 | |
| PETON7-10 | 2026-09-03 03:00:02 | 47.86432 | 14.77325 | 123° | 84km/h | 15044m | 3.8m/s | -56.1°C | 6.4% | 0hPa | 2.7V | 00:00:00 | 00:00:00 | 00:00:00 | |
| OE5MMP-10 | 2026-09-03 03:00:01 | 47.86443 | 14.77297 | 122° | 86km/h | 15039m | 6.4m/s | -56.1°C | 6.4% | 0hPa | 2.7V | 00:00:00 | 01:11:19 | 00:00:00 | |
| OE8JPQ-2 | 2026-09-03 02:59:59 | 47.86467 | 14.77242 | 124° | 82km/h | 15028m | 6.2m/s | -56.1°C | 6.4% | 0hPa | 2.7V | 00:00:00 | 01:11:17 | 00:00:00 | |
| OE5WHR-10 | 2026-09-03 02:59:53 | 47.86538 | 14.77081 | 124° | 78km/h | 14998m | 4.0m/s | -56.1°C | 6.4% | 0hPa | 2.7V | 00:00:00 | 01:11:11 | 00:00:00 | |
| S52SK | 2026-09-03 02:59:52 | 47.86538 | 14.77081 | 124° | 82km/h | 14998m | 4.1m/s | -56.2°C | 3.4% | 0hPa | 2.7V | 00:00:00 | 00:00:00 | 00:00:00 | |
| OE5MMP-10 | 2026-09-03 02:59:51 | 47.86560 | 14.77028 | 120° | 82km/h | 14989m | 4.6m/s | -56.1°C | 6.5% | 0hPa | 2.7V | 00:00:00 | 01:11:09 | 00:00:00 | |
| OE5REO-15 | 2026-09-03 02:59:50 | 47.86560 | 14.77028 | 121° | 82km/h | 14989m | 4.6m/s | -56.2°C | 3.4% | 0hPa | 2.7V | 00:00:00 | 00:00:00 | 00:00:00 | |
| OE5FHM-15 | 2026-09-03 02:59:47 | 47.86603 | 14.76920 | 121° | 77km/h | 14968m | 4.7m/s | -56.3°C | 6.5% | 0hPa | 2.7V | 00:00:00 | 01:11:05 | 00:00:00 | |
| OE5DXL-15 | 2026-09-03 02:59:45 | 47.86625 | 14.76866 | 124° | 77km/h | 14957m | 4.7m/s | -56.5°C | 6.6% | 0hPa | 2.7V | 00:00:00 | 00:00:00 | 00:00:00 | |
| OE5DRO-10 | 2026-09-03 02:59:44 | 47.86637 | 14.76839 | 123° | 77km/h | 14953m | 4.5m/s | -56.6°C | 6.6% | 0hPa | 2.7V | 00:00:00 | 00:00:00 | 00:00:00 | |
| OE5MMP-10 | 2026-09-03 02:59:41 | 47.86669 | 14.76764 | 124° | 75km/h | 14939m | 5.4m/s | -56.9°C | 6.7% | 0hPa | 2.7V | 00:00:00 | 01:10:59 | 00:00:00 | |
| OE3OSB-13 | 2026-09-03 02:59:40 | 47.86689 | 14.76720 | 123° | 71km/h | 14929m | 5.6m/s | -57.1°C | 3.3% | -1.0hPa | 2.7V | 00:00:00 | 00:00:00 | 00:00:00 | |
| OE8JPQ-2 | 2026-09-03 02:59:39 | 47.86689 | 14.76720 | 124° | 77km/h | 14929m | 5.6m/s | -57.0°C | 6.8% | 0hPa | 2.7V | 00:00:00 | 00:00:00 | 00:00:00 | |
| OK1ALN | 2026-09-03 02:59:37 | 47.86699 | 14.76697 | 124° | 73km/h | 14924m | 4.6m/s | -57.1°C | 3.5% | 0hPa | 2.6V | 00:00:00 | 00:00:00 | 00:00:00 | |
| PG1ADW-2 | 2026-09-03 02:59:35 | 47.86731 | 14.76626 | 123° | 75km/h | 14911m | 4.7m/s | -57.1°C | 6.8% | 0hPa | 2.6V | 00:00:00 | 01:10:53 | 08:30:00 | |
| OE5REO-15 | 2026-09-03 02:59:34 | 47.86731 | 14.76626 | 123° | 77km/h | 14911m | 4.7m/s | -57.1°C | 3.6% | 0hPa | 2.7V | 00:00:00 | 00:00:00 | 00:00:00 | |
| DG1MFX-10 | 2026-09-03 02:59:33 | 47.86741 | 14.76601 | 120° | 78km/h | 14905m | 5.3m/s | -57.1°C | 3.6% | 0hPa | 2.7V | 00:00:00 | 00:00:00 | 00:00:00 | |
| OE5WHR-10 | 2026-09-03 02:59:32 | 47.86760 | 14.76550 | 119° | 75km/h | 14895m | 5.2m/s | -57.1°C | 6.9% | 0hPa | 2.7V | 00:00:00 | 00:00:00 | 08:30:00 | |
| OE5MMP-10 | 2026-09-03 02:59:31 | 47.86769 | 14.76525 | 118° | 77km/h | 14890m | 4.1m/s | -57.1°C | 6.8% | 0hPa | 2.7V | 00:00:00 | 01:10:49 | 00:00:00 | |
| OE5DRO-10 | 2026-09-03 02:59:25 | 47.86819 | 14.76369 | 116° | 73km/h | 14861m | 4.6m/s | -57.0°C | 6.9% | 0hPa | 2.7V | 00:00:00 | 00:00:00 | 00:00:00 | |
| OE5MMP-10 | 2026-09-03 02:59:21 | 47.86854 | 14.76265 | 117° | 73km/h | 14843m | 4.5m/s | -57.2°C | 7.1% | 0hPa | 2.6V | 00:00:00 | 01:10:39 | 08:30:00 | |
| OE8JPQ-2 | 2026-09-03 02:59:19 | 47.86869 | 14.76214 | 113° | 73km/h | 14833m | 3.8m/s | -57.2°C | 7.1% | 0hPa | 2.7V | 00:00:00 | 00:00:00 | 00:00:00 | |
| OE5FHM-15 | 2026-09-03 02:59:17 | 47.86884 | 14.76162 | 114° | 71km/h | 14823m | 4.4m/s | -57.2°C | 7.2% | 0hPa | 2.7V | 00:00:00 | 01:10:35 | 08:30:00 | |
| OK1ALN | 2026-09-03 02:59:16 | 47.86884 | 14.76162 | 115° | 75km/h | 14823m | 4.4m/s | -57.3°C | 0% | 0hPa | 2.6V | 00:00:00 | 00:00:00 | 00:00:00 | |
| OE5DXL-15 | 2026-09-03 02:59:15 | 47.86899 | 14.76110 | 111° | 71km/h | 14814m | 4.7m/s | -57.2°C | 7.1% | 0hPa | 2.6V | 00:00:00 | 00:00:00 | 00:00:00 | |
| DG1MFX-10 | 2026-09-03 02:59:13 | 47.86905 | 14.76084 | 113° | 73km/h | 14809m | 5.5m/s | -57.2°C | 3.8% | 0hPa | 2.6V | 00:00:00 | 00:00:00 | 00:00:00 | |
| OE3JTB-15 | 2026-09-03 02:59:12 | 47.86919 | 14.76034 | 113° | 69km/h | 14799m | 5.4m/s | -57.1°C | 7.1% | 0hPa | 2.6V | 00:00:00 | 00:00:00 | 00:00:00 | |
| OE5WHR-10 | 2026-09-03 02:59:11 | 47.86926 | 14.76010 | 113° | 69km/h | 14794m | 4.5m/s | -57.1°C | 7.2% | 0hPa | 2.6V | 00:00:00 | 00:00:00 | 00:00:00 | |
| OE3OSB-13 | 2026-09-03 02:59:09 | 47.86949 | 14.75941 | 115° | 68km/h | 14777m | 5.7m/s | -57.1°C | 3.6% | -1.0hPa | 2.6V | 00:00:00 | 00:00:00 | 00:00:00 | |
| OE5DRO-10 | 2026-09-03 02:59:06 | 47.86964 | 14.75893 | 116° | 71km/h | 14768m | 2.8m/s | -57.0°C | 7.1% | 0hPa | 2.6V | 00:00:00 | 00:00:00 | 00:00:00 | |
| OE5REO-15 | 2026-09-03 02:59:03 | 47.86980 | 14.75845 | 118° | 73km/h | 14758m | 4.3m/s | -57.1°C | 3.8% | 0hPa | 2.6V | 00:00:00 | 00:00:00 | 00:00:00 | |
| PETON7-10 | 2026-09-03 02:59:02 | 47.86996 | 14.75796 | 115° | 69km/h | 14748m | 3.8m/s | -57.0°C | 7.1% | 0hPa | 2.6V | 00:00:00 | 01:10:20 | 00:00:00 | |
| OE5MMP-10 | 2026-09-03 02:59:01 | 47.87003 | 14.75771 | 116° | 69km/h | 14744m | 4.5m/s | -56.9°C | 7.1% | 0hPa | 2.6V | 00:00:00 | 01:10:19 | 00:00:00 | |
| OE8JPQ-2 | 2026-09-03 02:58:59 | 47.87020 | 14.75724 | 119° | 68km/h | 14734m | 4.5m/s | -56.9°C | 7.1% | 0hPa | 2.6V | 00:00:00 | 01:10:17 | 00:00:00 | |
| OK1ALN | 2026-09-03 02:58:56 | 47.87037 | 14.75678 | 118° | 68km/h | 14724m | 4.4m/s | -56.9°C | 0% | 0hPa | 2.6V | 00:00:00 | 00:00:00 | 00:00:00 | |
| DG1MFX-10 | 2026-09-03 02:58:52 | 47.87073 | 14.75591 | 125° | 68km/h | 14703m | 4.6m/s | -56.8°C | 3.8% | 0hPa | 2.6V | 00:00:00 | 00:00:00 | 00:00:00 | |
| OE5MMP-10 | 2026-09-03 02:58:51 | 47.87094 | 14.75549 | 129° | 69km/h | 14693m | 5.8m/s | -56.7°C | 6.9% | 0hPa | 2.6V | 00:00:00 | 01:10:09 | 00:00:00 | |
| OE5WHR-10 | 2026-09-03 02:58:50 | 47.87105 | 14.75527 | 127° | 66km/h | 14687m | 5.2m/s | -56.7°C | 6.9% | 0hPa | 2.6V | 00:00:00 | 01:10:08 | 00:00:00 | |
| OE5REO-15 | 2026-09-03 02:58:48 | 47.87115 | 14.75505 | 125° | 73km/h | 14682m | 4.7m/s | -56.7°C | 3.8% | 0hPa | 2.6V | 00:00:00 | 00:00:00 | 00:00:00 | |
| OE5FHM-15 | 2026-09-03 02:58:47 | 47.87135 | 14.75461 | 125° | 66km/h | 14673m | 5.4m/s | -56.5°C | 6.9% | 0hPa | 2.6V | 00:00:00 | 01:10:05 | 00:00:00 | |
| OE5DXL-15 | 2026-09-03 02:58:45 | 47.87154 | 14.75418 | 123° | 66km/h | 14663m | 5.3m/s | -56.5°C | 6.9% | 0hPa | 2.6V | 00:00:00 | 00:00:00 | 00:00:00 | |
| OE3JTB-15 | 2026-09-03 02:58:43 | 47.87173 | 14.75376 | 126° | 66km/h | 14654m | 4.7m/s | -56.4°C | 6.9% | 0hPa | 2.6V | 00:00:00 | 00:00:00 | 00:00:00 | |
| OE5MMP-10 | 2026-09-03 02:58:41 | 47.87193 | 14.75339 | 131° | 66km/h | 14644m | 4.6m/s | -56.4°C | 7.0% | 0hPa | 2.6V | 00:00:00 | 01:09:59 | 00:00:00 | |
| OE8JPQ-2 | 2026-09-03 02:58:39 | 47.87214 | 14.75303 | 133° | 66km/h | 14633m | 3.8m/s | -56.4°C | 7.0% | 0hPa | 2.6V | 00:00:00 | 00:00:00 | 08:30:00 | |
| OE3OSB-13 | 2026-09-03 02:58:37 | 47.87236 | 14.75265 | 129° | 66km/h | 14625m | 5.1m/s | -56.4°C | 3.5% | -1.0hPa | 2.7V | 00:00:00 | 00:00:00 | 00:00:00 | |
| OK1ALN | 2026-09-03 02:58:36 | 47.87236 | 14.75265 | 130° | 66km/h | 14625m | 5.1m/s | -56.4°C | 0% | 0hPa | 2.7V | 00:00:00 | 00:00:00 | 00:00:00 | |
| S52SK | 2026-09-03 02:58:35 | 47.87247 | 14.75245 | 129° | 66km/h | 14620m | 4.4m/s | -56.4°C | 3.6% | 0hPa | 2.7V | 00:00:00 | 00:00:00 | 00:00:00 | |
| PETON7-10 | 2026-09-03 02:58:32 | 47.87290 | 14.75168 | 131° | 66km/h | 14601m | 5.0m/s | -56.2°C | 7.0% | 0hPa | 2.7V | 00:00:00 | 00:00:00 | 00:00:00 | |
| OE5MMP-10 | 2026-09-03 02:58:31 | 47.87300 | 14.75151 | 134° | 64km/h | 14597m | 3.5m/s | -56.2°C | 6.9% | 0hPa | 2.7V | 00:00:00 | 01:09:49 | 00:00:00 | |
| OE5WHR-10 | 2026-09-03 02:58:29 | 47.87323 | 14.75117 | 137° | 66km/h | 14587m | 4.7m/s | -56.2°C | 6.8% | 0hPa | 2.7V | 00:00:00 | 00:00:00 | 00:00:00 | |
| OE5DRO-10 | 2026-09-03 02:58:28 | 47.87335 | 14.75101 | 137° | 66km/h | 14582m | 5.3m/s | -56.2°C | 6.8% | 0hPa | 2.7V | 00:00:00 | 00:00:00 | 08:30:00 | |
| PG1ADW-2 | 2026-09-03 02:58:25 | 47.87369 | 14.75050 | 134° | 68km/h | 14567m | 4.5m/s | -56.2°C | 6.8% | 0hPa | 2.7V | 00:00:00 | 00:00:00 | 00:00:00 | |
| OE5MMP-10 | 2026-09-03 02:58:21 | 47.87414 | 14.74975 | 133° | 66km/h | 14548m | 5.6m/s | -56.1°C | 6.8% | 0hPa | 2.7V | 00:00:00 | 01:09:39 | 00:00:00 | |
| OE8JPQ-2 | 2026-09-03 02:58:19 | 47.87438 | 14.74937 | 134° | 68km/h | 14538m | 6.0m/s | -56.1°C | 6.8% | 0hPa | 2.7V | 00:00:00 | 00:00:00 | 00:00:00 | |
| PETON7-10 | 2026-09-03 02:58:17 | 47.87462 | 14.74903 | 138° | 68km/h | 14529m | 4.6m/s | -56.2°C | 6.8% | 0hPa | 2.7V | 00:00:00 | 01:09:35 | 00:00:00 | |
| OE5REO-15 | 2026-09-03 02:58:16 | 47.87461 | 14.74903 | 138° | 64km/h | 14529m | 4.7m/s | -56.2°C | 3.7% | 0hPa | 2.7V | 00:00:00 | 00:00:00 | 00:00:00 | |
| OE5DXL-15 | 2026-09-03 02:58:15 | 47.87487 | 14.74870 | 141° | 69km/h | 14519m | 4.4m/s | -56.2°C | 6.8% | 0hPa | 2.7V | 00:00:00 | 00:00:00 | 08:30:00 | |
| OE5MMP-10 | 2026-09-03 02:58:11 | 47.87538 | 14.74808 | 143° | 69km/h | 14501m | 3.6m/s | -56.2°C | 6.8% | 0hPa | 2.6V | 00:00:00 | 01:09:29 | 00:00:00 | |
| OE5DRO-10 | 2026-09-03 02:58:09 | 47.87566 | 14.74776 | 144° | 69km/h | 14490m | 4.4m/s | -56.3°C | 6.8% | 0hPa | 2.6V | 00:00:00 | 00:00:00 | 00:00:00 | |
| OE5WHR-10 | 2026-09-03 02:58:08 | 47.87580 | 14.74761 | 145° | 69km/h | 14485m | 6.0m/s | -56.3°C | 6.9% | 0hPa | 2.6V | 00:00:00 | 00:00:00 | 00:00:00 | |
| OE3OSB-13 | 2026-09-03 02:58:06 | 47.87610 | 14.74729 | 143° | 69km/h | 14476m | 4.5m/s | -56.4°C | 3.5% | -1.0hPa | 2.6V | 00:00:00 | 00:00:00 | 00:00:00 | |
| PG1ADW-2 | 2026-09-03 02:58:03 | 47.87651 | 14.74681 | 141° | 71km/h | 14462m | 4.9m/s | -56.3°C | 7.0% | 0hPa | 2.6V | 00:00:00 | 00:00:00 | 00:00:00 | |
| PETON7-10 | 2026-09-03 02:58:02 | 47.87665 | 14.74664 | 140° | 69km/h | 14457m | 4.1m/s | -56.3°C | 6.9% | 0hPa | 2.6V | 00:00:00 | 00:00:00 | 00:00:00 | |
| OE5MMP-10 | 2026-09-03 02:58:01 | 47.87677 | 14.74647 | 138° | 69km/h | 14452m | 5.6m/s | -56.3°C | 7.0% | 0hPa | 2.7V | 00:00:00 | 01:09:19 | 00:00:00 | |
| OE8JPQ-2 | 2026-09-03 02:57:59 | 47.87703 | 14.74613 | 139° | 71km/h | 14443m | 4.5m/s | -56.3°C | 6.9% | 0hPa | 2.7V | 00:00:00 | 01:09:17 | 00:00:00 | |
| OE5MMP-10 | 2026-09-03 02:57:51 | 47.87805 | 14.74471 | 136° | 73km/h | 14404m | 4.3m/s | -56.2°C | 7.0% | 0hPa | 2.7V | 00:00:00 | 01:09:09 | 08:30:00 | |
| OE5DRO-10 | 2026-09-03 02:57:50 | 47.87818 | 14.74451 | 134° | 73km/h | 14399m | 5.2m/s | -56.2°C | 7.0% | 0hPa | 2.7V | 00:00:00 | 00:00:00 | 00:00:00 | |
| OK1ALN | 2026-09-03 02:57:48 | 47.87830 | 14.74432 | 133° | 71km/h | 14394m | 4.0m/s | -56.2°C | 0% | 0hPa | 2.7V | 00:00:00 | 00:00:00 | 00:00:00 | |
| OE5FHM-15 | 2026-09-03 02:57:47 | 47.87855 | 14.74392 | 134° | 77km/h | 14386m | 5.0m/s | -56.2°C | 7.0% | 0hPa | 2.7V | 00:00:00 | 01:09:05 | 00:00:00 | |
| OE5REO-15 | 2026-09-03 02:57:46 | 47.87856 | 14.74392 | 135° | 75km/h | 14386m | 5.1m/s | -56.2°C | 3.8% | 0hPa | 2.7V | 00:00:00 | 00:00:00 | 00:00:00 | |
| OE3JTB-15 | 2026-09-03 02:57:45 | 47.87882 | 14.74352 | 136° | 77km/h | 14377m | 5.4m/s | -56.1°C | 7.0% | 0hPa | 2.7V | 00:00:00 | 00:00:00 | 00:00:00 | |
| PG1ADW-2 | 2026-09-03 02:57:43 | 47.87909 | 14.74315 | 140° | 75km/h | 14366m | 6.1m/s | -56.1°C | 7.0% | 0hPa | 2.7V | 00:00:00 | 01:09:01 | 00:00:00 | |
| OE5MMP-10 | 2026-09-03 02:57:41 | 47.87937 | 14.74280 | 141° | 73km/h | 14357m | 5.6m/s | -56.1°C | 7.1% | 0hPa | 2.7V | 00:00:00 | 01:08:59 | 00:00:00 | |
| OE8JPQ-2 | 2026-09-03 02:57:39 | 47.87964 | 14.74244 | 139° | 78km/h | 14348m | 4.5m/s | -56.1°C | 7.3% | 0hPa | 2.7V | 00:00:00 | 00:00:00 | 00:00:00 | |
| PETON7-10 | 2026-09-03 02:57:32 | 47.88059 | 14.74109 | 138° | 80km/h | 14316m | 5.4m/s | -56.0°C | 7.0% | 0hPa | 2.7V | 00:00:00 | 01:08:50 | 00:00:00 | |
| OE5MMP-10 | 2026-09-03 02:57:31 | 47.88073 | 14.74090 | 138° | 80km/h | 14311m | 3.4m/s | -56.0°C | 7.0% | 0hPa | 2.7V | 00:00:00 | 01:08:49 | 00:00:00 | |
| OE5REO-15 | 2026-09-03 02:57:30 | 47.88073 | 14.74090 | 139° | 75km/h | 14311m | 3.4m/s | -56.0°C | 3.8% | 0hPa | 2.7V | 00:00:00 | 00:00:00 | 00:00:00 | |
| OK1ALN | 2026-09-03 02:57:27 | 47.88120 | 14.74032 | 142° | 84km/h | 14296m | 4.6m/s | 0°C | 0% | 0hPa | 2.7V | 00:00:00 | 00:00:00 | 00:00:00 | |
| OE5WHR-10 | 2026-09-03 02:57:26 | 47.88152 | 14.73993 | 141° | 82km/h | 14287m | 2.7m/s | -55.9°C | 7.0% | 0hPa | 2.7V | 00:00:00 | 00:00:00 | 00:00:00 | |
| PG1ADW-2 | 2026-09-03 02:57:23 | 47.88200 | 14.73939 | 142° | 84km/h | 14270m | 5.5m/s | -55.8°C | 6.9% | 0hPa | 2.7V | 00:00:00 | 00:00:00 | 00:00:00 | |
| OE5MMP-10 | 2026-09-03 02:57:21 | 47.88230 | 14.73900 | 137° | 82km/h | 14260m | 2.9m/s | -55.7°C | 7.1% | 0hPa | 2.7V | 00:00:00 | 01:08:39 | 00:00:00 | |
| S52SK | 2026-09-03 02:57:20 | 47.88230 | 14.73900 | 138° | 80km/h | 14260m | 2.9m/s | -55.7°C | 3.9% | 0hPa | 2.7V | 00:00:00 | 00:00:00 | 00:00:00 | |
| OE8JPQ-2 | 2026-09-03 02:57:19 | 47.88260 | 14.73859 | 138° | 84km/h | 14251m | 4.6m/s | -55.7°C | 7.0% | 0hPa | 2.7V | 00:00:00 | 00:00:00 | 00:00:00 | |
| OE5FHM-15 | 2026-09-03 02:57:17 | 47.88290 | 14.73817 | 136° | 86km/h | 14240m | 4.8m/s | -55.6°C | 7.1% | 0hPa | 2.7V | 00:00:00 | 01:08:35 | 00:00:00 | |
| OE3JTB-15 | 2026-09-03 02:57:16 | 47.88305 | 14.73795 | 137° | 86km/h | 14236m | 2.5m/s | -55.6°C | 7.1% | 0hPa | 2.7V | 00:00:00 | 00:00:00 | 00:00:00 | |
| OE5DXL-15 | 2026-09-03 02:57:15 | 47.88321 | 14.73774 | 139° | 86km/h | 14232m | 6.1m/s | -55.5°C | 6.9% | 0hPa | 2.7V | 00:00:00 | 00:00:00 | 00:00:00 | |
| OE5REO-15 | 2026-09-03 02:57:14 | 47.88321 | 14.73774 | 140° | 84km/h | 14232m | 6.1m/s | -55.6°C | 3.8% | 0hPa | 2.7V | 00:00:00 | 00:00:00 | 00:00:00 | |
| OE5DRO-10 | 2026-09-03 02:57:12 | 47.88371 | 14.73712 | 140° | 86km/h | 14216m | 5.0m/s | -55.5°C | 6.9% | 0hPa | 2.7V | 00:00:00 | 00:00:00 | 00:00:00 | |
| OE5MMP-10 | 2026-09-03 02:57:11 | 47.88388 | 14.73691 | 140° | 86km/h | 14212m | 3.0m/s | -55.5°C | 6.9% | 0hPa | 2.7V | 00:00:00 | 01:08:29 | 00:00:00 | |
| S52SK | 2026-09-03 02:57:10 | 47.88388 | 14.73691 | 141° | 86km/h | 14212m | 3.1m/s | -55.5°C | 3.8% | 0hPa | 2.7V | 00:00:00 | 00:00:00 | 00:00:00 | |
| OK1ALN | 2026-09-03 02:57:06 | 47.88454 | 14.73609 | 140° | 88km/h | 14194m | 4.0m/s | 0°C | 0% | 0hPa | 2.7V | 00:00:00 | 00:00:00 | 00:00:00 | |
| OE5WHR-10 | 2026-09-03 02:57:05 | 47.88486 | 14.73567 | 138° | 88km/h | 14185m | 4.2m/s | -55.4°C | 6.9% | 0hPa | 2.7V | 00:00:00 | 00:00:00 | 00:00:00 | |
| PETON7-10 | 2026-09-03 02:57:02 | 47.88534 | 14.73501 | 137° | 88km/h | 14171m | 3.6m/s | -55.4°C | 6.9% | 0hPa | 2.7V | 00:00:00 | 00:00:00 | 00:00:00 | |
| OE5MMP-10 | 2026-09-03 02:57:01 | 47.88550 | 14.73478 | 137° | 88km/h | 14166m | 5.8m/s | -55.3°C | 6.8% | 0hPa | 2.7V | 00:00:00 | 01:08:19 | 00:00:00 | |
| OE8JPQ-2 | 2026-09-03 02:56:59 | 47.88582 | 14.73434 | 138° | 88km/h | 14156m | 5.7m/s | -55.3°C | 6.7% | 0hPa | 2.7V | 00:00:00 | 01:08:17 | 00:00:00 | |
| OE5REO-15 | 2026-09-03 02:56:58 | 47.88582 | 14.73434 | 138° | 88km/h | 14156m | 5.8m/s | -55.3°C | 3.7% | 0hPa | 2.7V | 00:00:00 | 00:00:00 | 00:00:00 | |
| OE5DRO-10 | 2026-09-03 02:56:53 | 47.88677 | 14.73299 | 135° | 89km/h | 14127m | 4.8m/s | -55.1°C | 6.6% | 0hPa | 2.7V | 00:00:00 | 00:00:00 | 00:00:00 | |
| OE5MMP-10 | 2026-09-03 02:56:51 | 47.88708 | 14.73253 | 136° | 88km/h | 14117m | 4.1m/s | -55.1°C | 6.6% | 0hPa | 2.7V | 00:00:00 | 01:08:09 | 00:00:00 | |
| OE5FHM-15 | 2026-09-03 02:56:47 | 47.88773 | 14.73161 | 136° | 93km/h | 14099m | 3.8m/s | -55.1°C | 6.8% | 0hPa | 2.7V | 00:00:00 | 01:08:05 | 00:00:00 | |
| OE5DXL-15 | 2026-09-03 02:56:45 | 47.88803 | 14.73114 | 134° | 93km/h | 14090m | 4.7m/s | -55.2°C | 6.9% | 0hPa | 2.7V | 00:00:00 | 00:00:00 | 00:00:00 | |
| OE5WHR-10 | 2026-09-03 02:56:44 | 47.88819 | 14.73090 | 134° | 93km/h | 14085m | 4.3m/s | -55.3°C | 7.0% | 0hPa | 2.7V | 00:00:00 | 01:08:02 | 00:00:00 | |
| OE5REO-15 | 2026-09-03 02:56:42 | 47.88835 | 14.73065 | 136° | 89km/h | 14080m | 6.0m/s | -55.5°C | 4.0% | 0hPa | 2.7V | 00:00:00 | 00:00:00 | 00:00:00 | |
| OE5MMP-10 | 2026-09-03 02:56:41 | 47.88868 | 14.73019 | 137° | 93km/h | 14070m | 5.5m/s | -55.6°C | 7.1% | 0hPa | 2.7V | 00:00:00 | 01:07:59 | 00:00:00 | |
| PG1ADW-2 | 2026-09-03 02:56:40 | 47.88884 | 14.72994 | 136° | 95km/h | 14065m | 4.3m/s | -55.7°C | 7.1% | 0hPa | 2.7V | 00:00:00 | 00:00:00 | 00:00:00 | |
| OE8JPQ-2 | 2026-09-03 02:56:39 | 47.88901 | 14.72970 | 137° | 95km/h | 14061m | 4.8m/s | -55.8°C | 7.1% | 0hPa | 2.7V | 00:00:00 | 00:00:00 | 00:00:00 | |
| OE5DRO-10 | 2026-09-03 02:56:34 | 47.88984 | 14.72849 | 135° | 95km/h | 14036m | 6.1m/s | -55.9°C | 7.2% | 0hPa | 2.7V | 00:00:00 | 00:00:00 | 00:00:00 | |
| PETON7-10 | 2026-09-03 02:56:32 | 47.89017 | 14.72795 | 130° | 95km/h | 14025m | 6.1m/s | -56.0°C | 7.4% | 0hPa | 2.7V | 00:00:00 | 00:00:00 | 00:00:00 | |
| OE5MMP-10 | 2026-09-03 02:56:31 | 47.89032 | 14.72766 | 128° | 95km/h | 14020m | 4.0m/s | -55.9°C | 7.4% | 0hPa | 2.7V | 00:00:00 | 01:07:49 | 00:00:00 | |
| OE3OSB-13 | 2026-09-03 02:56:28 | 47.89075 | 14.72679 | 123° | 93km/h | 14004m | 6.1m/s | -55.9°C | 3.9% | -1.0hPa | 2.7V | 00:00:00 | 00:00:00 | 00:00:00 | |
| OE5REO-15 | 2026-09-03 02:56:27 | 47.89075 | 14.72679 | 125° | 95km/h | 14004m | 6.1m/s | -55.9°C | 4.1% | 0hPa | 2.7V | 00:00:00 | 00:00:00 | 00:00:00 | |
| OK1ALN | 2026-09-03 02:56:24 | 47.89114 | 14.72592 | 128° | 91km/h | 13989m | 5.1m/s | 0°C | 0% | 0hPa | 2.7V | 00:00:00 | 00:00:00 | 00:00:00 | |
| OE5WHR-10 | 2026-09-03 02:56:23 | 47.89143 | 14.72536 | 128° | 93km/h | 13978m | 5.6m/s | -55.7°C | 7.4% | 0hPa | 2.7V | 00:00:00 | 00:00:00 | 08:30:00 | |
| OE5MMP-10 | 2026-09-03 02:56:21 | 47.89173 | 14.72479 | 129° | 93km/h | 13968m | 6.2m/s | -55.6°C | 7.4% | 0hPa | 2.7V | 00:00:00 | 01:07:39 | 08:30:00 | |
| PG1ADW-2 | 2026-09-03 02:56:20 | 47.89188 | 14.72450 | 128° | 91km/h | 13963m | 4.1m/s | -55.6°C | 7.4% | 0hPa | 2.7V | 00:00:00 | 01:07:38 | 00:00:00 | |
| OE8JPQ-2 | 2026-09-03 02:56:19 | 47.89202 | 14.72421 | 127° | 91km/h | 13958m | 5.3m/s | -55.5°C | 7.3% | 0hPa | 2.7V | 00:00:00 | 00:00:00 | 00:00:00 | |
| OE3JTB-15 | 2026-09-03 02:56:18 | 47.89217 | 14.72392 | 126° | 88km/h | 13953m | 4.2m/s | -55.5°C | 7.4% | 0hPa | 2.7V | 00:00:00 | 00:00:00 | 08:30:00 | |
| OE5FHM-15 | 2026-09-03 02:56:17 | 47.89231 | 14.72362 | 126° | 88km/h | 13949m | 4.6m/s | -55.5°C | 7.4% | 0hPa | 2.7V | 00:00:00 | 01:07:35 | 00:00:00 | |
| OE5DXL-15 | 2026-09-03 02:56:15 | 47.89259 | 14.72306 | 127° | 88km/h | 13939m | 4.0m/s | -55.5°C | 7.3% | 0hPa | 2.7V | 00:00:00 | 00:00:00 | 00:00:00 | |
| OE5REO-15 | 2026-09-03 02:56:12 | 47.89287 | 14.72251 | 128° | 93km/h | 13929m | 4.3m/s | -55.5°C | 4.2% | 0hPa | 2.7V | 00:00:00 | 00:00:00 | 00:00:00 | |
| OE5MMP-10 | 2026-09-03 02:56:11 | 47.89315 | 14.72197 | 129° | 89km/h | 13918m | 4.7m/s | -55.5°C | 7.5% | 0hPa | 2.7V | 00:00:00 | 01:07:29 | 00:00:00 | |
| OE5WHR-10 | 2026-09-03 02:56:02 | 47.89432 | 14.71947 | 125° | 84km/h | 13872m | 4.3m/s | -55.6°C | 7.7% | 0hPa | 2.7V | 00:00:00 | 00:00:00 | 00:00:00 | |
| OE3OSB-13 | 2026-09-03 02:55:57 | 47.89495 | 14.71817 | 126° | 84km/h | 13846m | 5.6m/s | -55.5°C | 4.3% | -1.0hPa | 2.7V | 00:00:00 | 00:00:00 | 00:00:00 | |
| OE5DRO-10 | 2026-09-03 02:55:56 | 47.89508 | 14.71792 | 128° | 84km/h | 13841m | 4.7m/s | -55.4°C | 7.6% | 0hPa | 2.7V | 00:00:00 | 00:00:00 | 00:00:00 | |
| OE5MMP-10 | 2026-09-03 02:55:51 | 47.89575 | 14.71668 | 130° | 82km/h | 13814m | 4.9m/s | -55.3°C | 7.6% | 0hPa | 2.7V | 00:00:00 | 01:07:09 | 00:00:00 | |
| S52SK | 2026-09-03 02:55:50 | 47.89575 | 14.71668 | 130° | 84km/h | 13814m | 4.9m/s | -55.3°C | 4.5% | 0hPa | 2.7V | 00:00:00 | 00:00:00 | 00:00:00 | |
| OE3JTB-15 | 2026-09-03 02:55:49 | 47.89601 | 14.71620 | 129° | 86km/h | 13803m | 5.0m/s | -55.2°C | 7.6% | 0hPa | 2.7V | 00:00:00 | 00:00:00 | 00:00:00 | |
| OE5FHM-15 | 2026-09-03 02:55:47 | 47.89627 | 14.71572 | 129° | 86km/h | 13793m | 5.2m/s | -55.2°C | 7.6% | 0hPa | 2.7V | 00:00:00 | 01:07:05 | 00:00:00 | |
| OE5DXL-15 | 2026-09-03 02:55:45 | 47.89653 | 14.71525 | 133° | 86km/h | 13783m | 5.3m/s | -55.1°C | 7.6% | 0hPa | 2.7V | 00:00:00 | 00:00:00 | 00:00:00 | |
| NBG1-10 | 2026-09-03 02:55:43 | 47.89682 | 14.71478 | 134° | 110km/h | 13773m | 4.1m/s | 0°C | 0% | 0hPa | 2.7V | 00:00:00 | 01:07:01 | 00:00:00 | |
| OE5WHR-10 | 2026-09-03 02:55:41 | 47.89712 | 14.71433 | 134° | 86km/h | 13762m | 4.5m/s | -54.9°C | 7.6% | 0hPa | 2.7V | 00:00:00 | 01:06:59 | 00:00:00 | |
| PG1ADW-2 | 2026-09-03 02:55:40 | 47.89726 | 14.71410 | 133° | 86km/h | 13757m | 6.1m/s | -54.9°C | 7.6% | 0hPa | 2.7V | 00:00:00 | 00:00:00 | 00:00:00 | |
| OE8JPQ-2 | 2026-09-03 02:55:39 | 47.89740 | 14.71387 | 131° | 86km/h | 13752m | 4.4m/s | -54.9°C | 7.6% | 0hPa | 2.7V | 00:00:00 | 00:00:00 | 08:30:00 | |
| OE5DRO-10 | 2026-09-03 02:55:37 | 47.89767 | 14.71340 | 132° | 86km/h | 13741m | 5.5m/s | -54.8°C | 7.6% | 0hPa | 2.7V | 00:00:00 | 00:00:00 | 08:30:00 | |
| PETON7-10 | 2026-09-03 02:55:32 | 47.89840 | 14.71225 | 136° | 88km/h | 13715m | 5.0m/s | -54.6°C | 7.5% | 0hPa | 2.7V | 00:00:00 | 00:00:00 | 00:00:00 | |
| OE5MMP-10 | 2026-09-03 02:55:31 | 47.89855 | 14.71203 | 137° | 88km/h | 13709m | 5.4m/s | -54.6°C | 7.6% | 0hPa | 2.7V | 00:00:00 | 01:06:49 | 00:00:00 | |
| OE3OSB-13 | 2026-09-03 02:55:26 | 47.89933 | 14.71089 | 134° | 89km/h | 13683m | 6.7m/s | -54.4°C | 4.3% | -1.0hPa | 2.7V | 00:00:00 | 00:00:00 | 00:00:00 | |
| OE5REO-15 | 2026-09-03 02:55:24 | 47.89949 | 14.71065 | 135° | 91km/h | 13677m | 4.6m/s | -54.3°C | 4.6% | 0hPa | 2.7V | 00:00:00 | 00:00:00 | 00:00:00 | |
| OE5MMP-10 | 2026-09-03 02:55:21 | 47.90010 | 14.70966 | 134° | 88km/h | 13655m | 4.1m/s | -54.2°C | 7.6% | 0hPa | 2.7V | 00:00:00 | 01:06:39 | 00:00:00 | |
| OE3JTB-15 | 2026-09-03 02:55:20 | 47.90025 | 14.70942 | 134° | 93km/h | 13650m | 5.7m/s | -54.2°C | 7.7% | 0hPa | 2.7V | 00:00:00 | 01:06:38 | 00:00:00 | |
| OE8JPQ-2 | 2026-09-03 02:55:19 | 47.90040 | 14.70918 | 134° | 91km/h | 13645m | 4.7m/s | -54.2°C | 7.7% | 0hPa | 2.7V | 00:00:00 | 00:00:00 | 00:00:00 | |
| PETON7-10 | 2026-09-03 02:55:18 | 47.90071 | 14.70872 | 136° | 91km/h | 13634m | 5.2m/s | -54.3°C | 7.8% | 0hPa | 2.7V | 00:00:00 | 01:06:35 | 00:00:00 | |
| OE5FHM-15 | 2026-09-03 02:55:17 | 47.90071 | 14.70872 | 136° | 95km/h | 13634m | 5.2m/s | -54.3°C | 7.8% | 0hPa | 2.7V | 00:00:00 | 01:06:35 | 00:00:00 | |
| OE5DXL-15 | 2026-09-03 02:55:15 | 47.90103 | 14.70827 | 138° | 95km/h | 13624m | 5.6m/s | -54.3°C | 7.7% | 0hPa | 2.7V | 00:00:00 | 00:00:00 | 00:00:00 | |
| OE5MMP-10 | 2026-09-03 02:55:11 | 47.90169 | 14.70738 | 139° | 93km/h | 13603m | 6.2m/s | -54.2°C | 7.8% | 0hPa | 2.7V | 00:00:00 | 01:06:29 | 00:00:00 | |
| OE5REO-15 | 2026-09-03 02:55:08 | 47.90203 | 14.70693 | 138° | 91km/h | 13593m | 6.3m/s | -54.3°C | 4.8% | 0hPa | 2.7V | 00:00:00 | 00:00:00 | 00:00:00 | |
| PETON7-10 | 2026-09-03 02:55:02 | 47.90323 | 14.70524 | 137° | 99km/h | 13555m | 4.3m/s | -54.1°C | 7.9% | 0hPa | 2.7V | 00:00:00 | 00:00:00 | 08:30:00 | |
| OE3OSB-13 | 2026-09-03 02:54:55 | 47.90448 | 14.70351 | 134° | 91km/h | 13516m | 6.6m/s | -54.1°C | 4.7% | -1.0hPa | 2.7V | 00:00:00 | 00:00:00 | 00:00:00 | |
| OE5REO-15 | 2026-09-03 02:54:52 | 47.90482 | 14.70301 | 136° | 97km/h | 13506m | 6.2m/s | -54.1°C | 4.9% | 0hPa | 2.7V | 00:00:00 | 00:00:00 | 00:00:00 | |
| OE5MMP-10 | 2026-09-03 02:54:51 | 47.90518 | 14.70249 | 137° | 104km/h | 13496m | 5.0m/s | -54.0°C | 7.8% | 0hPa | 2.7V | 00:00:00 | 01:06:09 | 08:30:00 | |
| OK1ALN | 2026-09-03 02:54:50 | 47.90518 | 14.70249 | 137° | 102km/h | 13496m | 5.1m/s | 0°C | 0% | 0hPa | 2.7V | 00:00:00 | 00:00:00 | 00:00:00 | |
| OE5FHM-15 | 2026-09-03 02:54:47 | 47.90597 | 14.70144 | 140° | 110km/h | 13472m | 4.6m/s | -54.0°C | 7.9% | 0hPa | 2.7V | 00:00:00 | 01:06:05 | 08:30:00 | |
| OE5DXL-15 | 2026-09-03 02:54:45 | 47.90636 | 14.70090 | 136° | 110km/h | 13460m | 5.1m/s | -54.0°C | 8.0% | 0hPa | 2.7V | 00:00:00 | 00:00:00 | 00:00:00 | |
| OE5MMP-10 | 2026-09-03 02:54:41 | 47.90708 | 14.69980 | 135° | 110km/h | 13436m | 4.7m/s | -54.0°C | 8.3% | 0hPa | 2.7V | 00:00:00 | 01:05:59 | 00:00:00 | |
| OE5DRO-10 | 2026-09-03 02:54:40 | 47.90726 | 14.69952 | 134° | 111km/h | 13431m | 5.7m/s | -54.1°C | 8.3% | 0hPa | 2.7V | 00:00:00 | 00:00:00 | 00:00:00 | |
| OE8JPQ-2 | 2026-09-03 02:54:39 | 47.90745 | 14.69922 | 133° | 111km/h | 13425m | 6.0m/s | -54.1°C | 8.4% | 0hPa | 2.7V | 00:00:00 | 00:00:00 | 00:00:00 | |
| OE5WHR-10 | 2026-09-03 02:54:38 | 47.90763 | 14.69891 | 133° | 111km/h | 13419m | 5.6m/s | -54.2°C | 8.5% | 0hPa | 2.7V | 00:00:00 | 01:05:56 | 00:00:00 | |
| S52SK | 2026-09-03 02:54:37 | 47.90763 | 14.69891 | 134° | 111km/h | 13419m | 5.6m/s | -54.2°C | 5.4% | 0hPa | 2.7V | 00:00:00 | 00:00:00 | 00:00:00 | |
| OE5REO-15 | 2026-09-03 02:54:36 | 47.90782 | 14.69860 | 134° | 111km/h | 13414m | 5.0m/s | -54.3°C | 5.6% | 0hPa | 2.7V | 00:00:00 | 00:00:00 | 00:00:00 | |
| PETON7-10 | 2026-09-03 02:54:32 | 47.90877 | 14.69705 | 134° | 111km/h | 13389m | 4.0m/s | -54.4°C | 8.8% | 0hPa | 2.7V | 00:00:00 | 01:05:50 | 00:00:00 | |
| OE5MMP-10 | 2026-09-03 02:54:31 | 47.90896 | 14.69675 | 133° | 111km/h | 13385m | 5.0m/s | -54.4°C | 8.7% | 0hPa | 2.7V | 00:00:00 | 01:05:49 | 00:00:00 | |
| OE3OSB-13 | 2026-09-03 02:54:24 | 47.91023 | 14.69450 | 128° | 110km/h | 13346m | 6.2m/s | -54.7°C | 5.7% | -1.0hPa | 2.7V | 00:00:00 | 00:00:00 | 00:00:00 | |
| OE3JTB-15 | 2026-09-03 02:54:22 | 47.91057 | 14.69386 | 129° | 108km/h | 13337m | 5.4m/s | -54.6°C | 9.1% | 0hPa | 2.7V | 00:00:00 | 00:00:00 | 00:00:00 | |
| OE5MMP-10 | 2026-09-03 02:54:21 | 47.91075 | 14.69353 | 128° | 110km/h | 13331m | 5.5m/s | -54.6°C | 9.2% | 0hPa | 2.7V | 00:00:00 | 01:05:39 | 00:00:00 | |
| PG1ADW-2 | 2026-09-03 02:54:20 | 47.91092 | 14.69319 | 127° | 110km/h | 13326m | 4.8m/s | -54.6°C | 9.2% | 0hPa | 2.7V | 00:00:00 | 00:00:00 | 00:00:00 | |
| OE8JPQ-2 | 2026-09-03 02:54:19 | 47.91108 | 14.69286 | 126° | 108km/h | 13321m | 5.6m/s | -54.7°C | 9.2% | 0hPa | 2.7V | 00:00:00 | 00:00:00 | 00:00:00 | |
| PETON7-10 | 2026-09-03 02:54:17 | 47.91140 | 14.69219 | 126° | 108km/h | 13310m | 6.2m/s | -54.6°C | 9.1% | 0hPa | 2.7V | 00:00:00 | 00:00:00 | 00:00:00 | |
| OE5DXL-15 | 2026-09-03 02:54:15 | 47.91172 | 14.69151 | 126° | 108km/h | 13299m | 7.2m/s | -54.6°C | 9.0% | 0hPa | 2.7V | 00:00:00 | 00:00:00 | 00:00:00 | |
| OE5MMP-10 | 2026-09-03 02:54:11 | 47.91237 | 14.69019 | 126° | 108km/h | 13279m | 3.9m/s | -54.5°C | 8.8% | 0hPa | 2.7V | 00:00:00 | 01:05:29 | 00:00:00 | |
| OE5REO-15 | 2026-09-03 02:54:05 | 47.91314 | 14.68851 | 128° | 110km/h | 13253m | 4.5m/s | -54.4°C | 5.5% | 0hPa | 2.7V | 00:00:00 | 00:00:00 | 00:00:00 | |
| PETON7-10 | 2026-09-03 02:54:02 | 47.91381 | 14.68723 | 130° | 106km/h | 13233m | 4.8m/s | -54.4°C | 8.3% | 0hPa | 2.7V | 00:00:00 | 00:00:00 | 00:00:00 | |
| OE5MMP-10 | 2026-09-03 02:54:01 | 47.91399 | 14.68691 | 130° | 106km/h | 13227m | 5.4m/s | -54.4°C | 8.3% | 0hPa | 2.7V | 00:00:00 | 01:05:19 | 00:00:00 | |
| PG1ADW-2 | 2026-09-03 02:54:00 | 47.91416 | 14.68660 | 130° | 106km/h | 13222m | 5.0m/s | -54.4°C | 8.4% | 0hPa | 2.7V | 00:00:00 | 00:00:00 | 00:00:00 | |
| OE8JPQ-2 | 2026-09-03 02:53:59 | 47.91433 | 14.68628 | 129° | 106km/h | 13217m | 5.0m/s | -54.4°C | 8.3% | 0hPa | 2.7V | 00:00:00 | 01:05:17 | 00:00:00 | |
| OE5WHR-10 | 2026-09-03 02:53:56 | 47.91482 | 14.68534 | 127° | 108km/h | 13201m | 5.6m/s | -54.3°C | 8.4% | 0hPa | 2.7V | 00:00:00 | 00:00:00 | 00:00:00 | |
| OE3JTB-15 | 2026-09-03 02:53:53 | 47.91530 | 14.68440 | 130° | 108km/h | 13186m | 4.6m/s | -54.3°C | 8.5% | 0hPa | 2.7V | 00:00:00 | 01:05:11 | 00:00:00 | |
| OE5MMP-10 | 2026-09-03 02:53:51 | 47.91564 | 14.68380 | 131° | 108km/h | 13176m | 4.0m/s | -54.3°C | 8.5% | 0hPa | 2.7V | 00:00:00 | 01:05:09 | 00:00:00 | |
| OE5REO-15 | 2026-09-03 02:53:49 | 47.91581 | 14.68350 | 131° | 106km/h | 13171m | 5.8m/s | -54.4°C | 5.3% | 0hPa | 2.7V | 00:00:00 | 00:00:00 | 00:00:00 | |
| OE5FHM-15 | 2026-09-03 02:53:47 | 47.91634 | 14.68258 | 132° | 110km/h | 13156m | 4.4m/s | -54.4°C | 8.6% | 0hPa | 2.7V | 00:00:00 | 01:05:05 | 00:00:00 | |
| OE5DXL-15 | 2026-09-03 02:53:45 | 47.91669 | 14.68197 | 131° | 111km/h | 13147m | 5.0m/s | -54.4°C | 8.5% | 0hPa | 2.7V | 00:00:00 | 00:00:00 | 08:30:00 | |
| OE5DRO-10 | 2026-09-03 02:53:43 | 47.91705 | 14.68135 | 131° | 110km/h | 13137m | 5.3m/s | -54.4°C | 8.4% | 0hPa | 2.7V | 00:00:00 | 00:00:00 | 00:00:00 | |
| OE5MMP-10 | 2026-09-03 02:53:41 | 47.91740 | 14.68073 | 130° | 111km/h | 13127m | 5.9m/s | -54.5°C | 8.4% | 0hPa | 2.7V | 00:00:00 | 01:04:59 | 00:00:00 | |
| PG1ADW-2 | 2026-09-03 02:53:40 | 47.91758 | 14.68041 | 129° | 110km/h | 13122m | 4.3m/s | -54.5°C | 8.5% | 0hPa | 2.7V | 00:00:00 | 01:04:58 | 00:00:00 | |
| OE8JPQ-2 | 2026-09-03 02:53:39 | 47.91775 | 14.68008 | 129° | 111km/h | 13117m | 5.5m/s | -54.5°C | 8.5% | 0hPa | 2.7V | 00:00:00 | 00:00:00 | 00:00:00 | |
| OE5WHR-10 | 2026-09-03 02:53:35 | 47.91841 | 14.67873 | 125° | 111km/h | 13096m | 6.1m/s | -54.5°C | 8.4% | 0hPa | 2.7V | 00:00:00 | 01:04:53 | 00:00:00 | |
| OE5REO-15 | 2026-09-03 02:53:33 | 47.91857 | 14.67839 | 126° | 110km/h | 13091m | 4.0m/s | -54.5°C | 5.3% | 0hPa | 2.7V | 00:00:00 | 00:00:00 | 00:00:00 | |
| PETON7-10 | 2026-09-03 02:53:32 | 47.91890 | 14.67772 | 127° | 111km/h | 13082m | 5.7m/s | -54.5°C | 8.4% | 0hPa | 2.7V | 00:00:00 | 00:00:00 | 00:00:00 | |
| OE5MMP-10 | 2026-09-03 02:53:31 | 47.91906 | 14.67739 | 127° | 110km/h | 13077m | 4.8m/s | -54.5°C | 8.4% | 0hPa | 2.7V | 00:00:00 | 01:04:49 | 00:00:00 | |
| OE5DRO-10 | 2026-09-03 02:53:24 | 47.92021 | 14.67513 | 129° | 115km/h | 13041m | 3.5m/s | -54.8°C | 8.9% | 0hPa | 2.7V | 00:00:00 | 00:00:00 | 00:00:00 | |
| OE3OSB-13 | 2026-09-03 02:53:22 | 47.92076 | 14.67413 | 129° | 115km/h | 13027m | 6.3m/s | -54.7°C | 5.7% | -1.0hPa | 2.7V | 00:00:00 | 00:00:00 | 00:00:00 | |
| OE5MMP-10 | 2026-09-03 02:53:21 | 47.92076 | 14.67413 | 130° | 115km/h | 13027m | 6.3m/s | -54.7°C | 9.0% | 0hPa | 2.7V | 00:00:00 | 01:04:39 | 08:30:00 | |
| PG1ADW-2 | 2026-09-03 02:53:20 | 47.92094 | 14.67379 | 130° | 111km/h | 13022m | 3.3m/s | -54.6°C | 9.1% | 0hPa | 2.7V | 00:00:00 | 00:00:00 | 00:00:00 | |
| OE8JPQ-2 | 2026-09-03 02:53:19 | 47.92113 | 14.67346 | 131° | 111km/h | 13018m | 4.5m/s | -54.6°C | 9.0% | 0hPa | 2.7V | 00:00:00 | 00:00:00 | 00:00:00 | |
| S52SK | 2026-09-03 02:53:18 | 47.92113 | 14.67346 | 131° | 115km/h | 13018m | 4.5m/s | -54.7°C | 5.9% | 0hPa | 2.7V | 00:00:00 | 00:00:00 | 00:00:00 | |
| OE5FHM-15 | 2026-09-03 02:53:17 | 47.92152 | 14.67280 | 132° | 111km/h | 13008m | 4.6m/s | -54.5°C | 9.1% | 0hPa | 2.7V | 00:00:00 | 01:04:35 | 00:00:00 | |
| OE5DXL-15 | 2026-09-03 02:53:15 | 47.92190 | 14.67213 | 130° | 111km/h | 12999m | 3.4m/s | -54.4°C | 9.3% | 0hPa | 2.7V | 00:00:00 | 00:00:00 | 00:00:00 | |
| OE5WHR-10 | 2026-09-03 02:53:14 | 47.92208 | 14.67180 | 130° | 110km/h | 12994m | 5.3m/s | -54.4°C | 9.4% | 0hPa | 2.7V | 00:00:00 | 00:00:00 | 08:30:00 | |
| S52SK | 2026-09-03 02:53:13 | 47.92208 | 14.67180 | 131° | 113km/h | 12994m | 5.3m/s | -54.5°C | 6.4% | 0hPa | 2.7V | 00:00:00 | 00:00:00 | 00:00:00 | |
| OE5MMP-10 | 2026-09-03 02:53:11 | 47.92263 | 14.67083 | 130° | 108km/h | 12980m | 5.4m/s | -54.3°C | 9.8% | 0hPa | 2.7V | 00:00:00 | 01:04:29 | 00:00:00 | |
| OE5DRO-10 | 2026-09-03 02:53:05 | 47.92370 | 14.66895 | 130° | 113km/h | 12951m | 4.3m/s | -55.1°C | 11.7% | 0hPa | 2.7V | 00:00:00 | 00:00:00 | 00:00:00 | |
| PETON7-10 | 2026-09-03 02:53:02 | 47.92421 | 14.66804 | 131° | 113km/h | 12938m | 4.9m/s | -56.0°C | 13.2% | 0hPa | 2.7V | 00:00:00 | 01:04:20 | 00:00:00 | |
| OE5MMP-10 | 2026-09-03 02:53:01 | 47.92439 | 14.66773 | 131° | 113km/h | 12934m | 4.4m/s | -56.2°C | 13.9% | 0hPa | 2.7V | 00:00:00 | 01:04:19 | 00:00:00 | |
| PG1ADW-2 | 2026-09-03 02:53:00 | 47.92457 | 14.66742 | 132° | 115km/h | 12929m | 4.6m/s | -56.3°C | 14.1% | 0hPa | 2.7V | 00:00:00 | 00:00:00 | 08:30:00 | |
| OE8JPQ-2 | 2026-09-03 02:52:59 | 47.92475 | 14.66712 | 132° | 115km/h | 12925m | 4.3m/s | -56.4°C | 14.4% | 0hPa | 2.7V | 00:00:00 | 01:04:17 | 00:00:00 | |
| OE3JTB-15 | 2026-09-03 02:52:55 | 47.92551 | 14.66583 | 131° | 117km/h | 12906m | 4.7m/s | -56.6°C | 15.9% | 0hPa | 2.7V | 00:00:00 | 00:00:00 | 00:00:00 | |
| OE5WHR-10 | 2026-09-03 02:52:53 | 47.92588 | 14.66518 | 130° | 115km/h | 12898m | 6.1m/s | -56.6°C | 16.2% | 0hPa | 2.7V | 00:00:00 | 00:00:00 | 00:00:00 | |
| OE5MMP-10 | 2026-09-03 02:52:51 | 47.92625 | 14.66450 | 128° | 115km/h | 12888m | 5.6m/s | -56.6°C | 16.6% | 0hPa | 2.7V | 00:00:00 | 01:04:09 | 00:00:00 | |
| OE5FHM-15 | 2026-09-03 02:52:47 | 47.92697 | 14.66311 | 128° | 119km/h | 12870m | 5.0m/s | -56.7°C | 17.8% | 0hPa | 2.7V | 00:00:00 | 01:04:05 | 00:00:00 | |
| OE5REO-15 | 2026-09-03 02:52:46 | 47.92697 | 14.66311 | 129° | 115km/h | 12870m | 5.0m/s | -56.8°C | 13.3% | 0hPa | 2.7V | 00:00:00 | 00:00:00 | 00:00:00 | |
| OE5DXL-15 | 2026-09-03 02:52:45 | 47.92733 | 14.66244 | 131° | 120km/h | 12860m | 5.2m/s | -56.9°C | 18.6% | 0hPa | 2.7V | 00:00:00 | 00:00:00 | 00:00:00 | |
| OE5MMP-10 | 2026-09-03 02:52:41 | 47.92811 | 14.66113 | 132° | 117km/h | 12843m | 5.4m/s | -57.1°C | 19.5% | 0hPa | 2.7V | 00:00:00 | 01:03:59 | 00:00:00 | |
| PG1ADW-2 | 2026-09-03 02:52:40 | 47.92830 | 14.66080 | 132° | 119km/h | 12838m | 3.8m/s | -57.3°C | 20.1% | 0hPa | 2.7V | 00:00:00 | 00:00:00 | 00:00:00 | |
| DG1MFX-10 | 2026-09-03 02:52:38 | 47.92850 | 14.66046 | 132° | 117km/h | 12834m | 5.3m/s | -57.4°C | 15.3% | 0hPa | 2.7V | 00:00:00 | 00:00:00 | 00:00:00 | |
| DO3MHA-12 | 2026-09-03 02:52:37 | 47.92889 | 14.65980 | 132° | 117km/h | 12824m | 5.0m/s | -57.5°C | 20.4% | 0hPa | 2.7V | 00:00:00 | 01:03:55 | 00:00:00 | |
| OE8JPQ-2 | 2026-09-03 02:52:34 | 47.92947 | 14.65884 | 133° | 122km/h | 12811m | 2.9m/s | -57.5°C | 20.9% | 0hPa | 2.7V | 00:00:00 | 00:00:00 | 08:30:00 | |
| PETON7-10 | 2026-09-03 02:52:32 | 47.92987 | 14.65820 | 134° | 122km/h | 12802m | 4.6m/s | -57.5°C | 21.0% | 0hPa | 2.7V | 00:00:00 | 00:00:00 | 00:00:00 | |
| OE5REO-15 | 2026-09-03 02:52:30 | 47.93008 | 14.65788 | 136° | 119km/h | 12798m | 4.1m/s | -57.6°C | 16.0% | 0hPa | 2.7V | 00:00:00 | 00:00:00 | 00:00:00 | |
| DO3MHA-12 | 2026-09-03 02:52:27 | 47.93093 | 14.65657 | 133° | 124km/h | 12779m | 5.4m/s | -57.7°C | 21.9% | 0hPa | 2.7V | 00:00:00 | 01:03:45 | 00:00:00 | |
| OE3JTB-15 | 2026-09-03 02:52:26 | 47.93113 | 14.65624 | 133° | 122km/h | 12774m | 4.1m/s | -57.8°C | 22.1% | 0hPa | 2.7V | 00:00:00 | 01:03:44 | 00:00:00 | |
| OE5MMP-10 | 2026-09-03 02:52:21 | 47.93218 | 14.65451 | 131° | 126km/h | 12753m | 3.8m/s | -57.8°C | 21.4% | 0hPa | 2.7V | 00:00:00 | 01:03:39 | 00:00:00 | |
| PG1ADW-2 | 2026-09-03 02:52:20 | 47.93239 | 14.65416 | 131° | 124km/h | 12749m | 5.7m/s | -57.8°C | 21.3% | 0hPa | 2.7V | 00:00:00 | 01:03:38 | 00:00:00 | |
| DG1MFX-10 | 2026-09-03 02:52:18 | 47.93259 | 14.65380 | 132° | 126km/h | 12744m | 3.6m/s | -57.9°C | 16.3% | 0hPa | 2.7V | 00:00:00 | 00:00:00 | 00:00:00 | |
| DO3MHA-12 | 2026-09-03 02:52:17 | 47.93302 | 14.65310 | 134° | 124km/h | 12734m | 3.8m/s | -57.8°C | 21.1% | 0hPa | 2.7V | 00:00:00 | 01:03:35 | 00:00:00 | |
| OE5DXL-15 | 2026-09-03 02:52:15 | 47.93348 | 14.65241 | 136° | 120km/h | 12724m | 4.1m/s | -57.8°C | 20.9% | 0hPa | 2.7V | 00:00:00 | 00:00:00 | 00:00:00 | |
| OE8JPQ-2 | 2026-09-03 02:52:14 | 47.93371 | 14.65207 | 136° | 120km/h | 12720m | 4.5m/s | -57.7°C | 20.9% | 0hPa | 2.7V | 00:00:00 | 00:00:00 | 00:00:00 | |
| OE5MMP-10 | 2026-09-03 02:52:11 | 47.93441 | 14.65110 | 138° | 120km/h | 12708m | 4.6m/s | -57.8°C | 20.7% | 0hPa | 2.7V | 00:00:00 | 01:03:29 | 00:00:00 | |
| DB0NH | 2026-09-03 02:52:08 | 47.93506 | 14.65015 | 136° | 122km/h | 12694m | 4.3m/s | -57.8°C | 20.9% | 0hPa | 2.7V | 00:00:00 | 01:03:26 | 08:30:00 | |
| DO3MHA-12 | 2026-09-03 02:52:07 | 47.93528 | 14.64984 | 137° | 120km/h | 12689m | 5.6m/s | -57.7°C | 21.0% | 0hPa | 2.7V | 00:00:00 | 01:03:25 | 00:00:00 | |
| PETON7-10 | 2026-09-03 02:52:02 | 47.93637 | 14.64829 | 139° | 120km/h | 12666m | 3.4m/s | -57.6°C | 20.8% | 0hPa | 2.7V | 00:00:00 | 00:00:00 | 00:00:00 | |
| OE3OSB-13 | 2026-09-03 02:51:49 | 47.93955 | 14.64408 | 138° | 120km/h | 12602m | 5.4m/s | -57.5°C | 15.2% | -1.0hPa | 2.7V | 00:00:00 | 00:00:00 | 00:00:00 | |
| OE5FHM-15 | 2026-09-03 02:51:47 | 47.93978 | 14.64377 | 140° | 120km/h | 12596m | 4.7m/s | -57.5°C | 20.7% | 0hPa | 2.7V | 00:00:00 | 01:03:05 | 00:00:00 | |
| OE5DXL-15 | 2026-09-03 02:51:45 | 47.94025 | 14.64317 | 139° | 120km/h | 12587m | 6.0m/s | -57.5°C | 20.6% | 0hPa | 2.7V | 00:00:00 | 00:00:00 | 00:00:00 | |
| OE5REO-15 | 2026-09-03 02:51:43 | 47.94048 | 14.64287 | 140° | 122km/h | 12582m | 3.6m/s | -57.5°C | 15.7% | 0hPa | 2.7V | 00:00:00 | 00:00:00 | 00:00:00 | |
| OE5MMP-10 | 2026-09-03 02:51:41 | 47.94119 | 14.64193 | 138° | 120km/h | 12569m | 5.5m/s | -57.3°C | 20.6% | 0hPa | 2.7V | 00:00:00 | 01:02:59 | 00:00:00 | |
| PG1ADW-2 | 2026-09-03 02:51:40 | 47.94142 | 14.64161 | 137° | 119km/h | 12565m | 3.9m/s | -57.3°C | 20.9% | 0hPa | 2.7V | 00:00:00 | 00:00:00 | 00:00:00 | |
| DG1MFX-10 | 2026-09-03 02:51:38 | 47.94164 | 14.64130 | 138° | 120km/h | 12561m | 3.9m/s | -57.4°C | 15.8% | 0hPa | 2.7V | 00:00:00 | 00:00:00 | 00:00:00 | |
| DO3MHA-12 | 2026-09-03 02:51:37 | 47.94209 | 14.64068 | 138° | 119km/h | 12552m | 4.6m/s | -57.4°C | 20.9% | 0hPa | 2.7V | 00:00:00 | 01:02:55 | 00:00:00 | |
| DB0NH | 2026-09-03 02:51:35 | 47.94254 | 14.64006 | 138° | 120km/h | 12542m | 4.1m/s | -57.4°C | 21.1% | 0hPa | 2.7V | 00:00:00 | 01:02:53 | 00:00:00 | |
| OE8JPQ-2 | 2026-09-03 02:51:34 | 47.94277 | 14.63976 | 140° | 119km/h | 12537m | 5.3m/s | -57.3°C | 21.1% | 0hPa | 2.7V | 00:00:00 | 00:00:00 | 00:00:00 | |
| OE5HKT-10 | 2026-09-03 02:51:33 | 47.94299 | 14.63947 | 140° | 119km/h | 12532m | 4.1m/s | -57.4°C | 21.3% | 0hPa | 2.7V | 00:00:00 | 00:00:00 | 00:00:00 | |
| PETON7-10 | 2026-09-03 02:51:32 | 47.94322 | 14.63919 | 139° | 119km/h | 12527m | 5.8m/s | -57.4°C | 21.2% | 0hPa | 2.7V | 00:00:00 | 01:02:50 | 00:00:00 | |
| OE5MMP-10 | 2026-09-03 02:51:31 | 47.94344 | 14.63890 | 140° | 119km/h | 12523m | 3.4m/s | -57.3°C | 21.4% | 0hPa | 2.7V | 00:00:00 | 01:02:49 | 00:00:00 | |
| OE5WHR-10 | 2026-09-03 02:51:29 | 47.94390 | 14.63835 | 142° | 120km/h | 12514m | 3.8m/s | -57.3°C | 21.7% | 0hPa | 2.7V | 00:00:00 | 01:02:47 | 00:00:00 | |
| OE3JTB-15 | 2026-09-03 02:51:28 | 47.94414 | 14.63807 | 142° | 122km/h | 12509m | 4.9m/s | -57.3°C | 21.6% | 0hPa | 2.7V | 00:00:00 | 00:00:00 | 00:00:00 | |
| DO3MHA-12 | 2026-09-03 02:51:27 | 47.94437 | 14.63779 | 141° | 119km/h | 12505m | 3.9m/s | -57.3°C | 21.8% | 0hPa | 2.7V | 00:00:00 | 01:02:45 | 00:00:00 | |
| OE5MMP-10 | 2026-09-03 02:51:21 | 47.94579 | 14.63606 | 141° | 120km/h | 12479m | 4.7m/s | -57.1°C | 21.8% | 0hPa | 2.7V | 00:00:00 | 01:02:39 | 00:00:00 | |
| PG1ADW-2 | 2026-09-03 02:51:20 | 47.94601 | 14.63579 | 141° | 122km/h | 12475m | 4.4m/s | -57.0°C | 21.6% | 0hPa | 2.7V | 00:00:00 | 00:00:00 | 00:00:00 | |
| OE3OSB-13 | 2026-09-03 02:51:18 | 47.94672 | 14.63494 | 142° | 120km/h | 12461m | 4.3m/s | -57.0°C | 16.7% | -1.0hPa | 2.7V | 00:00:00 | 00:00:00 | 00:00:00 | |
| OE5FHM-15 | 2026-09-03 02:51:17 | 47.94672 | 14.63494 | 143° | 124km/h | 12461m | 4.2m/s | -57.0°C | 22.0% | 0hPa | 2.7V | 00:00:00 | 01:02:35 | 00:00:00 | |
| OE5DXL-15 | 2026-09-03 02:51:15 | 47.94720 | 14.63437 | 141° | 122km/h | 12452m | 4.6m/s | -56.9°C | 22.2% | 0hPa | 2.7V | 00:00:00 | 00:00:00 | 00:00:00 | |
| OE8JPQ-2 | 2026-09-03 02:51:14 | 47.94744 | 14.63408 | 141° | 124km/h | 12448m | 3.9m/s | -56.9°C | 22.3% | 0hPa | 2.7V | 00:00:00 | 00:00:00 | 00:00:00 | |
| OE5HKT-10 | 2026-09-03 02:51:12 | 47.94792 | 14.63350 | 142° | 124km/h | 12438m | 3.2m/s | -56.8°C | 22.8% | 0hPa | 2.7V | 00:00:00 | 00:00:00 | 00:00:00 | |
| OE5MMP-10 | 2026-09-03 02:51:11 | 47.94816 | 14.63321 | 141° | 124km/h | 12435m | 4.3m/s | -56.8°C | 22.8% | 0hPa | 2.7V | 00:00:00 | 01:02:29 | 00:00:00 | |
| OE5WHR-10 | 2026-09-03 02:51:08 | 47.94886 | 14.63231 | 139° | 124km/h | 12421m | 3.8m/s | -56.8°C | 23.2% | 0hPa | 2.7V | 00:00:00 | 00:00:00 | 00:00:00 | |
| DB0NH | 2026-09-03 02:51:04 | 47.94983 | 14.63110 | 141° | 122km/h | 12405m | 4.2m/s | -56.7°C | 22.9% | 0hPa | 2.7V | 00:00:00 | 01:02:22 | 00:00:00 | |
| PETON7-10 | 2026-09-03 02:51:02 | 47.95032 | 14.63050 | 141° | 124km/h | 12395m | 4.4m/s | -56.6°C | 23.0% | 0hPa | 2.7V | 00:00:00 | 00:00:00 | 00:00:00 | |
| OE3OSB-13 | 2026-09-03 02:50:47 | 47.95416 | 14.62579 | 138° | 120km/h | 12322m | 5.8m/s | -57.7°C | 23.2% | -1.0hPa | 2.7V | 00:00:00 | 00:00:00 | 00:00:00 | |
| S52SK | 2026-09-03 02:50:46 | 47.95393 | 14.62608 | 140° | 119km/h | 12327m | 4.0m/s | -57.5°C | 22.9% | 0hPa | 2.7V | 00:00:00 | 00:00:00 | 00:00:00 | |
| OE5DXL-15 | 2026-09-03 02:50:45 | 47.95439 | 14.62548 | 139° | 122km/h | 12317m | 3.4m/s | -57.7°C | 30.0% | 0hPa | 2.7V | 00:00:00 | 00:00:00 | 00:00:00 | |
| OE5REO-15 | 2026-09-03 02:50:42 | 47.95485 | 14.62488 | 141° | 120km/h | 12308m | 4.2m/s | -57.8°C | 24.7% | 0hPa | 2.7V | 00:00:00 | 00:00:00 | 00:00:00 | |
| OE5MMP-10 | 2026-09-03 02:50:41 | 47.95532 | 14.62429 | 141° | 124km/h | 12298m | 3.8m/s | -57.8°C | 31.6% | 0hPa | 2.7V | 00:00:00 | 01:01:59 | 00:00:00 | |
| PG1ADW-2 | 2026-09-03 02:50:40 | 47.95556 | 14.62400 | 141° | 124km/h | 12293m | 5.3m/s | -57.8°C | 31.8% | 0hPa | 2.7V | 00:00:00 | 00:00:00 | 00:00:00 | |
| DO3MHA-12 | 2026-09-03 02:50:38 | 47.95604 | 14.62342 | 141° | 126km/h | 12285m | 4.4m/s | -57.8°C | 32.0% | 0hPa | 2.7V | 00:00:00 | 01:01:56 | 00:00:00 | |
| S52SK | 2026-09-03 02:50:35 | 47.95653 | 14.62285 | 144° | 124km/h | 12275m | 3.9m/s | -57.9°C | 26.6% | 0hPa | 2.7V | 00:00:00 | 00:00:00 | 00:00:00 | |
| OE8JPQ-2 | 2026-09-03 02:50:34 | 47.95703 | 14.62228 | 143° | 122km/h | 12265m | 3.7m/s | -57.9°C | 32.9% | 0hPa | 2.7V | 00:00:00 | 00:00:00 | 00:00:00 | |
| PETON7-10 | 2026-09-03 02:50:32 | 47.95755 | 14.62171 | 145° | 122km/h | 12256m | 4.0m/s | -58.0°C | 33.7% | 0hPa | 2.7V | 00:00:00 | 00:00:00 | 08:30:00 | |
| OE5MMP-10 | 2026-09-03 02:50:31 | 47.95781 | 14.62143 | 144° | 122km/h | 12251m | 5.6m/s | -58.0°C | 33.8% | 0hPa | 2.7V | 00:00:00 | 01:01:49 | 00:00:00 | |
| DB0NH | 2026-09-03 02:50:30 | 47.95806 | 14.62114 | 144° | 120km/h | 12247m | 3.5m/s | -58.0°C | 34.2% | 0hPa | 2.7V | 00:00:00 | 01:01:48 | 00:00:00 | |
| DO3MHA-12 | 2026-09-03 02:50:28 | 47.95859 | 14.62058 | 145° | 122km/h | 12237m | 3.8m/s | -58.0°C | 34.8% | 0hPa | 2.7V | 00:00:00 | 01:01:46 | 00:00:00 | |
| OE5REO-15 | 2026-09-03 02:50:27 | 47.95859 | 14.62058 | 145° | 126km/h | 12237m | 3.9m/s | -58.0°C | 28.3% | 0hPa | 2.7V | 00:00:00 | 00:00:00 | 00:00:00 | |
| OE5WHR-10 | 2026-09-03 02:50:26 | 47.95909 | 14.62001 | 142° | 120km/h | 12227m | 3.3m/s | -57.9°C | 35.6% | 0hPa | 2.7V | 00:00:00 | 01:01:44 | 00:00:00 | |
| OE5MMP-10 | 2026-09-03 02:50:21 | 47.96027 | 14.61861 | 143° | 122km/h | 12205m | 3.6m/s | -58.1°C | 37.0% | 0hPa | 2.7V | 00:00:00 | 01:01:39 | 08:30:00 | |
| PG1ADW-2 | 2026-09-03 02:50:20 | 47.96050 | 14.61833 | 143° | 117km/h | 12201m | 5.1m/s | -58.1°C | 37.2% | 0hPa | 2.7V | 00:00:00 | 00:00:00 | 00:00:00 | |
| DO3MHA-12 | 2026-09-03 02:50:18 | 47.96099 | 14.61777 | 142° | 122km/h | 12191m | 4.5m/s | -58.1°C | 37.9% | 0hPa | 2.7V | 00:00:00 | 01:01:36 | 08:30:00 | |
| OE5FHM-15 | 2026-09-03 02:50:17 | 47.96123 | 14.61749 | 143° | 117km/h | 12186m | 5.2m/s | -58.1°C | 38.1% | 0hPa | 2.7V | 00:00:00 | 01:01:35 | 08:30:00 | |
| OE3OSB-13 | 2026-09-03 02:50:16 | 47.96173 | 14.61693 | 141° | 122km/h | 12176m | 5.6m/s | -58.2°C | 31.7% | -1.0hPa | 2.7V | 00:00:00 | 00:00:00 | 00:00:00 | |
| OE5DXL-15 | 2026-09-03 02:50:15 | 47.96173 | 14.61693 | 142° | 115km/h | 12176m | 5.6m/s | -58.1°C | 38.9% | 0hPa | 2.7V | 00:00:00 | 00:00:00 | 00:00:00 | |
| OE8JPQ-2 | 2026-09-03 02:50:14 | 47.96197 | 14.61664 | 142° | 115km/h | 12172m | 4.1m/s | -58.1°C | 39.6% | 0hPa | 2.7V | 00:00:00 | 00:00:00 | 00:00:00 | |
| OE5MMP-10 | 2026-09-03 02:50:11 | 47.96269 | 14.61580 | 142° | 113km/h | 12157m | 5.5m/s | -58.0°C | 40.7% | 0hPa | 2.7V | 00:00:00 | 01:01:29 | 00:00:00 | |
| DG1MFX-10 | 2026-09-03 02:50:10 | 47.96269 | 14.61580 | 142° | 119km/h | 12157m | 5.5m/s | -58.1°C | 33.7% | 0hPa | 2.7V | 00:00:00 | 00:00:00 | 00:00:00 | |
| OE5HKT-10 | 2026-09-03 02:50:09 | 47.96316 | 14.61524 | 143° | 115km/h | 12147m | 3.9m/s | -57.9°C | 41.3% | 0hPa | 2.7V | 00:00:00 | 00:00:00 | 00:00:00 | |
| DO3MHA-12 | 2026-09-03 02:50:08 | 47.96340 | 14.61497 | 144° | 111km/h | 12143m | 5.4m/s | -57.9°C | 41.7% | 0hPa | 2.7V | 00:00:00 | 01:01:26 | 00:00:00 | |
| OE5DRO-10 | 2026-09-03 02:50:06 | 47.96387 | 14.61446 | 144° | 115km/h | 12132m | 5.7m/s | -57.9°C | 42.5% | 0hPa | 2.7V | 00:00:00 | 00:00:00 | 00:00:00 | |
| OE5WHR-10 | 2026-09-03 02:50:05 | 47.96409 | 14.61421 | 144° | 115km/h | 12127m | 3.7m/s | -57.9°C | 42.8% | 0hPa | 2.7V | 00:00:00 | 00:00:00 | 08:30:00 | |
| PETON7-10 | 2026-09-03 02:50:02 | 47.96475 | 14.61345 | 140° | 115km/h | 12113m | 4.6m/s | -58.1°C | 45.2% | 0hPa | 2.7V | 00:00:00 | 01:01:20 | 00:00:00 | |
| OE3OSB-13 | 2026-09-03 02:49:45 | 47.96895 | 14.60879 | 145° | 115km/h | 12022m | 5.7m/s | -57.9°C | 43.9% | -1.0hPa | 2.7V | 00:00:00 | 00:00:00 | 00:00:00 | |
| OE5WHR-10 | 2026-09-03 02:49:44 | 47.96895 | 14.60879 | 146° | 126km/h | 12022m | 5.6m/s | -57.8°C | 52.2% | 0hPa | 2.7V | 00:00:00 | 00:00:00 | 00:00:00 | |
| OE5MMP-10 | 2026-09-03 02:49:41 | 47.96970 | 14.60803 | 147° | 128km/h | 12006m | 5.7m/s | -58.0°C | 56.1% | 0hPa | 2.7V | 00:00:00 | 01:00:59 | 00:00:00 | |
| OE8JPQ-2 | 2026-09-03 02:49:34 | 47.97160 | 14.60617 | 147° | 124km/h | 11970m | 5.6m/s | -58.4°C | 63.8% | 0hPa | 2.7V | 00:00:00 | 00:00:00 | 08:30:00 | |
| PETON7-10 | 2026-09-03 02:49:32 | 47.97212 | 14.60564 | 147° | 124km/h | 11960m | 4.7m/s | -58.4°C | 64.0% | 0hPa | 2.7V | 00:00:00 | 00:00:00 | 00:00:00 | |
| OE5MMP-10 | 2026-09-03 02:49:31 | 47.97239 | 14.60538 | 147° | 126km/h | 11955m | 5.7m/s | -58.4°C | 64.0% | 0hPa | 2.7V | 00:00:00 | 01:00:49 | 00:00:00 | |
| DG1MFX-10 | 2026-09-03 02:49:29 | 47.97266 | 14.60512 | 147° | 128km/h | 11950m | 3.4m/s | -58.4°C | 54.5% | 0hPa | 2.7V | 00:00:00 | 00:00:00 | 00:00:00 | |
| DO3MHA-12 | 2026-09-03 02:49:28 | 47.97319 | 14.60458 | 146° | 124km/h | 11940m | 4.1m/s | -58.3°C | 63.4% | 0hPa | 2.7V | 00:00:00 | 01:00:46 | 00:00:00 | |
| OE5DRO-10 | 2026-09-03 02:49:27 | 47.97345 | 14.60431 | 144° | 128km/h | 11935m | 5.1m/s | -58.2°C | 63.1% | 0hPa | 2.7V | 00:00:00 | 00:00:00 | 08:30:00 | |
| OE5REO-15 | 2026-09-03 02:49:24 | 47.97397 | 14.60373 | 144° | 124km/h | 11926m | 5.8m/s | -58.2°C | 54.2% | 0hPa | 2.7V | 00:00:00 | 00:00:00 | 00:00:00 | |
| DB0NH | 2026-09-03 02:49:23 | 47.97447 | 14.60319 | 144° | 119km/h | 11916m | 3.9m/s | -58.1°C | 63.0% | 0hPa | 2.7V | 00:00:00 | 01:00:41 | 00:00:00 | |
| OE5MMP-10 | 2026-09-03 02:49:21 | 47.97497 | 14.60265 | 145° | 119km/h | 11906m | 5.3m/s | -58.0°C | 62.4% | 0hPa | 2.7V | 00:00:00 | 01:00:39 | 00:00:00 | |
| PG1ADW-2 | 2026-09-03 02:49:20 | 47.97522 | 14.60238 | 146° | 119km/h | 11901m | 6.2m/s | -58.0°C | 62.6% | 0hPa | 2.7V | 00:00:00 | 00:00:00 | 00:00:00 | |
| DO3MHA-12 | 2026-09-03 02:49:18 | 47.97573 | 14.60186 | 146° | 117km/h | 11891m | 5.5m/s | -57.9°C | 62.0% | 0hPa | 2.7V | 00:00:00 | 01:00:36 | 00:00:00 | |
| OE5FHM-15 | 2026-09-03 02:49:17 | 47.97597 | 14.60161 | 146° | 119km/h | 11886m | 4.4m/s | -57.8°C | 62.1% | 0hPa | 2.7V | 00:00:00 | 01:00:35 | 00:00:00 | |
| OE5DXL-15 | 2026-09-03 02:49:15 | 47.97647 | 14.60110 | 145° | 119km/h | 11876m | 3.8m/s | -57.7°C | 62.4% | 0hPa | 2.7V | 00:00:00 | 00:00:00 | 08:30:00 | |
| OE8JPQ-2 | 2026-09-03 02:49:14 | 47.97671 | 14.60084 | 145° | 117km/h | 11871m | 5.9m/s | -57.7°C | 61.9% | 0hPa | 2.7V | 00:00:00 | 00:00:00 | 00:00:00 | |
| OE3OSB-13 | 2026-09-03 02:49:13 | 47.97695 | 14.60059 | 144° | 115km/h | 11866m | 4.1m/s | -57.7°C | 53.1% | -1.0hPa | 2.7V | 00:00:00 | 00:00:00 | 00:00:00 | |
| OE5MMP-10 | 2026-09-03 02:49:11 | 47.97743 | 14.60006 | 143° | 117km/h | 11856m | 4.7m/s | -57.6°C | 62.9% | 0hPa | 2.7V | 00:00:00 | 01:00:29 | 00:00:00 | |
| DO3MHA-12 | 2026-09-03 02:49:08 | 47.97813 | 14.59927 | 143° | 117km/h | 11840m | 4.2m/s | -57.4°C | 64.8% | 0hPa | 2.7V | 00:00:00 | 01:00:26 | 00:00:00 | |
| OE3JTB-15 | 2026-09-03 02:49:03 | 47.97933 | 14.59803 | 145° | 119km/h | 11813m | 3.4m/s | -57.3°C | 63.6% | 0hPa | 2.7V | 00:00:00 | 00:00:00 | 00:00:00 | |
| OE5WHR-10 | 2026-09-03 02:49:02 | 47.97958 | 14.59777 | 144° | 119km/h | 11808m | 7.3m/s | -57.2°C | 61.3% | 0hPa | 2.7V | 00:00:00 | 00:00:00 | 00:00:00 | |
| OE5MMP-10 | 2026-09-03 02:49:01 | 47.97982 | 14.59749 | 143° | 119km/h | 11801m | 7.9m/s | -57.2°C | 60.9% | 0hPa | 2.7V | 00:00:00 | 01:00:19 | 00:00:00 | |
| DO3MHA-12 | 2026-09-03 02:48:58 | 47.98053 | 14.59669 | 146° | 119km/h | 11776m | 6.9m/s | -57.1°C | 60.5% | 0hPa | 2.7V | 00:00:00 | 01:00:16 | 00:00:00 | |
| OE8JPQ-2 | 2026-09-03 02:48:54 | 47.98151 | 14.59570 | 148° | 119km/h | 11752m | 4.3m/s | -56.9°C | 61.7% | 0hPa | 2.7V | 00:00:00 | 01:00:12 | 00:00:00 | |
| OE5REO-15 | 2026-09-03 02:48:53 | 47.98177 | 14.59546 | 148° | 120km/h | 11746m | 6.1m/s | -56.9°C | 52.9% | 0hPa | 2.7V | 00:00:00 | 00:00:00 | 00:00:00 | |
| OE5MMP-10 | 2026-09-03 02:48:51 | 47.98228 | 14.59496 | 148° | 119km/h | 11737m | 5.1m/s | -56.8°C | 60.9% | 0hPa | 2.7V | 00:00:00 | 01:00:09 | 08:30:00 | |
| OE5DRO-10 | 2026-09-03 02:48:49 | 47.98279 | 14.59446 | 146° | 120km/h | 11727m | 4.7m/s | -56.8°C | 60.3% | 0hPa | 2.7V | 00:00:00 | 00:00:00 | 00:00:00 | |
| DG1MFX-10 | 2026-09-03 02:48:48 | 47.98279 | 14.59446 | 147° | 120km/h | 11727m | 4.8m/s | -56.8°C | 52.0% | 0hPa | 2.7V | 00:00:00 | 00:00:00 | 00:00:00 | |
| OE5FHM-15 | 2026-09-03 02:48:47 | 47.98329 | 14.59396 | 147° | 120km/h | 11717m | 5.2m/s | -56.7°C | 59.9% | 0hPa | 2.7V | 00:00:00 | 01:00:05 | 00:00:00 | |
| OE5DXL-15 | 2026-09-03 02:48:45 | 47.98379 | 14.59347 | 147° | 120km/h | 11707m | 4.5m/s | -56.6°C | 59.9% | 0hPa | 2.7V | 00:00:00 | 00:00:00 | 00:00:00 | |
| OE3OSB-13 | 2026-09-03 02:48:42 | 47.98453 | 14.59276 | 148° | 117km/h | 11691m | 4.6m/s | -56.6°C | 51.5% | -1.0hPa | 2.7V | 00:00:00 | 00:00:00 | 00:00:00 | |
| OE5WHR-10 | 2026-09-03 02:48:41 | 47.98479 | 14.59253 | 150° | 122km/h | 11687m | 4.8m/s | -56.5°C | 59.9% | 0hPa | 2.7V | 00:00:00 | 00:00:00 | 00:00:00 | |
| PG1ADW-2 | 2026-09-03 02:48:40 | 47.98504 | 14.59231 | 150° | 122km/h | 11681m | 4.8m/s | -56.4°C | 59.9% | 0hPa | 2.7V | 00:00:00 | 00:00:00 | 00:00:00 | |
| DO3MHA-12 | 2026-09-03 02:48:38 | 47.98556 | 14.59185 | 148° | 122km/h | 11672m | 4.9m/s | -56.4°C | 58.8% | 0hPa | 2.7V | 00:00:00 | 00:59:56 | 00:00:00 | |
| OE5REO-15 | 2026-09-03 02:48:37 | 47.98556 | 14.59185 | 149° | 119km/h | 11672m | 4.9m/s | -56.4°C | 50.6% | 0hPa | 2.7V | 00:00:00 | 00:00:00 | 00:00:00 | |
| OE3JTB-15 | 2026-09-03 02:48:34 | 47.98658 | 14.59087 | 149° | 122km/h | 11653m | 6.2m/s | -56.2°C | 58.0% | 0hPa | 2.7V | 00:00:00 | 00:00:00 | 00:00:00 | |
| PETON7-10 | 2026-09-03 02:48:32 | 47.98712 | 14.59039 | 149° | 122km/h | 11643m | 5.9m/s | -56.1°C | 57.3% | 0hPa | 2.7V | 00:00:00 | 00:59:50 | 00:00:00 | |
| OE5HKT-10 | 2026-09-03 02:48:31 | 47.98740 | 14.59014 | 150° | 124km/h | 11637m | 4.5m/s | -56.1°C | 57.4% | 0hPa | 2.7V | 00:00:00 | 00:00:00 | 00:00:00 | |
| OE5DRO-10 | 2026-09-03 02:48:30 | 47.98768 | 14.58991 | 151° | 122km/h | 11632m | 6.0m/s | -56.0°C | 57.2% | 0hPa | 2.7V | 00:00:00 | 00:00:00 | 00:00:00 | |
| DO3MHA-12 | 2026-09-03 02:48:28 | 47.98823 | 14.58945 | 151° | 120km/h | 11622m | 5.4m/s | -56.0°C | 57.0% | 0hPa | 2.7V | 00:00:00 | 00:59:46 | 00:00:00 | |
| DG1MFX-10 | 2026-09-03 02:48:27 | 47.98823 | 14.58945 | 151° | 124km/h | 11622m | 5.5m/s | -56.0°C | 49.1% | 0hPa | 2.7V | 00:00:00 | 00:00:00 | 00:00:00 | |
| OM5KV | 2026-09-03 02:48:23 | 47.98954 | 14.58829 | 148° | 117km/h | 11597m | 4.8m/s | -55.8°C | 48.5% | 0hPa | 2.7V | 00:00:00 | 00:00:00 | 00:00:00 | |
| OE5REO-15 | 2026-09-03 02:48:22 | 47.98954 | 14.58829 | 148° | 117km/h | 11597m | 4.8m/s | -55.8°C | 48.5% | 0hPa | 2.7V | 00:00:00 | 00:00:00 | 00:00:00 | |
| OE5MMP-10 | 2026-09-03 02:48:21 | 47.99005 | 14.58780 | 147° | 122km/h | 11587m | 4.8m/s | -55.6°C | 56.6% | 0hPa | 2.7V | 00:00:00 | 00:59:39 | 00:00:00 | |
| DO3MHA-12 | 2026-09-03 02:48:18 | 47.99083 | 14.58706 | 149° | 122km/h | 11573m | 4.3m/s | -55.5°C | 55.7% | 0hPa | 2.7V | 00:00:00 | 00:59:36 | 00:00:00 | |
| OE5FHM-15 | 2026-09-03 02:48:17 | 47.99110 | 14.58682 | 150° | 122km/h | 11568m | 5.1m/s | -55.5°C | 55.5% | 0hPa | 2.7V | 00:00:00 | 00:59:35 | 00:00:00 | |
| OE5DXL-15 | 2026-09-03 02:48:15 | 47.99162 | 14.58637 | 152° | 122km/h | 11558m | 4.2m/s | -55.4°C | 55.2% | 0hPa | 2.7V | 00:00:00 | 00:00:00 | 00:00:00 | |
| OE8JPQ-2 | 2026-09-03 02:48:14 | 47.99189 | 14.58615 | 151° | 122km/h | 11553m | 5.5m/s | -55.4°C | 54.7% | 0hPa | 2.7V | 00:00:00 | 00:00:00 | 00:00:00 | |
| OE5MMP-10 | 2026-09-03 02:48:11 | 47.99269 | 14.58546 | 150° | 122km/h | 11539m | 6.0m/s | -55.2°C | 54.1% | 0hPa | 2.7V | 00:00:00 | 00:59:29 | 00:00:00 | |
| DO3MHA-12 | 2026-09-03 02:48:08 | 47.99351 | 14.58475 | 150° | 122km/h | 11523m | 6.1m/s | -55.1°C | 54.1% | 0hPa | 2.7V | 00:00:00 | 00:59:26 | 00:00:00 | |
| OM5KV | 2026-09-03 02:48:07 | 47.99351 | 14.58475 | 150° | 126km/h | 11523m | 6.2m/s | -55.2°C | 46.6% | 0hPa | 2.7V | 00:00:00 | 00:00:00 | 00:00:00 | |
| DG1MFX-10 | 2026-09-03 02:48:06 | 47.99378 | 14.58451 | 150° | 124km/h | 11518m | 3.6m/s | -55.1°C | 46.8% | 0hPa | 2.7V | 00:00:00 | 00:00:00 | 00:00:00 | |
| OE3JTB-15 | 2026-09-03 02:48:05 | 47.99431 | 14.58403 | 149° | 122km/h | 11508m | 4.1m/s | -55.0°C | 53.6% | 0hPa | 2.7V | 00:00:00 | 00:59:23 | 00:00:00 | |
| OM5KV | 2026-09-03 02:48:04 | 47.99431 | 14.58403 | 149° | 120km/h | 11508m | 4.2m/s | -55.1°C | 46.2% | 0hPa | 2.7V | 00:00:00 | 00:00:00 | 00:00:00 | |
| PETON7-10 | 2026-09-03 02:48:02 | 47.99509 | 14.58331 | 150° | 122km/h | 11493m | 5.2m/s | -54.9°C | 52.3% | 0hPa | 2.7V | 00:00:00 | 00:00:00 | 00:00:00 | |
| OE5MMP-10 | 2026-09-03 02:48:01 | 47.99535 | 14.58308 | 150° | 122km/h | 11488m | 5.0m/s | -54.9°C | 52.1% | 0hPa | 2.7V | 00:00:00 | 00:59:19 | 00:00:00 | |
| PG1ADW-2 | 2026-09-03 02:48:00 | 47.99562 | 14.58285 | 150° | 124km/h | 11483m | 4.8m/s | -54.9°C | 51.7% | 0hPa | 2.7V | 00:00:00 | 00:00:00 | 00:00:00 | |
| OE5WHR-10 | 2026-09-03 02:47:59 | 47.99588 | 14.58262 | 149° | 124km/h | 11478m | 5.3m/s | -54.8°C | 51.6% | 0hPa | 2.7V | 00:00:00 | 00:00:00 | 00:00:00 | |
| DO3MHA-12 | 2026-09-03 02:47:58 | 47.99614 | 14.58238 | 149° | 124km/h | 11473m | 4.8m/s | -54.8°C | 51.3% | 0hPa | 2.7V | 00:00:00 | 00:59:16 | 00:00:00 | |
| OE5HKT-10 | 2026-09-03 02:47:57 | 47.99641 | 14.58213 | 149° | 124km/h | 11468m | 5.6m/s | -54.7°C | 51.2% | 0hPa | 2.7V | 00:00:00 | 00:59:15 | 00:00:00 | |
| OE8JPQ-2 | 2026-09-03 02:47:54 | 47.99720 | 14.58137 | 147° | 124km/h | 11453m | 4.2m/s | -54.6°C | 51.2% | 0hPa | 2.7V | 00:00:00 | 00:59:12 | 00:00:00 | |
| DB0NH | 2026-09-03 02:47:53 | 47.99746 | 14.58112 | 147° | 124km/h | 11449m | 4.0m/s | -54.6°C | 50.8% | 0hPa | 2.7V | 00:00:00 | 00:59:11 | 00:00:00 | |
| OM5KV | 2026-09-03 02:47:52 | 47.99746 | 14.58112 | 148° | 122km/h | 11449m | 4.0m/s | -54.6°C | 43.7% | 0hPa | 2.7V | 00:00:00 | 00:00:00 | 00:00:00 | |
| OE5MMP-10 | 2026-09-03 02:47:51 | 47.99799 | 14.58062 | 150° | 124km/h | 11440m | 3.9m/s | -54.5°C | 50.4% | 0hPa | 2.7V | 00:00:00 | 00:59:09 | 00:00:00 | |
| DO3MHA-12 | 2026-09-03 02:47:48 | 47.99880 | 14.57990 | 149° | 124km/h | 11425m | 5.7m/s | -54.3°C | 50.8% | 0hPa | 2.7V | 00:00:00 | 00:59:06 | 00:00:00 | |
| OE5FHM-15 | 2026-09-03 02:47:47 | 47.99907 | 14.57964 | 147° | 124km/h | 11421m | 3.2m/s | -54.3°C | 51.1% | 0hPa | 2.7V | 00:00:00 | 00:59:05 | 00:00:00 | |
| OE5DXL-15 | 2026-09-03 02:47:45 | 47.99960 | 14.57912 | 147° | 126km/h | 11412m | 4.0m/s | -54.2°C | 50.7% | 0hPa | 2.7V | 00:00:00 | 00:00:00 | 00:00:00 | |
| OM5KV | 2026-09-03 02:47:42 | 48.00013 | 14.57861 | 149° | 126km/h | 11403m | 5.3m/s | -54.2°C | 42.9% | 0hPa | 2.7V | 00:00:00 | 00:00:00 | 00:00:00 | |
| OE5MMP-10 | 2026-09-03 02:47:41 | 48.00067 | 14.57811 | 148° | 120km/h | 11392m | 5.5m/s | -54.1°C | 49.6% | 0hPa | 2.7V | 00:00:00 | 00:58:59 | 00:00:00 | |
| PG1ADW-2 | 2026-09-03 02:47:40 | 48.00093 | 14.57786 | 149° | 124km/h | 11386m | 5.0m/s | -54.0°C | 49.3% | 0hPa | 2.7V | 00:00:00 | 00:00:00 | 00:00:00 | |
| DO3MHA-12 | 2026-09-03 02:47:38 | 48.00146 | 14.57737 | 148° | 122km/h | 11377m | 4.2m/s | -53.9°C | 48.6% | 0hPa | 2.7V | 00:00:00 | 00:58:56 | 00:00:00 | |
| OM5KV | 2026-09-03 02:47:37 | 48.00146 | 14.57737 | 149° | 119km/h | 11377m | 4.2m/s | -54.0°C | 41.8% | 0hPa | 2.7V | 00:00:00 | 00:00:00 | 00:00:00 | |
| OE3JTB-15 | 2026-09-03 02:47:36 | 48.00195 | 14.57690 | 146° | 126km/h | 11368m | 2.6m/s | -53.8°C | 48.7% | 0hPa | 2.7V | 00:00:00 | 00:00:00 | 08:30:00 | |
| PETON7-10 | 2026-09-03 02:47:32 | 48.00298 | 14.57590 | 149° | 128km/h | 11349m | 5.8m/s | -53.7°C | 47.0% | 0hPa | 2.7V | 00:00:00 | 00:00:00 | 00:00:00 | |
| OE5MMP-10 | 2026-09-03 02:47:31 | 48.00326 | 14.57564 | 148° | 126km/h | 11344m | 4.7m/s | -53.6°C | 46.9% | 0hPa | 2.7V | 00:00:00 | 00:58:49 | 00:00:00 | |
| DO3MHA-12 | 2026-09-03 02:47:28 | 48.00408 | 14.57482 | 147° | 126km/h | 11330m | 6.6m/s | -53.5°C | 46.7% | 0hPa | 2.7V | 00:00:00 | 00:58:46 | 00:00:00 | |
| OM5KV | 2026-09-03 02:47:25 | 48.00459 | 14.57430 | 147° | 120km/h | 11320m | 5.5m/s | -53.4°C | 39.7% | 0hPa | 2.7V | 00:00:00 | 00:00:00 | 00:00:00 | |
| OE5HKT-10 | 2026-09-03 02:47:24 | 48.00511 | 14.57379 | 147° | 126km/h | 11309m | 4.7m/s | -53.3°C | 45.9% | 0hPa | 2.7V | 00:00:00 | 00:00:00 | 00:00:00 | |
| DB0NH | 2026-09-03 02:47:23 | 48.00537 | 14.57353 | 146° | 126km/h | 11304m | 5.5m/s | -53.3°C | 45.9% | 0hPa | 2.7V | 00:00:00 | 00:58:41 | 08:30:00 | |
| OE5MMP-10 | 2026-09-03 02:47:21 | 48.00590 | 14.57300 | 148° | 128km/h | 11293m | 5.4m/s | -53.2°C | 45.6% | 0hPa | 2.7V | 00:00:00 | 00:58:39 | 08:30:00 | |
| PG1ADW-2 | 2026-09-03 02:47:20 | 48.00618 | 14.57273 | 147° | 126km/h | 11289m | 3.8m/s | -53.2°C | 45.2% | 0hPa | 2.7V | 00:00:00 | 00:00:00 | 00:00:00 | |
| OM5KV | 2026-09-03 02:47:19 | 48.00618 | 14.57273 | 148° | 131km/h | 11289m | 3.9m/s | -53.2°C | 38.8% | 0hPa | 2.7V | 00:00:00 | 00:00:00 | 00:00:00 | |
| DO3MHA-12 | 2026-09-03 02:47:18 | 48.00673 | 14.57219 | 147° | 128km/h | 11279m | 3.6m/s | -53.1°C | 45.0% | 0hPa | 2.7V | 00:00:00 | 00:58:36 | 08:30:00 | |
| OE5FHM-15 | 2026-09-03 02:47:17 | 48.00701 | 14.57192 | 148° | 126km/h | 11275m | 5.5m/s | -53.0°C | 44.7% | 0hPa | 2.7V | 00:00:00 | 00:58:35 | 00:00:00 | |
| OE5DXL-15 | 2026-09-03 02:47:15 | 48.00755 | 14.57139 | 146° | 126km/h | 11264m | 4.7m/s | -53.0°C | 44.4% | 0hPa | 2.7V | 00:00:00 | 00:00:00 | 00:00:00 | |
| DG1MFX-10 | 2026-09-03 02:47:13 | 48.00782 | 14.57113 | 147° | 122km/h | 11260m | 4.0m/s | -53.0°C | 37.8% | 0hPa | 2.7V | 00:00:00 | 00:00:00 | 00:00:00 | |
| OE5DRO-10 | 2026-09-03 02:47:12 | 48.00833 | 14.57062 | 148° | 126km/h | 11250m | 4.6m/s | -52.9°C | 43.3% | 0hPa | 2.7V | 00:00:00 | 00:00:00 | 00:00:00 | |
| OE5MMP-10 | 2026-09-03 02:47:11 | 48.00860 | 14.57037 | 148° | 126km/h | 11245m | 5.6m/s | -52.8°C | 43.4% | 0hPa | 2.7V | 00:00:00 | 00:58:29 | 00:00:00 | |
| OE3OSB-13 | 2026-09-03 02:47:09 | 48.00915 | 14.56984 | 146° | 128km/h | 11237m | 5.0m/s | -52.8°C | 36.5% | -1.0hPa | 2.7V | 00:00:00 | 00:00:00 | 00:00:00 | |
| DO3MHA-12 | 2026-09-03 02:47:08 | 48.00942 | 14.56956 | 146° | 126km/h | 11232m | 4.2m/s | -52.8°C | 42.9% | 0hPa | 2.7V | 00:00:00 | 00:58:26 | 00:00:00 | |
| OE3JTB-15 | 2026-09-03 02:47:07 | 48.00969 | 14.56929 | 145° | 126km/h | 11228m | 5.9m/s | -52.7°C | 42.5% | 0hPa | 2.7V | 00:00:00 | 00:00:00 | 00:00:00 | |
| OM5KV | 2026-09-03 02:47:06 | 48.00995 | 14.56901 | 146° | 126km/h | 11222m | 4.7m/s | -52.7°C | 36.5% | 0hPa | 2.7V | 00:00:00 | 00:00:00 | 00:00:00 | |
| OE5REO-15 | 2026-09-03 02:47:05 | 48.00995 | 14.56901 | 146° | 126km/h | 11222m | 4.7m/s | -52.7°C | 36.5% | 0hPa | 2.7V | 00:00:00 | 00:00:00 | 00:00:00 | |
| OE5HKT-10 | 2026-09-03 02:47:03 | 48.01070 | 14.56821 | 144° | 126km/h | 11208m | 4.1m/s | -52.6°C | 42.3% | 0hPa | 2.7V | 00:00:00 | 00:00:00 | 00:00:00 | |
| PETON7-10 | 2026-09-03 02:47:02 | 48.01095 | 14.56793 | 144° | 126km/h | 11204m | 4.9m/s | -52.5°C | 42.2% | 0hPa | 2.7V | 00:00:00 | 00:58:20 | 00:00:00 | |
| OE5MMP-10 | 2026-09-03 02:47:01 | 48.01121 | 14.56765 | 145° | 126km/h | 11199m | 4.2m/s | -52.5°C | 42.4% | 0hPa | 2.7V | 00:00:00 | 00:58:19 | 00:00:00 | |
| PG1ADW-2 | 2026-09-03 02:47:00 | 48.01147 | 14.56737 | 145° | 126km/h | 11194m | 4.6m/s | -52.4°C | 42.2% | 0hPa | 2.7V | 00:00:00 | 00:58:18 | 08:30:00 | |
| OE8JPQ-2 | 2026-09-03 02:46:59 | 48.01174 | 14.56710 | 146° | 126km/h | 11190m | 4.3m/s | -52.4°C | 42.1% | 0hPa | 2.7V | 00:00:00 | 00:00:00 | 00:00:00 | |
| DO3MHA-12 | 2026-09-03 02:46:58 | 48.01200 | 14.56682 | 145° | 126km/h | 11186m | 4.7m/s | -52.3°C | 41.7% | 0hPa | 2.7V | 00:00:00 | 00:58:16 | 00:00:00 | |
| OE5WHR-10 | 2026-09-03 02:46:56 | 48.01252 | 14.56629 | 146° | 126km/h | 11175m | 5.3m/s | -52.2°C | 41.6% | 0hPa | 2.7V | 00:00:00 | 00:00:00 | 08:30:00 | |
| OM5KV | 2026-09-03 02:46:54 | 48.01277 | 14.56602 | 146° | 122km/h | 11170m | 3.8m/s | -52.3°C | 35.8% | 0hPa | 2.7V | 00:00:00 | 00:00:00 | 00:00:00 | |
| DB0NH | 2026-09-03 02:46:53 | 48.01329 | 14.56549 | 146° | 128km/h | 11160m | 4.8m/s | -52.1°C | 41.7% | 0hPa | 2.7V | 00:00:00 | 00:58:11 | 00:00:00 | |
| DG1MFX-10 | 2026-09-03 02:46:52 | 48.01329 | 14.56549 | 146° | 124km/h | 11160m | 4.8m/s | -52.2°C | 35.8% | 0hPa | 2.7V | 00:00:00 | 00:00:00 | 00:00:00 | |
| OE5MMP-10 | 2026-09-03 02:46:51 | 48.01380 | 14.56493 | 144° | 126km/h | 11150m | 4.9m/s | -52.0°C | 42.0% | 0hPa | 2.7V | 00:00:00 | 00:58:09 | 00:00:00 | |
| OE5REO-15 | 2026-09-03 02:46:50 | 48.01380 | 14.56493 | 145° | 128km/h | 11150m | 4.9m/s | -52.1°C | 36.1% | 0hPa | 2.7V | 00:00:00 | 00:00:00 | 00:00:00 | |
| OM5KV | 2026-09-03 02:46:49 | 48.01407 | 14.56465 | 145° | 130km/h | 11145m | 5.2m/s | -52.0°C | 36.2% | 0hPa | 2.7V | 00:00:00 | 00:00:00 | 00:00:00 | |
| S52SK | 2026-09-03 02:46:48 | 48.01434 | 14.56436 | 146° | 131km/h | 11141m | 4.2m/s | -52.0°C | 36.3% | 0hPa | 2.7V | 00:00:00 | 00:00:00 | 00:00:00 | |
| PETON7-10 | 2026-09-03 02:46:47 | 48.01487 | 14.56380 | 145° | 128km/h | 11130m | 4.6m/s | -51.9°C | 42.6% | 0hPa | 2.7V | 00:00:00 | 00:00:00 | 00:00:00 | |
| OM5KV | 2026-09-03 02:46:46 | 48.01486 | 14.56380 | 146° | 124km/h | 11130m | 4.7m/s | -51.9°C | 36.7% | 0hPa | 2.7V | 00:00:00 | 00:00:00 | 00:00:00 | |
| OE5DXL-15 | 2026-09-03 02:46:45 | 48.01538 | 14.56326 | 145° | 128km/h | 11121m | 5.2m/s | -51.8°C | 42.5% | 0hPa | 2.7V | 00:00:00 | 00:00:00 | 00:00:00 | |
| OE5HKT-10 | 2026-09-03 02:46:42 | 48.01614 | 14.56244 | 145° | 128km/h | 11104m | 6.5m/s | -51.7°C | 42.3% | 0hPa | 2.7V | 00:00:00 | 00:58:00 | 00:00:00 | |
| OE5MMP-10 | 2026-09-03 02:46:41 | 48.01640 | 14.56216 | 146° | 130km/h | 11099m | 3.6m/s | -51.6°C | 42.7% | 0hPa | 2.7V | 00:00:00 | 00:57:59 | 00:00:00 | |
| PG1ADW-2 | 2026-09-03 02:46:40 | 48.01667 | 14.56188 | 146° | 128km/h | 11094m | 4.6m/s | -51.6°C | 41.9% | 0hPa | 2.7V | 00:00:00 | 00:00:00 | 00:00:00 | |
| OE8JPQ-2 | 2026-09-03 02:46:39 | 48.01694 | 14.56161 | 146° | 130km/h | 11089m | 6.4m/s | -51.5°C | 42.0% | 0hPa | 2.7V | 00:00:00 | 00:00:00 | 00:00:00 | |
| OE3JTB-15 | 2026-09-03 02:46:38 | 48.01721 | 14.56133 | 146° | 130km/h | 11084m | 3.0m/s | -51.5°C | 42.4% | 0hPa | 2.7V | 00:00:00 | 00:57:56 | 00:00:00 | |
| OM5KV | 2026-09-03 02:46:37 | 48.01721 | 14.56133 | 146° | 130km/h | 11084m | 3.0m/s | -51.5°C | 36.6% | 0hPa | 2.7V | 00:00:00 | 00:00:00 | 00:00:00 | |
| OE5WHR-10 | 2026-09-03 02:46:35 | 48.01801 | 14.56048 | 145° | 128km/h | 11070m | 6.1m/s | -51.4°C | 42.3% | 0hPa | 2.7V | 00:00:00 | 00:00:00 | 00:00:00 | |
| OE5DRO-10 | 2026-09-03 02:46:34 | 48.01828 | 14.56019 | 144° | 128km/h | 11065m | 4.1m/s | -51.3°C | 42.8% | 0hPa | 2.7V | 00:00:00 | 00:00:00 | 08:30:00 | |
| OM5KV | 2026-09-03 02:46:33 | 48.01827 | 14.56020 | 145° | 126km/h | 11065m | 4.1m/s | -51.4°C | 37.0% | 0hPa | 2.7V | 00:00:00 | 00:00:00 | 00:00:00 | |
| PETON7-10 | 2026-09-03 02:46:32 | 48.01879 | 14.55962 | 144° | 128km/h | 11055m | 3.1m/s | -51.3°C | 43.4% | 0hPa | 2.7V | 00:00:00 | 00:00:00 | 00:00:00 | |
| OE5MMP-10 | 2026-09-03 02:46:31 | 48.01905 | 14.55934 | 145° | 128km/h | 11051m | 5.7m/s | -51.2°C | 43.0% | 0hPa | 2.7V | 00:00:00 | 00:57:49 | 00:00:00 | |
| OM5KV | 2026-09-03 02:46:28 | 48.01986 | 14.55853 | 146° | 128km/h | 11036m | 4.3m/s | -51.2°C | 37.2% | 0hPa | 2.7V | 00:00:00 | 00:00:00 | 00:00:00 | |
| NBG1-10 | 2026-09-03 02:46:26 | 48.02038 | 14.55797 | 143° | 124km/h | 11026m | 4.3m/s | 0°C | 0% | 0hPa | 2.7V | 00:00:00 | 00:57:44 | 00:00:00 | |
| OM5KV | 2026-09-03 02:46:25 | 48.02037 | 14.55797 | 144° | 126km/h | 11026m | 4.4m/s | -51.1°C | 37.6% | 0hPa | 2.7V | 00:00:00 | 00:00:00 | 00:00:00 | |
| DB0NH | 2026-09-03 02:46:23 | 48.02115 | 14.55709 | 145° | 130km/h | 11013m | 5.1m/s | -50.9°C | 44.2% | 0hPa | 2.7V | 00:00:00 | 00:57:41 | 00:00:00 | |
| DO3MHA-12 | 2026-09-03 02:46:22 | 48.02142 | 14.55681 | 145° | 128km/h | 11008m | 3.5m/s | -50.9°C | 44.2% | 0hPa | 2.7V | 00:00:00 | 00:57:40 | 00:00:00 | |
| OE5HKT-10 | 2026-09-03 02:46:21 | 48.02168 | 14.55653 | 145° | 130km/h | 11004m | 5.4m/s | -50.9°C | 43.7% | 0hPa | 2.7V | 00:00:00 | 00:00:00 | 00:00:00 | |
| PG1ADW-2 | 2026-09-03 02:46:20 | 48.02195 | 14.55624 | 144° | 130km/h | 10999m | 3.9m/s | -50.8°C | 43.8% | 0hPa | 2.7V | 00:00:00 | 00:00:00 | 00:00:00 | |
| OE5REO-15 | 2026-09-03 02:46:18 | 48.02221 | 14.55595 | 145° | 128km/h | 10995m | 5.4m/s | -50.8°C | 37.8% | 0hPa | 2.7V | 00:00:00 | 00:00:00 | 00:00:00 | |
| OE5FHM-15 | 2026-09-03 02:46:17 | 48.02273 | 14.55538 | 144° | 128km/h | 10985m | 5.1m/s | -50.7°C | 43.3% | 0hPa | 2.7V | 00:00:00 | 00:57:35 | 00:00:00 | |
| OM5KV | 2026-09-03 02:46:16 | 48.02299 | 14.55509 | 144° | 128km/h | 10980m | 4.2m/s | -50.7°C | 37.9% | 0hPa | 2.7V | 00:00:00 | 00:00:00 | 00:00:00 | |
| OE5DXL-15 | 2026-09-03 02:46:15 | 48.02325 | 14.55481 | 144° | 128km/h | 10976m | 5.5m/s | -50.6°C | 43.4% | 0hPa | 2.7V | 00:00:00 | 00:00:00 | 00:00:00 | |
| OE5WHR-10 | 2026-09-03 02:46:14 | 48.02350 | 14.55453 | 144° | 130km/h | 10971m | 4.3m/s | -50.6°C | 43.5% | 0hPa | 2.7V | 00:00:00 | 00:57:32 | 00:00:00 | |
| DO3MHA-12 | 2026-09-03 02:46:12 | 48.02402 | 14.55396 | 145° | 130km/h | 10960m | 3.8m/s | -50.5°C | 43.6% | 0hPa | 2.7V | 00:00:00 | 00:57:30 | 00:00:00 | |
| OE5MMP-10 | 2026-09-03 02:46:11 | 48.02428 | 14.55368 | 146° | 130km/h | 10955m | 6.6m/s | -50.5°C | 43.4% | 0hPa | 2.7V | 00:00:00 | 00:57:29 | 00:00:00 | |
| OM5KV | 2026-09-03 02:46:09 | 48.02455 | 14.55341 | 147° | 130km/h | 10950m | 3.8m/s | -50.5°C | 38.2% | 0hPa | 2.7V | 00:00:00 | 00:00:00 | 00:00:00 | |
| OE3JTB-15 | 2026-09-03 02:46:08 | 48.02509 | 14.55284 | 145° | 128km/h | 10941m | 3.4m/s | -50.4°C | 43.8% | 0hPa | 2.7V | 00:00:00 | 00:00:00 | 00:00:00 | |
| OE3OSB-13 | 2026-09-03 02:46:07 | 48.02536 | 14.55255 | 144° | 130km/h | 10936m | 5.9m/s | -50.4°C | 37.0% | -1.0hPa | 2.7V | 00:00:00 | 00:00:00 | 00:00:00 | |
| OM5KV | 2026-09-03 02:46:04 | 48.02590 | 14.55199 | 146° | 130km/h | 10925m | 4.8m/s | -50.3°C | 37.1% | 0hPa | 2.7V | 00:00:00 | 00:00:00 | 00:00:00 | |
| PETON7-10 | 2026-09-03 02:46:02 | 48.02671 | 14.55115 | 146° | 128km/h | 10909m | 5.4m/s | -50.2°C | 42.0% | 0hPa | 2.7V | 00:00:00 | 00:00:00 | 08:30:00 | |
| OE5MMP-10 | 2026-09-03 02:46:01 | 48.02698 | 14.55088 | 146° | 130km/h | 10903m | 6.7m/s | -50.2°C | 41.9% | 0hPa | 2.7V | 00:00:00 | 00:57:19 | 00:00:00 | |
| OE5HKT-10 | 2026-09-03 02:46:00 | 48.02725 | 14.55060 | 145° | 128km/h | 10897m | 5.5m/s | -50.1°C | 41.8% | 0hPa | 2.7V | 00:00:00 | 00:00:00 | 00:00:00 | |
| OE8JPQ-2 | 2026-09-03 02:45:59 | 48.02751 | 14.55031 | 145° | 128km/h | 10892m | 4.1m/s | -50.1°C | 42.0% | 0hPa | 2.7V | 00:00:00 | 00:57:17 | 00:00:00 | |
| OM5KV | 2026-09-03 02:45:56 | 48.02804 | 14.54974 | 145° | 130km/h | 10883m | 6.3m/s | -50.1°C | 35.8% | 0hPa | 2.7V | 00:00:00 | 00:00:00 | 00:00:00 | |
| OE5WHR-10 | 2026-09-03 02:45:53 | 48.02910 | 14.54859 | 145° | 128km/h | 10862m | 5.5m/s | -49.9°C | 40.9% | 0hPa | 2.7V | 00:00:00 | 00:00:00 | 00:00:00 | |
| OM5KV | 2026-09-03 02:45:52 | 48.02910 | 14.54859 | 145° | 130km/h | 10862m | 5.6m/s | -49.9°C | 35.5% | 0hPa | 2.9V | 00:00:00 | 00:00:00 | 00:00:00 | |
| OE5MMP-10 | 2026-09-03 02:45:51 | 48.02964 | 14.54803 | 146° | 126km/h | 10852m | 4.0m/s | -49.8°C | 41.1% | 0hPa | 2.9V | 00:00:00 | 00:57:09 | 08:30:00 | |
| OM5KV | 2026-09-03 02:45:49 | 48.02990 | 14.54776 | 146° | 128km/h | 10848m | 5.1m/s | -49.8°C | 35.4% | 0hPa | 2.7V | 00:00:00 | 00:00:00 | 00:00:00 | |
| OE5FHM-15 | 2026-09-03 02:45:47 | 48.03069 | 14.54696 | 147° | 126km/h | 10834m | 3.6m/s | -49.6°C | 40.6% | 0hPa | 2.7V | 00:00:00 | 00:57:05 | 08:30:00 | |
| OE5REO-15 | 2026-09-03 02:45:46 | 48.03069 | 14.54696 | 148° | 124km/h | 10834m | 3.7m/s | -49.7°C | 35.3% | 0hPa | 2.7V | 00:00:00 | 00:00:00 | 00:00:00 | |
| OE5DXL-15 | 2026-09-03 02:45:45 | 48.03122 | 14.54644 | 147° | 126km/h | 10823m | 4.1m/s | -49.5°C | 40.4% | 0hPa | 2.7V | 00:00:00 | 00:00:00 | 00:00:00 | |
| OM5KV | 2026-09-03 02:45:43 | 48.03148 | 14.54618 | 148° | 126km/h | 10819m | 5.8m/s | -49.5°C | 34.9% | 0hPa | 2.7V | 00:00:00 | 00:00:00 | 00:00:00 | |
| OM5KV | 2026-09-03 02:45:42 | 48.03175 | 14.54592 | 147° | 126km/h | 10813m | 4.3m/s | -49.5°C | 34.9% | 0hPa | 2.7V | 00:00:00 | 00:00:00 | 00:00:00 | |
| OE5MMP-10 | 2026-09-03 02:45:41 | 48.03228 | 14.54537 | 146° | 128km/h | 10804m | 3.4m/s | -49.4°C | 40.4% | 0hPa | 2.7V | 00:00:00 | 00:56:59 | 00:00:00 | |
| PG1ADW-2 | 2026-09-03 02:45:40 | 48.03255 | 14.54510 | 146° | 128km/h | 10800m | 5.4m/s | -49.3°C | 39.9% | 0hPa | 2.7V | 00:00:00 | 00:56:58 | 00:00:00 | |
| OE5HKT-10 | 2026-09-03 02:45:39 | 48.03282 | 14.54482 | 146° | 126km/h | 10795m | 4.0m/s | -49.3°C | 39.9% | 0hPa | 2.7V | 00:00:00 | 00:56:57 | 00:00:00 | |
| OE3OSB-13 | 2026-09-03 02:45:36 | 48.03360 | 14.54401 | 145° | 124km/h | 10781m | 3.6m/s | -49.2°C | 33.8% | -1.0hPa | 2.7V | 00:00:00 | 00:00:00 | 00:00:00 | |
| OM5KV | 2026-09-03 02:45:35 | 48.03360 | 14.54401 | 147° | 126km/h | 10781m | 3.6m/s | -49.2°C | 34.1% | 0hPa | 2.7V | 00:00:00 | 00:00:00 | 00:00:00 | |
| OE5DRO-10 | 2026-09-03 02:45:34 | 48.03414 | 14.54349 | 149° | 126km/h | 10773m | 4.5m/s | -49.1°C | 38.7% | 0hPa | 2.7V | 00:00:00 | 00:00:00 | 00:00:00 | |
| OM5KV | 2026-09-03 02:45:33 | 48.03414 | 14.54349 | 150° | 128km/h | 10773m | 4.6m/s | -49.2°C | 33.6% | 0hPa | 2.9V | 00:00:00 | 00:00:00 | 00:00:00 | |
| PETON7-10 | 2026-09-03 02:45:32 | 48.03470 | 14.54298 | 148° | 126km/h | 10763m | 4.1m/s | -49.0°C | 38.6% | 0hPa | 2.9V | 00:00:00 | 00:56:50 | 00:00:00 | |
| OE5MMP-10 | 2026-09-03 02:45:31 | 48.03497 | 14.54273 | 149° | 128km/h | 10759m | 3.6m/s | -49.0°C | 38.1% | 0hPa | 2.9V | 00:00:00 | 00:56:49 | 00:00:00 | |
| S52SK | 2026-09-03 02:45:29 | 48.03525 | 14.54247 | 149° | 126km/h | 10755m | 5.9m/s | -49.0°C | 32.9% | 0hPa | 2.9V | 00:00:00 | 00:00:00 | 00:00:00 | |
| OM5KV | 2026-09-03 02:45:28 | 48.03552 | 14.54222 | 148° | 126km/h | 10750m | 3.7m/s | -49.0°C | 32.9% | 0hPa | 2.9V | 00:00:00 | 00:00:00 | 00:00:00 | |
| OM5KV | 2026-09-03 02:45:27 | 48.03579 | 14.54195 | 148° | 128km/h | 10745m | 5.4m/s | -48.9°C | 32.6% | 0hPa | 2.9V | 00:00:00 | 00:00:00 | 00:00:00 | |
| DB0NH | 2026-09-03 02:45:23 | 48.03713 | 14.54063 | 147° | 126km/h | 10722m | 4.0m/s | -48.7°C | 36.4% | 0hPa | 2.9V | 00:00:00 | 00:56:41 | 00:00:00 | |
| OE5MMP-10 | 2026-09-03 02:45:21 | 48.03766 | 14.54012 | 148° | 126km/h | 10712m | 3.6m/s | -48.7°C | 36.3% | 0hPa | 2.9V | 00:00:00 | 00:56:39 | 00:00:00 | |
| PG1ADW-2 | 2026-09-03 02:45:20 | 48.03793 | 14.53987 | 148° | 126km/h | 10707m | 5.5m/s | -48.6°C | 35.6% | 0hPa | 2.7V | 00:00:00 | 00:00:00 | 00:00:00 | |
| OE5HKT-10 | 2026-09-03 02:45:18 | 48.03846 | 14.53935 | 147° | 126km/h | 10698m | 4.7m/s | -48.6°C | 35.0% | 0hPa | 2.7V | 00:00:00 | 00:00:00 | 08:30:00 | |
| OE5FHM-15 | 2026-09-03 02:45:17 | 48.03872 | 14.53908 | 147° | 126km/h | 10693m | 4.9m/s | -48.6°C | 34.7% | 0hPa | 2.7V | 00:00:00 | 00:56:35 | 00:00:00 | |
| OE5DXL-15 | 2026-09-03 02:45:15 | 48.03925 | 14.53856 | 148° | 126km/h | 10682m | 3.9m/s | -48.5°C | 34.5% | 0hPa | 2.7V | 00:00:00 | 00:00:00 | 00:00:00 | |
| OE3JTB-15 | 2026-09-03 02:45:10 | 48.04064 | 14.53729 | 149° | 124km/h | 10659m | 5.0m/s | -48.4°C | 35.1% | 0hPa | 2.7V | 00:00:00 | 00:56:28 | 00:00:00 | |
| OM5KV | 2026-09-03 02:45:07 | 48.04118 | 14.53677 | 148° | 128km/h | 10651m | 3.6m/s | -48.4°C | 30.9% | 0hPa | 2.7V | 00:00:00 | 00:00:00 | 00:00:00 | |
| DO3MHA-12 | 2026-09-03 02:45:05 | 48.04199 | 14.53599 | 147° | 124km/h | 10637m | 5.8m/s | -48.3°C | 36.2% | 0hPa | 2.7V | 00:00:00 | 00:56:23 | 00:00:00 | |
| OM5KV | 2026-09-03 02:45:04 | 48.04199 | 14.53599 | 148° | 124km/h | 10637m | 5.9m/s | -48.3°C | 31.5% | 0hPa | 2.7V | 00:00:00 | 00:00:00 | 00:00:00 | |
| PETON7-10 | 2026-09-03 02:45:02 | 48.04278 | 14.53524 | 148° | 124km/h | 10622m | 5.7m/s | -48.3°C | 37.8% | 0hPa | 2.7V | 00:00:00 | 00:00:00 | 00:00:00 | |
| OE5MMP-10 | 2026-09-03 02:45:01 | 48.04304 | 14.53500 | 148° | 124km/h | 10617m | 3.5m/s | -48.3°C | 38.5% | 0hPa | 2.7V | 00:00:00 | 00:56:19 | 00:00:00 | |
| OM5KV | 2026-09-03 02:45:00 | 48.04330 | 14.53475 | 150° | 124km/h | 10613m | 5.3m/s | -48.3°C | 33.4% | 0hPa | 2.7V | 00:00:00 | 00:00:00 | 00:00:00 | |
| OE5REO-15 | 2026-09-03 02:44:59 | 48.04330 | 14.53475 | 150° | 124km/h | 10613m | 5.3m/s | -48.3°C | 33.4% | 0hPa | 2.7V | 00:00:00 | 00:00:00 | 00:00:00 | |
| OE5HKT-10 | 2026-09-03 02:44:57 | 48.04414 | 14.53403 | 150° | 124km/h | 10599m | 5.4m/s | -48.2°C | 39.9% | 0hPa | 2.7V | 00:00:00 | 00:00:00 | 00:00:00 | |
| OE5DRO-10 | 2026-09-03 02:44:56 | 48.04442 | 14.53379 | 149° | 124km/h | 10594m | 4.6m/s | -48.1°C | 40.8% | 0hPa | 2.7V | 00:00:00 | 00:00:00 | 00:00:00 | |
| DB0NH | 2026-09-03 02:44:53 | 48.04521 | 14.53306 | 149° | 122km/h | 10581m | 4.2m/s | 0°C | 0% | 0hPa | 2.7V | 00:00:00 | 00:56:11 | 00:00:00 | |
| OM5KV | 2026-09-03 02:44:52 | 48.04521 | 14.53306 | 150° | 120km/h | 10581m | 4.2m/s | -48.1°C | 36.2% | 0hPa | 2.7V | 00:00:00 | 00:00:00 | 00:00:00 | |
| OE8JPQ-2 | 2026-09-03 02:44:51 | 48.04573 | 14.53258 | 148° | 122km/h | 10572m | 6.2m/s | -47.9°C | 41.4% | 0hPa | 2.7V | 00:00:00 | 00:56:09 | 00:00:00 | |
| OE5WHR-10 | 2026-09-03 02:44:50 | 48.04600 | 14.53232 | 147° | 124km/h | 10567m | 4.5m/s | -47.9°C | 42.0% | 0hPa | 2.7V | 00:00:00 | 00:00:00 | 00:00:00 | |
| OE5FHM-15 | 2026-09-03 02:44:47 | 48.04679 | 14.53156 | 149° | 122km/h | 10552m | 3.7m/s | -47.8°C | 42.2% | 0hPa | 2.7V | 00:00:00 | 00:56:05 | 00:00:00 | |
| OM5KV | 2026-09-03 02:44:46 | 48.04679 | 14.53156 | 150° | 119km/h | 10552m | 3.7m/s | -47.8°C | 37.1% | 0hPa | 2.7V | 00:00:00 | 00:00:00 | 00:00:00 | |
| OE5DXL-15 | 2026-09-03 02:44:45 | 48.04730 | 14.53109 | 148° | 122km/h | 10543m | 6.6m/s | -47.7°C | 41.9% | 0hPa | 2.7V | 00:00:00 | 00:00:00 | 08:30:00 | |
| OE5REO-15 | 2026-09-03 02:44:43 | 48.04756 | 14.53084 | 148° | 122km/h | 10538m | 3.7m/s | -47.7°C | 37.1% | 0hPa | 2.7V | 00:00:00 | 00:00:00 | 00:00:00 | |
| OE5MMP-10 | 2026-09-03 02:44:41 | 48.04834 | 14.53006 | 146° | 124km/h | 10523m | 5.2m/s | -47.6°C | 41.6% | 0hPa | 2.7V | 00:00:00 | 00:55:59 | 00:00:00 | |
| PG1ADW-2 | 2026-09-03 02:44:40 | 48.04860 | 14.52978 | 145° | 124km/h | 10517m | 4.6m/s | -47.5°C | 41.9% | 0hPa | 2.7V | 00:00:00 | 00:00:00 | 00:00:00 | |
| OM5KV | 2026-09-03 02:44:38 | 48.04887 | 14.52949 | 145° | 128km/h | 10513m | 4.4m/s | -47.6°C | 36.6% | 0hPa | 2.7V | 00:00:00 | 00:00:00 | 00:00:00 | |
| OE5DRO-10 | 2026-09-03 02:44:37 | 48.04939 | 14.52895 | 146° | 122km/h | 10503m | 4.0m/s | -47.4°C | 41.2% | 0hPa | 2.7V | 00:00:00 | 00:00:00 | 00:00:00 | |
| OE5HKT-10 | 2026-09-03 02:44:36 | 48.04965 | 14.52869 | 148° | 122km/h | 10498m | 7.2m/s | -47.4°C | 40.4% | 0hPa | 2.9V | 00:00:00 | 00:55:54 | 00:00:00 | |
| OM5KV | 2026-09-03 02:44:34 | 48.04991 | 14.52845 | 149° | 122km/h | 10492m | 4.1m/s | -47.4°C | 35.9% | 0hPa | 2.9V | 00:00:00 | 00:00:00 | 00:00:00 | |
| OM5KV | 2026-09-03 02:44:33 | 48.05017 | 14.52820 | 149° | 122km/h | 10487m | 6.3m/s | -47.3°C | 35.6% | 0hPa | 2.9V | 00:00:00 | 00:00:00 | 00:00:00 | |
| PETON7-10 | 2026-09-03 02:44:32 | 48.05068 | 14.52769 | 145° | 122km/h | 10477m | 3.7m/s | -47.2°C | 40.4% | 0hPa | 2.9V | 00:00:00 | 00:00:00 | 00:00:00 | |
| OE5MMP-10 | 2026-09-03 02:44:31 | 48.05092 | 14.52742 | 145° | 122km/h | 10472m | 6.8m/s | -47.1°C | 39.8% | 0hPa | 2.9V | 00:00:00 | 00:55:49 | 00:00:00 | |
| OM5KV | 2026-09-03 02:44:29 | 48.05141 | 14.52687 | 143° | 122km/h | 10460m | 5.1m/s | -47.1°C | 35.3% | 0hPa | 2.9V | 00:00:00 | 00:00:00 | 00:00:00 | |
| OE5REO-15 | 2026-09-03 02:44:28 | 48.05141 | 14.52687 | 143° | 122km/h | 10460m | 5.1m/s | -47.1°C | 35.3% | 0hPa | 2.9V | 00:00:00 | 00:00:00 | 00:00:00 | |
| OM5KV | 2026-09-03 02:44:27 | 48.05166 | 14.52660 | 144° | 120km/h | 10454m | 6.7m/s | -47.0°C | 35.4% | 0hPa | 2.9V | 00:00:00 | 00:00:00 | 00:00:00 | |
| OM5KV | 2026-09-03 02:44:24 | 48.05241 | 14.52579 | 146° | 126km/h | 10439m | 5.1m/s | -46.9°C | 35.3% | 0hPa | 2.9V | 00:00:00 | 00:00:00 | 00:00:00 | |
| OE8JPQ-2 | 2026-09-03 02:44:23 | 48.05292 | 14.52524 | 144° | 124km/h | 10430m | 4.8m/s | 0°C | 0% | 0hPa | 2.9V | 00:00:00 | 00:00:00 | 00:00:00 | |
| DB0NH | 2026-09-03 02:44:22 | 48.05317 | 14.52496 | 143° | 124km/h | 10425m | 4.7m/s | 0°C | 0% | 0hPa | 2.9V | 00:00:00 | 00:55:40 | 00:00:00 | |
| DO3MHA-12 | 2026-09-03 02:44:21 | 48.05342 | 14.52467 | 143° | 124km/h | 10421m | 4.5m/s | -46.7°C | 39.8% | 0hPa | 2.9V | 00:00:00 | 00:55:39 | 00:00:00 | |
| OE5DRO-10 | 2026-09-03 02:44:18 | 48.05416 | 14.52383 | 144° | 122km/h | 10406m | 5.2m/s | -46.6°C | 39.4% | 0hPa | 2.9V | 00:00:00 | 00:00:00 | 00:00:00 | |
| PETON7-10 | 2026-09-03 02:44:17 | 48.05441 | 14.52356 | 145° | 124km/h | 10400m | 4.7m/s | -46.5°C | 39.6% | 0hPa | 2.9V | 00:00:00 | 00:00:00 | 00:00:00 | |
| OE5HKT-10 | 2026-09-03 02:44:15 | 48.05490 | 14.52301 | 143° | 124km/h | 10390m | 4.0m/s | -46.4°C | 39.7% | 0hPa | 2.9V | 00:00:00 | 00:00:00 | 00:00:00 | |
| OE3JTB-15 | 2026-09-03 02:44:12 | 48.05565 | 14.52216 | 142° | 124km/h | 10375m | 6.2m/s | -46.3°C | 39.0% | 0hPa | 2.9V | 00:00:00 | 00:00:00 | 00:00:00 | |
| OE5MMP-10 | 2026-09-03 02:44:11 | 48.05590 | 14.52186 | 142° | 124km/h | 10369m | 5.1m/s | -46.3°C | 39.1% | 0hPa | 2.9V | 00:00:00 | 00:55:29 | 00:00:00 | |
| OM5KV | 2026-09-03 02:44:10 | 48.05590 | 14.52186 | 143° | 126km/h | 10369m | 5.1m/s | -46.3°C | 34.5% | 0hPa | 2.9V | 00:00:00 | 00:00:00 | 00:00:00 | |
| DO3MHA-12 | 2026-09-03 02:44:09 | 48.05642 | 14.52127 | 143° | 122km/h | 10358m | 4.5m/s | -46.2°C | 39.1% | 0hPa | 2.9V | 00:00:00 | 00:55:27 | 00:00:00 | |
| OE5WHR-10 | 2026-09-03 02:44:08 | 48.05667 | 14.52099 | 144° | 122km/h | 10353m | 6.2m/s | -46.1°C | 39.0% | 0hPa | 2.9V | 00:00:00 | 00:55:26 | 00:00:00 | |
| OM5KV | 2026-09-03 02:44:04 | 48.05739 | 14.52015 | 142° | 120km/h | 10338m | 4.7m/s | -46.0°C | 33.8% | 0hPa | 2.9V | 00:00:00 | 00:00:00 | 00:00:00 | |
| OE3OSB-13 | 2026-09-03 02:44:03 | 48.05812 | 14.51929 | 141° | 122km/h | 10320m | 4.9m/s | -45.9°C | 33.6% | -1.0hPa | 2.9V | 00:00:00 | 00:00:00 | 00:00:00 | |
| PETON7-10 | 2026-09-03 02:44:02 | 48.05812 | 14.51929 | 142° | 124km/h | 10320m | 4.9m/s | -45.8°C | 38.3% | 0hPa | 2.9V | 00:00:00 | 00:55:20 | 00:00:00 | |
| OE5MMP-10 | 2026-09-03 02:44:01 | 48.05836 | 14.51900 | 142° | 124km/h | 10315m | 3.6m/s | -45.8°C | 38.3% | 0hPa | 2.9V | 00:00:00 | 00:55:19 | 00:00:00 | |
| PG1ADW-2 | 2026-09-03 02:44:00 | 48.05861 | 14.51871 | 143° | 124km/h | 10310m | 6.5m/s | -45.8°C | 38.0% | 0hPa | 2.9V | 00:00:00 | 00:00:00 | 08:30:00 | |
| OE5DRO-10 | 2026-09-03 02:43:59 | 48.05886 | 14.51842 | 142° | 124km/h | 10304m | 5.0m/s | -45.7°C | 38.3% | 0hPa | 2.7V | 00:00:00 | 00:00:00 | 00:00:00 | |
| OM5KV | 2026-09-03 02:43:58 | 48.05886 | 14.51842 | 142° | 126km/h | 10304m | 5.0m/s | -45.8°C | 33.8% | 0hPa | 2.7V | 00:00:00 | 00:00:00 | 00:00:00 | |
| OE5REO-15 | 2026-09-03 02:43:57 | 48.05910 | 14.51812 | 142° | 126km/h | 10300m | 4.0m/s | -45.7°C | 33.9% | 0hPa | 2.7V | 00:00:00 | 00:00:00 | 00:00:00 | |
| OE5HKT-10 | 2026-09-03 02:43:54 | 48.06008 | 14.51696 | 142° | 124km/h | 10281m | 5.6m/s | -45.5°C | 37.8% | 0hPa | 2.7V | 00:00:00 | 00:00:00 | 00:00:00 | |
| OM5KV | 2026-09-03 02:43:53 | 48.06008 | 14.51696 | 142° | 126km/h | 10281m | 5.7m/s | -45.5°C | 33.4% | 0hPa | 2.7V | 00:00:00 | 00:00:00 | 00:00:00 | |
| OE8JPQ-2 | 2026-09-03 02:43:52 | 48.06058 | 14.51636 | 142° | 124km/h | 10271m | 4.8m/s | 0°C | 0% | 0hPa | 2.7V | 00:00:00 | 00:00:00 | 00:00:00 | |
| OE5MMP-10 | 2026-09-03 02:43:51 | 48.06082 | 14.51607 | 141° | 122km/h | 10266m | 5.1m/s | -45.4°C | 37.3% | 0hPa | 2.7V | 00:00:00 | 00:55:09 | 00:00:00 | |
| OM5KV | 2026-09-03 02:43:48 | 48.06130 | 14.51548 | 142° | 122km/h | 10255m | 6.4m/s | -45.3°C | 33.0% | 0hPa | 2.9V | 00:00:00 | 00:00:00 | 00:00:00 | |
| OE5FHM-15 | 2026-09-03 02:43:47 | 48.06177 | 14.51489 | 140° | 124km/h | 10245m | 5.1m/s | -45.2°C | 37.4% | 0hPa | 2.9V | 00:00:00 | 00:55:05 | 00:00:00 | |
| OE5DXL-15 | 2026-09-03 02:43:45 | 48.06224 | 14.51431 | 142° | 126km/h | 10236m | 4.0m/s | -45.1°C | 37.7% | 0hPa | 2.9V | 00:00:00 | 00:00:00 | 00:00:00 | |
| DO3MHA-12 | 2026-09-03 02:43:43 | 48.06273 | 14.51375 | 143° | 124km/h | 10226m | 4.7m/s | -45.0°C | 38.4% | 0hPa | 2.9V | 00:00:00 | 00:55:01 | 00:00:00 | |
| OE5REO-15 | 2026-09-03 02:43:42 | 48.06273 | 14.51375 | 144° | 120km/h | 10226m | 4.8m/s | -45.1°C | 34.0% | 0hPa | 2.9V | 00:00:00 | 00:00:00 | 00:00:00 | |
| OE5MMP-10 | 2026-09-03 02:43:41 | 48.06323 | 14.51319 | 143° | 126km/h | 10217m | 3.7m/s | -45.0°C | 39.6% | 0hPa | 2.9V | 00:00:00 | 00:54:59 | 00:00:00 | |
| PG1ADW-2 | 2026-09-03 02:43:40 | 48.06349 | 14.51289 | 142° | 126km/h | 10213m | 4.1m/s | -45.0°C | 39.5% | 0hPa | 2.9V | 00:00:00 | 00:00:00 | 00:00:00 | |
| OE5DRO-10 | 2026-09-03 02:43:38 | 48.06398 | 14.51228 | 141° | 126km/h | 10204m | 3.9m/s | -44.9°C | 39.6% | 0hPa | 2.9V | 00:00:00 | 00:00:00 | 08:30:00 | |
| OM5KV | 2026-09-03 02:43:36 | 48.06423 | 14.51198 | 142° | 126km/h | 10200m | 4.8m/s | -44.9°C | 34.6% | 0hPa | 2.9V | 00:00:00 | 00:00:00 | 00:00:00 | |
| DO3MHA-12 | 2026-09-03 02:43:33 | 48.06521 | 14.51082 | 144° | 124km/h | 10180m | 5.5m/s | -44.7°C | 40.0% | 0hPa | 2.9V | 00:00:00 | 00:54:51 | 08:30:00 | |
| OE3OSB-13 | 2026-09-03 02:43:32 | 48.06571 | 14.51026 | 142° | 124km/h | 10171m | 5.7m/s | -44.7°C | 35.5% | -1.0hPa | 2.9V | 00:00:00 | 00:00:00 | 00:00:00 | |
| OE5MMP-10 | 2026-09-03 02:43:31 | 48.06571 | 14.51026 | 143° | 126km/h | 10171m | 5.6m/s | -44.6°C | 40.1% | 0hPa | 2.9V | 00:00:00 | 00:54:49 | 00:00:00 | |
| OM5KV | 2026-09-03 02:43:30 | 48.06571 | 14.51026 | 144° | 124km/h | 10171m | 5.7m/s | -44.7°C | 35.7% | 0hPa | 2.9V | 00:00:00 | 00:00:00 | 00:00:00 | |
| OE5REO-15 | 2026-09-03 02:43:27 | 48.06646 | 14.50941 | 145° | 122km/h | 10158m | 5.2m/s | -44.6°C | 36.1% | 0hPa | 2.9V | 00:00:00 | 00:00:00 | 00:00:00 | |
| OE5WHR-10 | 2026-09-03 02:43:26 | 48.06696 | 14.50887 | 145° | 126km/h | 10149m | 4.5m/s | -44.4°C | 40.5% | 0hPa | 2.9V | 00:00:00 | 00:00:00 | 00:00:00 | |
| OM5KV | 2026-09-03 02:43:25 | 48.06696 | 14.50887 | 145° | 126km/h | 10149m | 4.6m/s | -44.5°C | 36.1% | 0hPa | 2.9V | 00:00:00 | 00:00:00 | 00:00:00 | |
| OM5KV | 2026-09-03 02:43:24 | 48.06722 | 14.50859 | 145° | 130km/h | 10144m | 5.5m/s | -44.4°C | 36.5% | 0hPa | 2.9V | 00:00:00 | 00:00:00 | 00:00:00 | |
| DO3MHA-12 | 2026-09-03 02:43:23 | 48.06775 | 14.50802 | 145° | 128km/h | 10135m | 4.5m/s | -44.3°C | 41.7% | 0hPa | 2.9V | 00:00:00 | 00:54:41 | 00:00:00 | |
| DB0NH | 2026-09-03 02:43:22 | 48.06802 | 14.50773 | 144° | 126km/h | 10131m | 4.1m/s | 0°C | 0% | 0hPa | 2.9V | 00:00:00 | 00:54:40 | 00:00:00 | |
| OE5MMP-10 | 2026-09-03 02:43:21 | 48.06829 | 14.50743 | 144° | 126km/h | 10127m | 4.8m/s | -44.3°C | 42.4% | 0hPa | 2.9V | 00:00:00 | 00:54:39 | 00:00:00 | |
| PG1ADW-2 | 2026-09-03 02:43:20 | 48.06855 | 14.50714 | 144° | 126km/h | 10122m | 5.4m/s | -44.3°C | 42.9% | 0hPa | 2.9V | 00:00:00 | 00:00:00 | 00:00:00 | |
| OE5FHM-15 | 2026-09-03 02:43:17 | 48.06932 | 14.50631 | 145° | 128km/h | 10108m | 6.3m/s | -44.2°C | 44.5% | 0hPa | 2.9V | 00:00:00 | 00:54:35 | 00:00:00 | |
| OE5DXL-15 | 2026-09-03 02:43:15 | 48.06984 | 14.50576 | 146° | 126km/h | 10096m | 4.7m/s | -44.1°C | 45.1% | 0hPa | 2.9V | 00:00:00 | 00:00:00 | 00:00:00 | |
| OE3JTB-15 | 2026-09-03 02:43:14 | 48.07010 | 14.50549 | 146° | 126km/h | 10090m | 6.5m/s | -44.1°C | 44.8% | 0hPa | 2.7V | 00:00:00 | 00:00:00 | 08:30:00 | |
| DO3MHA-12 | 2026-09-03 02:43:13 | 48.07036 | 14.50522 | 145° | 124km/h | 10084m | 7.2m/s | -44.0°C | 45.2% | 0hPa | 2.9V | 00:00:00 | 00:54:31 | 00:00:00 | |
| OE5HKT-10 | 2026-09-03 02:43:12 | 48.07060 | 14.50495 | 143° | 126km/h | 10078m | 4.5m/s | -44.0°C | 45.6% | 0hPa | 2.9V | 00:00:00 | 00:00:00 | 00:00:00 | |
| OE5MMP-10 | 2026-09-03 02:43:11 | 48.07084 | 14.50468 | 144° | 126km/h | 10072m | 6.6m/s | -43.9°C | 45.2% | 0hPa | 2.9V | 00:00:00 | 00:54:29 | 00:00:00 | |
| OM5KV | 2026-09-03 02:43:10 | 48.07084 | 14.50468 | 144° | 120km/h | 10072m | 6.7m/s | -44.0°C | 40.6% | 0hPa | 2.9V | 00:00:00 | 00:00:00 | 00:00:00 | |
| OE5WHR-10 | 2026-09-03 02:43:05 | 48.07238 | 14.50299 | 146° | 128km/h | 10027m | 9.2m/s | -43.6°C | 45.9% | 0hPa | 2.9V | 00:00:00 | 00:54:23 | 00:00:00 | |
| OM5KV | 2026-09-03 02:43:04 | 48.07238 | 14.50299 | 147° | 130km/h | 10027m | 9.2m/s | -43.7°C | 41.4% | 0hPa | 2.9V | 00:00:00 | 00:00:00 | 00:00:00 | |
| DO3MHA-12 | 2026-09-03 02:43:03 | 48.07292 | 14.50243 | 145° | 128km/h | 10014m | 5.1m/s | -43.5°C | 46.4% | 0hPa | 2.9V | 00:00:00 | 00:54:21 | 00:00:00 | |
| PETON7-10 | 2026-09-03 02:43:02 | 48.07319 | 14.50215 | 145° | 128km/h | 10008m | 6.8m/s | -43.5°C | 46.1% | 0hPa | 2.7V | 00:00:00 | 00:00:00 | 00:00:00 | |
| OE3OSB-13 | 2026-09-03 02:43:01 | 48.07370 | 14.50161 | 143° | 120km/h | 9996m | 4.6m/s | -43.4°C | 42.0% | -1.0hPa | 2.9V | 00:00:00 | 00:00:00 | 00:00:00 | |
| PG1ADW-2 | 2026-09-03 02:43:00 | 48.07369 | 14.50161 | 144° | 128km/h | 9997m | 4.6m/s | -43.4°C | 46.8% | 0hPa | 2.9V | 00:00:00 | 00:54:18 | 00:00:00 | |
| OE8JPQ-2 | 2026-09-03 02:42:58 | 48.07419 | 14.50106 | 144° | 128km/h | 9985m | 6.0m/s | 0°C | 0% | 0hPa | 2.7V | 00:00:00 | 00:00:00 | 00:00:00 | |
| OE5DRO-10 | 2026-09-03 02:42:57 | 48.07445 | 14.50077 | 144° | 130km/h | 9979m | 3.9m/s | -43.3°C | 47.1% | 0hPa | 2.7V | 00:00:00 | 00:00:00 | 00:00:00 | |
| OE5REO-15 | 2026-09-03 02:42:55 | 48.07471 | 14.50048 | 144° | 131km/h | 9974m | 7.0m/s | -43.3°C | 42.2% | 0hPa | 2.7V | 00:00:00 | 00:00:00 | 00:00:00 | |
| DO3MHA-12 | 2026-09-03 02:42:53 | 48.07551 | 14.49957 | 143° | 128km/h | 9958m | 4.9m/s | -43.1°C | 47.7% | 0hPa | 2.7V | 00:00:00 | 00:54:11 | 00:00:00 | |
| DB0NH | 2026-09-03 02:42:52 | 48.07578 | 14.49927 | 144° | 130km/h | 9953m | 5.0m/s | 0°C | 0% | 0hPa | 2.7V | 00:00:00 | 00:54:10 | 00:00:00 | |
| OE5MMP-10 | 2026-09-03 02:42:51 | 48.07604 | 14.49898 | 144° | 128km/h | 9947m | 6.8m/s | -43.0°C | 47.2% | 0hPa | 2.7V | 00:00:00 | 00:54:09 | 08:30:00 | |
| S52SK | 2026-09-03 02:42:49 | 48.07631 | 14.49869 | 145° | 130km/h | 9941m | 5.1m/s | -43.0°C | 42.7% | 0hPa | 2.9V | 00:00:00 | 00:00:00 | 00:00:00 | |
| OM5KV | 2026-09-03 02:42:48 | 48.07658 | 14.49841 | 145° | 126km/h | 9935m | 7.2m/s | -43.0°C | 42.7% | 0hPa | 2.9V | 00:00:00 | 00:00:00 | 00:00:00 | |
| OE5FHM-15 | 2026-09-03 02:42:47 | 48.07709 | 14.49785 | 144° | 130km/h | 9923m | 6.7m/s | -42.9°C | 47.0% | 0hPa | 2.9V | 00:00:00 | 00:54:05 | 00:00:00 | |
| OE3JTB-15 | 2026-09-03 02:42:45 | 48.07760 | 14.49728 | 144° | 130km/h | 9912m | 6.1m/s | -42.8°C | 46.1% | 0hPa | 2.7V | 00:00:00 | 00:00:00 | 00:00:00 | |
| OE5WHR-10 | 2026-09-03 02:42:44 | 48.07786 | 14.49700 | 145° | 130km/h | 9905m | 6.8m/s | -42.7°C | 46.1% | 0hPa | 2.7V | 00:00:00 | 00:00:00 | 00:00:00 | |
| DO3MHA-12 | 2026-09-03 02:42:43 | 48.07812 | 14.49673 | 145° | 130km/h | 9899m | 4.5m/s | -42.7°C | 46.3% | 0hPa | 2.7V | 00:00:00 | 00:54:01 | 00:00:00 | |
| OM5KV | 2026-09-03 02:42:42 | 48.07812 | 14.49673 | 146° | 126km/h | 9899m | 4.6m/s | -42.7°C | 41.8% | 0hPa | 2.7V | 00:00:00 | 00:00:00 | 00:00:00 | |
| OE5MMP-10 | 2026-09-03 02:42:41 | 48.07864 | 14.49618 | 146° | 130km/h | 9890m | 3.6m/s | -42.6°C | 46.1% | 0hPa | 2.7V | 00:00:00 | 00:53:59 | 00:00:00 | |
| PG1ADW-2 | 2026-09-03 02:42:40 | 48.07892 | 14.49591 | 147° | 130km/h | 9886m | 4.4m/s | -42.5°C | 45.6% | 0hPa | 2.7V | 00:00:00 | 00:00:00 | 00:00:00 | |
| OE8JPQ-2 | 2026-09-03 02:42:38 | 48.07946 | 14.49536 | 146° | 130km/h | 9876m | 5.5m/s | 0°C | 0% | 0hPa | 2.7V | 00:00:00 | 00:00:00 | 00:00:00 | |
| DO3MHA-12 | 2026-09-03 02:42:33 | 48.08080 | 14.49392 | 144° | 130km/h | 9851m | 4.5m/s | -42.3°C | 47.4% | 0hPa | 2.7V | 00:00:00 | 00:53:51 | 00:00:00 | |
| PETON7-10 | 2026-09-03 02:42:32 | 48.08106 | 14.49363 | 145° | 130km/h | 9847m | 3.4m/s | -42.2°C | 47.2% | 0hPa | 2.7V | 00:00:00 | 00:53:50 | 00:00:00 | |
| OE5MMP-10 | 2026-09-03 02:42:31 | 48.08133 | 14.49334 | 145° | 130km/h | 9842m | 5.7m/s | -42.2°C | 47.0% | 0hPa | 2.7V | 00:00:00 | 00:53:49 | 00:00:00 | |
| OE5HKT-10 | 2026-09-03 02:42:30 | 48.08160 | 14.49305 | 145° | 130km/h | 9836m | 4.6m/s | -42.2°C | 47.6% | 0hPa | 2.7V | 00:00:00 | 00:53:48 | 00:00:00 | |
| OE3OSB-13 | 2026-09-03 02:42:29 | 48.08188 | 14.49276 | 144° | 131km/h | 9831m | 4.3m/s | -42.2°C | 42.7% | -1.0hPa | 2.7V | 00:00:00 | 00:00:00 | 00:00:00 | |
| OM5KV | 2026-09-03 02:42:27 | 48.08214 | 14.49247 | 146° | 128km/h | 9826m | 6.3m/s | -42.1°C | 0% | 0hPa | 2.7V | 00:00:00 | 00:00:00 | 00:00:00 | |
| OM5KV | 2026-09-03 02:42:24 | 48.08293 | 14.49167 | 146° | 128km/h | 9809m | 6.0m/s | -42.0°C | 41.5% | 0hPa | 2.7V | 00:00:00 | 00:00:00 | 00:00:00 | |
| DO3MHA-12 | 2026-09-03 02:42:23 | 48.08346 | 14.49110 | 144° | 130km/h | 9797m | 7.1m/s | -41.8°C | 45.2% | 0hPa | 2.7V | 00:00:00 | 00:53:41 | 00:00:00 | |
| OE5MMP-10 | 2026-09-03 02:42:21 | 48.08400 | 14.49051 | 144° | 130km/h | 9784m | 6.6m/s | -41.8°C | 45.8% | 0hPa | 2.7V | 00:00:00 | 00:53:39 | 00:00:00 | |
| PG1ADW-2 | 2026-09-03 02:42:20 | 48.08427 | 14.49023 | 146° | 130km/h | 9778m | 5.4m/s | -41.8°C | 46.3% | 0hPa | 2.7V | 00:00:00 | 00:00:00 | 00:00:00 | |
| OE5DRO-10 | 2026-09-03 02:42:19 | 48.08455 | 14.48995 | 146° | 130km/h | 9773m | 3.9m/s | -41.7°C | 46.1% | 0hPa | 2.7V | 00:00:00 | 00:00:00 | 00:00:00 | |
| OE8JPQ-2 | 2026-09-03 02:42:18 | 48.08482 | 14.48967 | 145° | 130km/h | 9768m | 6.2m/s | 0°C | 0% | 0hPa | 2.7V | 00:00:00 | 00:53:36 | 00:00:00 | |
| OE3JTB-15 | 2026-09-03 02:42:16 | 48.08535 | 14.48909 | 144° | 128km/h | 9758m | 4.2m/s | -41.6°C | 46.1% | 0hPa | 2.7V | 00:00:00 | 00:53:34 | 00:00:00 | |
| OE5DXL-15 | 2026-09-03 02:42:15 | 48.08561 | 14.48880 | 143° | 128km/h | 9754m | 5.1m/s | -41.6°C | 45.6% | 0hPa | 2.7V | 00:00:00 | 00:00:00 | 00:00:00 | |
| OM5KV | 2026-09-03 02:42:14 | 48.08561 | 14.48880 | 144° | 124km/h | 9754m | 5.2m/s | 0°C | 0% | 0hPa | 2.7V | 00:00:00 | 00:00:00 | 00:00:00 | |
| DO3MHA-12 | 2026-09-03 02:42:13 | 48.08612 | 14.48822 | 144° | 130km/h | 9743m | 6.2m/s | -41.5°C | 45.4% | 0hPa | 2.7V | 00:00:00 | 00:53:31 | 00:00:00 | |
| DG1MFX-10 | 2026-09-03 02:42:12 | 48.08612 | 14.48822 | 144° | 130km/h | 9743m | 6.3m/s | -41.5°C | 41.2% | 0hPa | 2.7V | 00:00:00 | 00:00:00 | 00:00:00 | |
| OE5MMP-10 | 2026-09-03 02:42:11 | 48.08665 | 14.48764 | 145° | 130km/h | 9733m | 4.9m/s | -41.4°C | 45.7% | 0hPa | 2.7V | 00:00:00 | 00:53:29 | 00:00:00 | |
| OE5REO-15 | 2026-09-03 02:42:09 | 48.08719 | 14.48706 | 145° | 131km/h | 9724m | 4.2m/s | -41.4°C | 40.8% | 0hPa | 2.7V | 00:00:00 | 00:00:00 | 00:00:00 | |
| OM5KV | 2026-09-03 02:42:08 | 48.08719 | 14.48706 | 145° | 131km/h | 9724m | 4.2m/s | -41.4°C | 0% | 0hPa | 2.7V | 00:00:00 | 00:00:00 | 00:00:00 | |
| DO3MHA-12 | 2026-09-03 02:42:03 | 48.08879 | 14.48540 | 146° | 131km/h | 9694m | 3.2m/s | -41.1°C | 43.4% | 0hPa | 2.7V | 00:00:00 | 00:53:21 | 08:30:00 | |
| OE5WHR-10 | 2026-09-03 02:42:02 | 48.08906 | 14.48513 | 146° | 130km/h | 9689m | 6.4m/s | -41.0°C | 42.4% | 0hPa | 2.7V | 00:00:00 | 00:53:20 | 00:00:00 | |
| OE5MMP-10 | 2026-09-03 02:42:01 | 48.08932 | 14.48486 | 147° | 131km/h | 9683m | 6.1m/s | -41.0°C | 42.2% | 0hPa | 2.7V | 00:00:00 | 00:53:19 | 00:00:00 | |
| OE5DRO-10 | 2026-09-03 02:42:00 | 48.08960 | 14.48459 | 149° | 130km/h | 9676m | 7.0m/s | -40.9°C | 42.0% | 0hPa | 2.7V | 00:00:00 | 00:00:00 | 00:00:00 | |
| OE8JPQ-2 | 2026-09-03 02:41:58 | 48.09016 | 14.48407 | 147° | 131km/h | 9666m | 6.5m/s | 0°C | 0% | 0hPa | 2.7V | 00:00:00 | 00:00:00 | 00:00:00 | |
| OM5KV | 2026-09-03 02:41:57 | 48.09016 | 14.48407 | 148° | 130km/h | 9666m | 6.6m/s | 0°C | 0% | 0hPa | 2.7V | 00:00:00 | 00:00:00 | 00:00:00 | |
| OM5KV | 2026-09-03 02:41:54 | 48.09099 | 14.48321 | 146° | 135km/h | 9649m | 7.4m/s | 0°C | 0% | 0hPa | 2.7V | 00:00:00 | 00:00:00 | 00:00:00 | |
| DO3MHA-12 | 2026-09-03 02:41:53 | 48.09154 | 14.48264 | 145° | 126km/h | 9638m | 5.9m/s | -40.6°C | 40.3% | 0hPa | 2.7V | 00:00:00 | 00:53:11 | 00:00:00 | |
| OE5MMP-10 | 2026-09-03 02:41:51 | 48.09207 | 14.48210 | 148° | 128km/h | 9627m | 6.2m/s | -40.5°C | 40.4% | 0hPa | 2.7V | 00:00:00 | 00:53:09 | 00:00:00 | |
| OM5KV | 2026-09-03 02:41:50 | 48.09207 | 14.48210 | 148° | 124km/h | 9627m | 6.2m/s | 0°C | 0% | 0hPa | 2.7V | 00:00:00 | 00:00:00 | 00:00:00 | |
| OE5HKT-10 | 2026-09-03 02:41:48 | 48.09286 | 14.48135 | 147° | 130km/h | 9609m | 5.5m/s | -40.4°C | 40.9% | 0hPa | 2.7V | 00:00:00 | 00:00:00 | 00:00:00 | |
| OE5FHM-15 | 2026-09-03 02:41:47 | 48.09312 | 14.48109 | 146° | 130km/h | 9603m | 4.8m/s | -40.4°C | 41.5% | 0hPa | 2.7V | 00:00:00 | 00:53:05 | 00:00:00 | |
| OE5DXL-15 | 2026-09-03 02:41:45 | 48.09364 | 14.48053 | 145° | 131km/h | 9593m | 4.0m/s | -40.4°C | 42.1% | 0hPa | 2.7V | 00:00:00 | 00:00:00 | 00:00:00 | |
| DO3MHA-12 | 2026-09-03 02:41:43 | 48.09419 | 14.47995 | 146° | 130km/h | 9583m | 4.7m/s | -40.3°C | 42.8% | 0hPa | 2.9V | 00:00:00 | 00:53:01 | 00:00:00 | |
| OE5WHR-10 | 2026-09-03 02:41:41 | 48.09477 | 14.47939 | 149° | 130km/h | 9573m | 4.8m/s | -40.2°C | 43.4% | 0hPa | 2.9V | 00:00:00 | 00:00:00 | 00:00:00 | |
| PG1ADW-2 | 2026-09-03 02:41:40 | 48.09506 | 14.47913 | 150° | 130km/h | 9568m | 5.0m/s | -40.2°C | 43.4% | 0hPa | 2.7V | 00:00:00 | 00:52:58 | 00:00:00 | |
| OM5KV | 2026-09-03 02:41:39 | 48.09506 | 14.47913 | 150° | 131km/h | 9568m | 5.0m/s | -40.2°C | 0% | 0hPa | 2.7V | 00:00:00 | 00:00:00 | 00:00:00 | |
| OE5REO-15 | 2026-09-03 02:41:38 | 48.09534 | 14.47888 | 150° | 128km/h | 9563m | 4.6m/s | -40.2°C | 39.6% | 0hPa | 2.7V | 00:00:00 | 00:00:00 | 00:00:00 | |
| S52SK | 2026-09-03 02:41:36 | 48.09588 | 14.47840 | 151° | 124km/h | 9553m | 6.6m/s | -40.1°C | 38.3% | 0hPa | 2.7V | 00:00:00 | 00:00:00 | 00:00:00 | |
| DO3MHA-12 | 2026-09-03 02:41:33 | 48.09701 | 14.47738 | 147° | 130km/h | 9529m | 5.5m/s | -39.8°C | 40.9% | 0hPa | 2.7V | 00:00:00 | 00:52:51 | 00:00:00 | |
| PETON7-10 | 2026-09-03 02:41:32 | 48.09729 | 14.47709 | 146° | 130km/h | 9523m | 6.0m/s | -39.7°C | 40.4% | 0hPa | 2.9V | 00:00:00 | 00:00:00 | 08:30:00 | |
| OE5MMP-10 | 2026-09-03 02:41:31 | 48.09757 | 14.47680 | 147° | 128km/h | 9517m | 6.3m/s | -39.7°C | 40.1% | 0hPa | 2.7V | 00:00:00 | 00:52:49 | 00:00:00 | |
| OM5KV | 2026-09-03 02:41:28 | 48.09812 | 14.47627 | 148° | 128km/h | 9505m | 5.2m/s | 0°C | 0% | 0hPa | 2.7V | 00:00:00 | 00:00:00 | 00:00:00 | |
| OE5HKT-10 | 2026-09-03 02:41:27 | 48.09867 | 14.47575 | 149° | 131km/h | 9492m | 6.6m/s | -39.4°C | 38.3% | 0hPa | 2.7V | 00:00:00 | 00:52:45 | 00:00:00 | |
| S52SK | 2026-09-03 02:41:26 | 48.09867 | 14.47575 | 150° | 130km/h | 9492m | 6.7m/s | -39.5°C | 34.8% | 0hPa | 2.7V | 00:00:00 | 00:00:00 | 00:00:00 | |
| DO3MHA-12 | 2026-09-03 02:41:23 | 48.09979 | 14.47477 | 149° | 131km/h | 9467m | 6.5m/s | -39.2°C | 38.0% | 0hPa | 2.7V | 00:00:00 | 00:52:41 | 00:00:00 | |
| OE5DRO-10 | 2026-09-03 02:41:22 | 48.10006 | 14.47451 | 147° | 131km/h | 9461m | 5.8m/s | -39.2°C | 38.1% | 0hPa | 2.7V | 00:00:00 | 00:00:00 | 00:00:00 | |
| OE5MMP-10 | 2026-09-03 02:41:21 | 48.10033 | 14.47424 | 147° | 131km/h | 9455m | 4.8m/s | -39.1°C | 37.6% | 0hPa | 2.7V | 00:00:00 | 00:52:39 | 08:30:00 | |
| OE5WHR-10 | 2026-09-03 02:41:20 | 48.10061 | 14.47396 | 147° | 131km/h | 9450m | 4.4m/s | -39.1°C | 37.3% | 0hPa | 2.9V | 00:00:00 | 00:00:00 | 00:00:00 | |
| OE3JTB-15 | 2026-09-03 02:41:18 | 48.10117 | 14.47341 | 148° | 130km/h | 9442m | 5.0m/s | -39.0°C | 36.3% | 0hPa | 2.9V | 00:00:00 | 00:00:00 | 00:00:00 | |
| OE5FHM-15 | 2026-09-03 02:41:17 | 48.10145 | 14.47314 | 148° | 130km/h | 9437m | 4.3m/s | -39.0°C | 35.5% | 0hPa | 2.9V | 00:00:00 | 00:52:35 | 08:30:00 | |
| OE5DXL-15 | 2026-09-03 02:41:15 | 48.10202 | 14.47261 | 149° | 128km/h | 9427m | 6.3m/s | -38.9°C | 33.9% | 0hPa | 2.9V | 00:00:00 | 00:00:00 | 00:00:00 | |
| DO3MHA-12 | 2026-09-03 02:41:13 | 48.10258 | 14.47210 | 148° | 130km/h | 9416m | 4.0m/s | -38.8°C | 31.9% | 0hPa | 2.9V | 00:00:00 | 00:52:31 | 00:00:00 | |
| OE5MMP-10 | 2026-09-03 02:41:11 | 48.10313 | 14.47156 | 146° | 130km/h | 9406m | 5.7m/s | -38.7°C | 29.3% | 0hPa | 2.9V | 00:00:00 | 00:52:29 | 00:00:00 | |
| OE5HKT-10 | 2026-09-03 02:41:06 | 48.10455 | 14.47020 | 150° | 126km/h | 9382m | 5.1m/s | -38.6°C | 21.3% | 0hPa | 2.9V | 00:00:00 | 00:00:00 | 00:00:00 | |
| PETON7-10 | 2026-09-03 02:41:02 | 48.10565 | 14.46922 | 150° | 128km/h | 9358m | 4.6m/s | -38.4°C | 17.9% | 0hPa | 2.7V | 00:00:00 | 00:52:20 | 00:00:00 | |
| OE3OSB-13 | 2026-09-03 02:40:56 | 48.10733 | 14.46765 | 147° | 133km/h | 9329m | 4.1m/s | -38.3°C | 13.2% | -1.0hPa | 2.7V | 00:00:00 | 00:00:00 | 00:00:00 | |
| DO3MHA-12 | 2026-09-03 02:40:53 | 48.10816 | 14.46687 | 148° | 122km/h | 9315m | 6.0m/s | -38.2°C | 14.7% | 0hPa | 2.7V | 00:00:00 | 00:52:11 | 00:00:00 | |
| OE3JTB-15 | 2026-09-03 02:40:49 | 48.10921 | 14.46591 | 150° | 122km/h | 9297m | 3.6m/s | -38.1°C | 15.1% | 0hPa | 2.7V | 00:00:00 | 00:52:07 | 00:00:00 | |
| OE5FHM-15 | 2026-09-03 02:40:47 | 48.10974 | 14.46540 | 146° | 122km/h | 9288m | 3.7m/s | -38.0°C | 15.3% | 0hPa | 2.7V | 00:00:00 | 00:52:05 | 00:00:00 | |
| OE5HKT-10 | 2026-09-03 02:40:45 | 48.11026 | 14.46489 | 148° | 122km/h | 9279m | 5.1m/s | -38.0°C | 15.2% | 0hPa | 2.7V | 00:00:00 | 00:00:00 | 00:00:00 | |
| OE5DRO-10 | 2026-09-03 02:40:44 | 48.11052 | 14.46464 | 149° | 122km/h | 9274m | 5.0m/s | -38.0°C | 15.4% | 0hPa | 2.7V | 00:00:00 | 00:00:00 | 08:30:00 | |
| DO3MHA-12 | 2026-09-03 02:40:43 | 48.11078 | 14.46440 | 148° | 124km/h | 9270m | 3.4m/s | -38.0°C | 15.5% | 0hPa | 2.7V | 00:00:00 | 00:52:01 | 00:00:00 | |
| OE5MMP-10 | 2026-09-03 02:40:41 | 48.11130 | 14.46390 | 148° | 126km/h | 9261m | 3.3m/s | -38.1°C | 15.9% | 0hPa | 2.7V | 00:00:00 | 00:51:59 | 00:00:00 | |
| PG1ADW-2 | 2026-09-03 02:40:40 | 48.11156 | 14.46364 | 148° | 122km/h | 9257m | 5.0m/s | -38.0°C | 15.9% | 0hPa | 2.7V | 00:00:00 | 00:00:00 | 00:00:00 | |
| OE5WHR-10 | 2026-09-03 02:40:38 | 48.11208 | 14.46312 | 146° | 120km/h | 9247m | 5.5m/s | -38.1°C | 16.3% | 0hPa | 2.7V | 00:00:00 | 00:00:00 | 08:30:00 | |
| OE5REO-15 | 2026-09-03 02:40:35 | 48.11260 | 14.46259 | 146° | 126km/h | 9239m | 5.4m/s | -38.1°C | 14.1% | 0hPa | 2.9V | 00:00:00 | 00:00:00 | 00:00:00 | |
| DO3MHA-12 | 2026-09-03 02:40:33 | 48.11339 | 14.46175 | 144° | 120km/h | 9225m | 5.1m/s | -38.1°C | 16.4% | 0hPa | 2.9V | 00:00:00 | 00:51:51 | 08:30:00 | |
| PETON7-10 | 2026-09-03 02:40:32 | 48.11365 | 14.46147 | 145° | 119km/h | 9220m | 5.0m/s | -38.1°C | 16.2% | 0hPa | 2.9V | 00:00:00 | 00:00:00 | 00:00:00 | |
| OE5MMP-10 | 2026-09-03 02:40:31 | 48.11391 | 14.46120 | 146° | 119km/h | 9215m | 5.1m/s | -38.0°C | 16.4% | 0hPa | 2.9V | 00:00:00 | 00:51:49 | 00:00:00 | |
| OE5DRO-10 | 2026-09-03 02:40:25 | 48.11542 | 14.45969 | 149° | 115km/h | 9188m | 5.4m/s | -37.9°C | 16.7% | 0hPa | 2.9V | 00:00:00 | 00:00:00 | 00:00:00 | |
| OE5HKT-10 | 2026-09-03 02:40:24 | 48.11567 | 14.45947 | 150° | 115km/h | 9184m | 3.8m/s | -37.8°C | 16.9% | 0hPa | 2.9V | 00:00:00 | 00:51:42 | 00:00:00 | |
| DO3MHA-12 | 2026-09-03 02:40:23 | 48.11593 | 14.45924 | 149° | 117km/h | 9180m | 3.7m/s | -37.8°C | 16.8% | 0hPa | 2.9V | 00:00:00 | 00:51:41 | 00:00:00 | |
| OE5MMP-10 | 2026-09-03 02:40:21 | 48.11643 | 14.45875 | 147° | 115km/h | 9172m | 3.8m/s | -37.7°C | 17.1% | 0hPa | 2.9V | 00:00:00 | 00:51:39 | 00:00:00 | |
| OE3JTB-15 | 2026-09-03 02:40:20 | 48.11668 | 14.45851 | 147° | 111km/h | 9167m | 5.1m/s | -37.7°C | 17.1% | 0hPa | 2.9V | 00:00:00 | 00:00:00 | 00:00:00 | |
| OE5REO-15 | 2026-09-03 02:40:19 | 48.11668 | 14.45851 | 147° | 115km/h | 9167m | 5.1m/s | -37.8°C | 14.9% | 0hPa | 2.9V | 00:00:00 | 00:00:00 | 00:00:00 | |
| NBG1-10 | 2026-09-03 02:40:18 | 48.11717 | 14.45803 | 148° | 102km/h | 9158m | 5.2m/s | 0°C | 0% | 0hPa | 2.9V | 00:00:00 | 00:51:36 | 00:00:00 | |
| OE5WHR-10 | 2026-09-03 02:40:17 | 48.11742 | 14.45779 | 147° | 111km/h | 9154m | 4.2m/s | -37.6°C | 17.4% | 0hPa | 2.9V | 00:00:00 | 00:00:00 | 00:00:00 | |
| OE5DXL-15 | 2026-09-03 02:40:15 | 48.11790 | 14.45730 | 147° | 110km/h | 9144m | 3.7m/s | -37.5°C | 17.4% | 0hPa | 2.9V | 00:00:00 | 00:51:33 | 08:30:00 | |
| DO3MHA-12 | 2026-09-03 02:40:13 | 48.11838 | 14.45685 | 149° | 115km/h | 9135m | 4.1m/s | -37.5°C | 17.8% | 0hPa | 2.9V | 00:00:00 | 00:51:31 | 00:00:00 | |
| OE5MMP-10 | 2026-09-03 02:40:11 | 48.11887 | 14.45639 | 149° | 115km/h | 9124m | 4.6m/s | -37.4°C | 18.6% | 0hPa | 2.9V | 00:00:00 | 00:51:29 | 00:00:00 | |
| S52SK | 2026-09-03 02:40:08 | 48.11936 | 14.45594 | 149° | 113km/h | 9114m | 6.4m/s | -37.4°C | 17.1% | 0hPa | 2.9V | 00:00:00 | 00:00:00 | 00:00:00 | |
| OE5DRO-10 | 2026-09-03 02:40:06 | 48.12009 | 14.45525 | 147° | 108km/h | 9100m | 3.1m/s | -37.3°C | 20.2% | 0hPa | 2.9V | 00:00:00 | 00:00:00 | 00:00:00 | |
| OE5REO-15 | 2026-09-03 02:40:04 | 48.12058 | 14.45475 | 146° | 119km/h | 9092m | 3.0m/s | -37.3°C | 18.5% | 0hPa | 2.9V | 00:00:00 | 00:00:00 | 00:00:00 | |
| DO3MHA-12 | 2026-09-03 02:40:03 | 48.12082 | 14.45450 | 146° | 104km/h | 9088m | 4.6m/s | -37.2°C | 20.7% | 0hPa | 2.9V | 00:00:00 | 00:51:21 | 00:00:00 | |
| PETON7-10 | 2026-09-03 02:40:02 | 48.12108 | 14.45426 | 149° | 104km/h | 9084m | 4.7m/s | -37.2°C | 21.5% | 0hPa | 2.9V | 00:00:00 | 00:00:00 | 00:00:00 | |
| OE3OSB-13 | 2026-09-03 02:39:54 | 48.12284 | 14.45265 | 145° | 102km/h | 9039m | 10.1m/s | -37.0°C | 22.6% | -1.0hPa | 2.7V | 00:00:00 | 00:00:00 | 00:00:00 | |
| DO3MHA-12 | 2026-09-03 02:39:53 | 48.12306 | 14.45242 | 145° | 104km/h | 9030m | 8.8m/s | -36.9°C | 26.5% | 0hPa | 2.7V | 00:00:00 | 00:51:11 | 00:00:00 | |
| OE5MMP-10 | 2026-09-03 02:39:51 | 48.12350 | 14.45195 | 145° | 102km/h | 9015m | 7.5m/s | -36.9°C | 28.4% | 0hPa | 2.7V | 00:00:00 | 00:51:09 | 08:30:00 | |
| OE5REO-15 | 2026-09-03 02:39:48 | 48.12393 | 14.45150 | 146° | 106km/h | 9004m | 4.9m/s | -36.9°C | 28.3% | 0hPa | 2.9V | 00:00:00 | 00:00:00 | 00:00:00 | |
| OE5FHM-15 | 2026-09-03 02:39:47 | 48.12438 | 14.45104 | 146° | 93km/h | 8993m | 4.9m/s | -36.8°C | 35.5% | 0hPa | 2.9V | 00:00:00 | 00:51:05 | 00:00:00 | |
| OE5DXL-15 | 2026-09-03 02:39:45 | 48.12482 | 14.45059 | 147° | 91km/h | 8983m | 4.2m/s | -36.8°C | 42.1% | 0hPa | 2.9V | 00:00:00 | 00:00:00 | 00:00:00 | |
| DO3MHA-12 | 2026-09-03 02:39:43 | 48.12525 | 14.45022 | 153° | 95km/h | 8974m | 3.0m/s | -36.8°C | 44.9% | 0hPa | 2.9V | 00:00:00 | 00:51:01 | 00:00:00 | |
| OE5HKT-10 | 2026-09-03 02:39:42 | 48.12547 | 14.45005 | 153° | 91km/h | 8971m | 4.2m/s | -36.8°C | 47.2% | 0hPa | 2.9V | 00:00:00 | 00:00:00 | 00:00:00 | |
| OE5MMP-10 | 2026-09-03 02:39:41 | 48.12568 | 14.44988 | 151° | 93km/h | 8967m | 3.3m/s | -36.8°C | 49.1% | 0hPa | 2.9V | 00:00:00 | 00:50:59 | 00:00:00 | |
| PG1ADW-2 | 2026-09-03 02:39:40 | 48.12590 | 14.44969 | 149° | 91km/h | 8962m | 5.2m/s | -36.8°C | 50.4% | 0hPa | 2.9V | 00:00:00 | 00:00:00 | 00:00:00 | |
| OE5WHR-10 | 2026-09-03 02:39:35 | 48.12689 | 14.44866 | 143° | 89km/h | 8928m | 5.9m/s | -36.6°C | 53.3% | 0hPa | 2.9V | 00:00:00 | 00:00:00 | 00:00:00 | |
| DO3MHA-12 | 2026-09-03 02:39:33 | 48.12723 | 14.44826 | 142° | 89km/h | 8915m | 5.9m/s | -36.5°C | 55.0% | 0hPa | 2.9V | 00:00:00 | 00:50:51 | 00:00:00 | |
| PETON7-10 | 2026-09-03 02:39:32 | 48.12741 | 14.44805 | 143° | 89km/h | 8909m | 5.5m/s | -36.4°C | 55.2% | 0hPa | 2.9V | 00:00:00 | 00:50:50 | 00:00:00 | |
| OE5MMP-10 | 2026-09-03 02:39:31 | 48.12759 | 14.44784 | 144° | 89km/h | 8904m | 4.1m/s | -36.4°C | 56.3% | 0hPa | 2.9V | 00:00:00 | 00:50:49 | 00:00:00 | |
| OE5DRO-10 | 2026-09-03 02:39:28 | 48.12814 | 14.44722 | 143° | 89km/h | 8893m | 3.3m/s | -36.3°C | 56.5% | 0hPa | 2.9V | 00:00:00 | 00:00:00 | 00:00:00 | |
| DO3MHA-12 | 2026-09-03 02:39:23 | 48.12903 | 14.44618 | 142° | 89km/h | 8871m | 4.8m/s | -36.1°C | 57.2% | 0hPa | 2.9V | 00:00:00 | 00:50:41 | 00:00:00 | |
| OE3JTB-15 | 2026-09-03 02:39:22 | 48.12921 | 14.44597 | 142° | 88km/h | 8867m | 3.9m/s | -36.0°C | 57.2% | 0hPa | 2.9V | 00:00:00 | 00:50:40 | 00:00:00 | |
| OE5MMP-10 | 2026-09-03 02:39:21 | 48.12938 | 14.44576 | 141° | 89km/h | 8862m | 5.6m/s | -36.0°C | 56.8% | 0hPa | 2.9V | 00:00:00 | 00:50:39 | 00:00:00 | |
| PG1ADW-2 | 2026-09-03 02:39:20 | 48.12956 | 14.44554 | 140° | 88km/h | 8857m | 3.7m/s | -35.9°C | 57.3% | 0hPa | 2.9V | 00:00:00 | 00:00:00 | 00:00:00 | |
| OE5FHM-15 | 2026-09-03 02:39:17 | 48.13008 | 14.44491 | 142° | 88km/h | 8843m | 5.2m/s | -35.8°C | 57.3% | 0hPa | 2.9V | 00:00:00 | 00:50:35 | 00:00:00 | |
| OE5REO-15 | 2026-09-03 02:39:16 | 48.13008 | 14.44491 | 142° | 89km/h | 8843m | 5.2m/s | -35.9°C | 53.4% | 0hPa | 2.9V | 00:00:00 | 00:00:00 | 00:00:00 | |
| OE5DXL-15 | 2026-09-03 02:39:15 | 48.13045 | 14.44449 | 145° | 88km/h | 8835m | 5.4m/s | -35.7°C | 57.1% | 0hPa | 2.9V | 00:00:00 | 00:00:00 | 00:00:00 | |
| OE5WHR-10 | 2026-09-03 02:39:14 | 48.13063 | 14.44430 | 146° | 88km/h | 8830m | 3.4m/s | -35.7°C | 57.2% | 0hPa | 2.9V | 00:00:00 | 00:00:00 | 00:00:00 | |
| DO3MHA-12 | 2026-09-03 02:39:13 | 48.13082 | 14.44410 | 144° | 86km/h | 8826m | 4.5m/s | -35.6°C | 57.1% | 0hPa | 2.9V | 00:00:00 | 00:50:31 | 00:00:00 | |
| OE5MMP-10 | 2026-09-03 02:39:11 | 48.13117 | 14.44368 | 140° | 86km/h | 8818m | 5.0m/s | -35.6°C | 56.1% | 0hPa | 2.9V | 00:00:00 | 00:50:29 | 00:00:00 | |
| OE5DRO-10 | 2026-09-03 02:39:09 | 48.13150 | 14.44323 | 138° | 88km/h | 8806m | 6.0m/s | -35.5°C | 55.3% | 0hPa | 2.9V | 00:00:00 | 00:00:00 | 00:00:00 | |
| PETON7-10 | 2026-09-03 02:39:02 | 48.13267 | 14.44180 | 140° | 89km/h | 8772m | 5.2m/s | -35.1°C | 55.0% | 0hPa | 2.9V | 00:00:00 | 00:00:00 | 00:00:00 | |
| OE3OSB-13 | 2026-09-03 02:38:52 | 48.13437 | 14.43963 | 139° | 88km/h | 8722m | 5.4m/s | -34.8°C | 51.6% | -1.0hPa | 2.9V | 00:00:00 | 00:00:00 | 00:00:00 | |
| OE5MMP-10 | 2026-09-03 02:38:51 | 48.13454 | 14.43941 | 140° | 88km/h | 8717m | 4.9m/s | -34.7°C | 55.8% | 0hPa | 2.9V | 00:00:00 | 00:50:09 | 00:00:00 | |
| OE5DRO-10 | 2026-09-03 02:38:50 | 48.13471 | 14.43919 | 141° | 88km/h | 8713m | 4.3m/s | -34.7°C | 56.7% | 0hPa | 2.7V | 00:00:00 | 00:00:00 | 00:00:00 | |
| S52SK | 2026-09-03 02:38:48 | 48.13506 | 14.43877 | 142° | 91km/h | 8703m | 3.0m/s | -34.6°C | 53.5% | 0hPa | 2.9V | 00:00:00 | 00:00:00 | 00:00:00 | |
| OE5FHM-15 | 2026-09-03 02:38:47 | 48.13524 | 14.43855 | 141° | 88km/h | 8699m | 4.9m/s | -34.5°C | 56.9% | 0hPa | 2.9V | 00:00:00 | 00:50:05 | 00:00:00 | |
| OE5DXL-15 | 2026-09-03 02:38:45 | 48.13558 | 14.43811 | 138° | 86km/h | 8691m | 4.9m/s | -34.5°C | 56.5% | 0hPa | 2.9V | 00:00:00 | 00:00:00 | 00:00:00 | |
| DO3MHA-12 | 2026-09-03 02:38:43 | 48.13590 | 14.43765 | 136° | 86km/h | 8683m | 4.8m/s | -34.4°C | 56.1% | 0hPa | 2.9V | 00:00:00 | 00:50:01 | 00:00:00 | |
| OE5MMP-10 | 2026-09-03 02:38:41 | 48.13621 | 14.43722 | 138° | 88km/h | 8675m | 5.1m/s | -34.3°C | 54.9% | 0hPa | 2.9V | 00:00:00 | 00:49:59 | 00:00:00 | |
| PG1ADW-2 | 2026-09-03 02:38:40 | 48.13636 | 14.43701 | 139° | 88km/h | 8670m | 4.5m/s | -34.3°C | 54.5% | 0hPa | 2.9V | 00:00:00 | 00:00:00 | 00:00:00 | |
| OE5HKT-10 | 2026-09-03 02:38:39 | 48.13653 | 14.43680 | 140° | 88km/h | 8665m | 5.1m/s | -34.2°C | 53.5% | 0hPa | 2.9V | 00:00:00 | 00:00:00 | 00:00:00 | |
| DO3MHA-12 | 2026-09-03 02:38:33 | 48.13759 | 14.43555 | 138° | 86km/h | 8637m | 5.0m/s | -34.0°C | 54.4% | 0hPa | 2.9V | 00:00:00 | 00:49:51 | 00:00:00 | |
| PETON7-10 | 2026-09-03 02:38:32 | 48.13776 | 14.43532 | 137° | 86km/h | 8632m | 4.5m/s | -34.0°C | 54.2% | 0hPa | 2.9V | 00:00:00 | 00:00:00 | 00:00:00 | |
| OE5MMP-10 | 2026-09-03 02:38:31 | 48.13791 | 14.43510 | 135° | 86km/h | 8627m | 4.9m/s | -33.9°C | 53.8% | 0hPa | 2.7V | 00:00:00 | 00:49:49 | 00:00:00 | |
| OE5REO-15 | 2026-09-03 02:38:29 | 48.13805 | 14.43489 | 136° | 80km/h | 8622m | 5.8m/s | -33.9°C | 49.9% | 0hPa | 2.7V | 00:00:00 | 00:00:00 | 00:00:00 | |
| OE3JTB-15 | 2026-09-03 02:38:24 | 48.13904 | 14.43364 | 142° | 86km/h | 8590m | 3.0m/s | -33.7°C | 56.5% | 0hPa | 2.7V | 00:00:00 | 00:00:00 | 00:00:00 | |
| DO3MHA-12 | 2026-09-03 02:38:23 | 48.13922 | 14.43343 | 141° | 88km/h | 8585m | 5.5m/s | -33.6°C | 56.2% | 0hPa | 2.7V | 00:00:00 | 00:49:41 | 00:00:00 | |
| OE5MMP-10 | 2026-09-03 02:38:21 | 48.13956 | 14.43297 | 137° | 86km/h | 8577m | 3.6m/s | -33.6°C | 56.8% | 0hPa | 2.7V | 00:00:00 | 00:49:39 | 08:30:00 | |
| PG1ADW-2 | 2026-09-03 02:38:20 | 48.13973 | 14.43273 | 136° | 86km/h | 8573m | 4.4m/s | -33.6°C | 57.4% | 0hPa | 2.9V | 00:00:00 | 00:00:00 | 00:00:00 | |
| OE5FHM-15 | 2026-09-03 02:38:17 | 48.14019 | 14.43207 | 138° | 88km/h | 8561m | 3.7m/s | -33.5°C | 57.4% | 0hPa | 2.9V | 00:00:00 | 00:49:35 | 00:00:00 | |
| OE5DXL-15 | 2026-09-03 02:38:15 | 48.14052 | 14.43163 | 139° | 86km/h | 8551m | 3.8m/s | -33.4°C | 57.2% | 0hPa | 2.9V | 00:00:00 | 00:00:00 | 00:00:00 | |
| DO3MHA-12 | 2026-09-03 02:38:13 | 48.14084 | 14.43118 | 137° | 84km/h | 8543m | 4.0m/s | -33.3°C | 56.5% | 0hPa | 2.9V | 00:00:00 | 00:49:31 | 00:00:00 | |
| OE5DRO-10 | 2026-09-03 02:38:12 | 48.14100 | 14.43096 | 138° | 86km/h | 8538m | 5.4m/s | -33.3°C | 56.0% | 0hPa | 2.9V | 00:00:00 | 00:00:00 | 00:00:00 | |
| OE5MMP-10 | 2026-09-03 02:38:11 | 48.14116 | 14.43075 | 140° | 86km/h | 8533m | 4.5m/s | -33.2°C | 56.2% | 0hPa | 2.9V | 00:00:00 | 00:49:29 | 00:00:00 | |
| DO3MHA-12 | 2026-09-03 02:38:03 | 48.14245 | 14.42906 | 138° | 88km/h | 8496m | 2.7m/s | -32.9°C | 55.2% | 0hPa | 2.9V | 00:00:00 | 00:49:21 | 00:00:00 | |
| PETON7-10 | 2026-09-03 02:38:02 | 48.14262 | 14.42883 | 139° | 88km/h | 8491m | 5.7m/s | -32.8°C | 54.0% | 0hPa | 2.9V | 00:00:00 | 00:49:20 | 00:00:00 | |
| OE5MMP-10 | 2026-09-03 02:38:01 | 48.14279 | 14.42861 | 140° | 88km/h | 8486m | 4.6m/s | -32.8°C | 54.3% | 0hPa | 2.9V | 00:00:00 | 00:49:19 | 00:00:00 | |
| PG1ADW-2 | 2026-09-03 02:38:00 | 48.14296 | 14.42840 | 139° | 88km/h | 8482m | 4.2m/s | -32.8°C | 53.9% | 0hPa | 2.9V | 00:00:00 | 00:00:00 | 08:30:00 | |
| OE5REO-15 | 2026-09-03 02:37:57 | 48.14330 | 14.42797 | 142° | 86km/h | 8473m | 5.7m/s | -32.7°C | 49.9% | 0hPa | 2.7V | 00:00:00 | 00:00:00 | 00:00:00 | |
| OE3JTB-15 | 2026-09-03 02:37:55 | 48.14379 | 14.42733 | 137° | 89km/h | 8458m | 3.9m/s | -32.5°C | 53.2% | 0hPa | 2.7V | 00:00:00 | 00:49:13 | 00:00:00 | |
| DO3MHA-12 | 2026-09-03 02:37:53 | 48.14413 | 14.42688 | 139° | 88km/h | 8448m | 4.6m/s | -32.4°C | 53.4% | 0hPa | 2.7V | 00:00:00 | 00:49:11 | 00:00:00 | |
| OE5MMP-10 | 2026-09-03 02:37:51 | 48.14445 | 14.42644 | 137° | 88km/h | 8437m | 5.6m/s | -32.4°C | 53.7% | 0hPa | 2.7V | 00:00:00 | 00:49:09 | 00:00:00 | |
| OE5WHR-10 | 2026-09-03 02:37:50 | 48.14461 | 14.42622 | 138° | 89km/h | 8433m | 3.9m/s | -32.3°C | 54.0% | 0hPa | 2.9V | 00:00:00 | 00:49:08 | 00:00:00 | |
| PETON7-10 | 2026-09-03 02:37:47 | 48.14512 | 14.42557 | 142° | 89km/h | 8419m | 4.9m/s | -32.3°C | 55.7% | 0hPa | 2.9V | 00:00:00 | 00:00:00 | 00:00:00 | |
| OE5DXL-15 | 2026-09-03 02:37:45 | 48.14546 | 14.42515 | 140° | 89km/h | 8411m | 5.7m/s | -32.2°C | 54.9% | 0hPa | 2.9V | 00:00:00 | 00:00:00 | 00:00:00 | |
| OE5HKT-10 | 2026-09-03 02:37:44 | 48.14563 | 14.42493 | 138° | 89km/h | 8405m | 5.0m/s | -32.1°C | 55.1% | 0hPa | 2.9V | 00:00:00 | 00:49:02 | 00:00:00 | |
| DO3MHA-12 | 2026-09-03 02:37:43 | 48.14580 | 14.42470 | 138° | 91km/h | 8400m | 5.3m/s | -32.1°C | 55.0% | 0hPa | 2.9V | 00:00:00 | 00:49:01 | 00:00:00 | |
| OE5REO-15 | 2026-09-03 02:37:42 | 48.14580 | 14.42470 | 139° | 93km/h | 8400m | 5.4m/s | -32.1°C | 51.7% | 0hPa | 2.9V | 00:00:00 | 00:00:00 | 00:00:00 | |
| OE5FHM-15 | 2026-09-03 02:37:41 | 48.14614 | 14.42423 | 137° | 89km/h | 8391m | 5.7m/s | -32.0°C | 54.6% | 0hPa | 2.9V | 00:00:00 | 00:48:59 | 00:00:00 | |
| PG1ADW-2 | 2026-09-03 02:37:40 | 48.14630 | 14.42399 | 136° | 89km/h | 8387m | 3.7m/s | -32.0°C | 55.0% | 0hPa | 2.9V | 00:00:00 | 00:48:58 | 00:00:00 | |
| OE5DRO-10 | 2026-09-03 02:37:34 | 48.14732 | 14.42261 | 141° | 89km/h | 8359m | 5.7m/s | -31.7°C | 54.5% | 0hPa | 2.9V | 00:00:00 | 00:00:00 | 00:00:00 | |
| DO3MHA-12 | 2026-09-03 02:37:33 | 48.14750 | 14.42238 | 140° | 89km/h | 8354m | 3.0m/s | -31.7°C | 54.7% | 0hPa | 2.9V | 00:00:00 | 00:48:51 | 08:30:00 | |
| PETON7-10 | 2026-09-03 02:37:32 | 48.14767 | 14.42215 | 139° | 89km/h | 8350m | 6.1m/s | -31.6°C | 54.5% | 0hPa | 2.9V | 00:00:00 | 00:00:00 | 00:00:00 | |
| OE5MMP-10 | 2026-09-03 02:37:31 | 48.14785 | 14.42192 | 137° | 89km/h | 8345m | 3.7m/s | -31.6°C | 54.9% | 0hPa | 2.9V | 00:00:00 | 00:48:49 | 00:00:00 | |
| OE5WHR-10 | 2026-09-03 02:37:29 | 48.14817 | 14.42144 | 136° | 88km/h | 8336m | 4.6m/s | -31.5°C | 53.8% | 0hPa | 2.9V | 00:00:00 | 00:00:00 | 08:30:00 | |
| S52SK | 2026-09-03 02:37:28 | 48.14817 | 14.42144 | 137° | 86km/h | 8336m | 4.7m/s | -31.5°C | 50.7% | 0hPa | 2.7V | 00:00:00 | 00:00:00 | 00:00:00 | |
| OE3JTB-15 | 2026-09-03 02:37:26 | 48.14865 | 14.42079 | 139° | 89km/h | 8321m | 4.6m/s | -31.3°C | 52.9% | 0hPa | 2.7V | 00:00:00 | 00:00:00 | 00:00:00 | |
| OE5HKT-10 | 2026-09-03 02:37:23 | 48.14914 | 14.42008 | 136° | 88km/h | 8304m | 5.4m/s | -31.2°C | 51.6% | 0hPa | 2.9V | 00:00:00 | 00:00:00 | 00:00:00 | |
| OE5MMP-10 | 2026-09-03 02:37:21 | 48.14947 | 14.41962 | 137° | 89km/h | 8293m | 3.9m/s | -31.1°C | 51.7% | 0hPa | 2.9V | 00:00:00 | 00:48:39 | 00:00:00 | |
| OE3OSB-13 | 2026-09-03 02:37:19 | 48.14998 | 14.41890 | 136° | 89km/h | 8279m | 4.9m/s | -31.1°C | 49.1% | -1.0hPa | 2.7V | 00:00:00 | 00:00:00 | 00:00:00 | |
| PETON7-10 | 2026-09-03 02:37:17 | 48.15015 | 14.41867 | 138° | 88km/h | 8275m | 3.1m/s | -31.0°C | 52.9% | 0hPa | 2.7V | 00:00:00 | 00:48:35 | 00:00:00 | |
| DO3MHA-12 | 2026-09-03 02:37:13 | 48.15081 | 14.41777 | 138° | 88km/h | 8258m | 4.3m/s | -30.9°C | 54.8% | 0hPa | 2.7V | 00:00:00 | 00:48:31 | 00:00:00 | |
| OE5MMP-10 | 2026-09-03 02:37:11 | 48.15113 | 14.41734 | 137° | 88km/h | 8248m | 4.6m/s | -30.9°C | 56.6% | 0hPa | 2.7V | 00:00:00 | 00:48:29 | 00:00:00 | |
| OE5WHR-10 | 2026-09-03 02:37:08 | 48.15159 | 14.41662 | 134° | 89km/h | 8235m | 4.0m/s | -30.9°C | 58.1% | 0hPa | 2.7V | 00:00:00 | 00:00:00 | 00:00:00 | |
| DO3MHA-12 | 2026-09-03 02:37:03 | 48.15240 | 14.41547 | 139° | 89km/h | 8200m | 7.0m/s | -30.6°C | 58.0% | 0hPa | 2.7V | 00:00:00 | 00:48:21 | 00:00:00 | |
| OE5HKT-10 | 2026-09-03 02:37:02 | 48.15256 | 14.41526 | 140° | 86km/h | 8194m | 4.7m/s | -30.6°C | 58.2% | 0hPa | 2.9V | 00:00:00 | 00:00:00 | 00:00:00 | |
| OE3OSB-13 | 2026-09-03 02:36:48 | 48.15507 | 14.41182 | 134° | 78km/h | 8131m | 4.2m/s | -30.3°C | 55.1% | -1.0hPa | 2.9V | 00:00:00 | 00:00:00 | 00:00:00 | |
| PETON7-10 | 2026-09-03 02:36:47 | 48.15507 | 14.41182 | 135° | 77km/h | 8131m | 4.2m/s | -30.2°C | 58.3% | 0hPa | 2.9V | 00:00:00 | 00:00:00 | 00:00:00 | |
| OE5DXL-15 | 2026-09-03 02:36:45 | 48.15534 | 14.41143 | 137° | 78km/h | 8123m | 3.8m/s | -30.2°C | 57.9% | 0hPa | 2.9V | 00:00:00 | 00:00:00 | 00:00:00 | |
| DO3MHA-12 | 2026-09-03 02:36:43 | 48.15560 | 14.41106 | 138° | 77km/h | 8107m | 7.6m/s | -30.1°C | 56.3% | 0hPa | 2.9V | 00:00:00 | 00:48:01 | 00:00:00 | |
| OE5MMP-10 | 2026-09-03 02:36:41 | 48.15589 | 14.41069 | 141° | 78km/h | 8092m | 8.4m/s | -29.9°C | 53.7% | 0hPa | 2.9V | 00:00:00 | 00:47:59 | 00:00:00 | |
| PG1ADW-2 | 2026-09-03 02:36:40 | 48.15604 | 14.41051 | 142° | 80km/h | 8084m | 7.8m/s | -29.9°C | 51.6% | 0hPa | 2.9V | 00:00:00 | 00:00:00 | 00:00:00 | |
| OE5DRO-10 | 2026-09-03 02:36:37 | 48.15647 | 14.40995 | 137° | 82km/h | 8065m | 5.9m/s | -29.8°C | 43.4% | 0hPa | 2.9V | 00:00:00 | 00:00:00 | 00:00:00 | |
| DO3MHA-12 | 2026-09-03 02:36:33 | 48.15704 | 14.40910 | 138° | 82km/h | 8043m | 5.5m/s | -29.7°C | 42.1% | 0hPa | 2.9V | 00:00:00 | 00:47:51 | 00:00:00 | |
| PETON7-10 | 2026-09-03 02:36:32 | 48.15720 | 14.40889 | 140° | 82km/h | 8037m | 5.4m/s | -29.6°C | 41.0% | 0hPa | 2.9V | 00:00:00 | 00:47:50 | 00:00:00 | |
| OE5MMP-10 | 2026-09-03 02:36:31 | 48.15736 | 14.40869 | 142° | 80km/h | 8031m | 6.3m/s | -29.6°C | 40.9% | 0hPa | 2.9V | 00:00:00 | 00:47:49 | 00:00:00 | |
| OE3JTB-15 | 2026-09-03 02:36:28 | 48.15782 | 14.40812 | 137° | 80km/h | 8017m | 5.0m/s | -29.5°C | 40.6% | 0hPa | 2.9V | 00:00:00 | 00:47:46 | 00:00:00 | |
| OE5WHR-10 | 2026-09-03 02:36:26 | 48.15810 | 14.40769 | 133° | 82km/h | 8006m | 4.5m/s | -29.4°C | 40.6% | 0hPa | 2.9V | 00:00:00 | 00:00:00 | 00:00:00 | |
| OE5REO-15 | 2026-09-03 02:36:24 | 48.15825 | 14.40746 | 134° | 84km/h | 8001m | 6.2m/s | 0°C | 0% | 0hPa | 2.7V | 00:00:00 | 00:00:00 | 00:00:00 | |
| DO3MHA-12 | 2026-09-03 02:36:23 | 48.15855 | 14.40701 | 137° | 82km/h | 7989m | 5.9m/s | -29.3°C | 39.4% | 0hPa | 2.7V | 00:00:00 | 00:47:41 | 00:00:00 | |
| OE5MMP-10 | 2026-09-03 02:36:21 | 48.15886 | 14.40659 | 140° | 82km/h | 7978m | 4.7m/s | -29.2°C | 39.6% | 0hPa | 2.7V | 00:00:00 | 00:47:39 | 00:00:00 | |
| OE5HKT-10 | 2026-09-03 02:36:20 | 48.15902 | 14.40638 | 140° | 82km/h | 7973m | 5.7m/s | -29.1°C | 39.8% | 0hPa | 2.9V | 00:00:00 | 00:00:00 | 00:00:00 | |
| OE5DRO-10 | 2026-09-03 02:36:18 | 48.15935 | 14.40598 | 142° | 80km/h | 7963m | 6.4m/s | -29.0°C | 39.5% | 0hPa | 2.9V | 00:00:00 | 00:00:00 | 00:00:00 | |
| OE3OSB-13 | 2026-09-03 02:36:17 | 48.15966 | 14.40561 | 140° | 78km/h | 7953m | 3.7m/s | -29.0°C | 37.6% | -1.0hPa | 2.9V | 00:00:00 | 00:00:00 | 00:00:00 | |
| OE5DXL-15 | 2026-09-03 02:36:15 | 48.15982 | 14.40542 | 140° | 80km/h | 7949m | 5.2m/s | -28.9°C | 40.1% | 0hPa | 2.9V | 00:00:00 | 00:00:00 | 00:00:00 | |
| DO3MHA-12 | 2026-09-03 02:36:13 | 48.16013 | 14.40500 | 139° | 82km/h | 7939m | 5.7m/s | -28.8°C | 39.3% | 0hPa | 2.9V | 00:00:00 | 00:47:31 | 00:00:00 | |
| OE5MMP-10 | 2026-09-03 02:36:11 | 48.16047 | 14.40455 | 139° | 78km/h | 7929m | 5.7m/s | -28.7°C | 39.0% | 0hPa | 2.9V | 00:00:00 | 00:47:29 | 00:00:00 | |
| S52SK | 2026-09-03 02:36:10 | 48.16047 | 14.40455 | 139° | 88km/h | 7929m | 5.7m/s | -28.8°C | 36.7% | 0hPa | 2.9V | 00:00:00 | 00:00:00 | 00:00:00 | |
| OE5REO-15 | 2026-09-03 02:36:09 | 48.16063 | 14.40434 | 140° | 82km/h | 7924m | 4.9m/s | 0°C | 0% | 0hPa | 2.9V | 00:00:00 | 00:00:00 | 00:00:00 | |
| OE5WHR-10 | 2026-09-03 02:36:05 | 48.16132 | 14.40328 | 130° | 78km/h | 7894m | 3.7m/s | -28.5°C | 39.0% | 0hPa | 2.9V | 00:00:00 | 00:00:00 | 00:00:00 | |
| DO3MHA-12 | 2026-09-03 02:36:03 | 48.16156 | 14.40282 | 128° | 78km/h | 7885m | 2.9m/s | -28.4°C | 38.3% | 0hPa | 2.9V | 00:00:00 | 00:47:21 | 08:30:00 | |
| PETON7-10 | 2026-09-03 02:36:02 | 48.16167 | 14.40261 | 129° | 80km/h | 7881m | 5.8m/s | -28.3°C | 37.8% | 0hPa | 2.9V | 00:00:00 | 00:00:00 | 00:00:00 | |
| OE3OSB-13 | 2026-09-03 02:35:46 | 48.16420 | 14.39908 | 134° | 78km/h | 7779m | 4.6m/s | -27.5°C | -1.0% | -1.0hPa | 2.9V | 00:00:00 | 00:00:00 | 00:00:00 | |
| OE5DXL-15 | 2026-09-03 02:35:45 | 48.16419 | 14.39908 | 135° | 80km/h | 7779m | 4.6m/s | -27.4°C | 34.6% | 0hPa | 2.9V | 00:00:00 | 00:00:00 | 08:30:00 | |
| OE5WHR-10 | 2026-09-03 02:35:44 | 48.16434 | 14.39886 | 135° | 80km/h | 7774m | 4.9m/s | -27.4°C | 34.3% | 0hPa | 2.7V | 00:00:00 | 00:47:02 | 00:00:00 | |
| DO3MHA-12 | 2026-09-03 02:35:43 | 48.16449 | 14.39864 | 136° | 78km/h | 7769m | 4.4m/s | -27.3°C | 34.4% | 0hPa | 2.7V | 00:00:00 | 00:47:01 | 00:00:00 | |
| OE5FHM-15 | 2026-09-03 02:35:41 | 48.16479 | 14.39820 | 136° | 80km/h | 7760m | 5.0m/s | -27.2°C | 34.4% | 0hPa | 2.7V | 00:00:00 | 00:46:59 | 00:00:00 | |
| PG1ADW-2 | 2026-09-03 02:35:40 | 48.16493 | 14.39799 | 133° | 80km/h | 7755m | 3.6m/s | -27.2°C | 34.4% | 0hPa | 2.7V | 00:00:00 | 00:00:00 | 00:00:00 | |
| OE5REO-15 | 2026-09-03 02:35:37 | 48.16518 | 14.39756 | 131° | 75km/h | 7746m | 3.0m/s | 0°C | 0% | 0hPa | 2.7V | 00:00:00 | 00:00:00 | 00:00:00 | |
| OE5HKT-10 | 2026-09-03 02:35:34 | 48.16568 | 14.39677 | 138° | 84km/h | 7730m | 3.4m/s | -27.0°C | 34.4% | 0hPa | 2.7V | 00:00:00 | 00:46:52 | 00:00:00 | |
| DO3MHA-12 | 2026-09-03 02:35:33 | 48.16582 | 14.39657 | 139° | 88km/h | 7726m | 4.0m/s | -26.9°C | 34.0% | 0hPa | 2.7V | 00:00:00 | 00:46:51 | 00:00:00 | |
| PETON7-10 | 2026-09-03 02:35:32 | 48.16598 | 14.39636 | 140° | 84km/h | 7722m | 3.4m/s | -26.9°C | 33.6% | 0hPa | 2.7V | 00:00:00 | 00:00:00 | 00:00:00 | |
| OE5MMP-10 | 2026-09-03 02:35:31 | 48.16615 | 14.39615 | 140° | 86km/h | 7718m | 4.1m/s | -26.8°C | 32.5% | 0hPa | 2.7V | 00:00:00 | 00:46:49 | 00:00:00 | |
| OE3JTB-15 | 2026-09-03 02:35:28 | 48.16662 | 14.39549 | 132° | 86km/h | 7693m | 9.2m/s | -26.6°C | 28.8% | 0hPa | 2.7V | 00:00:00 | 00:00:00 | 00:00:00 | |
| OE5WHR-10 | 2026-09-03 02:35:23 | 48.16731 | 14.39424 | 130° | 86km/h | 7662m | 4.1m/s | -26.4°C | 19.7% | 0hPa | 2.7V | 00:00:00 | 00:00:00 | 00:00:00 | |
| OE5MMP-10 | 2026-09-03 02:35:21 | 48.16758 | 14.39376 | 132° | 82km/h | 7646m | 8.3m/s | -26.3°C | 17.9% | 0hPa | 2.9V | 00:00:00 | 00:46:39 | 08:30:00 | |
| PG1ADW-2 | 2026-09-03 02:35:20 | 48.16772 | 14.39353 | 133° | 86km/h | 7639m | 6.4m/s | -26.2°C | 17.7% | 0hPa | 2.9V | 00:00:00 | 00:00:00 | 00:00:00 | |
| PETON7-10 | 2026-09-03 02:35:17 | 48.16816 | 14.39285 | 136° | 88km/h | 7620m | 5.5m/s | -26.1°C | 17.4% | 0hPa | 2.9V | 00:00:00 | 00:00:00 | 00:00:00 | |
| OE3OSB-13 | 2026-09-03 02:35:15 | 48.16860 | 14.39220 | 135° | 82km/h | 7605m | 4.5m/s | 0°C | -1.0% | -1.0hPa | 2.9V | 00:00:00 | 00:00:00 | 00:00:00 | |
| OE5HKT-10 | 2026-09-03 02:35:13 | 48.16875 | 14.39198 | 136° | 88km/h | 7600m | 4.2m/s | -26.0°C | 18.3% | 0hPa | 2.9V | 00:00:00 | 00:00:00 | 08:30:00 | |
| OE5MMP-10 | 2026-09-03 02:35:11 | 48.16903 | 14.39152 | 129° | 89km/h | 7591m | 4.3m/s | -25.9°C | 19.2% | 0hPa | 2.9V | 00:00:00 | 00:46:29 | 00:00:00 | |
| OE5WHR-10 | 2026-09-03 02:35:02 | 48.17041 | 14.38925 | 140° | 84km/h | 7550m | 5.9m/s | -25.5°C | 17.6% | 0hPa | 2.9V | 00:00:00 | 00:00:00 | 00:00:00 | |
| OE5MMP-10 | 2026-09-03 02:35:01 | 48.17057 | 14.38904 | 140° | 84km/h | 7544m | 5.7m/s | -25.4°C | 17.7% | 0hPa | 2.9V | 00:00:00 | 00:46:19 | 00:00:00 | |
| PG1ADW-2 | 2026-09-03 02:35:00 | 48.17072 | 14.38883 | 138° | 84km/h | 7538m | 6.1m/s | -25.0°C | 16.8% | 0hPa | 2.9V | 00:00:00 | 00:46:18 | 08:30:00 | |
| OE3JTB-15 | 2026-09-03 02:34:59 | 48.17087 | 14.38863 | 138° | 86km/h | 7531m | 6.8m/s | -25.4°C | 17.4% | 0hPa | 2.9V | 00:00:00 | 00:46:17 | 00:00:00 | |
| S52SK | 2026-09-03 02:34:56 | 48.17118 | 14.38819 | 136° | 86km/h | 7518m | 5.4m/s | -25.4°C | 16.1% | 0hPa | 2.9V | 00:00:00 | 00:00:00 | 00:00:00 | |
| DO3MHA-12 | 2026-09-03 02:34:52 | 48.17193 | 14.38704 | 138° | 82km/h | 7490m | 3.3m/s | -25.3°C | 17.6% | 0hPa | 2.9V | 00:00:00 | 00:46:10 | 00:00:00 | |
| OE5MMP-10 | 2026-09-03 02:34:51 | 48.17210 | 14.38682 | 139° | 82km/h | 7486m | 5.1m/s | -25.2°C | 17.7% | 0hPa | 2.9V | 00:00:00 | 00:46:09 | 00:00:00 | |
| PETON7-10 | 2026-09-03 02:34:47 | 48.17270 | 14.38598 | 136° | 86km/h | 7469m | 5.1m/s | -25.1°C | 16.8% | 0hPa | 2.9V | 00:00:00 | 00:00:00 | 08:30:00 | |
| OE5DXL-15 | 2026-09-03 02:34:45 | 48.17298 | 14.38555 | 132° | 88km/h | 7459m | 4.9m/s | -25.0°C | 17.7% | 0hPa | 2.9V | 00:00:00 | 00:00:00 | 00:00:00 | |
| OE5DRO-10 | 2026-09-03 02:34:43 | 48.17325 | 14.38510 | 133° | 88km/h | 7450m | 6.0m/s | -24.9°C | 17.4% | 0hPa | 2.9V | 00:00:00 | 00:00:00 | 00:00:00 | |
| DO3MHA-12 | 2026-09-03 02:34:42 | 48.17340 | 14.38486 | 135° | 89km/h | 7445m | 3.9m/s | -24.9°C | 18.9% | 0hPa | 2.9V | 00:00:00 | 00:46:00 | 00:00:00 | |
| OE5WHR-10 | 2026-09-03 02:34:41 | 48.17357 | 14.38462 | 137° | 88km/h | 7440m | 6.2m/s | -24.8°C | 17.8% | 0hPa | 2.9V | 00:00:00 | 00:45:59 | 00:00:00 | |
| PETON7-10 | 2026-09-03 02:34:32 | 48.17503 | 14.38257 | 134° | 88km/h | 7386m | 4.7m/s | -24.6°C | 29.6% | 0hPa | 2.9V | 00:00:00 | 00:00:00 | 00:00:00 | |
| OE5HKT-10 | 2026-09-03 02:34:31 | 48.17518 | 14.38233 | 133° | 89km/h | 7381m | 5.0m/s | -24.6°C | 27.1% | 0hPa | 2.9V | 00:00:00 | 00:45:49 | 00:00:00 | |
| OE3JTB-15 | 2026-09-03 02:34:30 | 48.17534 | 14.38209 | 134° | 89km/h | 7376m | 5.5m/s | -24.5°C | 26.6% | 0hPa | 2.9V | 00:00:00 | 00:00:00 | 08:30:00 | |
| OE5DRO-10 | 2026-09-03 02:34:24 | 48.17632 | 14.38073 | 139° | 89km/h | 7352m | 3.4m/s | -24.3°C | 27.3% | 0hPa | 2.9V | 00:00:00 | 00:00:00 | 00:00:00 | |
| DO3MHA-12 | 2026-09-03 02:34:22 | 48.17668 | 14.38027 | 141° | 88km/h | 7342m | 5.0m/s | -24.3°C | 27.8% | 0hPa | 2.9V | 00:00:00 | 00:45:40 | 00:00:00 | |
| OE5MMP-10 | 2026-09-03 02:34:21 | 48.17685 | 14.38006 | 142° | 88km/h | 7338m | 4.1m/s | -24.2°C | 28.4% | 0hPa | 2.9V | 00:00:00 | 00:45:39 | 00:00:00 | |
| OE5WHR-10 | 2026-09-03 02:34:20 | 48.17701 | 14.37986 | 141° | 91km/h | 7334m | 4.0m/s | -24.2°C | 27.8% | 0hPa | 2.9V | 00:00:00 | 00:00:00 | 08:30:00 | |
| PETON7-10 | 2026-09-03 02:34:17 | 48.17751 | 14.37920 | 138° | 91km/h | 7319m | 4.5m/s | -24.1°C | 25.8% | 0hPa | 2.9V | 00:00:00 | 00:45:35 | 00:00:00 | |
| OE5DXL-15 | 2026-09-03 02:34:15 | 48.17784 | 14.37875 | 137° | 88km/h | 7310m | 3.1m/s | -24.0°C | 24.7% | 0hPa | 2.9V | 00:00:00 | 00:00:00 | 00:00:00 | |
| DO3MHA-12 | 2026-09-03 02:34:12 | 48.17834 | 14.37805 | 137° | 93km/h | 7298m | 4.9m/s | -24.0°C | 21.9% | 0hPa | 2.9V | 00:00:00 | 00:45:30 | 08:30:00 | |
| OE5MMP-10 | 2026-09-03 02:34:11 | 48.17851 | 14.37782 | 137° | 93km/h | 7294m | 3.0m/s | -24.0°C | 22.5% | 0hPa | 2.9V | 00:00:00 | 00:45:29 | 00:00:00 | |
| OE5HKT-10 | 2026-09-03 02:34:10 | 48.17868 | 14.37758 | 138° | 88km/h | 7290m | 5.0m/s | -23.9°C | 22.6% | 0hPa | 2.9V | 00:00:00 | 00:00:00 | 00:00:00 | |
| OE5DRO-10 | 2026-09-03 02:34:05 | 48.17958 | 14.37648 | 142° | 86km/h | 7270m | 4.4m/s | -23.7°C | 25.3% | 0hPa | 2.9V | 00:00:00 | 00:00:00 | 00:00:00 | |
| DO3MHA-12 | 2026-09-03 02:34:02 | 48.18017 | 14.37583 | 145° | 86km/h | 7257m | 2.2m/s | -23.9°C | 25.9% | 0hPa | 2.9V | 00:00:00 | 00:45:20 | 00:00:00 | |
| OE5MMP-10 | 2026-09-03 02:34:01 | 48.18036 | 14.37563 | 146° | 84km/h | 7254m | 4.2m/s | -23.8°C | 27.6% | 0hPa | 2.9V | 00:00:00 | 00:45:19 | 00:00:00 | |
| PG1ADW-2 | 2026-09-03 02:34:00 | 48.18055 | 14.37543 | 144° | 84km/h | 7250m | 3.3m/s | -23.7°C | 28.4% | 0hPa | 2.9V | 00:00:00 | 00:00:00 | 00:00:00 | |
| OE5WHR-10 | 2026-09-03 02:33:59 | 48.18071 | 14.37524 | 141° | 84km/h | 7246m | 5.5m/s | -23.7°C | 26.5% | 0hPa | 2.9V | 00:00:00 | 00:00:00 | 00:00:00 | |
| DO3MHA-12 | 2026-09-03 02:33:52 | 48.18177 | 14.37368 | 132° | 86km/h | 7199m | 5.9m/s | -23.3°C | 29.1% | 0hPa | 2.9V | 00:00:00 | 00:45:10 | 00:00:00 | |
| OE5MMP-10 | 2026-09-03 02:33:51 | 48.18191 | 14.37345 | 137° | 84km/h | 7193m | 5.8m/s | -23.3°C | 29.4% | 0hPa | 2.9V | 00:00:00 | 00:45:09 | 08:30:00 | |
| OE5HKT-10 | 2026-09-03 02:33:49 | 48.18224 | 14.37305 | 145° | 80km/h | 7181m | 5.7m/s | -23.2°C | 32.7% | 0hPa | 2.9V | 00:00:00 | 00:00:00 | 00:00:00 | |
| PETON7-10 | 2026-09-03 02:33:47 | 48.18258 | 14.37268 | 144° | 80km/h | 7171m | 4.7m/s | -23.2°C | 30.6% | 0hPa | 2.9V | 00:00:00 | 00:00:00 | 00:00:00 | |
| OE5DRO-10 | 2026-09-03 02:33:46 | 48.18275 | 14.37247 | 140° | 80km/h | 7166m | 5.7m/s | -23.2°C | 30.5% | 0hPa | 2.9V | 00:00:00 | 00:00:00 | 00:00:00 | |
| OE5DXL-15 | 2026-09-03 02:33:45 | 48.18292 | 14.37224 | 134° | 77km/h | 7161m | 4.8m/s | -23.2°C | 30.3% | 0hPa | 2.9V | 00:00:00 | 00:00:00 | 00:00:00 | |
| DO3MHA-12 | 2026-09-03 02:33:42 | 48.18333 | 14.37149 | 131° | 77km/h | 7144m | 5.4m/s | -23.0°C | 29.6% | 0hPa | 2.9V | 00:00:00 | 00:45:00 | 00:00:00 | |
| OE5FHM-15 | 2026-09-03 02:33:41 | 48.18346 | 14.37128 | 135° | 75km/h | 7137m | 7.6m/s | -22.9°C | 29.4% | 0hPa | 2.9V | 00:00:00 | 00:44:59 | 00:00:00 | |
| PG1ADW-2 | 2026-09-03 02:33:40 | 48.18360 | 14.37109 | 140° | 77km/h | 7130m | 6.0m/s | -22.9°C | 29.6% | 0hPa | 2.9V | 00:00:00 | 00:44:58 | 00:00:00 | |
| S52SK | 2026-09-03 02:33:39 | 48.18360 | 14.37109 | 141° | 75km/h | 7130m | 6.0m/s | -23.0°C | 28.1% | 0hPa | 2.9V | 00:00:00 | 00:00:00 | 00:00:00 | |
| OE5WHR-10 | 2026-09-03 02:33:38 | 48.18391 | 14.37072 | 142° | 75km/h | 7120m | 4.8m/s | -22.9°C | 29.4% | 0hPa | 2.9V | 00:00:00 | 00:44:56 | 00:00:00 | |
| DG1MFX-10 | 2026-09-03 02:33:36 | 48.18419 | 14.37034 | 133° | 71km/h | 7108m | 6.4m/s | -23.0°C | 27.7% | 0hPa | 2.9V | 00:00:00 | 00:00:00 | 00:00:00 | |
| S52SK | 2026-09-03 02:33:33 | 48.18442 | 14.36990 | 124° | 77km/h | 7095m | 7.4m/s | -22.9°C | 27.7% | 0hPa | 2.9V | 00:00:00 | 00:00:00 | 00:00:00 | |
| DO3MHA-12 | 2026-09-03 02:33:32 | 48.18464 | 14.36937 | 124° | 77km/h | 7082m | 4.6m/s | -22.8°C | 28.7% | 0hPa | 2.9V | 00:00:00 | 00:44:50 | 00:00:00 | |
| OE5MMP-10 | 2026-09-03 02:33:31 | 48.18477 | 14.36911 | 126° | 75km/h | 7077m | 5.7m/s | -22.8°C | 27.4% | 0hPa | 2.9V | 00:00:00 | 00:44:49 | 00:00:00 | |
| OE5HKT-10 | 2026-09-03 02:33:28 | 48.18513 | 14.36842 | 132° | 73km/h | 7059m | 6.5m/s | -22.7°C | 27.9% | 0hPa | 2.9V | 00:00:00 | 00:44:46 | 00:00:00 | |
| DO3MHA-12 | 2026-09-03 02:33:22 | 48.18585 | 14.36713 | 129° | 73km/h | 7024m | 3.7m/s | -22.5°C | 27.6% | 0hPa | 2.9V | 00:00:00 | 00:44:40 | 00:00:00 | |
| OE5MMP-10 | 2026-09-03 02:33:21 | 48.18596 | 14.36692 | 128° | 73km/h | 7019m | 5.5m/s | -22.5°C | 27.0% | 0hPa | 2.9V | 00:00:00 | 00:44:39 | 00:00:00 | |
| PG1ADW-2 | 2026-09-03 02:33:20 | 48.18607 | 14.36671 | 130° | 69km/h | 7014m | 4.6m/s | -22.5°C | 27.4% | 0hPa | 2.9V | 00:00:00 | 00:00:00 | 00:00:00 | |
| PETON7-10 | 2026-09-03 02:33:17 | 48.18644 | 14.36611 | 135° | 69km/h | 6999m | 4.3m/s | -22.3°C | 28.3% | 0hPa | 2.9V | 00:00:00 | 00:00:00 | 00:00:00 | |
| OE5DXL-15 | 2026-09-03 02:33:15 | 48.18670 | 14.36568 | 129° | 69km/h | 6991m | 4.5m/s | -22.3°C | 27.3% | 0hPa | 2.9V | 00:00:00 | 00:00:00 | 00:00:00 | |
| DO3MHA-12 | 2026-09-03 02:33:12 | 48.18703 | 14.36500 | 124° | 66km/h | 6980m | 3.3m/s | -22.2°C | 28.1% | 0hPa | 2.9V | 00:00:00 | 00:44:30 | 00:00:00 | |
| OE5FHM-15 | 2026-09-03 02:33:11 | 48.18713 | 14.36477 | 123° | 69km/h | 6976m | 4.5m/s | -22.2°C | 27.5% | 0hPa | 2.9V | 00:00:00 | 00:44:29 | 00:00:00 | |
| OE5DRO-10 | 2026-09-03 02:33:08 | 48.18745 | 14.36414 | 134° | 69km/h | 6963m | 3.8m/s | -22.0°C | 27.6% | 0hPa | 2.9V | 00:00:00 | 00:00:00 | 00:00:00 | |
| OE5HKT-10 | 2026-09-03 02:33:07 | 48.18756 | 14.36396 | 138° | 69km/h | 6959m | 5.1m/s | -22.0°C | 27.4% | 0hPa | 2.9V | 00:00:00 | 00:00:00 | 00:00:00 | |
| OE3JTB-15 | 2026-09-03 02:33:03 | 48.18802 | 14.36325 | 127° | 69km/h | 6934m | 6.5m/s | -21.8°C | 26.5% | 0hPa | 2.9V | 00:00:00 | 00:00:00 | 00:00:00 | |
| PETON7-10 | 2026-09-03 02:33:02 | 48.18811 | 14.36306 | 129° | 69km/h | 6928m | 5.9m/s | -21.8°C | 26.7% | 0hPa | 2.7V | 00:00:00 | 00:00:00 | 00:00:00 | |
| DO3MHA-12 | 2026-09-03 02:33:01 | 48.18821 | 14.36288 | 133° | 71km/h | 6921m | 7.0m/s | -21.7°C | 25.9% | 0hPa | 2.7V | 00:00:00 | 00:44:19 | 00:00:00 | |
| PG1ADW-2 | 2026-09-03 02:33:00 | 48.18834 | 14.36270 | 136° | 71km/h | 6915m | 4.7m/s | -21.7°C | 26.2% | 0hPa | 2.7V | 00:00:00 | 00:00:00 | 00:00:00 | |
| OE5WHR-10 | 2026-09-03 02:32:56 | 48.18886 | 14.36187 | 133° | 69km/h | 6895m | 5.9m/s | -21.7°C | 24.8% | 0hPa | 2.9V | 00:00:00 | 00:00:00 | 00:00:00 | |
| DG1MFX-10 | 2026-09-03 02:32:55 | 48.18886 | 14.36187 | 133° | 69km/h | 6895m | 6.0m/s | 0°C | 0% | 0hPa | 2.9V | 00:00:00 | 00:00:00 | 00:00:00 | |
| OE5MMP-10 | 2026-09-03 02:32:51 | 48.18940 | 14.36086 | 128° | 71km/h | 6862m | 5.8m/s | -21.6°C | 23.7% | 0hPa | 2.9V | 00:00:00 | 00:44:09 | 00:00:00 | |
| OE5DRO-10 | 2026-09-03 02:32:49 | 48.18961 | 14.36042 | 125° | 68km/h | 6849m | 7.2m/s | -21.6°C | 24.1% | 0hPa | 2.9V | 00:00:00 | 00:00:00 | 00:00:00 | |
| PETON7-10 | 2026-09-03 02:32:47 | 48.18981 | 14.35997 | 122° | 68km/h | 6837m | 5.9m/s | -21.8°C | 28.2% | 0hPa | 2.9V | 00:00:00 | 00:44:05 | 00:00:00 | |
| OE5HKT-10 | 2026-09-03 02:32:46 | 48.18990 | 14.35973 | 123° | 66km/h | 6830m | 8.1m/s | -21.8°C | 29.0% | 0hPa | 2.9V | 00:00:00 | 00:00:00 | 00:00:00 | |
| OE5DXL-15 | 2026-09-03 02:32:45 | 48.19000 | 14.35950 | 123° | 66km/h | 6824m | 3.3m/s | -21.9°C | 29.9% | 0hPa | 2.9V | 00:00:00 | 00:00:00 | 00:00:00 | |
| DO3MHA-12 | 2026-09-03 02:32:41 | 48.19035 | 14.35860 | 121° | 66km/h | 6805m | 4.9m/s | -21.7°C | 30.0% | 0hPa | 2.9V | 00:00:00 | 00:43:59 | 08:30:00 | |
| PG1ADW-2 | 2026-09-03 02:32:40 | 48.19043 | 14.35839 | 121° | 64km/h | 6800m | 4.9m/s | -21.7°C | 30.9% | 0hPa | 2.9V | 00:00:00 | 00:00:00 | 00:00:00 | |
| OE5WHR-10 | 2026-09-03 02:32:35 | 48.19091 | 14.35738 | 129° | 64km/h | 6778m | 4.3m/s | -21.6°C | 35.9% | 0hPa | 2.9V | 00:00:00 | 00:43:53 | 00:00:00 | |
| OE3JTB-15 | 2026-09-03 02:32:34 | 48.19102 | 14.35718 | 130° | 62km/h | 6774m | 4.1m/s | -21.6°C | 36.9% | 0hPa | 2.9V | 00:00:00 | 00:00:00 | 00:00:00 | |
| PETON7-10 | 2026-09-03 02:32:32 | 48.19124 | 14.35678 | 130° | 64km/h | 6766m | 2.4m/s | -21.5°C | 37.0% | 0hPa | 2.9V | 00:00:00 | 00:00:00 | 08:30:00 | |
| DO3MHA-12 | 2026-09-03 02:32:31 | 48.19134 | 14.35658 | 128° | 62km/h | 6763m | 5.1m/s | -21.5°C | 34.6% | 0hPa | 2.9V | 00:00:00 | 00:43:49 | 00:00:00 | |
| OE5DRO-10 | 2026-09-03 02:32:30 | 48.19143 | 14.35640 | 122° | 64km/h | 6757m | 5.1m/s | -21.4°C | 36.0% | 0hPa | 2.9V | 00:00:00 | 00:00:00 | 00:00:00 | |
| OE5HKT-10 | 2026-09-03 02:32:25 | 48.19178 | 14.35535 | 116° | 64km/h | 6724m | 5.2m/s | -21.2°C | 43.2% | 0hPa | 2.9V | 00:00:00 | 00:43:43 | 00:00:00 | |
| S52SK | 2026-09-03 02:32:24 | 48.19178 | 14.35535 | 116° | 69km/h | 6724m | 5.3m/s | -21.2°C | 41.5% | 0hPa | 2.9V | 00:00:00 | 00:00:00 | 00:00:00 | |
| DO3MHA-12 | 2026-09-03 02:32:21 | 48.19201 | 14.35445 | 117° | 66km/h | 6699m | 7.3m/s | -21.0°C | 44.3% | 0hPa | 2.9V | 00:00:00 | 00:43:39 | 00:00:00 | |
| PG1ADW-2 | 2026-09-03 02:32:20 | 48.19209 | 14.35424 | 123° | 62km/h | 6692m | 6.1m/s | -20.9°C | 45.3% | 0hPa | 2.9V | 00:00:00 | 00:43:38 | 00:00:00 | |
| S52SK | 2026-09-03 02:32:18 | 48.19218 | 14.35403 | 126° | 62km/h | 6687m | 5.5m/s | -21.0°C | 0% | 0hPa | 2.9V | 00:00:00 | 00:00:00 | 00:00:00 | |
| PETON7-10 | 2026-09-03 02:32:17 | 48.19235 | 14.35364 | 119° | 62km/h | 6671m | 7.3m/s | -20.8°C | 47.3% | 0hPa | 2.9V | 00:00:00 | 00:00:00 | 00:00:00 | |
| OE5DXL-15 | 2026-09-03 02:32:15 | 48.19249 | 14.35320 | 115° | 62km/h | 6659m | 5.1m/s | -20.8°C | 49.4% | 0hPa | 2.9V | 00:00:00 | 00:00:00 | 00:00:00 | |
| OE5WHR-10 | 2026-09-03 02:32:14 | 48.19257 | 14.35297 | 118° | 62km/h | 6653m | 6.2m/s | -20.7°C | 49.3% | 0hPa | 2.9V | 00:00:00 | 00:00:00 | 00:00:00 | |
| S52SK | 2026-09-03 02:32:13 | 48.19257 | 14.35297 | 119° | 71km/h | 6653m | 6.2m/s | -20.8°C | 0% | 0hPa | 2.9V | 00:00:00 | 00:00:00 | 00:00:00 | |
| DO3MHA-12 | 2026-09-03 02:32:11 | 48.19280 | 14.35234 | 114° | 60km/h | 6635m | 7.1m/s | -20.0°C | 48.6% | 0hPa | 2.9V | 00:00:00 | 00:43:29 | 00:00:00 | |
| OE3JTB-15 | 2026-09-03 02:32:05 | 48.19304 | 14.35108 | 107° | 62km/h | 6596m | 7.2m/s | -20.1°C | 54.9% | 0hPa | 2.9V | 00:00:00 | 00:43:23 | 00:00:00 | |
| OE5HKT-10 | 2026-09-03 02:32:04 | 48.19308 | 14.35085 | 107° | 62km/h | 6589m | 7.6m/s | -20.1°C | 56.1% | 0hPa | 2.9V | 00:00:00 | 00:00:00 | 08:30:00 | |
| PETON7-10 | 2026-09-03 02:32:02 | 48.19319 | 14.35040 | 111° | 62km/h | 6578m | 5.8m/s | -20.0°C | 59.4% | 0hPa | 2.7V | 00:00:00 | 00:43:20 | 00:00:00 | |
| OE5MMP-10 | 2026-09-03 02:32:01 | 48.19324 | 14.35017 | 109° | 60km/h | 6573m | 4.7m/s | -19.9°C | 59.4% | 0hPa | 2.7V | 00:00:00 | 00:43:19 | 00:00:00 | |
| DO3MHA-12 | 2026-09-03 02:32:00 | 48.19329 | 14.34993 | 107° | 62km/h | 6567m | 6.5m/s | -19.9°C | 60.4% | 0hPa | 2.7V | 00:00:00 | 00:43:18 | 00:00:00 | |
| OE5WHR-10 | 2026-09-03 02:31:53 | 48.19368 | 14.34843 | 104° | 60km/h | 6532m | 5.5m/s | -19.6°C | 62.6% | 0hPa | 2.7V | 00:00:00 | 00:00:00 | 00:00:00 | |
| OE5DRO-10 | 2026-09-03 02:31:52 | 48.19371 | 14.34823 | 102° | 60km/h | 6526m | 6.0m/s | -19.6°C | 62.3% | 0hPa | 2.7V | 00:00:00 | 00:00:00 | 00:00:00 | |
| OE5MMP-10 | 2026-09-03 02:31:51 | 48.19375 | 14.34800 | 105° | 62km/h | 6521m | 5.6m/s | -19.5°C | 62.9% | 0hPa | 2.7V | 00:00:00 | 00:43:09 | 00:00:00 | |
| DO3MHA-12 | 2026-09-03 02:31:50 | 48.19380 | 14.34776 | 111° | 64km/h | 6515m | 5.3m/s | -19.5°C | 63.9% | 0hPa | 2.9V | 00:00:00 | 00:43:08 | 00:00:00 | |
| PETON7-10 | 2026-09-03 02:31:47 | 48.19399 | 14.34709 | 113° | 58km/h | 6497m | 7.3m/s | -19.4°C | 64.1% | 0hPa | 2.9V | 00:00:00 | 00:00:00 | 00:00:00 | |
| OE5DXL-15 | 2026-09-03 02:31:45 | 48.19409 | 14.34669 | 110° | 58km/h | 6483m | 8.4m/s | -19.2°C | 64.8% | 0hPa | 2.7V | 00:00:00 | 00:00:00 | 00:00:00 | |
| OE5HKT-10 | 2026-09-03 02:31:43 | 48.19418 | 14.34623 | 102° | 58km/h | 6466m | 6.4m/s | -19.2°C | 65.1% | 0hPa | 2.7V | 00:00:00 | 00:00:00 | 00:00:00 | |
| OE5FHM-15 | 2026-09-03 02:31:41 | 48.19424 | 14.34578 | 107° | 58km/h | 6452m | 5.6m/s | -19.2°C | 66.4% | 0hPa | 2.7V | 00:00:00 | 00:42:59 | 00:00:00 | |
| PG1ADW-2 | 2026-09-03 02:31:40 | 48.19429 | 14.34556 | 111° | 58km/h | 6446m | 5.7m/s | -19.1°C | 67.2% | 0hPa | 2.7V | 00:00:00 | 00:00:00 | 00:00:00 | |
| OE3JTB-15 | 2026-09-03 02:31:36 | 48.19452 | 14.34472 | 115° | 57km/h | 6419m | 4.8m/s | -19.0°C | 70.7% | 0hPa | 2.7V | 00:00:00 | 00:00:00 | 00:00:00 | |
| OE5DRO-10 | 2026-09-03 02:31:33 | 48.19472 | 14.34418 | 116° | 58km/h | 6398m | 5.5m/s | -18.8°C | 72.4% | 0hPa | 2.9V | 00:00:00 | 00:00:00 | 00:00:00 | |
| PETON7-10 | 2026-09-03 02:31:32 | 48.19477 | 14.34400 | 112° | 58km/h | 6391m | 6.8m/s | -18.8°C | 72.3% | 0hPa | 2.9V | 00:00:00 | 00:00:00 | 00:00:00 | |
| OE5MMP-10 | 2026-09-03 02:31:31 | 48.19481 | 14.34382 | 106° | 60km/h | 6385m | 6.0m/s | -18.8°C | 74.4% | 0hPa | 2.9V | 00:00:00 | 00:42:49 | 00:00:00 | |
| OE5HKT-10 | 2026-09-03 02:31:22 | 48.19522 | 14.34185 | 101° | 57km/h | 6330m | 5.8m/s | -18.6°C | 92.2% | 0hPa | 2.9V | 00:00:00 | 00:42:40 | 00:00:00 | |
| OE5MMP-10 | 2026-09-03 02:31:21 | 48.19525 | 14.34161 | 104° | 57km/h | 6325m | 6.1m/s | -18.5°C | 92.3% | 0hPa | 2.9V | 00:00:00 | 00:42:39 | 00:00:00 | |
| PG1ADW-2 | 2026-09-03 02:31:20 | 48.19529 | 14.34139 | 110° | 55km/h | 6319m | 5.9m/s | -18.5°C | 93.5% | 0hPa | 2.9V | 00:00:00 | 00:00:00 | 00:00:00 | |
| PETON7-10 | 2026-09-03 02:31:17 | 48.19547 | 14.34088 | 119° | 57km/h | 6299m | 7.9m/s | -18.4°C | 93.9% | 0hPa | 2.9V | 00:00:00 | 00:42:35 | 00:00:00 | |
| OE5DXL-15 | 2026-09-03 02:31:15 | 48.19559 | 14.34049 | 116° | 57km/h | 6285m | 6.0m/s | -18.3°C | 94.4% | 0hPa | 2.9V | 00:00:00 | 00:00:00 | 08:30:00 | |
| OE5DRO-10 | 2026-09-03 02:31:14 | 48.19565 | 14.34028 | 114° | 55km/h | 6278m | 8.3m/s | -18.2°C | 94.1% | 0hPa | 2.9V | 00:00:00 | 00:00:00 | 00:00:00 | |
| OE5FHM-15 | 2026-09-03 02:31:11 | 48.19582 | 14.33966 | 115° | 57km/h | 6257m | 4.9m/s | -18.2°C | 97.4% | 0hPa | 2.9V | 00:00:00 | 00:42:29 | 00:00:00 | |
| OE3JTB-15 | 2026-09-03 02:31:07 | 48.19604 | 14.33894 | 113° | 58km/h | 6236m | 4.1m/s | -18.1°C | 97.3% | 0hPa | 2.9V | 00:00:00 | 00:00:00 | 00:00:00 | |
| PETON7-10 | 2026-09-03 02:31:02 | 48.19633 | 14.33796 | 119° | 58km/h | 6211m | 3.7m/s | -17.9°C | 95.9% | 0hPa | 2.9V | 00:00:00 | 00:00:00 | 00:00:00 | |
| OE5HKT-10 | 2026-09-03 02:31:01 | 48.19640 | 14.33777 | 120° | 58km/h | 6207m | 4.7m/s | -17.9°C | 95.7% | 0hPa | 2.9V | 00:00:00 | 00:00:00 | 00:00:00 | |
| PG1ADW-2 | 2026-09-03 02:31:00 | 48.19647 | 14.33760 | 119° | 58km/h | 6203m | 3.3m/s | -17.9°C | 96.2% | 0hPa | 2.9V | 00:00:00 | 00:42:18 | 00:00:00 | |
| OE5DRO-10 | 2026-09-03 02:30:55 | 48.19675 | 14.33674 | 119° | 60km/h | 6178m | 4.8m/s | -17.7°C | 96.1% | 0hPa | 2.7V | 00:00:00 | 00:00:00 | 00:00:00 | |
| OE5WHR-10 | 2026-09-03 02:30:50 | 48.19704 | 14.33565 | 114° | 58km/h | 6146m | 7.7m/s | -17.4°C | 94.1% | 0hPa | 2.7V | 00:00:00 | 00:00:00 | 00:00:00 | |
| PETON7-10 | 2026-09-03 02:30:47 | 48.19729 | 14.33500 | 123° | 58km/h | 6127m | 4.6m/s | -17.3°C | 94.8% | 0hPa | 2.7V | 00:00:00 | 00:00:00 | 00:00:00 | |
| OE5DXL-15 | 2026-09-03 02:30:45 | 48.19744 | 14.33460 | 117° | 57km/h | 6116m | 6.1m/s | -17.2°C | 93.6% | 0hPa | 2.7V | 00:00:00 | 00:00:00 | 00:00:00 | |
| OE5MMP-10 | 2026-09-03 02:30:41 | 48.19771 | 14.33382 | 113° | 57km/h | 6085m | 7.8m/s | -17.0°C | 91.3% | 0hPa | 2.7V | 00:00:00 | 00:41:59 | 00:00:00 | |
| OE5HKT-10 | 2026-09-03 02:30:40 | 48.19776 | 14.33362 | 115° | 58km/h | 6078m | 6.3m/s | -16.9°C | 93.1% | 0hPa | 2.7V | 00:00:00 | 00:00:00 | 00:00:00 | |
| PG1ADW-2 | 2026-09-03 02:30:39 | 48.19782 | 14.33342 | 117° | 58km/h | 6071m | 6.9m/s | -16.9°C | 92.7% | 0hPa | 2.7V | 00:00:00 | 00:00:00 | 00:00:00 | |
| OE3JTB-15 | 2026-09-03 02:30:38 | 48.19788 | 14.33324 | 116° | 57km/h | 6065m | 6.5m/s | -16.8°C | 92.1% | 0hPa | 2.7V | 00:00:00 | 00:41:56 | 00:00:00 | |
| DO3MHA-12 | 2026-09-03 02:30:37 | 48.19793 | 14.33307 | 110° | 51km/h | 6058m | 6.0m/s | -16.8°C | 90.7% | 0hPa | 2.7V | 00:00:00 | 00:41:55 | 00:00:00 | |
| PETON7-10 | 2026-09-03 02:30:32 | 48.19822 | 14.33205 | 122° | 58km/h | 6027m | 5.6m/s | -16.7°C | 93.1% | 0hPa | 2.9V | 00:00:00 | 00:41:50 | 00:00:00 | |
| OE5MMP-10 | 2026-09-03 02:30:31 | 48.19829 | 14.33188 | 121° | 57km/h | 6021m | 6.4m/s | -16.6°C | 92.6% | 0hPa | 2.9V | 00:00:00 | 00:41:49 | 00:00:00 | |
| OE5WHR-10 | 2026-09-03 02:30:29 | 48.19842 | 14.33152 | 118° | 58km/h | 6009m | 6.7m/s | -16.5°C | 93.5% | 0hPa | 2.9V | 00:00:00 | 00:41:47 | 00:00:00 | |
| OE5MMP-10 | 2026-09-03 02:30:21 | 48.19893 | 14.32992 | 112° | 58km/h | 5960m | 4.5m/s | -16.2°C | 92.3% | 0hPa | 2.9V | 00:00:00 | 00:41:39 | 00:00:00 | |
| OE5HKT-10 | 2026-09-03 02:30:19 | 48.19903 | 14.32947 | 106° | 58km/h | 5943m | 8.1m/s | -16.1°C | 91.2% | 0hPa | 2.9V | 00:00:00 | 00:41:37 | 00:00:00 | |
| PETON7-10 | 2026-09-03 02:30:17 | 48.19912 | 14.32908 | 111° | 58km/h | 5931m | 4.8m/s | -16.0°C | 92.0% | 0hPa | 2.9V | 00:00:00 | 00:00:00 | 08:30:00 | |
| OE5DXL-15 | 2026-09-03 02:30:15 | 48.19923 | 14.32868 | 116° | 58km/h | 5920m | 6.0m/s | -15.9°C | 92.1% | 0hPa | 2.9V | 00:00:00 | 00:00:00 | 00:00:00 | |
| OE5FHM-15 | 2026-09-03 02:30:11 | 48.19948 | 14.32787 | 121° | 58km/h | 5896m | 5.1m/s | -15.8°C | 93.6% | 0hPa | 2.9V | 00:00:00 | 00:41:29 | 00:00:00 | |
| OE3JTB-15 | 2026-09-03 02:30:09 | 48.19965 | 14.32753 | 130° | 58km/h | 5883m | 5.5m/s | -15.9°C | 0% | 0hPa | 2.9V | 00:00:00 | 00:00:00 | 08:30:00 | |
| OE5WHR-10 | 2026-09-03 02:30:08 | 48.19974 | 14.32736 | 130° | 58km/h | 5877m | 7.8m/s | -16.0°C | 0% | 0hPa | 2.7V | 00:00:00 | 00:00:00 | 00:00:00 | |
| PETON7-10 | 2026-09-03 02:30:02 | 48.20019 | 14.32621 | 120° | 60km/h | 5841m | 5.9m/s | -16.3°C | 0% | 0hPa | 2.9V | 00:00:00 | 00:00:00 | 00:00:00 | |
| OE5MMP-10 | 2026-09-03 02:30:01 | 48.20027 | 14.32599 | 122° | 60km/h | 5835m | 6.4m/s | -16.2°C | 0% | 0hPa | 2.9V | 00:00:00 | 00:41:19 | 00:00:00 | |
| PG1ADW-2 | 2026-09-03 02:29:59 | 48.20044 | 14.32559 | 126° | 58km/h | 5822m | 5.3m/s | -16.1°C | 0% | 0hPa | 2.9V | 00:00:00 | 00:00:00 | 00:00:00 | |
| OE5HKT-10 | 2026-09-03 02:29:58 | 48.20053 | 14.32541 | 129° | 58km/h | 5815m | 9.0m/s | -16.0°C | 0% | 0hPa | 2.7V | 00:00:00 | 00:00:00 | 00:00:00 | |
| OE5MMP-10 | 2026-09-03 02:29:51 | 48.20118 | 14.32418 | 132° | 57km/h | 5771m | 5.5m/s | -15.6°C | 0% | 0hPa | 2.9V | 00:00:00 | 00:41:09 | 00:00:00 | |
| PETON7-10 | 2026-09-03 02:29:47 | 48.20155 | 14.32352 | 123° | 58km/h | 5748m | 4.6m/s | -15.5°C | 0% | 0hPa | 2.9V | 00:00:00 | 00:41:05 | 00:00:00 | |
| S52SK | 2026-09-03 02:29:46 | 48.20155 | 14.32352 | 124° | 57km/h | 5748m | 4.6m/s | -15.6°C | 0% | 0hPa | 2.9V | 00:00:00 | 00:00:00 | 00:00:00 | |
| OE5DXL-15 | 2026-09-03 02:29:45 | 48.20172 | 14.32316 | 130° | 58km/h | 5736m | 7.8m/s | -15.5°C | 0% | 0hPa | 2.9V | 00:00:00 | 00:00:00 | 00:00:00 | |
| OE5FHM-15 | 2026-09-03 02:29:41 | 48.20208 | 14.32253 | 124° | 57km/h | 5711m | 5.5m/s | -15.3°C | 0% | 0hPa | 2.9V | 00:00:00 | 00:40:59 | 00:00:00 | |
| OE3JTB-15 | 2026-09-03 02:29:40 | 48.20217 | 14.32234 | 125° | 58km/h | 5706m | 4.9m/s | -15.3°C | 0% | 0hPa | 2.9V | 00:00:00 | 00:00:00 | 00:00:00 | |
| PG1ADW-2 | 2026-09-03 02:29:39 | 48.20226 | 14.32216 | 129° | 60km/h | 5700m | 6.6m/s | -15.2°C | 0% | 0hPa | 2.9V | 00:00:00 | 00:40:57 | 00:00:00 | |
| OE5HKT-10 | 2026-09-03 02:29:37 | 48.20245 | 14.32182 | 128° | 58km/h | 5689m | 6.0m/s | -15.2°C | 0% | 0hPa | 2.9V | 00:00:00 | 00:00:00 | 00:00:00 | |
| S52SK | 2026-09-03 02:29:35 | 48.20253 | 14.32164 | 124° | 57km/h | 5682m | 6.2m/s | -15.2°C | 0% | 0hPa | 2.9V | 00:00:00 | 00:00:00 | 00:00:00 | |
| OE5MMP-10 | 2026-09-03 02:29:31 | 48.20299 | 14.32070 | 131° | 60km/h | 5655m | 4.5m/s | -14.8°C | 0% | 0hPa | 2.9V | 00:00:00 | 00:40:49 | 00:00:00 | |
| PETON7-10 | 2026-09-03 02:29:30 | 48.20307 | 14.32055 | 131° | 58km/h | 5650m | 4.9m/s | -14.8°C | 0% | 0hPa | 2.9V | 00:00:00 | 00:00:00 | 00:00:00 | |
| OE5WHR-10 | 2026-09-03 02:29:26 | 48.20346 | 14.31983 | 125° | 55km/h | 5628m | 8.2m/s | -14.7°C | 0% | 0hPa | 2.9V | 00:00:00 | 00:40:44 | 00:00:00 | |
| OE5MMP-10 | 2026-09-03 02:29:21 | 48.20389 | 14.31889 | 130° | 53km/h | 5598m | 5.2m/s | -14.5°C | 0% | 0hPa | 2.9V | 00:00:00 | 00:40:39 | 08:30:00 | |
| OE5DRO-10 | 2026-09-03 02:29:20 | 48.20397 | 14.31873 | 127° | 55km/h | 5590m | 9.1m/s | -14.4°C | 0% | 0hPa | 2.9V | 00:00:00 | 00:00:00 | 08:30:00 | |
| PG1ADW-2 | 2026-09-03 02:29:19 | 48.20405 | 14.31855 | 123° | 55km/h | 5583m | 5.6m/s | -14.3°C | 0% | 0hPa | 2.9V | 00:00:00 | 00:00:00 | 00:00:00 | |
| OE5HKT-10 | 2026-09-03 02:29:16 | 48.20430 | 14.31803 | 132° | 55km/h | 5562m | 5.5m/s | -14.2°C | 0% | 0hPa | 2.9V | 00:00:00 | 00:40:34 | 00:00:00 | |
| PETON7-10 | 2026-09-03 02:29:15 | 48.20439 | 14.31788 | 133° | 55km/h | 5556m | 7.4m/s | -14.1°C | 98.9% | 0hPa | 2.9V | 00:00:00 | 00:00:00 | 00:00:00 | |
| OE5MMP-10 | 2026-09-03 02:29:11 | 48.20468 | 14.31723 | 124° | 57km/h | 5530m | 7.0m/s | -13.9°C | 97.9% | 0hPa | 2.9V | 00:00:00 | 00:40:29 | 00:00:00 | |
| OE5FHM-15 | 2026-09-03 02:29:10 | 48.20476 | 14.31706 | 128° | 57km/h | 5523m | 5.2m/s | -13.8°C | 97.8% | 0hPa | 2.9V | 00:00:00 | 00:40:28 | 00:00:00 | |
| OE5WHR-10 | 2026-09-03 02:29:05 | 48.20514 | 14.31626 | 125° | 58km/h | 5490m | 7.0m/s | -13.6°C | 96.3% | 0hPa | 2.9V | 00:00:00 | 00:00:00 | 00:00:00 | |
| OE5MMP-10 | 2026-09-03 02:29:01 | 48.20553 | 14.31555 | 129° | 57km/h | 5465m | 5.2m/s | -13.3°C | 95.1% | 0hPa | 2.9V | 00:00:00 | 00:40:19 | 00:00:00 | |
| PETON7-10 | 2026-09-03 02:29:00 | 48.20561 | 14.31540 | 129° | 57km/h | 5459m | 5.7m/s | -13.3°C | 94.3% | 0hPa | 2.9V | 00:00:00 | 00:40:18 | 00:00:00 | |
| PG1ADW-2 | 2026-09-03 02:28:59 | 48.20569 | 14.31525 | 133° | 57km/h | 5453m | 6.1m/s | -13.2°C | 93.6% | 0hPa | 2.9V | 00:00:00 | 00:00:00 | 08:30:00 | |
| OE5HKT-10 | 2026-09-03 02:28:55 | 48.20606 | 14.31451 | 117° | 55km/h | 5427m | 5.8m/s | -13.0°C | 94.2% | 0hPa | 2.9V | 00:00:00 | 00:00:00 | 08:30:00 | |
| OE5MMP-10 | 2026-09-03 02:28:51 | 48.20634 | 14.31378 | 126° | 58km/h | 5403m | 6.4m/s | -12.8°C | 91.4% | 0hPa | 2.9V | 00:00:00 | 00:40:09 | 00:00:00 | |
| OE5DXL-15 | 2026-09-03 02:28:45 | 48.20683 | 14.31266 | 128° | 55km/h | 5364m | 5.9m/s | -12.5°C | 90.6% | 0hPa | 2.9V | 00:00:00 | 00:00:00 | 00:00:00 | |
| OE5WHR-10 | 2026-09-03 02:28:44 | 48.20691 | 14.31249 | 124° | 51km/h | 5358m | 6.4m/s | -12.5°C | 89.6% | 0hPa | 2.9V | 00:00:00 | 00:00:00 | 00:00:00 | |
| PETON7-10 | 2026-09-03 02:28:43 | 48.20698 | 14.31230 | 118° | 51km/h | 5350m | 8.6m/s | 0°C | 0% | 0hPa | 2.9V | 00:00:00 | 00:00:00 | 00:00:00 | |
| OE3JTB-15 | 2026-09-03 02:28:42 | 48.20704 | 14.31211 | 112° | 53km/h | 5344m | 4.8m/s | -12.3°C | 89.1% | 0hPa | 2.9V | 00:00:00 | 00:00:00 | 00:00:00 | |
| OE5MMP-10 | 2026-09-03 02:28:41 | 48.20709 | 14.31192 | 112° | 49km/h | 5339m | 6.2m/s | -12.3°C | 88.7% | 0hPa | 2.9V | 00:00:00 | 00:39:59 | 00:00:00 | |
| OE5FHM-15 | 2026-09-03 02:28:40 | 48.20714 | 14.31175 | 120° | 55km/h | 5332m | 7.4m/s | -12.2°C | 88.6% | 0hPa | 2.9V | 00:00:00 | 00:39:58 | 00:00:00 | |
| PG1ADW-2 | 2026-09-03 02:28:39 | 48.20721 | 14.31159 | 127° | 51km/h | 5325m | 6.4m/s | -12.2°C | 89.2% | 0hPa | 2.9V | 00:00:00 | 00:00:00 | 00:00:00 | |
| OE5HKT-10 | 2026-09-03 02:28:34 | 48.20755 | 14.31080 | 113° | 55km/h | 5291m | 3.7m/s | -12.0°C | 97.9% | 0hPa | 2.9V | 00:00:00 | 00:00:00 | 00:00:00 | |
| OE5MMP-10 | 2026-09-03 02:28:31 | 48.20771 | 14.31034 | 129° | 53km/h | 5271m | 6.1m/s | -11.8°C | 98.0% | 0hPa | 2.9V | 00:00:00 | 00:39:49 | 00:00:00 | |
| PETON7-10 | 2026-09-03 02:28:28 | 48.20799 | 14.30990 | 134° | 57km/h | 5250m | 9.5m/s | 0°C | 0% | 0hPa | 2.9V | 00:00:00 | 00:00:00 | 00:00:00 | |
| OE5WHR-10 | 2026-09-03 02:28:23 | 48.20840 | 14.30911 | 131° | 60km/h | 5220m | 4.7m/s | -11.4°C | 0% | 0hPa | 2.9V | 00:00:00 | 00:39:41 | 00:00:00 | |
| S52SK | 2026-09-03 02:28:22 | 48.20840 | 14.30911 | 131° | 57km/h | 5220m | 4.7m/s | -11.5°C | 0% | 0hPa | 2.9V | 00:00:00 | 00:00:00 | 00:00:00 | |
| OE5MMP-10 | 2026-09-03 02:28:21 | 48.20857 | 14.30879 | 124° | 60km/h | 5207m | 7.1m/s | -11.3°C | 0% | 0hPa | 2.9V | 00:00:00 | 00:39:39 | 00:00:00 | |
| PG1ADW-2 | 2026-09-03 02:28:19 | 48.20873 | 14.30841 | 124° | 60km/h | 5195m | 5.0m/s | -11.3°C | 0% | 0hPa | 2.9V | 00:00:00 | 00:39:37 | 00:00:00 | |
| S52SK | 2026-09-03 02:28:16 | 48.20893 | 14.30799 | 131° | 68km/h | 5185m | 4.7m/s | -11.3°C | 0% | 0hPa | 2.9V | 00:00:00 | 00:00:00 | 00:00:00 | |
| OE5DXL-15 | 2026-09-03 02:28:15 | 48.20914 | 14.30763 | 129° | 57km/h | 5175m | 4.8m/s | -11.2°C | 0% | 0hPa | 2.9V | 00:00:00 | 00:00:00 | 00:00:00 | |
| OE3JTB-15 | 2026-09-03 02:28:13 | 48.20928 | 14.30729 | 119° | 57km/h | 5165m | 6.1m/s | -11.1°C | 0% | 0hPa | 2.9V | 00:00:00 | 00:00:00 | 00:00:00 | |
| OE5MMP-10 | 2026-09-03 02:28:11 | 48.20942 | 14.30691 | 123° | 60km/h | 5151m | 6.3m/s | -11.0°C | 0% | 0hPa | 2.9V | 00:00:00 | 00:39:29 | 00:00:00 | |
| OE5FHM-15 | 2026-09-03 02:28:10 | 48.20951 | 14.30673 | 130° | 53km/h | 5145m | 5.2m/s | -11.0°C | 0% | 0hPa | 2.9V | 00:00:00 | 00:39:28 | 00:00:00 | |
| OE5DRO-10 | 2026-09-03 02:28:04 | 48.21013 | 14.30566 | 123° | 55km/h | 5111m | 4.7m/s | -10.8°C | 0% | 0hPa | 2.9V | 00:00:00 | 00:00:00 | 00:00:00 | |
| OE5WHR-10 | 2026-09-03 02:28:02 | 48.21028 | 14.30531 | 124° | 53km/h | 5099m | 9.5m/s | -10.7°C | 99.2% | 0hPa | 2.9V | 00:00:00 | 00:00:00 | 08:30:00 | |
| OE5MMP-10 | 2026-09-03 02:28:01 | 48.21036 | 14.30513 | 130° | 55km/h | 5091m | 6.4m/s | -10.6°C | 99.7% | 0hPa | 2.9V | 00:00:00 | 00:39:19 | 00:00:00 | |
| PG1ADW-2 | 2026-09-03 02:27:59 | 48.21055 | 14.30482 | 134° | 51km/h | 5080m | 5.8m/s | -10.5°C | 98.3% | 0hPa | 2.9V | 00:00:00 | 00:00:00 | 00:00:00 | |
| PETON7-10 | 2026-09-03 02:27:58 | 48.21064 | 14.30468 | 128° | 53km/h | 5074m | 7.3m/s | 0°C | 0% | 0hPa | 2.9V | 00:00:00 | 00:00:00 | 00:00:00 | |
| OE5MMP-10 | 2026-09-03 02:27:51 | 48.21125 | 14.30356 | 129° | 49km/h | 5033m | 6.5m/s | -10.2°C | 0% | 0hPa | 2.9V | 00:00:00 | 00:39:09 | 08:30:00 | |
| OE5DXL-15 | 2026-09-03 02:27:45 | 48.21167 | 14.30252 | 126° | 49km/h | 4994m | 4.7m/s | -10.0°C | 0% | 0hPa | 3.0V | 00:00:00 | 00:00:00 | 00:00:00 | |
| OE3JTB-15 | 2026-09-03 02:27:44 | 48.21172 | 14.30238 | 120° | 49km/h | 4989m | 6.4m/s | -9.9°C | 0% | 0hPa | 3.0V | 00:00:00 | 00:39:02 | 00:00:00 | |
| OE5WHR-10 | 2026-09-03 02:27:41 | 48.21189 | 14.30197 | 129° | 49km/h | 4971m | 7.0m/s | -9.8°C | 0% | 0hPa | 3.0V | 00:00:00 | 00:00:00 | 00:00:00 | |
| OE5FHM-15 | 2026-09-03 02:27:39 | 48.21204 | 14.30169 | 127° | 51km/h | 4959m | 4.3m/s | -9.8°C | 0% | 0hPa | 3.0V | 00:00:00 | 00:38:57 | 08:30:00 | |
| OE5MMP-10 | 2026-09-03 02:27:31 | 48.21258 | 14.30042 | 125° | 51km/h | 4905m | 7.3m/s | -9.4°C | 98.4% | 0hPa | 3.0V | 00:00:00 | 00:38:49 | 00:00:00 | |
| OE5DRO-10 | 2026-09-03 02:27:26 | 48.21293 | 14.29961 | 126° | 51km/h | 4873m | 6.1m/s | -9.2°C | 97.4% | 0hPa | 3.0V | 00:00:00 | 00:00:00 | 00:00:00 | |
| OE5MMP-10 | 2026-09-03 02:27:21 | 48.21326 | 14.29879 | 121° | 51km/h | 4842m | 5.7m/s | -9.0°C | 96.3% | 0hPa | 3.0V | 00:00:00 | 00:38:39 | 00:00:00 | |
| OE5WHR-10 | 2026-09-03 02:27:20 | 48.21332 | 14.29863 | 123° | 53km/h | 4836m | 6.2m/s | -9.0°C | 96.4% | 0hPa | 3.0V | 00:00:00 | 00:38:38 | 00:00:00 | |
| PG1ADW-2 | 2026-09-03 02:27:19 | 48.21339 | 14.29847 | 121° | 53km/h | 4831m | 4.9m/s | -8.9°C | 96.4% | 0hPa | 3.0V | 00:00:00 | 00:00:00 | 00:00:00 | |
| OE5DXL-15 | 2026-09-03 02:27:15 | 48.21361 | 14.29779 | 120° | 53km/h | 4807m | 5.1m/s | -8.8°C | 95.7% | 0hPa | 3.0V | 00:00:00 | 00:00:00 | 00:00:00 | |
| OE5MMP-10 | 2026-09-03 02:27:11 | 48.21384 | 14.29710 | 111° | 55km/h | 4783m | 6.3m/s | -8.6°C | 95.0% | 0hPa | 3.0V | 00:00:00 | 00:38:29 | 00:00:00 | |
| OE5HKT-10 | 2026-09-03 02:27:10 | 48.21390 | 14.29691 | 113° | 53km/h | 4776m | 6.9m/s | -8.5°C | 94.4% | 0hPa | 3.0V | 00:00:00 | 00:38:28 | 00:00:00 | |
| OE5FHM-15 | 2026-09-03 02:27:09 | 48.21396 | 14.29671 | 118° | 53km/h | 4770m | 5.0m/s | -8.5°C | 94.3% | 0hPa | 3.0V | 00:00:00 | 00:38:27 | 00:00:00 | |
| OE5DRO-10 | 2026-09-03 02:27:07 | 48.21409 | 14.29635 | 122° | 53km/h | 4759m | 5.5m/s | -8.5°C | 94.3% | 0hPa | 3.0V | 00:00:00 | 00:00:00 | 00:00:00 | |
| OE5MMP-10 | 2026-09-03 02:27:01 | 48.21444 | 14.29523 | 119° | 51km/h | 4723m | 4.7m/s | -8.3°C | 93.7% | 0hPa | 3.0V | 00:00:00 | 00:38:19 | 00:00:00 | |
| OE5WHR-10 | 2026-09-03 02:26:59 | 48.21457 | 14.29490 | 120° | 51km/h | 4712m | 6.2m/s | -8.2°C | 92.7% | 0hPa | 3.0V | 00:00:00 | 00:00:00 | 00:00:00 | |
| S52SK | 2026-09-03 02:26:57 | 48.21464 | 14.29473 | 121° | 55km/h | 4704m | 8.3m/s | 0°C | 0% | 0hPa | 2.9V | 00:00:00 | 00:00:00 | 00:00:00 | |
| OE5MMP-10 | 2026-09-03 02:26:51 | 48.21513 | 14.29362 | 122° | 57km/h | 4656m | 4.7m/s | -7.9°C | 94.4% | 0hPa | 2.9V | 00:00:00 | 00:38:09 | 00:00:00 | |
| OE5HKT-10 | 2026-09-03 02:26:49 | 48.21531 | 14.29323 | 129° | 49km/h | 4644m | 7.8m/s | -7.8°C | 95.6% | 0hPa | 3.0V | 00:00:00 | 00:00:00 | 00:00:00 | |
| OE5DRO-10 | 2026-09-03 02:26:48 | 48.21540 | 14.29306 | 125° | 49km/h | 4637m | 5.8m/s | -7.8°C | 97.0% | 0hPa | 2.9V | 00:00:00 | 00:00:00 | 00:00:00 | |
| OE3JTB-15 | 2026-09-03 02:26:46 | 48.21555 | 14.29269 | 121° | 49km/h | 4625m | 5.6m/s | -7.7°C | 99.1% | 0hPa | 2.9V | 00:00:00 | 00:00:00 | 00:00:00 | |
| OE5DXL-15 | 2026-09-03 02:26:45 | 48.21563 | 14.29250 | 123° | 49km/h | 4619m | 5.6m/s | -7.7°C | 97.9% | 0hPa | 2.9V | 00:00:00 | 00:00:00 | 08:30:00 | |
| OE5MMP-10 | 2026-09-03 02:26:41 | 48.21593 | 14.29192 | 125° | 47km/h | 4593m | 5.3m/s | -7.5°C | 98.8% | 0hPa | 3.0V | 00:00:00 | 00:37:59 | 00:00:00 | |
| OE5FHM-15 | 2026-09-03 02:26:39 | 48.21605 | 14.29166 | 126° | 49km/h | 4581m | 7.7m/s | -7.4°C | 97.4% | 0hPa | 3.0V | 00:00:00 | 00:37:57 | 00:00:00 | |
| OE5WHR-10 | 2026-09-03 02:26:38 | 48.21612 | 14.29151 | 126° | 49km/h | 4574m | 7.1m/s | -7.3°C | 97.3% | 0hPa | 3.0V | 00:00:00 | 00:00:00 | 00:00:00 | |
| DO3MHA-12 | 2026-09-03 02:26:33 | 48.21647 | 14.29074 | 130° | 47km/h | 4541m | 8.7m/s | -7.1°C | 96.4% | 0hPa | 3.0V | 00:00:00 | 00:37:51 | 00:00:00 | |
| OE5MMP-10 | 2026-09-03 02:26:31 | 48.21661 | 14.29044 | 123° | 49km/h | 4526m | 5.5m/s | -7.1°C | 96.6% | 0hPa | 3.0V | 00:00:00 | 00:37:49 | 00:00:00 | |
| OE5DRO-10 | 2026-09-03 02:26:29 | 48.21673 | 14.29016 | 126° | 49km/h | 4514m | 7.8m/s | -7.0°C | 96.3% | 0hPa | 3.0V | 00:00:00 | 00:00:00 | 08:30:00 | |
| OE5HKT-10 | 2026-09-03 02:26:28 | 48.21680 | 14.29003 | 134° | 49km/h | 4507m | 5.1m/s | -6.9°C | 96.8% | 0hPa | 3.0V | 00:00:00 | 00:00:00 | 00:00:00 | |
| DO3MHA-12 | 2026-09-03 02:26:23 | 48.21720 | 14.28931 | 124° | 47km/h | 4478m | 6.3m/s | -6.7°C | 0% | 0hPa | 3.0V | 00:00:00 | 00:37:41 | 00:00:00 | |
| OE5MMP-10 | 2026-09-03 02:26:21 | 48.21735 | 14.28899 | 130° | 49km/h | 4463m | 6.7m/s | -6.6°C | 0% | 0hPa | 3.0V | 00:00:00 | 00:37:39 | 08:30:00 | |
| PG1ADW-2 | 2026-09-03 02:26:19 | 48.21749 | 14.28870 | 121° | 47km/h | 4450m | 7.1m/s | -6.5°C | 0% | 0hPa | 3.0V | 00:00:00 | 00:00:00 | 00:00:00 | |
| OE5WHR-10 | 2026-09-03 02:26:17 | 48.21762 | 14.28838 | 124° | 47km/h | 4438m | 6.4m/s | -6.5°C | 0% | 0hPa | 3.0V | 00:00:00 | 00:37:35 | 00:00:00 | |
| OE5DXL-15 | 2026-09-03 02:26:15 | 48.21777 | 14.28807 | 126° | 46km/h | 4424m | 6.2m/s | -6.4°C | 0% | 0hPa | 3.0V | 00:00:00 | 00:00:00 | 00:00:00 | |
| OE5MMP-10 | 2026-09-03 02:26:11 | 48.21803 | 14.28746 | 127° | 47km/h | 4399m | 5.9m/s | -6.2°C | 0% | 0hPa | 3.0V | 00:00:00 | 00:37:29 | 00:00:00 | |
| OE5DRO-10 | 2026-09-03 02:26:10 | 48.21809 | 14.28732 | 123° | 47km/h | 4393m | 5.7m/s | -6.2°C | 0% | 0hPa | 3.0V | 00:00:00 | 00:00:00 | 00:00:00 | |
| DO3MHA-12 | 2026-09-03 02:26:09 | 48.21815 | 14.28717 | 117° | 47km/h | 4387m | 6.5m/s | -6.2°C | 0% | 0hPa | 3.0V | 00:00:00 | 00:37:27 | 08:30:00 | |
| OE5HKT-10 | 2026-09-03 02:26:07 | 48.21826 | 14.28683 | 118° | 46km/h | 4375m | 6.4m/s | -6.1°C | 0% | 0hPa | 2.9V | 00:00:00 | 00:37:25 | 00:00:00 | |
| OE5MMP-10 | 2026-09-03 02:26:01 | 48.21862 | 14.28587 | 121° | 46km/h | 4337m | 7.7m/s | -5.9°C | 0% | 0hPa | 2.9V | 00:00:00 | 00:37:19 | 00:00:00 | |
| DO3MHA-12 | 2026-09-03 02:25:59 | 48.21874 | 14.28558 | 121° | 44km/h | 4325m | 5.8m/s | -5.8°C | 0% | 0hPa | 2.9V | 00:00:00 | 00:37:17 | 00:00:00 | |
| OE5WHR-10 | 2026-09-03 02:25:56 | 48.21890 | 14.28510 | 120° | 44km/h | 4307m | 5.7m/s | -5.7°C | 0% | 0hPa | 2.9V | 00:00:00 | 00:00:00 | 00:00:00 | |
| OE5MMP-10 | 2026-09-03 02:25:51 | 48.21916 | 14.28435 | 115° | 42km/h | 4277m | 7.3m/s | -5.4°C | 0% | 0hPa | 3.0V | 00:00:00 | 00:37:09 | 00:00:00 | |
| OE3JTB-15 | 2026-09-03 02:25:48 | 48.21932 | 14.28390 | 120° | 46km/h | 4258m | 6.6m/s | -5.3°C | 0% | 0hPa | 3.0V | 00:00:00 | 00:00:00 | 08:30:00 | |
| DO3MHA-12 | 2026-09-03 02:25:47 | 48.21937 | 14.28377 | 114° | 42km/h | 4252m | 5.3m/s | -5.3°C | 99.8% | 0hPa | 3.0V | 00:00:00 | 00:37:05 | 00:00:00 | |
| OE5HKT-10 | 2026-09-03 02:25:46 | 48.21941 | 14.28362 | 116° | 44km/h | 4246m | 5.9m/s | -5.2°C | 99.6% | 0hPa | 3.0V | 00:00:00 | 00:00:00 | 08:30:00 | |
| OE5DXL-15 | 2026-09-03 02:25:45 | 48.21947 | 14.28347 | 121° | 46km/h | 4240m | 5.9m/s | -5.2°C | 99.9% | 0hPa | 3.0V | 00:00:00 | 00:00:00 | 00:00:00 | |
| OE5MMP-10 | 2026-09-03 02:25:41 | 48.21968 | 14.28294 | 119° | 44km/h | 4214m | 7.6m/s | -5.1°C | 98.3% | 0hPa | 3.0V | 00:00:00 | 00:36:59 | 00:00:00 | |
| PG1ADW-2 | 2026-09-03 02:25:39 | 48.21980 | 14.28266 | 125° | 46km/h | 4201m | 7.0m/s | -5.1°C | 97.9% | 0hPa | 3.0V | 00:00:00 | 00:36:57 | 00:00:00 | |
| DO3MHA-12 | 2026-09-03 02:25:37 | 48.21989 | 14.28239 | 111° | 46km/h | 4189m | 5.7m/s | -5.0°C | 97.8% | 0hPa | 3.0V | 00:00:00 | 00:36:55 | 00:00:00 | |
| OE5WHR-10 | 2026-09-03 02:25:35 | 48.21998 | 14.28208 | 116° | 47km/h | 4177m | 7.1m/s | -4.9°C | 97.7% | 0hPa | 3.0V | 00:00:00 | 00:00:00 | 00:00:00 | |
| OE5DRO-10 | 2026-09-03 02:25:32 | 48.22013 | 14.28162 | 113° | 47km/h | 4158m | 6.2m/s | -4.8°C | 97.8% | 0hPa | 3.0V | 00:00:00 | 00:00:00 | 00:00:00 | |
| OE5MMP-10 | 2026-09-03 02:25:31 | 48.22017 | 14.28147 | 110° | 47km/h | 4152m | 5.0m/s | -4.7°C | 97.7% | 0hPa | 3.0V | 00:00:00 | 00:36:49 | 00:00:00 | |
| DO3MHA-12 | 2026-09-03 02:25:27 | 48.22037 | 14.28079 | 114° | 47km/h | 4129m | 5.1m/s | -4.5°C | 0% | 0hPa | 3.0V | 00:00:00 | 00:36:45 | 00:00:00 | |
| OE5HKT-10 | 2026-09-03 02:25:25 | 48.22046 | 14.28045 | 112° | 46km/h | 4117m | 5.7m/s | -4.5°C | 0% | 0hPa | 3.0V | 00:00:00 | 00:00:00 | 00:00:00 | |
| OE5MMP-10 | 2026-09-03 02:25:21 | 48.22067 | 14.27980 | 111° | 46km/h | 4090m | 6.2m/s | -4.5°C | 0% | 0hPa | 3.0V | 00:00:00 | 00:36:39 | 00:00:00 | |
| OE3JTB-15 | 2026-09-03 02:25:19 | 48.22075 | 14.27945 | 114° | 42km/h | 4078m | 5.2m/s | -4.5°C | 0% | 0hPa | 3.0V | 00:00:00 | 00:00:00 | 00:00:00 | |
| DO3MHA-12 | 2026-09-03 02:25:17 | 48.22087 | 14.27912 | 123° | 44km/h | 4066m | 6.3m/s | 0°C | 0% | 0hPa | 3.0V | 00:00:00 | 00:36:35 | 00:00:00 | |
| OE5DXL-15 | 2026-09-03 02:25:15 | 48.22098 | 14.27882 | 113° | 42km/h | 4054m | 5.9m/s | -4.3°C | 0% | 0hPa | 3.0V | 00:00:00 | 00:00:00 | 00:00:00 | |
| OE5WHR-10 | 2026-09-03 02:25:14 | 48.22102 | 14.27867 | 111° | 42km/h | 4047m | 6.8m/s | -4.3°C | 0% | 0hPa | 3.0V | 00:00:00 | 00:36:32 | 00:00:00 | |
| OE5DRO-10 | 2026-09-03 02:25:13 | 48.22106 | 14.27851 | 113° | 42km/h | 4040m | 7.3m/s | -4.2°C | 0% | 0hPa | 3.0V | 00:00:00 | 00:00:00 | 00:00:00 | |
| OE5MMP-10 | 2026-09-03 02:25:11 | 48.22114 | 14.27822 | 109° | 44km/h | 4028m | 5.4m/s | -4.1°C | 0% | 0hPa | 3.0V | 00:00:00 | 00:36:29 | 00:00:00 | |
| OE5FHM-15 | 2026-09-03 02:25:09 | 48.22119 | 14.27792 | 103° | 40km/h | 4015m | 7.2m/s | -4.0°C | 0% | 0hPa | 3.0V | 00:00:00 | 00:36:27 | 00:00:00 | |
| DO3MHA-12 | 2026-09-03 02:25:07 | 48.22126 | 14.27757 | 113° | 44km/h | 4002m | 7.1m/s | 0°C | 0% | 0hPa | 3.0V | 00:00:00 | 00:36:25 | 00:00:00 | |
| OE5HKT-10 | 2026-09-03 02:25:04 | 48.22138 | 14.27709 | 107° | 40km/h | 3983m | 5.8m/s | -3.8°C | 0% | 0hPa | 3.0V | 00:00:00 | 00:36:22 | 00:00:00 | |
| OE5MMP-10 | 2026-09-03 02:25:01 | 48.22152 | 14.27663 | 122° | 37km/h | 3966m | 5.4m/s | -3.7°C | 0% | 0hPa | 3.0V | 00:00:00 | 00:36:19 | 00:00:00 | |
| PG1ADW-2 | 2026-09-03 02:24:59 | 48.22160 | 14.27638 | 113° | 38km/h | 3954m | 7.2m/s | -3.7°C | 0% | 0hPa | 3.0V | 00:00:00 | 00:00:00 | 00:00:00 | |
| DO3MHA-12 | 2026-09-03 02:24:57 | 48.22167 | 14.27612 | 114° | 38km/h | 3942m | 5.4m/s | 0°C | 0% | 0hPa | 3.0V | 00:00:00 | 00:36:15 | 00:00:00 | |
| OE5DRO-10 | 2026-09-03 02:24:54 | 48.22179 | 14.27575 | 108° | 38km/h | 3925m | 5.5m/s | -3.5°C | 0% | 0hPa | 3.0V | 00:00:00 | 00:00:00 | 00:00:00 | |
| OE5WHR-10 | 2026-09-03 02:24:53 | 48.22181 | 14.27562 | 106° | 38km/h | 3919m | 6.2m/s | -3.5°C | 0% | 0hPa | 3.0V | 00:00:00 | 00:00:00 | 08:30:00 | |
| OE5MMP-10 | 2026-09-03 02:24:51 | 48.22188 | 14.27533 | 112° | 40km/h | 3906m | 5.3m/s | -3.4°C | 0% | 0hPa | 3.0V | 00:00:00 | 00:36:09 | 08:30:00 | |
| OE3JTB-15 | 2026-09-03 02:24:50 | 48.22191 | 14.27519 | 111° | 37km/h | 3901m | 6.0m/s | -3.3°C | 0% | 0hPa | 3.0V | 00:00:00 | 00:36:08 | 00:00:00 | |
| DO3MHA-12 | 2026-09-03 02:24:47 | 48.22199 | 14.27476 | 107° | 40km/h | 3885m | 5.7m/s | 0°C | 0% | 0hPa | 3.0V | 00:00:00 | 00:36:05 | 00:00:00 | |
| OE5DXL-15 | 2026-09-03 02:24:45 | 48.22207 | 14.27447 | 117° | 37km/h | 3874m | 4.3m/s | -3.2°C | 0% | 0hPa | 3.0V | 00:00:00 | 00:00:00 | 00:00:00 | |
| OE5HKT-10 | 2026-09-03 02:24:43 | 48.22215 | 14.27420 | 107° | 37km/h | 3862m | 7.6m/s | -3.1°C | 0% | 0hPa | 3.0V | 00:00:00 | 00:00:00 | 00:00:00 | |
| OE5MMP-10 | 2026-09-03 02:24:41 | 48.22219 | 14.27388 | 101° | 37km/h | 3851m | 4.2m/s | -3.0°C | 0% | 0hPa | 3.0V | 00:00:00 | 00:35:59 | 00:00:00 | |
| OE5FHM-15 | 2026-09-03 02:24:39 | 48.22223 | 14.27359 | 101° | 35km/h | 3838m | 6.1m/s | -3.0°C | 0% | 0hPa | 3.0V | 00:00:00 | 00:35:57 | 00:00:00 | |
| DO3MHA-12 | 2026-09-03 02:24:37 | 48.22227 | 14.27331 | 106° | 37km/h | 3824m | 5.5m/s | 0°C | 0% | 0hPa | 3.0V | 00:00:00 | 00:35:55 | 00:00:00 | |
| OE5DRO-10 | 2026-09-03 02:24:35 | 48.22232 | 14.27306 | 101° | 35km/h | 3812m | 5.6m/s | -2.8°C | 0% | 0hPa | 3.0V | 00:00:00 | 00:00:00 | 00:00:00 | |
| OE5WHR-10 | 2026-09-03 02:24:32 | 48.22235 | 14.27266 | 104° | 35km/h | 3794m | 6.3m/s | -2.7°C | 0% | 0hPa | 3.0V | 00:00:00 | 00:00:00 | 00:00:00 | |
| OE5MMP-10 | 2026-09-03 02:24:31 | 48.22238 | 14.27252 | 109° | 33km/h | 3788m | 6.4m/s | -2.7°C | 0% | 0hPa | 3.0V | 00:00:00 | 00:35:49 | 00:00:00 | |
| OE5HKT-10 | 2026-09-03 02:24:22 | 48.22253 | 14.27142 | 107° | 35km/h | 3726m | 7.3m/s | -2.2°C | 0% | 0hPa | 3.0V | 00:00:00 | 00:00:00 | 00:00:00 | |
| OE3JTB-15 | 2026-09-03 02:24:21 | 48.22255 | 14.27129 | 108° | 37km/h | 3720m | 5.1m/s | -2.2°C | 0% | 0hPa | 3.0V | 00:00:00 | 00:00:00 | 00:00:00 | |
| PG1ADW-2 | 2026-09-03 02:24:19 | 48.22260 | 14.27104 | 103° | 35km/h | 3708m | 7.1m/s | -2.1°C | 0% | 0hPa | 3.0V | 00:00:00 | 00:35:37 | 00:00:00 | |
| OE5DRO-10 | 2026-09-03 02:24:16 | 48.22267 | 14.27065 | 111° | 35km/h | 3688m | 5.8m/s | -2.0°C | 0% | 0hPa | 3.0V | 00:00:00 | 00:00:00 | 00:00:00 | |
| OE5DXL-15 | 2026-09-03 02:24:15 | 48.22270 | 14.27053 | 111° | 37km/h | 3682m | 6.3m/s | -2.0°C | 0% | 0hPa | 3.0V | 00:00:00 | 00:00:00 | 00:00:00 | |
| OE5MMP-10 | 2026-09-03 02:24:11 | 48.22277 | 14.27004 | 106° | 35km/h | 3658m | 6.0m/s | -1.9°C | 0% | 0hPa | 3.0V | 00:00:00 | 00:35:29 | 00:00:00 | |
| OE5FHM-15 | 2026-09-03 02:24:09 | 48.22282 | 14.26982 | 107° | 35km/h | 3645m | 5.5m/s | -1.7°C | 0% | 0hPa | 3.0V | 00:00:00 | 00:35:27 | 00:00:00 | |
| OE5MMP-10 | 2026-09-03 02:24:01 | 48.22298 | 14.26878 | 111° | 38km/h | 3593m | 6.3m/s | -1.4°C | 0% | 0hPa | 3.0V | 00:00:00 | 00:35:19 | 00:00:00 | |
| PG1ADW-2 | 2026-09-03 02:23:59 | 48.22305 | 14.26850 | 109° | 37km/h | 3581m | 5.6m/s | -1.4°C | 0% | 0hPa | 3.0V | 00:00:00 | 00:00:00 | 00:00:00 | |
| OE5DRO-10 | 2026-09-03 02:23:57 | 48.22310 | 14.26824 | 101° | 37km/h | 3570m | 5.8m/s | -1.3°C | 0% | 0hPa | 3.0V | 00:00:00 | 00:00:00 | 00:00:00 | |
| OE3JTB-15 | 2026-09-03 02:23:52 | 48.22318 | 14.26751 | 92° | 35km/h | 3538m | 4.6m/s | -1.1°C | 0% | 0hPa | 3.0V | 00:00:00 | 00:00:00 | 00:00:00 | |
| OE5WHR-10 | 2026-09-03 02:23:50 | 48.22320 | 14.26725 | 103° | 35km/h | 3524m | 7.4m/s | -1.1°C | 0% | 0hPa | 3.0V | 00:00:00 | 00:00:00 | 00:00:00 | |
| OE5DXL-15 | 2026-09-03 02:23:45 | 48.22328 | 14.26657 | 104° | 35km/h | 3489m | 6.4m/s | -0.9°C | 0% | 0hPa | 3.0V | 00:00:00 | 00:00:00 | 00:00:00 | |
| OE5MMP-10 | 2026-09-03 02:23:41 | 48.22335 | 14.26608 | 106° | 33km/h | 3464m | 5.0m/s | -0.8°C | 0% | 0hPa | 3.0V | 00:00:00 | 00:34:59 | 00:00:00 | |
| OE5HKT-10 | 2026-09-03 02:23:40 | 48.22337 | 14.26596 | 104° | 35km/h | 3458m | 6.7m/s | -0.8°C | 0% | 0hPa | 3.0V | 00:00:00 | 00:00:00 | 00:00:00 | |
| PG1ADW-2 | 2026-09-03 02:23:39 | 48.22338 | 14.26584 | 98° | 35km/h | 3451m | 7.1m/s | -0.7°C | 0% | 0hPa | 3.0V | 00:00:00 | 00:00:00 | 00:00:00 | |
| OE5DRO-10 | 2026-09-03 02:23:38 | 48.22339 | 14.26572 | 100° | 35km/h | 3444m | 6.8m/s | -0.7°C | 0% | 0hPa | 3.0V | 00:00:00 | 00:00:00 | 08:30:00 | |
| OE5FHM-15 | 2026-09-03 02:23:37 | 48.22341 | 14.26560 | 105° | 37km/h | 3437m | 7.1m/s | -0.7°C | 0% | 0hPa | 3.0V | 00:00:00 | 00:34:55 | 00:00:00 | |
| OE5MMP-10 | 2026-09-03 02:23:31 | 48.22349 | 14.26484 | 98° | 35km/h | 3395m | 6.1m/s | -0.5°C | 0% | 0hPa | 3.0V | 00:00:00 | 00:34:49 | 00:00:00 | |
| OE5WHR-10 | 2026-09-03 02:23:29 | 48.22352 | 14.26457 | 99° | 37km/h | 3381m | 5.9m/s | -0.4°C | 0% | 0hPa | 3.0V | 00:00:00 | 00:00:00 | 00:00:00 | |
| OE3JTB-15 | 2026-09-03 02:23:23 | 48.22359 | 14.26379 | 101° | 42km/h | 3340m | 6.7m/s | -0.4°C | 0% | 0hPa | 3.0V | 00:00:00 | 00:34:41 | 00:00:00 | |
| OE5MMP-10 | 2026-09-03 02:23:21 | 48.22362 | 14.26353 | 105° | 38km/h | 3327m | 7.4m/s | -0.3°C | 0% | 0hPa | 3.0V | 00:00:00 | 00:34:39 | 08:30:00 | |
| OE5HKT-10 | 2026-09-03 02:23:19 | 48.22367 | 14.26327 | 108° | 44km/h | 3313m | 7.7m/s | -0.3°C | 0% | 0hPa | 3.0V | 00:00:00 | 00:00:00 | 00:00:00 | |
| OE5DXL-15 | 2026-09-03 02:23:15 | 48.22380 | 14.26274 | 115° | 46km/h | 3288m | 4.3m/s | -0.3°C | 0% | 0hPa | 3.0V | 00:00:00 | 00:00:00 | 00:00:00 | |
| OE5MMP-10 | 2026-09-03 02:23:11 | 48.22390 | 14.26216 | 98° | 46km/h | 3261m | 5.3m/s | -0.2°C | 0% | 0hPa | 3.0V | 00:00:00 | 00:34:29 | 00:00:00 | |
| OE5WHR-10 | 2026-09-03 02:23:08 | 48.22395 | 14.26168 | 100° | 47km/h | 3242m | 6.6m/s | -0.1°C | 0% | 0hPa | 3.0V | 00:00:00 | 00:34:26 | 00:00:00 | |
| OE5FHM-15 | 2026-09-03 02:23:05 | 48.22403 | 14.26118 | 105° | 49km/h | 3221m | 7.7m/s | -0.1°C | 0% | 0hPa | 3.0V | 00:00:00 | 00:34:23 | 08:30:00 | |
| OE5MMP-10 | 2026-09-03 02:23:01 | 48.22415 | 14.26049 | 113° | 47km/h | 3197m | 5.8m/s | -0.1°C | 0% | 0hPa | 3.0V | 00:00:00 | 00:34:19 | 00:00:00 | |
| OE5DRO-10 | 2026-09-03 02:23:00 | 48.22420 | 14.26031 | 112° | 49km/h | 3191m | 6.0m/s | -0.1°C | 0% | 0hPa | 3.0V | 00:00:00 | 00:00:00 | 00:00:00 | |
| PG1ADW-2 | 2026-09-03 02:22:59 | 48.22425 | 14.26012 | 108° | 49km/h | 3185m | 6.0m/s | -0.1°C | 0% | 0hPa | 3.0V | 00:00:00 | 00:34:17 | 08:30:00 | |
| OE5HKT-10 | 2026-09-03 02:22:58 | 48.22428 | 14.25994 | 104° | 49km/h | 3179m | 6.5m/s | -0.1°C | 0% | 0hPa | 3.0V | 00:00:00 | 00:34:16 | 00:00:00 | |
| OE3JTB-15 | 2026-09-03 02:22:54 | 48.22439 | 14.25930 | 105° | 51km/h | 3153m | 7.2m/s | -0.0°C | 97.9% | 0hPa | 3.0V | 00:00:00 | 00:00:00 | 00:00:00 | |
| OE5MMP-10 | 2026-09-03 02:22:51 | 48.22446 | 14.25877 | 100° | 51km/h | 3136m | 5.8m/s | 0.0°C | 95.6% | 0hPa | 3.0V | 00:00:00 | 00:34:09 | 00:00:00 | |
| OE5WHR-10 | 2026-09-03 02:22:46 | 48.22461 | 14.25793 | 101° | 53km/h | 3101m | 7.0m/s | 0.3°C | 92.9% | 0hPa | 3.0V | 00:00:00 | 00:00:00 | 00:00:00 | |
| OE5DXL-15 | 2026-09-03 02:22:45 | 48.22463 | 14.25774 | 103° | 53km/h | 3095m | 5.7m/s | 0.3°C | 92.6% | 0hPa | 3.0V | 00:00:00 | 00:00:00 | 00:00:00 | |
| OE5MMP-10 | 2026-09-03 02:22:41 | 48.22477 | 14.25691 | 102° | 53km/h | 3071m | 6.6m/s | 0.5°C | 90.3% | 0hPa | 3.0V | 00:00:00 | 00:33:59 | 00:00:00 | |
| PG1ADW-2 | 2026-09-03 02:22:39 | 48.22482 | 14.25650 | 103° | 53km/h | 3059m | 5.2m/s | 0.6°C | 90.4% | 0hPa | 3.0V | 00:00:00 | 00:00:00 | 00:00:00 | |
| OE5HKT-10 | 2026-09-03 02:22:37 | 48.22489 | 14.25611 | 108° | 53km/h | 3047m | 5.7m/s | 0.7°C | 89.8% | 0hPa | 3.0V | 00:00:00 | 00:00:00 | 08:30:00 | |
| OE5FHM-15 | 2026-09-03 02:22:34 | 48.22498 | 14.25557 | 101° | 53km/h | 3029m | 7.7m/s | 0.8°C | 89.9% | 0hPa | 3.0V | 00:00:00 | 00:33:52 | 00:00:00 | |
| OE5MMP-10 | 2026-09-03 02:22:31 | 48.22507 | 14.25498 | 106° | 55km/h | 3011m | 8.0m/s | 1.0°C | 90.9% | 0hPa | 3.0V | 00:00:00 | 00:33:49 | 00:00:00 | |
| OE5WHR-10 | 2026-09-03 02:22:25 | 48.22530 | 14.25380 | 108° | 53km/h | 2973m | 6.8m/s | 1.3°C | 91.7% | 0hPa | 3.0V | 00:00:00 | 00:00:00 | 00:00:00 | |
| OE5MMP-10 | 2026-09-03 02:22:21 | 48.22545 | 14.25301 | 108° | 53km/h | 2947m | 6.7m/s | 1.5°C | 90.5% | 0hPa | 3.0V | 00:00:00 | 00:33:39 | 00:00:00 | |
| PG1ADW-2 | 2026-09-03 02:22:19 | 48.22552 | 14.25262 | 103° | 53km/h | 2933m | 7.4m/s | 1.6°C | 89.8% | 0hPa | 3.0V | 00:00:00 | 00:00:00 | 00:00:00 | |
| OE5HKT-10 | 2026-09-03 02:22:16 | 48.22561 | 14.25205 | 106° | 55km/h | 2913m | 8.0m/s | 1.8°C | 90.8% | 0hPa | 3.0V | 00:00:00 | 00:00:00 | 00:00:00 | |
| OE5DXL-15 | 2026-09-03 02:22:15 | 48.22564 | 14.25185 | 106° | 55km/h | 2906m | 6.1m/s | 1.8°C | 91.0% | 0hPa | 3.0V | 00:00:00 | 00:00:00 | 08:30:00 | |
| OE5MMP-10 | 2026-09-03 02:22:11 | 48.22576 | 14.25105 | 101° | 55km/h | 2882m | 6.3m/s | 2.0°C | 91.7% | 0hPa | 3.0V | 00:00:00 | 00:33:29 | 00:00:00 | |
| OE5WHR-10 | 2026-09-03 02:22:04 | 48.22600 | 14.24966 | 113° | 55km/h | 2839m | 6.0m/s | 2.3°C | 90.4% | 0hPa | 3.0V | 00:00:00 | 00:33:22 | 00:00:00 | |
| OE5DRO-10 | 2026-09-03 02:22:03 | 48.22605 | 14.24948 | 111° | 55km/h | 2833m | 6.2m/s | 2.4°C | 90.2% | 0hPa | 3.0V | 00:00:00 | 00:00:00 | 00:00:00 | |
| OE5MMP-10 | 2026-09-03 02:22:01 | 48.22614 | 14.24909 | 109° | 55km/h | 2819m | 6.4m/s | 2.5°C | 90.7% | 0hPa | 3.0V | 00:00:00 | 00:33:19 | 00:00:00 | |
| OE3JTB-15 | 2026-09-03 02:21:56 | 48.22636 | 14.24808 | 110° | 53km/h | 2784m | 6.3m/s | 2.6°C | 93.9% | 0hPa | 3.0V | 00:00:00 | 00:33:14 | 00:00:00 | |
| OE5HKT-10 | 2026-09-03 02:21:55 | 48.22641 | 14.24788 | 111° | 53km/h | 2779m | 5.2m/s | 2.6°C | 95.2% | 0hPa | 3.0V | 00:00:00 | 00:33:13 | 00:00:00 | |
| OE5MMP-10 | 2026-09-03 02:21:51 | 48.22658 | 14.24710 | 106° | 53km/h | 2755m | 4.1m/s | 2.8°C | 94.2% | 0hPa | 3.0V | 00:00:00 | 00:33:09 | 08:30:00 | |
| OE5DXL-15 | 2026-09-03 02:21:45 | 48.22684 | 14.24594 | 110° | 51km/h | 2716m | 5.0m/s | 3.2°C | 92.1% | 0hPa | 3.0V | 00:00:00 | 00:00:00 | 00:00:00 | |
| OE5DRO-10 | 2026-09-03 02:21:44 | 48.22688 | 14.24575 | 107° | 53km/h | 2710m | 7.8m/s | 3.2°C | 91.6% | 0hPa | 3.0V | 00:00:00 | 00:00:00 | 00:00:00 | |
| OE5WHR-10 | 2026-09-03 02:21:43 | 48.22691 | 14.24558 | 109° | 51km/h | 2703m | 5.9m/s | 3.3°C | 91.2% | 0hPa | 3.0V | 00:00:00 | 00:00:00 | 08:30:00 | |
| OE5MMP-10 | 2026-09-03 02:21:41 | 48.22700 | 14.24523 | 114° | 53km/h | 2688m | 6.3m/s | 3.4°C | 89.7% | 0hPa | 3.0V | 00:00:00 | 00:32:59 | 00:00:00 | |
| PG1ADW-2 | 2026-09-03 02:21:39 | 48.22710 | 14.24484 | 109° | 51km/h | 2678m | 4.5m/s | 3.5°C | 89.5% | 0hPa | 3.0V | 00:00:00 | 00:32:57 | 00:00:00 | |
| OE5FHM-15 | 2026-09-03 02:21:34 | 48.22734 | 14.24389 | 107° | 49km/h | 2645m | 5.7m/s | 0°C | 0% | 0hPa | 3.0V | 00:00:00 | 00:32:52 | 00:00:00 | |
| OE5MMP-10 | 2026-09-03 02:21:31 | 48.22746 | 14.24333 | 111° | 51km/h | 2629m | 6.6m/s | 3.9°C | 89.0% | 0hPa | 3.0V | 00:00:00 | 00:32:49 | 00:00:00 | |
| OE3JTB-15 | 2026-09-03 02:21:27 | 48.22760 | 14.24257 | 108° | 47km/h | 2603m | 7.2m/s | 4.2°C | 88.1% | 0hPa | 3.0V | 00:00:00 | 00:00:00 | 08:30:00 | |
| OE5DRO-10 | 2026-09-03 02:21:25 | 48.22768 | 14.24220 | 106° | 47km/h | 2590m | 6.8m/s | 4.3°C | 87.8% | 0hPa | 3.0V | 00:00:00 | 00:00:00 | 00:00:00 | |
| OE5WHR-10 | 2026-09-03 02:21:22 | 48.22779 | 14.24166 | 111° | 47km/h | 2569m | 7.9m/s | 4.5°C | 87.1% | 0hPa | 3.0V | 00:00:00 | 00:00:00 | 00:00:00 | |
| OE5MMP-10 | 2026-09-03 02:21:21 | 48.22783 | 14.24148 | 109° | 47km/h | 2561m | 6.6m/s | 4.5°C | 87.5% | 0hPa | 3.0V | 00:00:00 | 00:32:39 | 00:00:00 | |
| PG1ADW-2 | 2026-09-03 02:21:19 | 48.22794 | 14.24097 | 106° | 47km/h | 2541m | 6.1m/s | 4.7°C | 87.8% | 0hPa | 3.0V | 00:00:00 | 00:00:00 | 00:00:00 | |
| OE5DXL-15 | 2026-09-03 02:21:15 | 48.22804 | 14.24043 | 110° | 46km/h | 2523m | 7.8m/s | 4.9°C | 87.6% | 0hPa | 3.0V | 00:00:00 | 00:00:00 | 00:00:00 | |
| OE5HKT-10 | 2026-09-03 02:21:13 | 48.22812 | 14.24008 | 108° | 47km/h | 2511m | 7.6m/s | 5.0°C | 87.4% | 0hPa | 3.0V | 00:00:00 | 00:00:00 | 00:00:00 | |
| OE5MMP-10 | 2026-09-03 02:21:11 | 48.22819 | 14.23975 | 110° | 47km/h | 2499m | 6.8m/s | 5.1°C | 87.0% | 0hPa | 3.0V | 00:00:00 | 00:32:29 | 00:00:00 | |
| OE5DRO-10 | 2026-09-03 02:21:06 | 48.22837 | 14.23891 | 108° | 46km/h | 2469m | 6.8m/s | 5.3°C | 89.6% | 0hPa | 3.0V | 00:00:00 | 00:00:00 | 00:00:00 | |
| OE5FHM-15 | 2026-09-03 02:21:04 | 48.22845 | 14.23856 | 107° | 44km/h | 2458m | 5.9m/s | 0°C | 0% | 0hPa | 3.0V | 00:00:00 | 00:32:22 | 00:00:00 | |
| OE5MMP-10 | 2026-09-03 02:21:01 | 48.22853 | 14.23801 | 105° | 46km/h | 2440m | 6.3m/s | 5.5°C | 92.3% | 0hPa | 3.0V | 00:00:00 | 00:32:19 | 00:00:00 | |
| PG1ADW-2 | 2026-09-03 02:20:59 | 48.22860 | 14.23768 | 107° | 46km/h | 2428m | 5.5m/s | 5.5°C | 94.6% | 0hPa | 3.0V | 00:00:00 | 00:00:00 | 00:00:00 | |
| OE3JTB-15 | 2026-09-03 02:20:58 | 48.22863 | 14.23751 | 104° | 46km/h | 2423m | 5.8m/s | 5.6°C | 94.6% | 0hPa | 3.0V | 00:00:00 | 00:00:00 | 00:00:00 | |
| OE5HKT-10 | 2026-09-03 02:20:52 | 48.22882 | 14.23652 | 103° | 44km/h | 2390m | 5.3m/s | 5.9°C | 93.3% | 0hPa | 3.0V | 00:00:00 | 00:32:10 | 00:00:00 | |
| OE5MMP-10 | 2026-09-03 02:20:51 | 48.22884 | 14.23636 | 103° | 46km/h | 2385m | 5.1m/s | 5.9°C | 93.3% | 0hPa | 3.0V | 00:00:00 | 00:32:09 | 00:00:00 | |
| OE5DRO-10 | 2026-09-03 02:20:47 | 48.22895 | 14.23569 | 106° | 44km/h | 2362m | 6.9m/s | 6.1°C | 92.7% | 0hPa | 3.0V | 00:00:00 | 00:00:00 | 08:30:00 | |
| OE5DXL-15 | 2026-09-03 02:20:45 | 48.22901 | 14.23535 | 104° | 42km/h | 2348m | 6.9m/s | 6.1°C | 92.6% | 0hPa | 3.0V | 00:00:00 | 00:00:00 | 00:00:00 | |
| OE5MMP-10 | 2026-09-03 02:20:41 | 48.22912 | 14.23469 | 106° | 44km/h | 2323m | 6.3m/s | 6.4°C | 91.3% | 0hPa | 3.0V | 00:00:00 | 00:31:59 | 00:00:00 | |
| OE5WHR-10 | 2026-09-03 02:20:40 | 48.22915 | 14.23451 | 102° | 42km/h | 2318m | 4.1m/s | 6.4°C | 91.4% | 0hPa | 3.0V | 00:00:00 | 00:00:00 | 00:00:00 | |
| PG1ADW-2 | 2026-09-03 02:20:39 | 48.22917 | 14.23435 | 98° | 42km/h | 2313m | 7.5m/s | 6.5°C | 90.8% | 0hPa | 3.0V | 00:00:00 | 00:00:00 | 00:00:00 | |
| OE5HKT-10 | 2026-09-03 02:20:31 | 48.22935 | 14.23307 | 108° | 40km/h | 2262m | 6.8m/s | 6.9°C | 87.8% | 0hPa | 3.0V | 00:00:00 | 00:00:00 | 00:00:00 | |
| OE3JTB-15 | 2026-09-03 02:20:29 | 48.22941 | 14.23275 | 108° | 38km/h | 2249m | 6.3m/s | 7.1°C | 87.1% | 0hPa | 3.0V | 00:00:00 | 00:31:47 | 00:00:00 | |
| OE5DRO-10 | 2026-09-03 02:20:28 | 48.22944 | 14.23260 | 108° | 40km/h | 2243m | 6.8m/s | 7.1°C | 86.6% | 0hPa | 3.0V | 00:00:00 | 00:00:00 | 00:00:00 | |
| OE5FHM-15 | 2026-09-03 02:20:24 | 48.22953 | 14.23197 | 100° | 40km/h | 2219m | 6.3m/s | 0°C | 0% | 0hPa | 3.0V | 00:00:00 | 00:31:42 | 00:00:00 | |
| OE5MMP-10 | 2026-09-03 02:20:21 | 48.22958 | 14.23155 | 103° | 40km/h | 2201m | 6.8m/s | 7.3°C | 88.3% | 0hPa | 3.0V | 00:00:00 | 00:31:39 | 08:30:00 | |
| OE5WHR-10 | 2026-09-03 02:20:19 | 48.22963 | 14.23128 | 107° | 38km/h | 2189m | 5.0m/s | 7.5°C | 87.7% | 0hPa | 3.0V | 00:00:00 | 00:00:00 | 00:00:00 | |
| OE5DXL-15 | 2026-09-03 02:20:15 | 48.22974 | 14.23068 | 103° | 38km/h | 2165m | 5.7m/s | 7.7°C | 85.7% | 0hPa | 3.0V | 00:00:00 | 00:00:00 | 00:00:00 | |
| OE5MMP-10 | 2026-09-03 02:20:11 | 48.22984 | 14.23008 | 100° | 37km/h | 2139m | 7.7m/s | 7.9°C | 86.6% | 0hPa | 3.0V | 00:00:00 | 00:31:29 | 00:00:00 | |
| OE5HKT-10 | 2026-09-03 02:20:10 | 48.22985 | 14.22992 | 98° | 37km/h | 2133m | 6.0m/s | 7.9°C | 87.0% | 0hPa | 3.0V | 00:00:00 | 00:00:00 | 00:00:00 | |
| OE5DRO-10 | 2026-09-03 02:20:09 | 48.22986 | 14.22977 | 100° | 37km/h | 2126m | 7.6m/s | 8.0°C | 86.6% | 0hPa | 3.0V | 00:00:00 | 00:00:00 | 00:00:00 | |
| OE5MMP-10 | 2026-09-03 02:20:01 | 48.23001 | 14.22869 | 107° | 38km/h | 2074m | 6.5m/s | 8.5°C | 84.4% | 0hPa | 3.0V | 00:00:00 | 00:31:19 | 00:00:00 | |
| OE3JTB-15 | 2026-09-03 02:20:00 | 48.23003 | 14.22856 | 103° | 38km/h | 2067m | 7.2m/s | 8.5°C | 84.5% | 0hPa | 3.0V | 00:00:00 | 00:00:00 | 00:00:00 | |
| PG1ADW-2 | 2026-09-03 02:19:59 | 48.23005 | 14.22841 | 100° | 38km/h | 2060m | 6.7m/s | 8.6°C | 84.0% | 0hPa | 3.0V | 00:00:00 | 00:00:00 | 08:30:00 | |
| OE5WHR-10 | 2026-09-03 02:19:58 | 48.23007 | 14.22826 | 101° | 37km/h | 2053m | 6.5m/s | 8.6°C | 84.5% | 0hPa | 3.0V | 00:00:00 | 00:31:16 | 00:00:00 | |
| OE5FHM-15 | 2026-09-03 02:19:54 | 48.23013 | 14.22768 | 101° | 37km/h | 2028m | 6.6m/s | 0°C | 0% | 0hPa | 3.0V | 00:00:00 | 00:31:12 | 00:00:00 | |
| OE5MMP-10 | 2026-09-03 02:19:51 | 48.23018 | 14.22728 | 98° | 37km/h | 2009m | 6.9m/s | 0°C | 0% | 0hPa | 3.0V | 00:00:00 | 00:31:09 | 00:00:00 | |
| OE5DRO-10 | 2026-09-03 02:19:50 | 48.23019 | 14.22715 | 101° | 38km/h | 2001m | 8.2m/s | 9.1°C | 82.3% | 0hPa | 3.0V | 00:00:00 | 00:00:00 | 00:00:00 | |
| OE5HKT-10 | 2026-09-03 02:19:48 | 48.23022 | 14.22687 | 98° | 38km/h | 1989m | 6.6m/s | 9.2°C | 81.4% | 0hPa | 3.0V | 00:00:00 | 00:31:06 | 00:00:00 | |
| OE5DXL-15 | 2026-09-03 02:19:45 | 48.23027 | 14.22647 | 106° | 38km/h | 1970m | 5.8m/s | 9.4°C | 80.5% | 0hPa | 3.0V | 00:00:00 | 00:00:00 | 00:00:00 | |
| OE5MMP-10 | 2026-09-03 02:19:41 | 48.23035 | 14.22590 | 106° | 38km/h | 1948m | 6.0m/s | 0°C | 0% | 0hPa | 3.0V | 00:00:00 | 00:30:59 | 00:00:00 | |
| PG1ADW-2 | 2026-09-03 02:19:39 | 48.23040 | 14.22562 | 103° | 38km/h | 1936m | 6.9m/s | 9.7°C | 79.3% | 0hPa | 3.0V | 00:00:00 | 00:00:00 | 00:00:00 | |
| OE5DRO-10 | 2026-09-03 02:19:31 | 48.23059 | 14.22446 | 103° | 38km/h | 1890m | 6.4m/s | 10.2°C | 77.2% | 0hPa | 3.0V | 00:00:00 | 00:00:00 | 00:00:00 | |
| OE3JTB-15 | 2026-09-03 02:19:31 | 48.23059 | 14.22446 | 103° | 38km/h | 1890m | 6.4m/s | 10.2°C | 77.2% | 0hPa | 3.0V | 00:00:00 | 00:00:00 | 00:00:00 | |
| OE5MMP-10 | 2026-09-03 02:19:31 | 48.23059 | 14.22446 | 103° | 38km/h | 1890m | 6.4m/s | 0°C | 0% | 0hPa | 3.0V | 00:00:00 | 00:30:49 | 00:00:00 | |
| OE5HKT-10 | 2026-09-03 02:19:27 | 48.23067 | 14.22390 | 103° | 38km/h | 1864m | 6.6m/s | 10.4°C | 76.3% | 0hPa | 3.0V | 00:00:00 | 00:00:00 | 08:30:00 | |
| OE5MMP-10 | 2026-09-03 02:19:21 | 48.23078 | 14.22306 | 101° | 37km/h | 1828m | 6.3m/s | 0°C | 0% | 0hPa | 3.0V | 00:00:00 | 00:30:39 | 00:00:00 | |
| OE5FHM-15 | 2026-09-03 02:19:20 | 48.23080 | 14.22293 | 104° | 37km/h | 1822m | 5.6m/s | 0°C | 0% | 0hPa | 3.0V | 00:00:00 | 00:30:38 | 00:00:00 | |
| PG1ADW-2 | 2026-09-03 02:19:19 | 48.23082 | 14.22280 | 104° | 37km/h | 1815m | 6.9m/s | 10.9°C | 74.8% | 0hPa | 3.0V | 00:00:00 | 00:00:00 | 00:00:00 | |
| OE5WHR-10 | 2026-09-03 02:19:16 | 48.23086 | 14.22238 | 99° | 37km/h | 1798m | 5.6m/s | 11.0°C | 74.2% | 0hPa | 3.0V | 00:00:00 | 00:00:00 | 00:00:00 | |
| OE5DXL-15 | 2026-09-03 02:19:15 | 48.23088 | 14.22223 | 102° | 33km/h | 1792m | 6.0m/s | 11.1°C | 73.9% | 0hPa | 3.0V | 00:00:00 | 00:00:00 | 00:00:00 | |
| OE5DRO-10 | 2026-09-03 02:19:12 | 48.23093 | 14.22182 | 102° | 35km/h | 1774m | 4.5m/s | 11.1°C | 74.0% | 0hPa | 3.0V | 00:00:00 | 00:00:00 | 00:00:00 | |
| OE5MMP-10 | 2026-09-03 02:19:11 | 48.23095 | 14.22168 | 104° | 38km/h | 1769m | 5.7m/s | 0°C | 0% | 0hPa | 3.0V | 00:00:00 | 00:30:29 | 00:00:00 | |
| OE5HKT-10 | 2026-09-03 02:19:06 | 48.23102 | 14.22094 | 101° | 31km/h | 1742m | 5.7m/s | 11.3°C | 74.1% | 0hPa | 3.0V | 00:00:00 | 00:00:00 | 00:00:00 | |
| OE5MMP-10 | 2026-09-03 02:19:01 | 48.23110 | 14.22027 | 105° | 31km/h | 1711m | 5.6m/s | 0°C | 0% | 0hPa | 3.0V | 00:00:00 | 00:30:19 | 00:00:00 | |
| PG1ADW-2 | 2026-09-03 02:18:59 | 48.23113 | 14.22003 | 96° | 31km/h | 1698m | 4.7m/s | 11.6°C | 72.8% | 0hPa | 3.0V | 00:00:00 | 00:30:17 | 00:00:00 | |
| OE5WHR-10 | 2026-09-03 02:18:55 | 48.23119 | 14.21957 | 102° | 31km/h | 1676m | 7.7m/s | 11.8°C | 72.1% | 0hPa | 3.0V | 00:00:00 | 00:30:13 | 00:00:00 | |
| OE5DRO-10 | 2026-09-03 02:18:53 | 48.23122 | 14.21937 | 103° | 31km/h | 1663m | 7.1m/s | 11.9°C | 71.6% | 0hPa | 3.0V | 00:00:00 | 00:00:00 | 00:00:00 | |
| OE5FHM-15 | 2026-09-03 02:18:50 | 48.23125 | 14.21908 | 98° | 31km/h | 1645m | 5.4m/s | 0°C | 0% | 0hPa | 3.0V | 00:00:00 | 00:30:08 | 00:00:00 | |
| OE5MMP-10 | 2026-09-03 02:18:49 | 48.23126 | 14.21896 | 96° | 31km/h | 1640m | 5.9m/s | 0°C | 0% | 0hPa | 3.0V | 00:00:00 | 00:30:07 | 00:00:00 | |
| OE5DXL-15 | 2026-09-03 02:18:45 | 48.23130 | 14.21848 | 98° | 31km/h | 1615m | 6.3m/s | 12.3°C | 70.2% | 0hPa | 3.0V | 00:00:00 | 00:00:00 | 00:00:00 | |
| OE5HKT-10 | 2026-09-03 02:18:45 | 48.23130 | 14.21848 | 98° | 31km/h | 1615m | 6.3m/s | 12.3°C | 70.2% | 0hPa | 3.0V | 00:00:00 | 00:30:03 | 00:00:00 | |
| PG1ADW-2 | 2026-09-03 02:18:39 | 48.23138 | 14.21778 | 98° | 29km/h | 1580m | 5.6m/s | 12.7°C | 69.0% | 0hPa | 3.0V | 00:00:00 | 00:00:00 | 00:00:00 | |
| OE5DRO-10 | 2026-09-03 02:18:34 | 48.23147 | 14.21720 | 109° | 29km/h | 1552m | 5.5m/s | 12.9°C | 68.3% | 0hPa | 3.0V | 00:00:00 | 00:00:00 | 00:00:00 | |
| OE5WHR-10 | 2026-09-03 02:18:34 | 48.23147 | 14.21720 | 109° | 29km/h | 1552m | 5.5m/s | 12.9°C | 68.3% | 0hPa | 3.0V | 00:00:00 | 00:00:00 | 08:30:00 | |
| OE3JTB-15 | 2026-09-03 02:18:33 | 48.23150 | 14.21710 | 116° | 29km/h | 1547m | 6.6m/s | 12.9°C | 68.0% | 0hPa | 3.0V | 00:00:00 | 00:00:00 | 00:00:00 | |
| OE5HKT-10 | 2026-09-03 02:18:24 | 48.23164 | 14.21610 | 104° | 29km/h | 1489m | 8.0m/s | 13.5°C | 66.1% | 0hPa | 3.0V | 00:00:00 | 00:00:00 | 00:00:00 | |
| OE5FHM-15 | 2026-09-03 02:18:20 | 48.23167 | 14.21569 | 88° | 29km/h | 1466m | 2.4m/s | 0°C | 0% | 0hPa | 3.0V | 00:00:00 | 00:29:38 | 08:30:00 | |
| PG1ADW-2 | 2026-09-03 02:18:19 | 48.23167 | 14.21558 | 90° | 31km/h | 1461m | 9.1m/s | 13.7°C | 65.8% | 0hPa | 3.0V | 00:00:00 | 00:00:00 | 00:00:00 | |
| OE5DRO-10 | 2026-09-03 02:18:15 | 48.23168 | 14.21510 | 93° | 29km/h | 1435m | 5.3m/s | 13.9°C | 65.3% | 0hPa | 3.0V | 00:00:00 | 00:00:00 | 00:00:00 | |
| OE5DXL-15 | 2026-09-03 02:18:15 | 48.23168 | 14.21510 | 93° | 29km/h | 1435m | 5.3m/s | 0°C | 0% | 0hPa | 3.0V | 00:00:00 | 00:29:33 | 00:00:00 | |
| OE5WHR-10 | 2026-09-03 02:18:13 | 48.23169 | 14.21486 | 92° | 29km/h | 1421m | 7.2m/s | 14.1°C | 64.5% | 0hPa | 3.0V | 00:00:00 | 00:00:00 | 00:00:00 | |
| OE3JTB-15 | 2026-09-03 02:18:04 | 48.23177 | 14.21386 | 92° | 29km/h | 1366m | 6.2m/s | 14.5°C | 63.4% | 0hPa | 3.0V | 00:00:00 | 00:00:00 | 00:00:00 | |
| OE5HKT-10 | 2026-09-03 02:18:03 | 48.23178 | 14.21375 | 94° | 29km/h | 1360m | 5.7m/s | 14.6°C | 63.3% | 0hPa | 3.0V | 00:00:00 | 00:00:00 | 00:00:00 | |
| PG1ADW-2 | 2026-09-03 02:17:59 | 48.23178 | 14.21328 | 91° | 29km/h | 1336m | 6.4m/s | 14.8°C | 62.6% | 0hPa | 3.0V | 00:00:00 | 00:00:00 | 00:00:00 | |
| OE5DRO-10 | 2026-09-03 02:17:56 | 48.23182 | 14.21294 | 101° | 29km/h | 1319m | 4.3m/s | 15.0°C | 62.1% | 0hPa | 3.0V | 00:00:00 | 00:00:00 | 08:30:00 | |
| OE5WHR-10 | 2026-09-03 02:17:52 | 48.23182 | 14.21253 | 91° | 29km/h | 1294m | 8.5m/s | 15.3°C | 61.0% | 0hPa | 3.0V | 00:00:00 | 00:29:10 | 00:00:00 | |
| OE5DXL-15 | 2026-09-03 02:17:45 | 48.23184 | 14.21180 | 91° | 29km/h | 1249m | 5.8m/s | 0°C | 0% | 0hPa | 3.0V | 00:00:00 | 00:00:00 | 00:00:00 | |
| OE5HKT-10 | 2026-09-03 02:17:42 | 48.23183 | 14.21147 | 95° | 29km/h | 1230m | 8.4m/s | 15.8°C | 59.5% | 0hPa | 3.0V | 00:00:00 | 00:29:00 | 00:00:00 | |
| PG1ADW-2 | 2026-09-03 02:17:39 | 48.23184 | 14.21112 | 89° | 27km/h | 1212m | 3.8m/s | 0°C | 0% | 0hPa | 3.0V | 00:00:00 | 00:28:57 | 00:00:00 | |
| OE5DRO-10 | 2026-09-03 02:17:37 | 48.23184 | 14.21090 | 98° | 27km/h | 1198m | 6.8m/s | 16.1°C | 58.7% | 0hPa | 3.0V | 00:00:00 | 00:00:00 | 00:00:00 | |
| OE3JTB-15 | 2026-09-03 02:17:35 | 48.23185 | 14.21068 | 90° | 27km/h | 1185m | 7.5m/s | 0°C | 0% | 0hPa | 3.0V | 00:00:00 | 00:28:53 | 00:00:00 | |
| OE5WHR-10 | 2026-09-03 02:17:31 | 48.23187 | 14.21027 | 99° | 27km/h | 1158m | 7.6m/s | 16.4°C | 57.9% | 0hPa | 3.0V | 00:00:00 | 00:00:00 | 00:00:00 | |
| OE5HKT-10 | 2026-09-03 02:17:20 | 48.23194 | 14.20909 | 87° | 26km/h | 1087m | 8.7m/s | 0°C | 0% | 0hPa | 3.0V | 00:00:00 | 00:00:00 | 00:00:00 | |
| PG1ADW-2 | 2026-09-03 02:17:19 | 48.23194 | 14.20900 | 96° | 26km/h | 1079m | 6.1m/s | 0°C | 0% | 0hPa | 3.0V | 00:00:00 | 00:00:00 | 00:00:00 | |
| OE5DRO-10 | 2026-09-03 02:17:18 | 48.23194 | 14.20890 | 96° | 26km/h | 1074m | 4.6m/s | 17.0°C | 56.9% | 0hPa | 3.0V | 00:00:00 | 00:00:00 | 00:00:00 | |
| OE5WHR-10 | 2026-09-03 02:17:10 | 48.23199 | 14.20817 | 90° | 26km/h | 1023m | 7.6m/s | 17.5°C | 55.5% | 0hPa | 3.0V | 00:00:00 | 00:00:00 | 00:00:00 | |
| OE3JTB-15 | 2026-09-03 02:17:06 | 48.23199 | 14.20776 | 91° | 24km/h | 998m | 6.5m/s | 0°C | 0% | 0hPa | 3.0V | 00:00:00 | 00:00:00 | 00:00:00 | |
| PG1ADW-2 | 2026-09-03 02:16:59 | 48.23195 | 14.20710 | 90° | 27km/h | 957m | 5.1m/s | 0°C | 0% | 0hPa | 3.0V | 00:00:00 | 00:00:00 | 00:00:00 | |
| OE5DRO-10 | 2026-09-03 02:16:59 | 48.23195 | 14.20710 | 90° | 24km/h | 957m | 5.1m/s | 17.8°C | 55.5% | 0hPa | 3.0V | 00:00:00 | 00:00:00 | 00:00:00 | |
| OE5HKT-10 | 2026-09-03 02:16:59 | 48.23195 | 14.20710 | 90° | 26km/h | 957m | 5.1m/s | 0°C | 0% | 0hPa | 3.0V | 00:00:00 | 00:00:00 | 00:00:00 | |
| OE5WHR-10 | 2026-09-03 02:16:49 | 48.23197 | 14.20619 | 112° | 26km/h | 899m | 5.6m/s | 18.2°C | 54.7% | 0hPa | 3.0V | 00:00:00 | 00:28:07 | 00:00:00 | |
| OE5HKT-10 | 2026-09-03 02:16:38 | 48.23201 | 14.20516 | 85° | 20km/h | 837m | 6.3m/s | 0°C | 0% | 0hPa | 3.0V | 00:00:00 | 00:27:56 | 00:00:00 | |
| OE5WHR-10 | 2026-09-03 02:16:28 | 48.23192 | 14.20425 | 96° | 18km/h | 785m | 5.2m/s | 18.9°C | 55.4% | 0hPa | 3.0V | 00:00:00 | 00:00:00 | 00:00:00 | |
| OE5DRO-10 | 2026-09-03 02:16:21 | 48.23191 | 14.20376 | 105° | 18km/h | 746m | 5.0m/s | 19.2°C | 55.3% | 0hPa | 3.0V | 00:00:00 | 00:00:00 | 00:00:00 | |
| OE5HKT-10 | 2026-09-03 02:16:16 | 48.23192 | 14.20347 | 125° | 22km/h | 721m | 4.6m/s | 0°C | 0% | 0hPa | 3.0V | 00:00:00 | 00:00:00 | 00:00:00 | |
| OE5WHR-10 | 2026-09-03 02:16:07 | 48.23197 | 14.20290 | 67° | 18km/h | 679m | 5.1m/s | 0°C | 0% | 0hPa | 3.0V | 00:00:00 | 00:00:00 | 00:00:00 | |
| OE5DRO-10 | 2026-09-03 02:16:02 | 48.23193 | 14.20261 | 92° | 18km/h | 657m | 6.0m/s | 19.0°C | 56.5% | 0hPa | 3.0V | 00:00:00 | 00:00:00 | 00:00:00 | |
| OE5WHR-10 | 2026-09-03 02:15:46 | 48.23186 | 14.20199 | 318° | 16km/h | 574m | 3.8m/s | 0°C | 0% | 0hPa | 0V | 00:00:00 | 00:27:04 | 00:00:00 | |
| OE5DRO-10 | 2026-09-03 02:15:43 | 48.23193 | 14.20190 | 152° | 16km/h | 559m | 6.2m/s | 0°C | 0% | 0hPa | 0V | 00:00:00 | 00:00:00 | 00:00:00 | |
| OE5WHR-10 | 2026-09-03 02:15:25 | 48.23200 | 14.20140 | 92° | 22km/h | 457m | 6.4m/s | 0°C | 0% | 0hPa | 0V | 00:00:00 | 00:00:00 | 00:00:00 | |
| OE5DRO-10 | 2026-09-03 02:15:24 | 48.23199 | 14.20133 | 71° | 16km/h | 452m | 4.2m/s | 0°C | 0% | 0hPa | 0V | 00:00:00 | 00:00:00 | 00:00:00 | |
| OE5DRO-10 | 2026-09-03 02:15:05 | 48.23205 | 14.20093 | 76° | 5km/h | 355m | 2.3m/s | 0°C | 0% | 0hPa | 0V | 00:00:00 | 00:00:00 | 08:30:00 |